GFSMA_prec_precacc24_009.txt.gz
Total_Precipitation_Accumulation
0.00 0.00 0.00 0.00 0.00 0.00 0.00 0.00 0.00 0.00 0.00 0.00 0.00 0.00 0.00 0.00 0.00 0.00 0.00 0.00 0.00 0.00 0.00 0.00 0.00 0.00 0.00 0.00 0.01 0.04 0.04 0.03 0.02 0.03 0.04 0.04 0.04 0.02 0.02 0.04 0.06 0.07 0.08
0.00 0.00 0.00 0.00 0.00 0.00 0.00 0.00 0.00 0.00 0.00 0.00 0.00 0.00 0.00 0.00 0.00 0.00 0.00 0.00 0.00 0.00 0.00 0.00 0.00 0.00 0.00 0.00 0.00 0.00 0.00 0.00 0.00 0.01 0.01 0.01 0.01 0.02 0.01 0.03 0.05 0.06 0.07
0.00 0.00 0.00 0.00 0.00 0.00 0.00 0.00 0.00 0.00 0.00 0.00 0.00 0.00 0.00 0.00 0.00 0.00 0.00 0.00 0.00 0.00 0.00 0.00 0.00 0.00 0.00 0.00 0.00 0.00 0.00 0.00 0.00 0.00 0.00 0.00 0.00 0.00 0.00 0.00 0.01 0.03 0.05
0.00 0.00 0.00 0.00 0.00 0.00 0.00 0.00 0.00 0.00 0.00 0.00 0.00 0.00 0.00 0.00 0.00 0.00 0.00 0.00 0.00 0.00 0.00 0.00 0.00 0.00 0.00 0.00 0.00 0.00 0.00 0.00 0.00 0.00 0.00 0.00 0.00 0.00 0.00 0.00 0.00 0.00 0.00
0.00 0.00 0.00 0.00 0.00 0.00 0.00 0.00 0.00 0.00 0.00 0.00 0.00 0.00 0.00 0.00 0.00 0.00 0.00 0.00 0.00 0.00 0.00 0.00 0.00 0.00 0.00 0.00 0.00 0.00 0.00 0.00 0.00 0.00 0.00 0.00 0.00 0.00 0.00 0.00 0.00 0.00 0.00
0.00 0.00 0.00 0.00 0.00 0.00 0.00 0.00 0.00 0.00 0.00 0.00 0.00 0.00 0.00 0.00 0.00 0.00 0.00 0.00 0.00 0.00 0.00 0.00 0.00 0.00 0.00 0.00 0.00 0.00 0.00 0.00 0.00 0.00 0.00 0.00 0.00 0.00 0.00 0.00 0.00 0.00 0.00
0.00 0.00 0.00 0.00 0.00 0.00 0.00 0.00 0.00 0.00 0.00 0.00 0.00 0.00 0.00 0.00 0.00 0.00 0.00 0.00 0.00 0.00 0.00 0.00 0.00 0.00 0.00 0.00 0.00 0.00 0.00 0.00 0.00 0.00 0.00 0.00 0.00 0.00 0.00 0.00 0.00 0.00 0.00
0.00 0.00 0.00 0.00 0.00 0.00 0.00 0.00 0.00 0.00 0.00 0.00 0.00 0.00 0.00 0.00 0.00 0.00 0.00 0.00 0.00 0.00 0.00 0.00 0.00 0.00 0.00 0.00 0.00 0.00 0.00 0.00 0.00 0.00 0.00 0.00 0.00 0.00 0.00 0.00 0.00 0.00 0.00
0.00 0.00 0.00 0.00 0.00 0.00 0.00 0.00 0.00 0.00 0.00 0.00 0.00 0.00 0.00 0.00 0.00 0.00 0.00 0.00 0.00 0.00 0.00 0.00 0.00 0.00 0.00 0.00 0.00 0.00 0.00 0.00 0.00 0.00 0.00 0.00 0.00 0.00 0.00 0.00 0.00 0.00 0.00
0.00 0.00 0.00 0.00 0.00 0.00 0.00 0.00 0.00 0.00 0.00 0.00 0.00 0.00 0.00 0.00 0.00 0.00 0.00 0.00 0.00 0.00 0.00 0.00 0.00 0.00 0.00 0.00 0.00 0.00 0.00 0.00 0.00 0.00 0.00 0.00 0.00 0.00 0.00 0.00 0.00 0.00 0.00
0.00 0.00 0.00 0.00 0.00 0.00 0.00 0.00 0.00 0.00 0.00 0.00 0.00 0.00 0.00 0.00 0.00 0.00 0.00 0.00 0.00 0.00 0.00 0.00 0.00 0.00 0.00 0.00 0.00 0.00 0.00 0.00 0.00 0.00 0.00 0.00 0.00 0.00 0.00 0.00 0.00 0.00 0.00
0.00 0.00 0.00 0.00 0.00 0.00 0.00 0.00 0.00 0.00 0.00 0.00 0.00 0.00 0.00 0.00 0.00 0.00 0.00 0.00 0.00 0.00 0.00 0.00 0.00 0.00 0.00 0.00 0.00 0.00 0.00 0.00 0.00 0.00 0.00 0.00 0.00 0.00 0.00 0.00 0.00 0.00 0.01
0.00 0.00 0.00 0.00 0.00 0.00 0.00 0.00 0.00 0.00 0.00 0.00 0.00 0.00 0.00 0.00 0.00 0.00 0.00 0.00 0.00 0.00 0.00 0.00 0.00 0.00 0.00 0.00 0.00 0.00 0.00 0.00 0.00 0.00 0.00 0.00 0.00 0.00 0.00 0.00 0.00 0.01 0.02
0.00 0.00 0.00 0.00 0.00 0.00 0.00 0.00 0.00 0.00 0.00 0.00 0.00 0.00 0.00 0.00 0.00 0.00 0.00 0.00 0.00 0.00 0.00 0.00 0.00 0.00 0.00 0.00 0.00 0.00 0.00 0.00 0.00 0.00 0.00 0.00 0.00 0.00 0.00 0.00 0.00 0.00 0.00
0.00 0.00 0.00 0.00 0.00 0.00 0.00 0.00 0.00 0.00 0.00 0.00 0.00 0.00 0.00 0.00 0.00 0.00 0.00 0.00 0.00 0.00 0.00 0.00 0.00 0.00 0.00 0.00 0.00 0.00 0.00 0.00 0.00 0.00 0.00 0.00 0.00 0.00 0.00 0.00 0.00 0.00 0.01
0.00 0.00 0.00 0.00 0.00 0.00 0.00 0.00 0.00 0.00 0.00 0.00 0.00 0.00 0.00 0.00 0.00 0.00 0.00 0.00 0.00 0.00 0.00 0.00 0.00 0.00 0.00 0.00 0.00 0.00 0.00 0.00 0.00 0.00 0.01 0.01 0.00 0.00 0.00 0.01 0.01 0.02 0.04
0.00 0.00 0.00 0.00 0.00 0.00 0.00 0.00 0.00 0.00 0.00 0.00 0.00 0.00 0.00 0.00 0.00 0.00 0.00 0.00 0.00 0.00 0.00 0.00 0.00 0.00 0.00 0.00 0.00 0.00 0.00 0.00 0.00 0.01 0.01 0.00 0.00 0.00 0.00 0.01 0.03 0.03 0.04
0.00 0.00 0.00 0.00 0.00 0.00 0.00 0.00 0.00 0.00 0.00 0.00 0.00 0.00 0.00 0.00 0.00 0.00 0.00 0.00 0.00 0.00 0.00 0.01 0.00 0.00 0.00 0.00 0.00 0.00 0.00 0.00 0.00 0.00 0.00 0.00 0.00 0.00 0.00 0.01 0.03 0.06 0.09
0.00 0.00 0.00 0.00 0.00 0.00 0.00 0.00 0.00 0.00 0.00 0.00 0.00 0.00 0.00 0.00 0.00 0.00 0.00 0.00 0.00 0.00 0.00 0.01 0.00 0.00 0.00 0.01 0.01 0.00 0.00 0.00 0.00 0.00 0.00 0.00 0.00 0.00 0.00 0.02 0.05 0.06 0.06
0.00 0.00 0.00 0.00 0.00 0.00 0.00 0.00 0.00 0.00 0.00 0.00 0.00 0.00 0.00 0.00 0.00 0.00 0.00 0.00 0.00 0.00 0.00 0.01 0.05 0.03 0.02 0.02 0.01 0.00 0.00 0.00 0.00 0.00 0.00 0.00 0.00 0.00 0.00 0.00 0.00 0.00 0.00
0.00 0.00 0.00 0.00 0.00 0.00 0.00 0.00 0.00 0.00 0.00 0.00 0.00 0.00 0.00 0.00 0.00 0.00 0.00 0.00 0.00 0.01 0.07 0.13 0.07 0.07 0.04 0.00 0.00 0.00 0.00 0.00 0.01 0.00 0.00 0.00 0.00 0.00 0.00 0.00 0.00 0.00 0.00
0.00 0.00 0.00 0.00 0.00 0.00 0.00 0.00 0.00 0.00 0.00 0.00 0.00 0.00 0.00 0.00 0.00 0.00 0.00 0.00 0.02 0.11 0.11 0.10 0.09 0.01 0.00 0.00 0.00 0.02 0.04 0.03 0.01 0.00 0.00 0.00 0.00 0.00 0.00 0.00 0.00 0.01 0.01
0.00 0.00 0.00 0.00 0.00 0.00 0.00 0.00 0.00 0.00 0.00 0.00 0.00 0.00 0.00 0.00 0.00 0.00 0.00 0.05 0.10 0.05 0.04 0.02 0.00 0.00 0.01 0.03 0.08 0.04 0.02 0.03 0.02 0.00 0.01 0.02 0.00 0.00 0.00 0.00 0.00 0.00 0.01
0.00 0.00 0.00 0.00 0.00 0.00 0.00 0.00 0.00 0.00 0.00 0.00 0.00 0.00 0.00 0.00 0.00 0.01 0.07 0.12 0.04 0.01 0.00 0.00 0.00 0.01 0.03 0.02 0.00 0.01 0.03 0.05 0.01 0.00 0.00 0.03 0.00 0.00 0.00 0.00 0.00 0.00 0.00
0.00 0.00 0.00 0.00 0.00 0.00 0.00 0.00 0.00 0.00 0.00 0.00 0.00 0.00 0.00 0.00 0.01 0.05 0.05 0.02 0.00 0.00 0.00 0.00 0.02 0.01 0.00 0.00 0.00 0.05 0.06 0.05 0.02 0.00 0.00 0.01 0.00 0.00 0.00 0.00 0.00 0.00 0.00
0.00 0.00 0.00 0.00 0.00 0.00 0.00 0.00 0.00 0.00 0.00 0.00 0.00 0.00 0.00 0.01 0.04 0.06 0.01 0.00 0.00 0.00 0.05 0.02 0.00 0.00 0.00 0.00 0.00 0.01 0.06 0.16 0.06 0.05 0.00 0.06 0.03 0.02 0.09 0.01 0.00 0.00 0.00

GFSMA_prec_precacc24_015.txt.gz
Total_Precipitation_Accumulation
0.00 0.00 0.00 0.00 0.00 0.00 0.00 0.00 0.00 0.00 0.00 0.00 0.00 0.00 0.00 0.00 0.00 0.00 0.00 0.00 0.00 0.00 0.00 0.00 0.00 0.00 0.00 0.00 0.01 0.04 0.04 0.03 0.02 0.03 0.04 0.04 0.04 0.02 0.02 0.04 0.06 0.07 0.08
0.00 0.00 0.00 0.00 0.00 0.00 0.00 0.00 0.00 0.00 0.00 0.00 0.00 0.00 0.00 0.00 0.00 0.00 0.00 0.00 0.00 0.00 0.00 0.00 0.00 0.00 0.00 0.00 0.00 0.00 0.00 0.00 0.00 0.01 0.01 0.01 0.01 0.02 0.01 0.03 0.05 0.06 0.07
0.00 0.00 0.00 0.00 0.00 0.00 0.00 0.00 0.00 0.00 0.00 0.00 0.00 0.00 0.00 0.00 0.00 0.00 0.00 0.00 0.00 0.00 0.00 0.00 0.00 0.00 0.00 0.00 0.00 0.00 0.00 0.00 0.00 0.00 0.00 0.00 0.00 0.00 0.00 0.00 0.01 0.03 0.05
0.00 0.00 0.00 0.00 0.00 0.00 0.00 0.00 0.00 0.00 0.00 0.00 0.00 0.00 0.00 0.00 0.00 0.00 0.00 0.00 0.00 0.00 0.00 0.00 0.00 0.00 0.00 0.00 0.00 0.00 0.00 0.00 0.00 0.00 0.00 0.00 0.00 0.00 0.00 0.00 0.00 0.00 0.00
0.00 0.00 0.00 0.00 0.00 0.00 0.00 0.00 0.00 0.00 0.00 0.00 0.00 0.00 0.00 0.00 0.00 0.00 0.00 0.00 0.00 0.00 0.00 0.00 0.00 0.00 0.00 0.00 0.00 0.00 0.00 0.00 0.00 0.00 0.00 0.00 0.00 0.00 0.00 0.00 0.00 0.00 0.00
0.00 0.00 0.00 0.00 0.00 0.00 0.00 0.00 0.00 0.00 0.00 0.00 0.00 0.00 0.00 0.00 0.00 0.00 0.00 0.00 0.00 0.00 0.00 0.00 0.00 0.00 0.00 0.00 0.00 0.00 0.00 0.00 0.00 0.00 0.00 0.00 0.00 0.00 0.00 0.00 0.00 0.00 0.00
0.00 0.00 0.00 0.00 0.00 0.00 0.00 0.00 0.00 0.00 0.00 0.00 0.00 0.00 0.00 0.00 0.00 0.00 0.00 0.00 0.00 0.00 0.00 0.00 0.00 0.00 0.00 0.00 0.00 0.00 0.00 0.00 0.00 0.00 0.00 0.00 0.00 0.00 0.00 0.00 0.00 0.00 0.00
0.00 0.00 0.00 0.00 0.00 0.00 0.00 0.00 0.00 0.00 0.00 0.00 0.00 0.00 0.00 0.00 0.00 0.00 0.00 0.00 0.00 0.00 0.00 0.00 0.00 0.00 0.00 0.00 0.00 0.00 0.00 0.00 0.00 0.00 0.00 0.00 0.00 0.00 0.00 0.00 0.00 0.00 0.00
0.00 0.00 0.00 0.00 0.00 0.00 0.00 0.00 0.00 0.00 0.00 0.00 0.00 0.00 0.00 0.00 0.00 0.00 0.00 0.00 0.00 0.00 0.00 0.00 0.00 0.00 0.00 0.00 0.00 0.00 0.00 0.00 0.00 0.00 0.00 0.00 0.00 0.00 0.00 0.00 0.00 0.00 0.00
0.00 0.00 0.00 0.00 0.00 0.00 0.00 0.00 0.00 0.00 0.00 0.00 0.00 0.00 0.00 0.00 0.00 0.00 0.00 0.00 0.00 0.00 0.00 0.00 0.00 0.00 0.00 0.00 0.00 0.00 0.00 0.00 0.00 0.00 0.00 0.00 0.00 0.00 0.00 0.00 0.00 0.00 0.00
0.00 0.00 0.00 0.00 0.00 0.00 0.00 0.00 0.00 0.00 0.00 0.00 0.00 0.00 0.00 0.00 0.00 0.00 0.00 0.00 0.00 0.00 0.00 0.00 0.00 0.00 0.00 0.00 0.00 0.00 0.00 0.00 0.00 0.00 0.00 0.00 0.00 0.00 0.00 0.00 0.00 0.00 0.01
0.00 0.00 0.00 0.00 0.00 0.00 0.00 0.00 0.00 0.00 0.00 0.00 0.00 0.00 0.00 0.00 0.00 0.00 0.00 0.00 0.00 0.00 0.00 0.00 0.00 0.00 0.00 0.00 0.00 0.00 0.00 0.00 0.00 0.00 0.00 0.00 0.00 0.00 0.00 0.00 0.00 0.02 0.03
0.00 0.00 0.00 0.00 0.00 0.00 0.00 0.00 0.00 0.00 0.00 0.00 0.00 0.00 0.00 0.00 0.00 0.00 0.00 0.00 0.00 0.00 0.00 0.00 0.00 0.00 0.00 0.00 0.00 0.00 0.00 0.00 0.00 0.00 0.00 0.00 0.00 0.00 0.00 0.00 0.00 0.02 0.05
0.00 0.00 0.00 0.00 0.00 0.00 0.00 0.00 0.00 0.00 0.00 0.00 0.00 0.00 0.00 0.00 0.00 0.00 0.00 0.00 0.00 0.00 0.00 0.00 0.00 0.00 0.00 0.00 0.00 0.00 0.00 0.00 0.00 0.00 0.00 0.00 0.00 0.00 0.00 0.00 0.02 0.03 0.05
0.00 0.00 0.00 0.00 0.00 0.00 0.00 0.00 0.00 0.00 0.00 0.00 0.00 0.00 0.00 0.00 0.00 0.00 0.00 0.00 0.00 0.00 0.00 0.00 0.00 0.00 0.00 0.00 0.00 0.00 0.00 0.00 0.00 0.00 0.00 0.00 0.00 0.01 0.01 0.01 0.01 0.02 0.02
0.00 0.00 0.00 0.00 0.00 0.00 0.00 0.00 0.00 0.00 0.00 0.00 0.00 0.00 0.00 0.00 0.00 0.00 0.00 0.00 0.00 0.00 0.00 0.00 0.00 0.00 0.00 0.00 0.00 0.00 0.00 0.00 0.00 0.00 0.01 0.01 0.01 0.00 0.00 0.01 0.01 0.02 0.05
0.00 0.00 0.00 0.00 0.00 0.00 0.00 0.00 0.00 0.00 0.00 0.00 0.00 0.00 0.00 0.00 0.00 0.00 0.00 0.00 0.00 0.00 0.00 0.00 0.00 0.00 0.00 0.00 0.00 0.00 0.00 0.00 0.00 0.01 0.01 0.00 0.00 0.00 0.01 0.01 0.03 0.04 0.05
0.00 0.00 0.00 0.00 0.00 0.00 0.00 0.00 0.00 0.00 0.00 0.00 0.00 0.00 0.00 0.00 0.00 0.00 0.00 0.00 0.00 0.00 0.00 0.01 0.00 0.00 0.00 0.00 0.00 0.00 0.00 0.00 0.00 0.00 0.00 0.00 0.00 0.00 0.01 0.01 0.03 0.06 0.11
0.00 0.00 0.00 0.00 0.00 0.00 0.00 0.00 0.00 0.00 0.00 0.00 0.00 0.00 0.00 0.00 0.00 0.00 0.00 0.00 0.00 0.00 0.00 0.01 0.00 0.00 0.00 0.01 0.01 0.00 0.00 0.00 0.00 0.00 0.00 0.00 0.00 0.00 0.00 0.02 0.05 0.06 0.06
0.00 0.00 0.00 0.00 0.00 0.00 0.00 0.00 0.00 0.00 0.00 0.00 0.00 0.00 0.00 0.00 0.00 0.00 0.00 0.00 0.00 0.00 0.00 0.01 0.07 0.05 0.04 0.02 0.01 0.00 0.00 0.00 0.00 0.00 0.00 0.00 0.00 0.00 0.00 0.00 0.00 0.00 0.00
0.00 0.00 0.00 0.00 0.00 0.00 0.00 0.00 0.00 0.00 0.00 0.00 0.00 0.00 0.00 0.00 0.00 0.00 0.00 0.00 0.00 0.02 0.09 0.18 0.12 0.09 0.04 0.00 0.00 0.00 0.00 0.01 0.01 0.00 0.00 0.00 0.00 0.00 0.00 0.00 0.00 0.00 0.00
0.00 0.00 0.00 0.00 0.00 0.00 0.00 0.00 0.00 0.00 0.00 0.00 0.00 0.00 0.00 0.00 0.00 0.00 0.00 0.00 0.03 0.15 0.18 0.16 0.12 0.02 0.00 0.00 0.00 0.02 0.06 0.05 0.03 0.00 0.00 0.00 0.00 0.00 0.00 0.00 0.00 0.01 0.01
0.00 0.00 0.00 0.00 0.00 0.00 0.00 0.00 0.00 0.00 0.00 0.00 0.00 0.00 0.00 0.00 0.00 0.00 0.00 0.06 0.13 0.10 0.07 0.04 0.01 0.00 0.01 0.03 0.10 0.07 0.04 0.04 0.03 0.00 0.02 0.02 0.00 0.00 0.00 0.00 0.00 0.00 0.01
0.00 0.00 0.00 0.00 0.00 0.00 0.00 0.00 0.00 0.00 0.00 0.00 0.00 0.00 0.00 0.00 0.00 0.01 0.08 0.16 0.06 0.02 0.00 0.00 0.00 0.01 0.04 0.04 0.03 0.03 0.04 0.06 0.02 0.00 0.00 0.03 0.00 0.00 0.00 0.00 0.00 0.00 0.00
0.00 0.00 0.00 0.00 0.00 0.00 0.00 0.00 0.00 0.00 0.00 0.00 0.00 0.00 0.00 0.01 0.01 0.06 0.08 0.04 0.00 0.00 0.00 0.01 0.02 0.01 0.00 0.00 0.00 0.06 0.07 0.07 0.04 0.00 0.00 0.01 0.00 0.00 0.00 0.00 0.00 0.00 0.00
0.00 0.00 0.00 0.00 0.00 0.00 0.00 0.00 0.00 0.00 0.00 0.00 0.00 0.00 0.00 0.01 0.04 0.07 0.02 0.00 0.00 0.00 0.05 0.02 0.00 0.00 0.00 0.00 0.00 0.01 0.07 0.22 0.08 0.07 0.00 0.08 0.04 0.03 0.12 0.01 0.00 0.00 0.00

GFSMA_prec_precacc24_018.txt.gz
Total_Precipitation_Accumulation
0.00 0.00 0.00 0.00 0.00 0.00 0.00 0.00 0.00 0.00 0.00 0.00 0.00 0.00 0.00 0.00 0.00 0.00 0.00 0.00 0.00 0.00 0.00 0.00 0.00 0.00 0.00 0.00 0.01 0.04 0.04 0.03 0.02 0.03 0.04 0.04 0.04 0.02 0.02 0.04 0.06 0.07 0.08
0.00 0.00 0.00 0.00 0.00 0.00 0.00 0.00 0.00 0.00 0.00 0.00 0.00 0.00 0.00 0.00 0.00 0.00 0.00 0.00 0.00 0.00 0.00 0.00 0.00 0.00 0.00 0.00 0.00 0.00 0.00 0.00 0.00 0.01 0.01 0.01 0.01 0.02 0.01 0.03 0.05 0.06 0.07
0.00 0.00 0.00 0.00 0.00 0.00 0.00 0.00 0.00 0.00 0.00 0.00 0.00 0.00 0.00 0.00 0.00 0.00 0.00 0.00 0.00 0.00 0.00 0.00 0.00 0.00 0.00 0.00 0.00 0.00 0.00 0.00 0.00 0.00 0.00 0.00 0.00 0.00 0.00 0.00 0.01 0.03 0.05
0.00 0.00 0.00 0.00 0.00 0.00 0.00 0.00 0.00 0.00 0.00 0.00 0.00 0.00 0.00 0.00 0.00 0.00 0.00 0.00 0.00 0.00 0.00 0.00 0.00 0.00 0.00 0.00 0.00 0.00 0.00 0.00 0.00 0.00 0.00 0.00 0.00 0.00 0.00 0.00 0.00 0.00 0.00
0.00 0.00 0.00 0.00 0.00 0.00 0.00 0.00 0.00 0.00 0.00 0.00 0.00 0.00 0.00 0.00 0.00 0.00 0.00 0.00 0.00 0.00 0.00 0.00 0.00 0.00 0.00 0.00 0.00 0.00 0.00 0.00 0.00 0.00 0.00 0.00 0.00 0.00 0.00 0.00 0.00 0.00 0.00
0.00 0.00 0.00 0.00 0.00 0.00 0.00 0.00 0.00 0.00 0.00 0.00 0.00 0.00 0.00 0.00 0.00 0.00 0.00 0.00 0.00 0.00 0.00 0.00 0.00 0.00 0.00 0.00 0.00 0.00 0.00 0.00 0.00 0.00 0.00 0.00 0.00 0.00 0.00 0.00 0.00 0.00 0.00
0.00 0.00 0.00 0.00 0.00 0.00 0.00 0.00 0.00 0.00 0.00 0.00 0.00 0.00 0.00 0.00 0.00 0.00 0.00 0.00 0.00 0.00 0.00 0.00 0.00 0.00 0.00 0.00 0.00 0.00 0.00 0.00 0.00 0.00 0.00 0.00 0.00 0.00 0.00 0.00 0.00 0.00 0.00
0.00 0.00 0.00 0.00 0.00 0.00 0.00 0.00 0.00 0.00 0.00 0.00 0.00 0.00 0.00 0.00 0.00 0.00 0.00 0.00 0.00 0.00 0.00 0.00 0.00 0.00 0.00 0.00 0.00 0.00 0.00 0.00 0.00 0.00 0.00 0.00 0.00 0.00 0.00 0.00 0.00 0.00 0.00
0.00 0.00 0.00 0.00 0.00 0.00 0.00 0.00 0.00 0.00 0.00 0.00 0.00 0.00 0.00 0.00 0.00 0.00 0.00 0.00 0.00 0.00 0.00 0.00 0.00 0.00 0.00 0.00 0.00 0.00 0.00 0.00 0.00 0.00 0.00 0.00 0.00 0.00 0.00 0.00 0.00 0.00 0.00
0.00 0.00 0.00 0.00 0.00 0.00 0.00 0.00 0.00 0.00 0.00 0.00 0.00 0.00 0.00 0.00 0.00 0.00 0.00 0.00 0.00 0.00 0.00 0.00 0.00 0.00 0.00 0.00 0.00 0.00 0.00 0.00 0.00 0.00 0.00 0.00 0.00 0.00 0.00 0.00 0.00 0.00 0.00
0.00 0.00 0.00 0.00 0.00 0.00 0.00 0.00 0.00 0.00 0.00 0.00 0.00 0.00 0.00 0.00 0.00 0.00 0.00 0.00 0.00 0.00 0.00 0.00 0.00 0.00 0.00 0.00 0.00 0.00 0.00 0.00 0.00 0.00 0.00 0.00 0.00 0.00 0.00 0.00 0.00 0.00 0.01
0.00 0.00 0.00 0.00 0.00 0.00 0.00 0.00 0.00 0.00 0.00 0.00 0.00 0.00 0.00 0.00 0.00 0.00 0.00 0.00 0.00 0.00 0.00 0.00 0.00 0.00 0.00 0.00 0.00 0.00 0.00 0.00 0.00 0.00 0.00 0.00 0.00 0.00 0.00 0.00 0.00 0.02 0.03
0.00 0.00 0.00 0.00 0.00 0.00 0.00 0.00 0.00 0.00 0.00 0.00 0.00 0.00 0.00 0.00 0.00 0.00 0.00 0.00 0.00 0.00 0.00 0.00 0.00 0.00 0.00 0.00 0.00 0.00 0.00 0.00 0.00 0.00 0.00 0.00 0.00 0.00 0.00 0.00 0.00 0.02 0.05
0.00 0.00 0.00 0.00 0.00 0.00 0.00 0.00 0.00 0.00 0.00 0.00 0.00 0.00 0.00 0.00 0.00 0.00 0.00 0.00 0.00 0.00 0.00 0.00 0.00 0.00 0.00 0.00 0.00 0.00 0.00 0.00 0.00 0.00 0.00 0.00 0.00 0.00 0.00 0.00 0.02 0.03 0.05
0.00 0.00 0.00 0.00 0.00 0.00 0.00 0.00 0.00 0.00 0.00 0.00 0.00 0.00 0.00 0.00 0.00 0.00 0.00 0.00 0.00 0.00 0.00 0.00 0.00 0.00 0.00 0.00 0.00 0.00 0.00 0.00 0.00 0.00 0.00 0.00 0.00 0.01 0.01 0.01 0.01 0.02 0.02
0.00 0.00 0.00 0.00 0.00 0.00 0.00 0.00 0.00 0.00 0.00 0.00 0.00 0.00 0.00 0.00 0.00 0.00 0.00 0.00 0.00 0.00 0.00 0.00 0.00 0.00 0.00 0.00 0.00 0.00 0.00 0.00 0.00 0.00 0.01 0.01 0.01 0.00 0.00 0.01 0.01 0.02 0.05
0.00 0.00 0.00 0.00 0.00 0.00 0.00 0.00 0.00 0.00 0.00 0.00 0.00 0.00 0.00 0.00 0.00 0.00 0.00 0.00 0.00 0.00 0.00 0.00 0.00 0.00 0.00 0.00 0.00 0.00 0.00 0.00 0.00 0.01 0.01 0.00 0.00 0.00 0.01 0.01 0.03 0.04 0.05
0.00 0.00 0.00 0.00 0.00 0.00 0.00 0.00 0.00 0.00 0.00 0.00 0.00 0.00 0.00 0.00 0.00 0.00 0.00 0.00 0.00 0.00 0.00 0.01 0.00 0.00 0.00 0.00 0.00 0.00 0.00 0.00 0.00 0.00 0.00 0.00 0.00 0.00 0.01 0.02 0.04 0.06 0.11
0.00 0.00 0.00 0.00 0.00 0.00 0.00 0.00 0.00 0.00 0.00 0.00 0.00 0.00 0.00 0.00 0.00 0.00 0.00 0.00 0.00 0.00 0.00 0.01 0.00 0.00 0.00 0.01 0.02 0.00 0.00 0.00 0.00 0.00 0.00 0.00 0.00 0.00 0.00 0.02 0.05 0.07 0.06
0.00 0.00 0.00 0.00 0.00 0.00 0.00 0.00 0.00 0.00 0.00 0.00 0.00 0.00 0.00 0.00 0.00 0.00 0.00 0.00 0.00 0.00 0.00 0.01 0.07 0.05 0.04 0.03 0.01 0.00 0.00 0.00 0.00 0.00 0.00 0.00 0.00 0.00 0.00 0.00 0.00 0.00 0.00
0.00 0.00 0.00 0.00 0.00 0.00 0.00 0.00 0.00 0.00 0.00 0.00 0.00 0.00 0.00 0.00 0.00 0.00 0.00 0.00 0.00 0.02 0.09 0.18 0.12 0.10 0.05 0.00 0.00 0.00 0.00 0.01 0.01 0.00 0.00 0.00 0.00 0.00 0.00 0.00 0.00 0.00 0.00
0.00 0.00 0.00 0.00 0.00 0.00 0.00 0.00 0.00 0.00 0.00 0.00 0.00 0.00 0.00 0.00 0.00 0.00 0.00 0.00 0.03 0.15 0.18 0.17 0.14 0.04 0.00 0.00 0.00 0.02 0.06 0.05 0.04 0.00 0.00 0.00 0.00 0.00 0.00 0.00 0.00 0.01 0.01
0.00 0.00 0.00 0.00 0.00 0.00 0.00 0.00 0.00 0.00 0.00 0.00 0.00 0.00 0.00 0.00 0.00 0.00 0.00 0.06 0.13 0.10 0.08 0.05 0.01 0.00 0.01 0.03 0.10 0.08 0.05 0.06 0.04 0.00 0.02 0.02 0.00 0.00 0.00 0.00 0.00 0.00 0.01
0.00 0.00 0.00 0.00 0.00 0.00 0.00 0.00 0.00 0.00 0.00 0.00 0.00 0.00 0.00 0.00 0.00 0.01 0.09 0.16 0.06 0.02 0.00 0.00 0.00 0.01 0.04 0.04 0.04 0.07 0.06 0.06 0.02 0.00 0.00 0.03 0.00 0.00 0.00 0.00 0.00 0.00 0.00
0.00 0.00 0.00 0.00 0.00 0.00 0.00 0.00 0.00 0.00 0.00 0.00 0.00 0.00 0.00 0.01 0.01 0.06 0.08 0.04 0.00 0.00 0.00 0.01 0.02 0.01 0.01 0.00 0.00 0.06 0.07 0.07 0.04 0.00 0.00 0.01 0.00 0.00 0.00 0.00 0.00 0.00 0.00
0.00 0.00 0.00 0.00 0.00 0.00 0.00 0.00 0.00 0.00 0.00 0.00 0.00 0.00 0.00 0.01 0.04 0.07 0.03 0.00 0.00 0.00 0.05 0.02 0.00 0.00 0.00 0.00 0.00 0.01 0.07 0.23 0.09 0.08 0.00 0.10 0.05 0.04 0.14 0.01 0.00 0.00 0.00

GFSMA_prec_precacc24_021.txt.gz
Total_Precipitation_Accumulation
0.00 0.00 0.00 0.00 0.00 0.00 0.00 0.00 0.00 0.00 0.00 0.00 0.00 0.00 0.00 0.00 0.00 0.00 0.00 0.00 0.00 0.00 0.00 0.00 0.00 0.00 0.00 0.00 0.01 0.04 0.04 0.03 0.02 0.03 0.04 0.04 0.04 0.02 0.02 0.04 0.06 0.07 0.08
0.00 0.00 0.00 0.00 0.00 0.00 0.00 0.00 0.00 0.00 0.00 0.00 0.00 0.00 0.00 0.00 0.00 0.00 0.00 0.00 0.00 0.00 0.00 0.00 0.00 0.00 0.00 0.00 0.00 0.00 0.00 0.00 0.00 0.01 0.01 0.01 0.01 0.02 0.01 0.03 0.05 0.06 0.07
0.00 0.00 0.00 0.00 0.00 0.00 0.00 0.00 0.00 0.00 0.00 0.00 0.00 0.00 0.00 0.00 0.00 0.00 0.00 0.00 0.00 0.00 0.00 0.00 0.00 0.00 0.00 0.00 0.00 0.00 0.00 0.00 0.00 0.00 0.00 0.00 0.00 0.00 0.00 0.00 0.01 0.03 0.05
0.00 0.00 0.00 0.00 0.00 0.00 0.00 0.00 0.00 0.00 0.00 0.00 0.00 0.00 0.00 0.00 0.00 0.00 0.00 0.00 0.00 0.00 0.00 0.00 0.00 0.00 0.00 0.00 0.00 0.00 0.00 0.00 0.00 0.00 0.00 0.00 0.00 0.00 0.00 0.00 0.00 0.00 0.00
0.00 0.00 0.00 0.00 0.00 0.00 0.00 0.00 0.00 0.00 0.00 0.00 0.00 0.00 0.00 0.00 0.00 0.00 0.00 0.00 0.00 0.00 0.00 0.00 0.00 0.00 0.00 0.00 0.00 0.00 0.00 0.00 0.00 0.00 0.00 0.00 0.00 0.00 0.00 0.00 0.00 0.00 0.00
0.00 0.00 0.00 0.00 0.00 0.00 0.00 0.00 0.00 0.00 0.00 0.00 0.00 0.00 0.00 0.00 0.00 0.00 0.00 0.00 0.00 0.00 0.00 0.00 0.00 0.00 0.00 0.00 0.00 0.00 0.00 0.00 0.00 0.00 0.00 0.00 0.00 0.00 0.00 0.00 0.00 0.00 0.00
0.00 0.00 0.00 0.00 0.00 0.00 0.00 0.00 0.00 0.00 0.00 0.00 0.00 0.00 0.00 0.00 0.00 0.00 0.00 0.00 0.00 0.00 0.00 0.00 0.00 0.00 0.00 0.00 0.00 0.00 0.00 0.00 0.00 0.00 0.00 0.00 0.00 0.00 0.00 0.00 0.00 0.00 0.00
0.00 0.00 0.00 0.00 0.00 0.00 0.00 0.00 0.00 0.00 0.00 0.00 0.00 0.00 0.00 0.00 0.00 0.00 0.00 0.00 0.00 0.00 0.00 0.00 0.00 0.00 0.00 0.00 0.00 0.00 0.00 0.00 0.00 0.00 0.00 0.00 0.00 0.00 0.00 0.00 0.00 0.00 0.00
0.00 0.00 0.00 0.00 0.00 0.00 0.00 0.00 0.00 0.00 0.00 0.00 0.00 0.00 0.00 0.00 0.00 0.00 0.00 0.00 0.00 0.00 0.00 0.00 0.00 0.00 0.00 0.00 0.00 0.00 0.00 0.00 0.00 0.00 0.00 0.00 0.00 0.00 0.00 0.00 0.00 0.00 0.00
0.00 0.00 0.00 0.00 0.00 0.00 0.00 0.00 0.00 0.00 0.00 0.00 0.00 0.00 0.00 0.00 0.00 0.00 0.00 0.00 0.00 0.00 0.00 0.00 0.00 0.00 0.00 0.00 0.00 0.00 0.00 0.00 0.00 0.00 0.00 0.00 0.00 0.00 0.00 0.00 0.00 0.00 0.00
0.00 0.00 0.00 0.00 0.00 0.00 0.00 0.00 0.00 0.00 0.00 0.00 0.00 0.00 0.00 0.00 0.00 0.00 0.00 0.00 0.00 0.00 0.00 0.00 0.00 0.00 0.00 0.00 0.00 0.00 0.00 0.00 0.00 0.00 0.00 0.00 0.00 0.00 0.00 0.00 0.00 0.00 0.01
0.00 0.00 0.00 0.00 0.00 0.00 0.00 0.00 0.00 0.00 0.00 0.00 0.00 0.00 0.00 0.00 0.00 0.00 0.00 0.00 0.00 0.00 0.00 0.00 0.00 0.00 0.00 0.00 0.00 0.00 0.00 0.00 0.00 0.00 0.00 0.00 0.00 0.00 0.01 0.00 0.00 0.02 0.04
0.01 0.00 0.00 0.00 0.00 0.00 0.00 0.00 0.00 0.00 0.00 0.00 0.00 0.00 0.00 0.00 0.00 0.00 0.00 0.00 0.00 0.00 0.00 0.00 0.00 0.00 0.00 0.00 0.00 0.00 0.00 0.00 0.00 0.00 0.00 0.00 0.00 0.00 0.00 0.00 0.00 0.02 0.05
0.00 0.00 0.00 0.00 0.00 0.00 0.00 0.00 0.00 0.00 0.00 0.00 0.00 0.00 0.00 0.00 0.00 0.00 0.00 0.00 0.00 0.00 0.00 0.00 0.00 0.00 0.00 0.00 0.00 0.00 0.00 0.00 0.00 0.00 0.00 0.00 0.00 0.00 0.00 0.00 0.02 0.03 0.05
0.00 0.00 0.00 0.00 0.00 0.00 0.00 0.00 0.00 0.00 0.00 0.00 0.00 0.00 0.00 0.00 0.00 0.00 0.00 0.00 0.00 0.00 0.00 0.00 0.00 0.00 0.00 0.00 0.00 0.00 0.00 0.00 0.00 0.00 0.00 0.00 0.00 0.01 0.01 0.01 0.01 0.02 0.03
0.00 0.00 0.00 0.00 0.00 0.00 0.00 0.00 0.00 0.00 0.00 0.00 0.00 0.00 0.00 0.00 0.00 0.00 0.00 0.00 0.00 0.00 0.00 0.00 0.00 0.00 0.00 0.00 0.00 0.00 0.00 0.00 0.00 0.00 0.01 0.01 0.01 0.00 0.00 0.01 0.01 0.02 0.05
0.00 0.00 0.00 0.00 0.00 0.00 0.00 0.00 0.00 0.00 0.00 0.00 0.00 0.00 0.00 0.00 0.00 0.00 0.00 0.00 0.00 0.00 0.00 0.00 0.00 0.00 0.00 0.00 0.00 0.00 0.00 0.00 0.00 0.01 0.01 0.00 0.00 0.00 0.01 0.01 0.03 0.04 0.06
0.01 0.00 0.00 0.00 0.00 0.00 0.00 0.00 0.00 0.00 0.00 0.00 0.00 0.00 0.00 0.00 0.00 0.00 0.00 0.00 0.00 0.00 0.00 0.01 0.00 0.00 0.00 0.00 0.00 0.00 0.00 0.00 0.00 0.00 0.00 0.00 0.00 0.00 0.01 0.02 0.04 0.06 0.11
0.00 0.00 0.00 0.00 0.00 0.00 0.00 0.00 0.00 0.00 0.00 0.00 0.00 0.00 0.00 0.00 0.00 0.00 0.00 0.00 0.00 0.00 0.00 0.01 0.00 0.00 0.00 0.01 0.02 0.00 0.00 0.00 0.00 0.00 0.00 0.00 0.00 0.00 0.00 0.02 0.05 0.07 0.06
0.00 0.00 0.00 0.00 0.00 0.00 0.00 0.00 0.00 0.00 0.00 0.00 0.00 0.00 0.00 0.00 0.00 0.00 0.00 0.00 0.00 0.00 0.00 0.01 0.07 0.05 0.04 0.03 0.01 0.00 0.00 0.00 0.00 0.00 0.00 0.00 0.00 0.00 0.00 0.00 0.00 0.00 0.00
0.00 0.00 0.00 0.00 0.00 0.00 0.00 0.00 0.00 0.00 0.00 0.00 0.00 0.00 0.00 0.00 0.00 0.00 0.00 0.00 0.00 0.02 0.09 0.18 0.12 0.10 0.06 0.00 0.00 0.00 0.00 0.01 0.01 0.00 0.00 0.00 0.00 0.00 0.00 0.00 0.00 0.00 0.00
0.00 0.00 0.00 0.00 0.00 0.00 0.00 0.00 0.00 0.00 0.00 0.00 0.00 0.00 0.00 0.00 0.00 0.00 0.00 0.00 0.03 0.15 0.18 0.18 0.15 0.04 0.00 0.00 0.00 0.02 0.06 0.05 0.04 0.00 0.00 0.00 0.00 0.00 0.00 0.00 0.00 0.01 0.01
0.00 0.00 0.00 0.00 0.00 0.00 0.00 0.00 0.00 0.00 0.00 0.00 0.00 0.00 0.00 0.00 0.00 0.00 0.00 0.06 0.13 0.10 0.08 0.05 0.01 0.00 0.01 0.03 0.10 0.09 0.06 0.08 0.05 0.00 0.02 0.02 0.00 0.00 0.00 0.00 0.00 0.00 0.01
0.03 0.02 0.00 0.00 0.00 0.00 0.00 0.00 0.00 0.00 0.00 0.00 0.00 0.00 0.00 0.00 0.00 0.01 0.09 0.16 0.06 0.02 0.00 0.00 0.00 0.01 0.04 0.04 0.05 0.10 0.07 0.06 0.02 0.00 0.00 0.04 0.00 0.00 0.00 0.00 0.00 0.00 0.00
0.02 0.00 0.00 0.00 0.00 0.00 0.00 0.00 0.00 0.00 0.00 0.00 0.00 0.00 0.00 0.01 0.01 0.06 0.08 0.04 0.00 0.00 0.00 0.01 0.02 0.01 0.01 0.00 0.00 0.06 0.07 0.07 0.04 0.00 0.00 0.01 0.00 0.00 0.00 0.00 0.00 0.00 0.00
0.00 0.00 0.00 0.00 0.00 0.00 0.00 0.00 0.00 0.00 0.00 0.00 0.00 0.00 0.00 0.01 0.04 0.07 0.03 0.00 0.00 0.00 0.05 0.02 0.00 0.00 0.00 0.00 0.00 0.01 0.07 0.24 0.11 0.09 0.00 0.12 0.06 0.04 0.16 0.01 0.00 0.00 0.00

GFSMA_prec_precacc24_024.txt.gz
Total_Precipitation_Accumulation
0.00 0.00 0.00 0.00 0.00 0.00 0.00 0.00 0.00 0.00 0.00 0.00 0.00 0.00 0.00 0.00 0.00 0.00 0.00 0.00 0.00 0.00 0.00 0.00 0.00 0.00 0.00 0.00 0.01 0.04 0.04 0.03 0.02 0.03 0.04 0.04 0.04 0.02 0.02 0.04 0.06 0.07 0.08
0.00 0.00 0.00 0.00 0.00 0.00 0.00 0.00 0.00 0.00 0.00 0.00 0.00 0.00 0.00 0.00 0.00 0.00 0.00 0.00 0.00 0.00 0.00 0.00 0.00 0.00 0.00 0.00 0.00 0.00 0.00 0.00 0.00 0.01 0.01 0.01 0.01 0.02 0.01 0.03 0.05 0.06 0.07
0.00 0.00 0.00 0.00 0.00 0.00 0.00 0.00 0.00 0.00 0.00 0.00 0.00 0.00 0.00 0.00 0.00 0.00 0.00 0.00 0.00 0.00 0.00 0.00 0.00 0.00 0.00 0.00 0.00 0.00 0.00 0.00 0.00 0.00 0.00 0.00 0.00 0.00 0.00 0.00 0.01 0.03 0.05
0.00 0.00 0.00 0.00 0.00 0.00 0.00 0.00 0.00 0.00 0.00 0.00 0.00 0.00 0.00 0.00 0.00 0.00 0.00 0.00 0.00 0.00 0.00 0.00 0.00 0.00 0.00 0.00 0.00 0.00 0.00 0.00 0.00 0.00 0.00 0.00 0.00 0.00 0.00 0.00 0.00 0.00 0.00
0.00 0.00 0.00 0.00 0.00 0.00 0.00 0.00 0.00 0.00 0.00 0.00 0.00 0.00 0.00 0.00 0.00 0.00 0.00 0.00 0.00 0.00 0.00 0.00 0.00 0.00 0.00 0.00 0.00 0.00 0.00 0.00 0.00 0.00 0.00 0.00 0.00 0.00 0.00 0.00 0.00 0.00 0.00
0.00 0.00 0.00 0.00 0.00 0.00 0.00 0.00 0.00 0.00 0.00 0.00 0.00 0.00 0.00 0.00 0.00 0.00 0.00 0.00 0.00 0.00 0.00 0.00 0.00 0.00 0.00 0.00 0.00 0.00 0.00 0.00 0.00 0.00 0.00 0.00 0.00 0.00 0.00 0.00 0.00 0.00 0.00
0.00 0.00 0.00 0.00 0.00 0.00 0.00 0.00 0.00 0.00 0.00 0.00 0.00 0.00 0.00 0.00 0.00 0.00 0.00 0.00 0.00 0.00 0.00 0.00 0.00 0.00 0.00 0.00 0.00 0.00 0.00 0.00 0.00 0.00 0.00 0.00 0.00 0.00 0.00 0.00 0.00 0.00 0.00
0.00 0.00 0.00 0.00 0.00 0.00 0.00 0.00 0.00 0.00 0.00 0.00 0.00 0.00 0.00 0.00 0.00 0.00 0.00 0.00 0.00 0.00 0.00 0.00 0.00 0.00 0.00 0.00 0.00 0.00 0.00 0.00 0.00 0.00 0.00 0.00 0.00 0.00 0.00 0.00 0.00 0.00 0.00
0.00 0.00 0.00 0.00 0.00 0.00 0.00 0.00 0.00 0.00 0.00 0.00 0.00 0.00 0.00 0.00 0.00 0.00 0.00 0.00 0.00 0.00 0.00 0.00 0.00 0.00 0.00 0.00 0.00 0.00 0.00 0.00 0.00 0.00 0.00 0.00 0.00 0.00 0.00 0.00 0.00 0.00 0.00
0.00 0.00 0.00 0.00 0.00 0.00 0.00 0.00 0.00 0.00 0.00 0.00 0.00 0.00 0.00 0.00 0.00 0.00 0.00 0.00 0.00 0.00 0.00 0.00 0.00 0.00 0.00 0.00 0.00 0.00 0.00 0.00 0.00 0.00 0.00 0.00 0.00 0.00 0.00 0.00 0.00 0.00 0.00
0.00 0.00 0.00 0.00 0.00 0.00 0.00 0.00 0.00 0.00 0.00 0.00 0.00 0.00 0.00 0.00 0.00 0.00 0.00 0.00 0.00 0.00 0.00 0.00 0.00 0.00 0.00 0.00 0.00 0.00 0.00 0.00 0.00 0.00 0.00 0.00 0.00 0.00 0.00 0.00 0.00 0.00 0.01
0.02 0.01 0.00 0.00 0.00 0.00 0.00 0.00 0.00 0.00 0.00 0.00 0.00 0.00 0.00 0.00 0.00 0.00 0.00 0.00 0.00 0.00 0.00 0.00 0.00 0.00 0.00 0.00 0.00 0.00 0.00 0.00 0.00 0.00 0.00 0.00 0.00 0.00 0.01 0.00 0.00 0.02 0.04
0.03 0.03 0.02 0.01 0.01 0.00 0.00 0.00 0.00 0.00 0.00 0.00 0.00 0.00 0.00 0.00 0.00 0.00 0.00 0.00 0.00 0.00 0.00 0.00 0.00 0.00 0.00 0.00 0.00 0.00 0.00 0.00 0.00 0.00 0.00 0.00 0.00 0.00 0.00 0.00 0.00 0.02 0.05
0.03 0.02 0.02 0.01 0.01 0.00 0.00 0.00 0.00 0.00 0.00 0.00 0.00 0.00 0.00 0.00 0.00 0.00 0.00 0.00 0.00 0.00 0.00 0.00 0.00 0.00 0.00 0.00 0.00 0.00 0.00 0.00 0.00 0.00 0.00 0.00 0.00 0.00 0.00 0.00 0.02 0.03 0.05
0.02 0.01 0.01 0.02 0.01 0.01 0.00 0.00 0.00 0.00 0.00 0.00 0.00 0.00 0.00 0.00 0.00 0.00 0.00 0.00 0.00 0.00 0.00 0.00 0.00 0.00 0.00 0.00 0.00 0.00 0.00 0.00 0.00 0.00 0.00 0.00 0.00 0.01 0.01 0.01 0.02 0.02 0.03
0.01 0.01 0.02 0.02 0.01 0.01 0.00 0.00 0.00 0.00 0.00 0.00 0.00 0.00 0.00 0.00 0.00 0.00 0.00 0.00 0.00 0.00 0.00 0.00 0.00 0.00 0.00 0.00 0.00 0.00 0.00 0.00 0.00 0.00 0.01 0.01 0.01 0.00 0.01 0.01 0.01 0.02 0.05
0.01 0.02 0.03 0.02 0.01 0.00 0.00 0.00 0.00 0.00 0.00 0.00 0.00 0.00 0.00 0.00 0.00 0.00 0.00 0.00 0.00 0.00 0.00 0.00 0.00 0.00 0.00 0.00 0.00 0.00 0.00 0.00 0.00 0.01 0.01 0.00 0.00 0.00 0.01 0.01 0.03 0.04 0.06
0.02 0.02 0.02 0.02 0.01 0.01 0.00 0.00 0.00 0.00 0.00 0.00 0.00 0.00 0.00 0.00 0.00 0.00 0.00 0.00 0.00 0.00 0.00 0.01 0.00 0.00 0.00 0.00 0.00 0.00 0.00 0.00 0.00 0.00 0.00 0.00 0.00 0.00 0.01 0.02 0.04 0.06 0.11
0.02 0.02 0.02 0.02 0.01 0.01 0.00 0.00 0.00 0.00 0.00 0.00 0.00 0.00 0.00 0.00 0.00 0.00 0.00 0.00 0.00 0.00 0.00 0.01 0.00 0.00 0.00 0.01 0.02 0.00 0.00 0.00 0.00 0.00 0.00 0.00 0.00 0.00 0.00 0.03 0.05 0.07 0.07
0.02 0.03 0.05 0.05 0.02 0.01 0.00 0.00 0.00 0.00 0.00 0.00 0.00 0.00 0.00 0.00 0.00 0.00 0.00 0.00 0.00 0.00 0.00 0.01 0.07 0.05 0.04 0.03 0.01 0.00 0.00 0.00 0.00 0.00 0.00 0.00 0.00 0.00 0.00 0.00 0.00 0.00 0.00
0.02 0.01 0.03 0.04 0.03 0.02 0.01 0.00 0.00 0.00 0.00 0.00 0.00 0.00 0.00 0.00 0.00 0.00 0.00 0.00 0.00 0.02 0.09 0.18 0.12 0.10 0.06 0.00 0.00 0.00 0.00 0.01 0.01 0.00 0.00 0.00 0.00 0.00 0.00 0.00 0.00 0.00 0.00
0.04 0.05 0.02 0.02 0.01 0.00 0.00 0.00 0.00 0.00 0.00 0.00 0.00 0.00 0.00 0.00 0.00 0.00 0.00 0.00 0.03 0.15 0.18 0.18 0.15 0.04 0.00 0.00 0.00 0.02 0.06 0.05 0.05 0.00 0.00 0.00 0.00 0.00 0.00 0.00 0.00 0.01 0.01
0.14 0.12 0.07 0.02 0.00 0.00 0.00 0.00 0.00 0.00 0.00 0.00 0.00 0.00 0.00 0.00 0.00 0.00 0.00 0.06 0.13 0.10 0.09 0.06 0.01 0.00 0.01 0.03 0.10 0.09 0.07 0.09 0.05 0.00 0.02 0.02 0.00 0.00 0.00 0.00 0.00 0.00 0.01
0.23 0.20 0.13 0.06 0.04 0.02 0.00 0.00 0.00 0.00 0.00 0.00 0.00 0.00 0.00 0.00 0.00 0.01 0.09 0.16 0.06 0.02 0.00 0.00 0.00 0.01 0.04 0.04 0.06 0.13 0.08 0.06 0.02 0.00 0.00 0.04 0.00 0.00 0.00 0.00 0.00 0.00 0.00
0.31 0.15 0.06 0.02 0.01 0.00 0.00 0.00 0.00 0.00 0.00 0.00 0.00 0.00 0.00 0.01 0.01 0.06 0.08 0.04 0.00 0.00 0.00 0.01 0.02 0.02 0.01 0.00 0.00 0.06 0.07 0.07 0.05 0.00 0.00 0.01 0.00 0.00 0.00 0.00 0.00 0.00 0.00
0.05 0.01 0.00 0.00 0.00 0.00 0.00 0.00 0.00 0.00 0.00 0.00 0.00 0.00 0.00 0.01 0.04 0.08 0.03 0.00 0.00 0.00 0.05 0.02 0.00 0.00 0.00 0.00 0.00 0.01 0.07 0.24 0.11 0.10 0.00 0.12 0.06 0.04 0.17 0.01 0.00 0.00 0.00

GFSMA_prec_precacc24_027.txt.gz
Total_Precipitation_Accumulation
0.00 0.00 0.00 0.00 0.00 0.00 0.00 0.00 0.00 0.00 0.00 0.00 0.00 0.00 0.00 0.00 0.00 0.00 0.00 0.00 0.00 0.00 0.00 0.00 0.00 0.00 0.00 0.00 0.00 0.00 0.00 0.00 0.00 0.00 0.00 0.00 0.00 0.00 0.00 0.00 0.01 0.03 0.05
0.00 0.00 0.00 0.00 0.00 0.00 0.00 0.00 0.00 0.00 0.00 0.00 0.00 0.00 0.00 0.00 0.00 0.00 0.00 0.00 0.00 0.00 0.00 0.00 0.00 0.00 0.00 0.00 0.00 0.00 0.00 0.00 0.00 0.00 0.00 0.00 0.00 0.00 0.00 0.00 0.00 0.00 0.00
0.00 0.00 0.00 0.00 0.00 0.00 0.00 0.00 0.00 0.00 0.00 0.00 0.00 0.00 0.00 0.00 0.00 0.00 0.00 0.00 0.00 0.00 0.00 0.00 0.00 0.00 0.00 0.00 0.00 0.00 0.00 0.00 0.00 0.00 0.00 0.00 0.00 0.00 0.00 0.00 0.00 0.00 0.00
0.00 0.00 0.00 0.00 0.00 0.00 0.00 0.00 0.00 0.00 0.00 0.00 0.00 0.00 0.00 0.00 0.00 0.00 0.00 0.00 0.00 0.00 0.00 0.00 0.00 0.00 0.00 0.00 0.00 0.00 0.00 0.00 0.00 0.00 0.00 0.00 0.00 0.00 0.00 0.00 0.00 0.00 0.00
0.00 0.00 0.00 0.00 0.00 0.00 0.00 0.00 0.00 0.00 0.00 0.00 0.00 0.00 0.00 0.00 0.00 0.00 0.00 0.00 0.00 0.00 0.00 0.00 0.00 0.00 0.00 0.00 0.00 0.00 0.00 0.00 0.00 0.00 0.00 0.00 0.00 0.00 0.00 0.00 0.00 0.00 0.00
0.00 0.00 0.00 0.00 0.00 0.00 0.00 0.00 0.00 0.00 0.00 0.00 0.00 0.00 0.00 0.00 0.00 0.00 0.00 0.00 0.00 0.00 0.00 0.00 0.00 0.00 0.00 0.00 0.00 0.00 0.00 0.00 0.00 0.00 0.00 0.00 0.00 0.00 0.00 0.00 0.00 0.00 0.00
0.00 0.00 0.00 0.00 0.00 0.00 0.00 0.00 0.00 0.00 0.00 0.00 0.00 0.00 0.00 0.00 0.00 0.00 0.00 0.00 0.00 0.00 0.00 0.00 0.00 0.00 0.00 0.00 0.00 0.00 0.00 0.00 0.00 0.00 0.00 0.00 0.00 0.00 0.00 0.00 0.00 0.00 0.00
0.00 0.00 0.00 0.00 0.00 0.00 0.00 0.00 0.00 0.00 0.00 0.00 0.00 0.00 0.00 0.00 0.00 0.00 0.00 0.00 0.00 0.00 0.00 0.00 0.00 0.00 0.00 0.00 0.00 0.00 0.00 0.00 0.00 0.00 0.00 0.00 0.00 0.00 0.00 0.00 0.00 0.00 0.00
0.00 0.00 0.00 0.00 0.00 0.00 0.00 0.00 0.00 0.00 0.00 0.00 0.00 0.00 0.00 0.00 0.00 0.00 0.00 0.00 0.00 0.00 0.00 0.00 0.00 0.00 0.00 0.00 0.00 0.00 0.00 0.00 0.00 0.00 0.00 0.00 0.00 0.00 0.00 0.00 0.00 0.00 0.00
0.04 0.01 0.00 0.00 0.00 0.00 0.00 0.00 0.00 0.00 0.00 0.00 0.00 0.00 0.00 0.00 0.00 0.00 0.00 0.00 0.00 0.00 0.00 0.00 0.00 0.00 0.00 0.00 0.00 0.00 0.00 0.00 0.00 0.00 0.00 0.00 0.00 0.00 0.00 0.00 0.00 0.00 0.00
0.05 0.03 0.03 0.01 0.00 0.00 0.00 0.00 0.00 0.00 0.00 0.00 0.00 0.00 0.00 0.00 0.00 0.00 0.00 0.00 0.00 0.00 0.00 0.00 0.00 0.00 0.00 0.00 0.00 0.00 0.00 0.00 0.00 0.00 0.00 0.00 0.00 0.00 0.00 0.00 0.00 0.00 0.01
0.04 0.04 0.04 0.04 0.01 0.01 0.01 0.00 0.00 0.00 0.00 0.00 0.00 0.00 0.00 0.00 0.00 0.00 0.00 0.00 0.00 0.00 0.00 0.00 0.00 0.00 0.00 0.00 0.00 0.00 0.00 0.00 0.00 0.00 0.00 0.00 0.00 0.00 0.01 0.00 0.00 0.02 0.04
0.04 0.05 0.06 0.04 0.03 0.02 0.01 0.01 0.00 0.00 0.00 0.00 0.00 0.00 0.00 0.00 0.00 0.00 0.00 0.00 0.00 0.00 0.00 0.00 0.00 0.00 0.00 0.00 0.00 0.00 0.00 0.00 0.00 0.00 0.00 0.00 0.00 0.00 0.00 0.00 0.00 0.02 0.05
0.05 0.05 0.05 0.04 0.03 0.03 0.01 0.01 0.00 0.00 0.00 0.00 0.00 0.00 0.00 0.00 0.00 0.00 0.00 0.00 0.00 0.00 0.00 0.00 0.00 0.00 0.00 0.00 0.00 0.00 0.00 0.00 0.00 0.00 0.00 0.00 0.00 0.00 0.00 0.00 0.02 0.03 0.05
0.04 0.03 0.02 0.03 0.03 0.02 0.02 0.01 0.00 0.00 0.00 0.00 0.00 0.00 0.00 0.00 0.00 0.00 0.00 0.00 0.00 0.00 0.00 0.00 0.00 0.00 0.00 0.00 0.00 0.00 0.00 0.00 0.00 0.00 0.00 0.00 0.00 0.01 0.01 0.01 0.01 0.02 0.02
0.04 0.03 0.03 0.03 0.02 0.02 0.01 0.01 0.00 0.00 0.00 0.00 0.00 0.00 0.00 0.00 0.00 0.00 0.00 0.00 0.00 0.00 0.00 0.00 0.00 0.00 0.00 0.00 0.00 0.00 0.00 0.00 0.00 0.00 0.01 0.01 0.01 0.00 0.00 0.01 0.00 0.00 0.03
0.03 0.04 0.04 0.03 0.02 0.01 0.01 0.01 0.02 0.01 0.01 0.00 0.00 0.00 0.00 0.00 0.00 0.00 0.00 0.00 0.00 0.00 0.00 0.00 0.00 0.00 0.00 0.00 0.00 0.00 0.00 0.00 0.00 0.01 0.01 0.00 0.00 0.00 0.00 0.01 0.02 0.02 0.05
0.04 0.04 0.03 0.02 0.02 0.01 0.01 0.01 0.02 0.02 0.02 0.01 0.01 0.01 0.00 0.00 0.00 0.00 0.00 0.00 0.00 0.00 0.00 0.00 0.00 0.00 0.00 0.00 0.00 0.00 0.00 0.00 0.00 0.00 0.00 0.00 0.00 0.00 0.01 0.02 0.03 0.05 0.07
0.06 0.04 0.02 0.02 0.02 0.02 0.01 0.02 0.02 0.01 0.00 0.00 0.00 0.00 0.00 0.00 0.00 0.00 0.00 0.00 0.00 0.00 0.00 0.01 0.00 0.00 0.00 0.01 0.00 0.00 0.00 0.00 0.00 0.00 0.00 0.00 0.00 0.00 0.01 0.02 0.02 0.02 0.03
0.05 0.04 0.05 0.06 0.05 0.04 0.05 0.08 0.07 0.03 0.02 0.00 0.00 0.00 0.00 0.00 0.00 0.00 0.00 0.00 0.00 0.00 0.00 0.00 0.04 0.04 0.03 0.01 0.00 0.00 0.00 0.00 0.00 0.00 0.00 0.00 0.00 0.00 0.00 0.00 0.00 0.00 0.00
0.03 0.02 0.04 0.11 0.14 0.14 0.11 0.06 0.03 0.01 0.00 0.00 0.00 0.00 0.00 0.00 0.00 0.00 0.00 0.00 0.00 0.01 0.07 0.14 0.10 0.06 0.03 0.00 0.00 0.00 0.00 0.00 0.00 0.00 0.00 0.00 0.00 0.00 0.00 0.00 0.00 0.00 0.00
0.05 0.07 0.06 0.05 0.07 0.09 0.10 0.07 0.02 0.00 0.00 0.00 0.00 0.00 0.00 0.00 0.00 0.00 0.00 0.00 0.02 0.14 0.16 0.12 0.09 0.03 0.00 0.00 0.00 0.01 0.04 0.04 0.05 0.00 0.00 0.00 0.00 0.00 0.00 0.00 0.00 0.00 0.01
0.19 0.19 0.15 0.16 0.14 0.07 0.04 0.03 0.01 0.01 0.01 0.00 0.00 0.00 0.00 0.00 0.00 0.00 0.00 0.05 0.11 0.07 0.05 0.04 0.01 0.00 0.00 0.02 0.07 0.08 0.06 0.09 0.04 0.00 0.01 0.01 0.00 0.00 0.00 0.00 0.00 0.00 0.00
0.32 0.32 0.40 0.38 0.33 0.25 0.16 0.10 0.04 0.02 0.01 0.00 0.00 0.00 0.00 0.00 0.00 0.01 0.06 0.11 0.03 0.01 0.00 0.00 0.00 0.01 0.02 0.03 0.06 0.14 0.07 0.04 0.01 0.00 0.00 0.03 0.00 0.00 0.00 0.00 0.00 0.00 0.00
0.55 0.42 0.29 0.20 0.13 0.09 0.04 0.02 0.01 0.00 0.00 0.00 0.00 0.00 0.00 0.01 0.01 0.04 0.05 0.02 0.00 0.00 0.00 0.00 0.02 0.01 0.01 0.00 0.00 0.03 0.04 0.06 0.04 0.00 0.00 0.01 0.00 0.00 0.00 0.00 0.00 0.00 0.00
0.25 0.13 0.10 0.07 0.04 0.01 0.00 0.00 0.00 0.00 0.00 0.00 0.00 0.00 0.00 0.01 0.02 0.05 0.02 0.00 0.00 0.00 0.05 0.02 0.00 0.00 0.00 0.00 0.00 0.00 0.04 0.19 0.10 0.10 0.00 0.11 0.06 0.04 0.15 0.01 0.00 0.00 0.00

GFSMA_prec_precacc24_030.txt.gz
Total_Precipitation_Accumulation
0.00 0.00 0.00 0.00 0.00 0.00 0.00 0.00 0.00 0.00 0.00 0.00 0.00 0.00 0.00 0.00 0.00 0.00 0.00 0.00 0.00 0.00 0.00 0.00 0.00 0.00 0.00 0.00 0.00 0.00 0.00 0.00 0.00 0.00 0.00 0.00 0.00 0.00 0.00 0.00 0.00 0.00 0.00
0.00 0.00 0.00 0.00 0.00 0.00 0.00 0.00 0.00 0.00 0.00 0.00 0.00 0.00 0.00 0.00 0.00 0.00 0.00 0.00 0.00 0.00 0.00 0.00 0.00 0.00 0.00 0.00 0.00 0.00 0.00 0.00 0.00 0.00 0.00 0.00 0.00 0.00 0.00 0.00 0.00 0.00 0.00
0.00 0.00 0.00 0.00 0.00 0.00 0.00 0.00 0.00 0.00 0.00 0.00 0.00 0.00 0.00 0.00 0.00 0.00 0.00 0.00 0.00 0.00 0.00 0.00 0.00 0.00 0.00 0.00 0.00 0.00 0.00 0.00 0.00 0.00 0.00 0.00 0.00 0.00 0.00 0.00 0.00 0.00 0.00
0.00 0.00 0.00 0.00 0.00 0.00 0.00 0.00 0.00 0.00 0.00 0.00 0.00 0.00 0.00 0.00 0.00 0.00 0.00 0.00 0.00 0.00 0.00 0.00 0.00 0.00 0.00 0.00 0.00 0.00 0.00 0.00 0.00 0.00 0.00 0.00 0.00 0.00 0.00 0.00 0.00 0.00 0.00
0.00 0.00 0.00 0.00 0.00 0.00 0.00 0.00 0.00 0.00 0.00 0.00 0.00 0.00 0.00 0.00 0.00 0.00 0.00 0.00 0.00 0.00 0.00 0.00 0.00 0.00 0.00 0.00 0.00 0.00 0.00 0.00 0.00 0.00 0.00 0.00 0.00 0.00 0.00 0.00 0.00 0.00 0.00
0.00 0.00 0.00 0.00 0.00 0.00 0.00 0.00 0.00 0.00 0.00 0.00 0.00 0.00 0.00 0.00 0.00 0.00 0.00 0.00 0.00 0.00 0.00 0.00 0.00 0.00 0.00 0.00 0.00 0.00 0.00 0.00 0.00 0.00 0.00 0.00 0.00 0.00 0.00 0.00 0.00 0.00 0.00
0.03 0.03 0.02 0.00 0.00 0.00 0.00 0.00 0.00 0.00 0.00 0.00 0.00 0.00 0.00 0.00 0.00 0.00 0.00 0.00 0.00 0.00 0.00 0.00 0.00 0.00 0.00 0.00 0.00 0.00 0.00 0.00 0.00 0.00 0.00 0.00 0.00 0.00 0.00 0.00 0.00 0.00 0.00
0.04 0.01 0.00 0.00 0.00 0.00 0.00 0.00 0.00 0.00 0.00 0.00 0.00 0.00 0.00 0.00 0.00 0.00 0.00 0.00 0.00 0.00 0.00 0.00 0.00 0.00 0.00 0.00 0.00 0.00 0.00 0.00 0.00 0.00 0.00 0.00 0.00 0.00 0.00 0.00 0.00 0.00 0.00
0.05 0.00 0.01 0.00 0.00 0.00 0.00 0.00 0.00 0.00 0.00 0.00 0.00 0.00 0.00 0.00 0.00 0.00 0.00 0.00 0.00 0.00 0.00 0.00 0.00 0.00 0.00 0.00 0.00 0.00 0.00 0.00 0.00 0.00 0.00 0.00 0.00 0.00 0.00 0.00 0.00 0.00 0.00
0.12 0.05 0.05 0.04 0.00 0.00 0.00 0.00 0.00 0.00 0.00 0.00 0.00 0.00 0.00 0.00 0.00 0.00 0.00 0.00 0.00 0.00 0.00 0.00 0.00 0.00 0.00 0.00 0.00 0.00 0.00 0.00 0.00 0.00 0.00 0.00 0.00 0.00 0.00 0.00 0.00 0.00 0.00
0.11 0.12 0.11 0.09 0.05 0.04 0.01 0.01 0.00 0.00 0.00 0.00 0.00 0.00 0.00 0.00 0.00 0.00 0.00 0.00 0.00 0.00 0.00 0.00 0.00 0.00 0.00 0.00 0.00 0.00 0.00 0.00 0.00 0.00 0.00 0.00 0.00 0.00 0.00 0.00 0.00 0.00 0.01
0.08 0.06 0.07 0.06 0.05 0.05 0.05 0.03 0.01 0.00 0.00 0.00 0.00 0.00 0.00 0.00 0.00 0.00 0.00 0.00 0.00 0.00 0.00 0.00 0.00 0.00 0.00 0.00 0.00 0.00 0.00 0.00 0.00 0.00 0.00 0.00 0.00 0.00 0.01 0.00 0.00 0.02 0.04
0.06 0.06 0.09 0.07 0.07 0.06 0.05 0.04 0.02 0.01 0.00 0.00 0.00 0.00 0.00 0.00 0.00 0.00 0.00 0.00 0.00 0.00 0.00 0.00 0.00 0.00 0.00 0.00 0.00 0.00 0.00 0.00 0.00 0.00 0.00 0.00 0.00 0.00 0.00 0.00 0.00 0.02 0.05
0.07 0.07 0.08 0.07 0.06 0.06 0.04 0.03 0.03 0.02 0.01 0.01 0.01 0.00 0.00 0.00 0.00 0.00 0.00 0.00 0.00 0.00 0.00 0.00 0.00 0.00 0.00 0.00 0.00 0.00 0.00 0.00 0.00 0.00 0.00 0.00 0.00 0.00 0.00 0.00 0.02 0.03 0.05
0.06 0.08 0.08 0.07 0.06 0.05 0.04 0.03 0.02 0.01 0.01 0.01 0.01 0.00 0.00 0.00 0.00 0.00 0.00 0.00 0.00 0.00 0.00 0.00 0.00 0.00 0.00 0.00 0.00 0.00 0.00 0.00 0.00 0.00 0.00 0.00 0.00 0.01 0.01 0.01 0.01 0.02 0.02
0.05 0.06 0.07 0.08 0.07 0.05 0.02 0.01 0.01 0.01 0.00 0.01 0.01 0.00 0.00 0.00 0.00 0.00 0.00 0.00 0.00 0.00 0.00 0.00 0.00 0.00 0.00 0.00 0.00 0.00 0.00 0.00 0.00 0.00 0.01 0.01 0.01 0.00 0.00 0.00 0.01 0.00 0.02
0.04 0.05 0.07 0.07 0.06 0.04 0.02 0.02 0.02 0.01 0.01 0.01 0.01 0.01 0.00 0.00 0.00 0.00 0.00 0.00 0.00 0.00 0.00 0.00 0.00 0.00 0.00 0.00 0.00 0.00 0.00 0.00 0.00 0.00 0.00 0.00 0.00 0.00 0.01 0.00 0.00 0.01 0.03
0.05 0.06 0.06 0.04 0.03 0.02 0.01 0.02 0.02 0.03 0.04 0.04 0.04 0.04 0.03 0.00 0.00 0.00 0.00 0.00 0.00 0.00 0.00 0.00 0.00 0.00 0.00 0.00 0.00 0.00 0.00 0.00 0.00 0.00 0.00 0.00 0.00 0.00 0.00 0.01 0.02 0.03 0.06
0.07 0.06 0.04 0.03 0.02 0.02 0.01 0.02 0.03 0.05 0.05 0.05 0.04 0.04 0.02 0.00 0.00 0.00 0.00 0.00 0.00 0.00 0.00 0.00 0.00 0.00 0.00 0.01 0.00 0.00 0.00 0.00 0.00 0.00 0.00 0.00 0.00 0.00 0.00 0.01 0.01 0.02 0.02
0.05 0.05 0.06 0.06 0.06 0.04 0.06 0.10 0.13 0.13 0.11 0.08 0.08 0.07 0.04 0.01 0.00 0.00 0.00 0.00 0.00 0.00 0.00 0.00 0.03 0.03 0.03 0.01 0.00 0.00 0.00 0.00 0.00 0.00 0.00 0.00 0.00 0.00 0.00 0.00 0.00 0.00 0.00
0.04 0.03 0.06 0.13 0.16 0.15 0.13 0.10 0.08 0.07 0.06 0.07 0.06 0.05 0.02 0.01 0.00 0.00 0.00 0.00 0.00 0.01 0.06 0.09 0.07 0.04 0.02 0.00 0.00 0.00 0.00 0.00 0.00 0.00 0.00 0.00 0.00 0.00 0.00 0.00 0.00 0.00 0.00
0.06 0.09 0.08 0.08 0.10 0.12 0.19 0.16 0.10 0.08 0.07 0.08 0.07 0.05 0.03 0.01 0.00 0.00 0.00 0.00 0.02 0.10 0.10 0.08 0.06 0.03 0.00 0.00 0.00 0.01 0.03 0.04 0.04 0.00 0.00 0.00 0.00 0.00 0.00 0.00 0.00 0.00 0.00
0.21 0.20 0.18 0.18 0.16 0.12 0.14 0.12 0.12 0.14 0.15 0.12 0.08 0.05 0.02 0.01 0.00 0.00 0.00 0.02 0.07 0.05 0.04 0.03 0.01 0.00 0.00 0.01 0.05 0.06 0.06 0.08 0.04 0.00 0.01 0.01 0.00 0.00 0.00 0.00 0.00 0.00 0.00
0.39 0.40 0.45 0.46 0.48 0.50 0.47 0.38 0.28 0.19 0.13 0.09 0.06 0.03 0.01 0.00 0.00 0.00 0.02 0.06 0.03 0.01 0.00 0.00 0.00 0.00 0.02 0.02 0.06 0.16 0.07 0.03 0.01 0.00 0.00 0.01 0.00 0.00 0.00 0.00 0.00 0.00 0.00
0.71 0.57 0.43 0.37 0.38 0.34 0.23 0.13 0.08 0.06 0.04 0.02 0.01 0.00 0.00 0.00 0.00 0.02 0.04 0.02 0.00 0.00 0.00 0.00 0.01 0.01 0.01 0.01 0.00 0.01 0.02 0.04 0.03 0.00 0.00 0.00 0.00 0.00 0.00 0.00 0.00 0.00 0.00
0.48 0.38 0.26 0.18 0.13 0.09 0.07 0.04 0.01 0.00 0.00 0.00 0.00 0.00 0.00 0.00 0.01 0.04 0.02 0.00 0.00 0.00 0.02 0.01 0.00 0.00 0.00 0.00 0.00 0.00 0.01 0.13 0.08 0.09 0.00 0.09 0.04 0.03 0.13 0.01 0.00 0.00 0.00

GFSMA_prec_precacc24_033.txt.gz
Total_Precipitation_Accumulation
0.00 0.00 0.00 0.00 0.00 0.00 0.00 0.00 0.00 0.00 0.00 0.00 0.00 0.00 0.00 0.00 0.00 0.00 0.00 0.00 0.00 0.00 0.00 0.00 0.00 0.00 0.00 0.00 0.00 0.00 0.00 0.00 0.00 0.00 0.00 0.00 0.00 0.00 0.00 0.00 0.00 0.00 0.00
0.00 0.00 0.00 0.00 0.00 0.00 0.00 0.00 0.00 0.00 0.00 0.00 0.00 0.00 0.00 0.00 0.00 0.00 0.00 0.00 0.00 0.00 0.00 0.00 0.00 0.00 0.00 0.00 0.00 0.00 0.00 0.00 0.00 0.00 0.00 0.00 0.00 0.00 0.00 0.00 0.00 0.00 0.00
0.00 0.00 0.00 0.00 0.00 0.00 0.00 0.00 0.00 0.00 0.00 0.00 0.00 0.00 0.00 0.00 0.00 0.00 0.00 0.00 0.00 0.00 0.00 0.00 0.00 0.00 0.00 0.00 0.00 0.00 0.00 0.00 0.00 0.00 0.00 0.00 0.00 0.00 0.00 0.00 0.00 0.00 0.00
0.00 0.00 0.00 0.00 0.00 0.00 0.00 0.00 0.00 0.00 0.00 0.00 0.00 0.00 0.00 0.00 0.00 0.00 0.00 0.00 0.00 0.00 0.00 0.00 0.00 0.00 0.00 0.00 0.00 0.00 0.00 0.00 0.00 0.00 0.00 0.00 0.00 0.00 0.00 0.00 0.00 0.00 0.00
0.00 0.00 0.00 0.00 0.00 0.00 0.00 0.00 0.00 0.00 0.00 0.00 0.00 0.00 0.00 0.00 0.00 0.00 0.00 0.00 0.00 0.00 0.00 0.00 0.00 0.00 0.00 0.00 0.00 0.00 0.00 0.00 0.00 0.00 0.00 0.00 0.00 0.00 0.00 0.00 0.00 0.00 0.00
0.00 0.00 0.00 0.00 0.00 0.00 0.00 0.00 0.00 0.00 0.00 0.00 0.00 0.00 0.00 0.00 0.00 0.00 0.00 0.00 0.00 0.00 0.00 0.00 0.00 0.00 0.00 0.00 0.00 0.00 0.00 0.00 0.00 0.00 0.00 0.00 0.00 0.00 0.00 0.00 0.00 0.00 0.00
0.05 0.04 0.03 0.00 0.00 0.00 0.00 0.00 0.00 0.00 0.00 0.00 0.00 0.00 0.00 0.00 0.00 0.00 0.00 0.00 0.00 0.00 0.00 0.00 0.00 0.00 0.00 0.00 0.00 0.00 0.00 0.00 0.00 0.00 0.00 0.00 0.00 0.00 0.00 0.00 0.00 0.00 0.00
0.08 0.03 0.02 0.02 0.00 0.00 0.00 0.00 0.00 0.00 0.00 0.00 0.00 0.00 0.00 0.00 0.00 0.00 0.00 0.00 0.00 0.00 0.00 0.00 0.00 0.00 0.00 0.00 0.00 0.00 0.00 0.00 0.00 0.00 0.00 0.00 0.00 0.00 0.00 0.00 0.00 0.00 0.00
0.08 0.02 0.05 0.05 0.04 0.01 0.00 0.00 0.00 0.00 0.00 0.00 0.00 0.00 0.00 0.00 0.00 0.00 0.00 0.00 0.00 0.00 0.00 0.00 0.00 0.00 0.00 0.00 0.00 0.00 0.00 0.00 0.00 0.00 0.00 0.00 0.00 0.00 0.00 0.00 0.00 0.00 0.00
0.16 0.10 0.08 0.12 0.13 0.04 0.00 0.00 0.00 0.00 0.00 0.00 0.00 0.00 0.00 0.00 0.00 0.00 0.00 0.00 0.00 0.00 0.00 0.00 0.00 0.00 0.00 0.00 0.00 0.00 0.00 0.00 0.00 0.00 0.00 0.00 0.00 0.00 0.00 0.00 0.00 0.00 0.00
0.16 0.18 0.14 0.16 0.14 0.11 0.07 0.05 0.01 0.01 0.00 0.00 0.00 0.00 0.00 0.00 0.00 0.00 0.00 0.00 0.00 0.00 0.00 0.00 0.00 0.00 0.00 0.00 0.00 0.00 0.00 0.00 0.00 0.00 0.00 0.00 0.00 0.00 0.00 0.00 0.00 0.00 0.01
0.11 0.10 0.11 0.11 0.13 0.12 0.10 0.09 0.06 0.03 0.01 0.00 0.00 0.00 0.00 0.00 0.00 0.00 0.00 0.00 0.00 0.00 0.00 0.00 0.00 0.00 0.00 0.00 0.00 0.00 0.00 0.00 0.00 0.00 0.00 0.00 0.00 0.00 0.01 0.00 0.00 0.01 0.03
0.07 0.07 0.10 0.10 0.09 0.11 0.12 0.10 0.07 0.05 0.03 0.01 0.00 0.00 0.00 0.00 0.00 0.00 0.00 0.00 0.00 0.00 0.00 0.00 0.00 0.00 0.00 0.00 0.00 0.00 0.00 0.00 0.00 0.00 0.00 0.00 0.00 0.00 0.00 0.00 0.00 0.01 0.04
0.07 0.09 0.11 0.12 0.13 0.12 0.09 0.07 0.06 0.05 0.02 0.02 0.02 0.01 0.01 0.00 0.00 0.00 0.00 0.00 0.00 0.00 0.00 0.00 0.00 0.00 0.00 0.00 0.00 0.00 0.00 0.00 0.00 0.00 0.00 0.00 0.00 0.00 0.00 0.00 0.01 0.03 0.05
0.07 0.08 0.09 0.11 0.12 0.13 0.11 0.09 0.06 0.04 0.03 0.02 0.02 0.01 0.01 0.00 0.00 0.00 0.00 0.00 0.00 0.00 0.00 0.00 0.00 0.00 0.00 0.00 0.00 0.00 0.00 0.00 0.00 0.00 0.00 0.00 0.00 0.00 0.00 0.00 0.01 0.02 0.02
0.05 0.06 0.07 0.09 0.10 0.12 0.13 0.13 0.08 0.04 0.02 0.01 0.01 0.01 0.00 0.00 0.00 0.00 0.00 0.00 0.00 0.00 0.00 0.00 0.00 0.00 0.00 0.00 0.00 0.00 0.00 0.00 0.00 0.00 0.00 0.00 0.00 0.00 0.00 0.00 0.01 0.00 0.01
0.04 0.05 0.07 0.07 0.07 0.05 0.06 0.09 0.09 0.04 0.02 0.01 0.01 0.01 0.01 0.01 0.01 0.01 0.00 0.00 0.00 0.00 0.00 0.00 0.00 0.00 0.00 0.00 0.00 0.00 0.00 0.00 0.00 0.00 0.00 0.00 0.00 0.00 0.01 0.01 0.00 0.01 0.02
0.05 0.06 0.07 0.05 0.03 0.03 0.02 0.03 0.05 0.04 0.05 0.06 0.08 0.09 0.08 0.06 0.07 0.06 0.02 0.02 0.01 0.01 0.01 0.00 0.00 0.00 0.00 0.00 0.00 0.00 0.00 0.00 0.00 0.00 0.00 0.00 0.00 0.00 0.00 0.01 0.01 0.01 0.03
0.07 0.06 0.04 0.03 0.03 0.03 0.02 0.02 0.04 0.05 0.06 0.07 0.08 0.08 0.07 0.06 0.07 0.06 0.05 0.04 0.04 0.03 0.01 0.00 0.00 0.00 0.00 0.00 0.00 0.00 0.00 0.00 0.00 0.00 0.00 0.00 0.00 0.00 0.00 0.01 0.00 0.01 0.01
0.06 0.05 0.06 0.06 0.06 0.05 0.07 0.10 0.13 0.13 0.13 0.13 0.13 0.13 0.13 0.11 0.09 0.08 0.09 0.08 0.04 0.02 0.01 0.00 0.02 0.02 0.01 0.01 0.00 0.00 0.00 0.00 0.00 0.00 0.00 0.00 0.00 0.00 0.00 0.00 0.00 0.00 0.00
0.05 0.04 0.06 0.13 0.16 0.16 0.14 0.11 0.10 0.11 0.12 0.13 0.13 0.14 0.14 0.12 0.10 0.08 0.05 0.04 0.02 0.02 0.03 0.05 0.04 0.03 0.02 0.00 0.00 0.00 0.00 0.00 0.00 0.00 0.00 0.00 0.00 0.00 0.00 0.00 0.00 0.00 0.00
0.07 0.10 0.09 0.10 0.12 0.16 0.29 0.23 0.15 0.12 0.11 0.13 0.16 0.17 0.15 0.12 0.09 0.07 0.05 0.03 0.02 0.05 0.08 0.07 0.06 0.03 0.00 0.00 0.00 0.00 0.01 0.03 0.04 0.00 0.00 0.00 0.00 0.00 0.00 0.00 0.00 0.00 0.00
0.23 0.22 0.21 0.24 0.21 0.18 0.22 0.21 0.25 0.22 0.25 0.26 0.24 0.18 0.13 0.09 0.08 0.07 0.04 0.02 0.03 0.05 0.04 0.03 0.01 0.00 0.00 0.00 0.02 0.05 0.05 0.08 0.04 0.00 0.00 0.00 0.00 0.00 0.00 0.00 0.00 0.00 0.00
0.45 0.52 0.54 0.54 0.58 0.60 0.60 0.49 0.38 0.32 0.28 0.24 0.19 0.14 0.09 0.06 0.03 0.01 0.01 0.03 0.03 0.01 0.00 0.00 0.00 0.00 0.01 0.01 0.06 0.16 0.06 0.02 0.00 0.00 0.00 0.01 0.00 0.00 0.00 0.00 0.00 0.00 0.00
0.76 0.75 0.60 0.50 0.47 0.44 0.36 0.25 0.17 0.14 0.11 0.08 0.04 0.01 0.00 0.00 0.00 0.01 0.03 0.02 0.00 0.00 0.00 0.00 0.00 0.01 0.01 0.01 0.00 0.00 0.01 0.02 0.02 0.00 0.00 0.00 0.00 0.00 0.00 0.00 0.00 0.00 0.00
0.64 0.55 0.53 0.40 0.29 0.20 0.14 0.10 0.06 0.04 0.01 0.00 0.00 0.00 0.00 0.00 0.00 0.02 0.02 0.00 0.00 0.00 0.01 0.01 0.00 0.00 0.00 0.00 0.00 0.00 0.01 0.09 0.07 0.08 0.00 0.07 0.04 0.02 0.10 0.00 0.00 0.00 0.00

GFSMA_prec_precacc24_036.txt.gz
Total_Precipitation_Accumulation
0.00 0.00 0.00 0.00 0.00 0.00 0.00 0.00 0.00 0.00 0.00 0.00 0.00 0.00 0.00 0.00 0.00 0.00 0.00 0.00 0.00 0.00 0.00 0.00 0.00 0.00 0.00 0.00 0.00 0.00 0.00 0.00 0.00 0.00 0.00 0.00 0.00 0.00 0.00 0.00 0.00 0.00 0.00
0.00 0.00 0.00 0.00 0.00 0.00 0.00 0.00 0.00 0.00 0.00 0.00 0.00 0.00 0.00 0.00 0.00 0.00 0.00 0.00 0.00 0.00 0.00 0.00 0.00 0.00 0.00 0.00 0.00 0.00 0.00 0.00 0.00 0.00 0.00 0.00 0.00 0.00 0.00 0.00 0.00 0.00 0.00
0.00 0.00 0.00 0.00 0.00 0.00 0.00 0.00 0.00 0.00 0.00 0.00 0.00 0.00 0.00 0.00 0.00 0.00 0.00 0.00 0.00 0.00 0.00 0.00 0.00 0.00 0.00 0.00 0.00 0.00 0.00 0.00 0.00 0.00 0.00 0.00 0.00 0.00 0.00 0.00 0.00 0.00 0.00
0.00 0.00 0.00 0.00 0.00 0.00 0.00 0.00 0.00 0.00 0.00 0.00 0.00 0.00 0.00 0.00 0.00 0.00 0.00 0.00 0.00 0.00 0.00 0.00 0.00 0.00 0.00 0.00 0.00 0.00 0.00 0.00 0.00 0.00 0.00 0.00 0.00 0.00 0.00 0.00 0.00 0.00 0.00
0.00 0.00 0.00 0.00 0.00 0.00 0.00 0.00 0.00 0.00 0.00 0.00 0.00 0.00 0.00 0.00 0.00 0.00 0.00 0.00 0.00 0.00 0.00 0.00 0.00 0.00 0.00 0.00 0.00 0.00 0.00 0.00 0.00 0.00 0.00 0.00 0.00 0.00 0.00 0.00 0.00 0.00 0.00
0.01 0.00 0.00 0.00 0.00 0.00 0.00 0.00 0.00 0.00 0.00 0.00 0.00 0.00 0.00 0.00 0.00 0.00 0.00 0.00 0.00 0.00 0.00 0.00 0.00 0.00 0.00 0.00 0.00 0.00 0.00 0.00 0.00 0.00 0.00 0.00 0.00 0.00 0.00 0.00 0.00 0.00 0.00
0.07 0.06 0.03 0.00 0.00 0.00 0.00 0.00 0.00 0.00 0.00 0.00 0.00 0.00 0.00 0.00 0.00 0.00 0.00 0.00 0.00 0.00 0.00 0.00 0.00 0.00 0.00 0.00 0.00 0.00 0.00 0.00 0.00 0.00 0.00 0.00 0.00 0.00 0.00 0.00 0.00 0.00 0.00
0.08 0.03 0.03 0.05 0.01 0.00 0.00 0.00 0.00 0.00 0.00 0.00 0.00 0.00 0.00 0.00 0.00 0.00 0.00 0.00 0.00 0.00 0.00 0.00 0.00 0.00 0.00 0.00 0.00 0.00 0.00 0.00 0.00 0.00 0.00 0.00 0.00 0.00 0.00 0.00 0.00 0.00 0.00
0.10 0.03 0.08 0.10 0.07 0.03 0.01 0.01 0.00 0.00 0.00 0.00 0.00 0.00 0.00 0.00 0.00 0.00 0.00 0.00 0.00 0.00 0.00 0.00 0.00 0.00 0.00 0.00 0.00 0.00 0.00 0.00 0.00 0.00 0.00 0.00 0.00 0.00 0.00 0.00 0.00 0.00 0.00
0.17 0.13 0.11 0.15 0.17 0.06 0.02 0.01 0.01 0.00 0.00 0.00 0.00 0.00 0.00 0.00 0.00 0.00 0.00 0.00 0.00 0.00 0.00 0.00 0.00 0.00 0.00 0.00 0.00 0.00 0.00 0.00 0.00 0.00 0.00 0.00 0.00 0.00 0.00 0.00 0.00 0.00 0.00
0.17 0.21 0.19 0.22 0.16 0.14 0.10 0.08 0.03 0.01 0.00 0.00 0.00 0.00 0.00 0.00 0.00 0.00 0.00 0.00 0.00 0.00 0.00 0.00 0.00 0.00 0.00 0.00 0.00 0.00 0.00 0.00 0.00 0.00 0.00 0.00 0.00 0.00 0.00 0.00 0.00 0.00 0.00
0.11 0.11 0.14 0.14 0.15 0.14 0.14 0.13 0.11 0.08 0.04 0.02 0.02 0.01 0.00 0.00 0.00 0.00 0.00 0.00 0.00 0.00 0.00 0.00 0.00 0.00 0.00 0.00 0.00 0.00 0.00 0.00 0.00 0.00 0.00 0.00 0.00 0.00 0.00 0.00 0.00 0.00 0.00
0.07 0.07 0.11 0.11 0.11 0.14 0.19 0.19 0.15 0.11 0.08 0.05 0.03 0.02 0.01 0.00 0.00 0.00 0.00 0.00 0.00 0.00 0.00 0.00 0.00 0.00 0.00 0.00 0.00 0.00 0.00 0.00 0.00 0.00 0.00 0.00 0.00 0.00 0.00 0.00 0.00 0.00 0.00
0.07 0.09 0.12 0.13 0.15 0.16 0.15 0.15 0.14 0.13 0.09 0.07 0.05 0.04 0.02 0.01 0.00 0.00 0.00 0.00 0.00 0.00 0.00 0.00 0.00 0.00 0.00 0.00 0.00 0.00 0.00 0.00 0.00 0.00 0.00 0.00 0.00 0.00 0.00 0.00 0.00 0.00 0.02
0.07 0.08 0.09 0.11 0.14 0.16 0.16 0.17 0.16 0.15 0.12 0.08 0.05 0.03 0.01 0.01 0.01 0.00 0.00 0.00 0.00 0.00 0.00 0.00 0.00 0.00 0.00 0.00 0.00 0.00 0.00 0.00 0.00 0.00 0.00 0.00 0.00 0.00 0.00 0.00 0.00 0.01 0.01
0.05 0.06 0.08 0.09 0.10 0.13 0.15 0.16 0.14 0.13 0.11 0.08 0.05 0.03 0.01 0.01 0.00 0.00 0.00 0.00 0.00 0.01 0.00 0.00 0.00 0.00 0.00 0.00 0.00 0.00 0.00 0.00 0.00 0.00 0.00 0.00 0.00 0.00 0.00 0.00 0.00 0.00 0.01
0.04 0.05 0.08 0.08 0.07 0.06 0.07 0.11 0.12 0.09 0.08 0.08 0.07 0.08 0.08 0.06 0.02 0.01 0.02 0.02 0.03 0.04 0.05 0.04 0.01 0.01 0.01 0.01 0.01 0.00 0.00 0.00 0.00 0.00 0.00 0.00 0.00 0.00 0.01 0.00 0.00 0.00 0.01
0.05 0.06 0.07 0.05 0.04 0.03 0.03 0.04 0.06 0.08 0.07 0.08 0.10 0.10 0.09 0.08 0.10 0.12 0.12 0.12 0.12 0.10 0.06 0.07 0.06 0.07 0.05 0.03 0.01 0.00 0.00 0.00 0.00 0.00 0.00 0.00 0.00 0.00 0.00 0.00 0.01 0.01 0.02
0.08 0.07 0.05 0.04 0.03 0.04 0.03 0.03 0.05 0.08 0.08 0.10 0.12 0.12 0.12 0.12 0.14 0.12 0.12 0.14 0.15 0.15 0.14 0.10 0.05 0.02 0.02 0.02 0.02 0.00 0.00 0.00 0.00 0.00 0.00 0.00 0.00 0.00 0.00 0.01 0.00 0.01 0.00
0.07 0.06 0.08 0.08 0.07 0.06 0.07 0.11 0.14 0.14 0.15 0.15 0.15 0.16 0.16 0.15 0.15 0.17 0.21 0.23 0.21 0.16 0.09 0.04 0.02 0.02 0.03 0.02 0.01 0.00 0.00 0.00 0.00 0.00 0.00 0.00 0.00 0.00 0.00 0.00 0.00 0.00 0.00
0.06 0.04 0.08 0.15 0.17 0.16 0.15 0.12 0.11 0.12 0.14 0.15 0.16 0.18 0.20 0.22 0.27 0.27 0.20 0.15 0.11 0.08 0.06 0.05 0.05 0.05 0.02 0.00 0.00 0.00 0.00 0.00 0.00 0.00 0.00 0.00 0.00 0.00 0.00 0.00 0.00 0.00 0.00
0.08 0.12 0.11 0.11 0.14 0.18 0.32 0.25 0.16 0.14 0.15 0.17 0.21 0.25 0.28 0.29 0.24 0.18 0.11 0.07 0.06 0.06 0.07 0.08 0.06 0.03 0.00 0.00 0.00 0.00 0.00 0.02 0.04 0.00 0.00 0.00 0.00 0.00 0.00 0.00 0.00 0.00 0.00
0.24 0.23 0.22 0.25 0.24 0.22 0.28 0.25 0.31 0.34 0.39 0.40 0.36 0.31 0.25 0.19 0.15 0.12 0.09 0.06 0.04 0.04 0.04 0.03 0.01 0.00 0.00 0.00 0.00 0.04 0.05 0.07 0.03 0.00 0.00 0.00 0.00 0.00 0.00 0.00 0.00 0.00 0.00
0.46 0.53 0.55 0.57 0.63 0.70 0.72 0.62 0.48 0.37 0.34 0.31 0.24 0.19 0.15 0.10 0.06 0.02 0.01 0.01 0.01 0.00 0.00 0.00 0.00 0.00 0.00 0.00 0.06 0.16 0.06 0.01 0.00 0.00 0.00 0.01 0.00 0.00 0.00 0.00 0.00 0.00 0.00
0.77 0.77 0.67 0.54 0.57 0.63 0.56 0.39 0.30 0.20 0.13 0.09 0.06 0.03 0.01 0.00 0.00 0.00 0.01 0.01 0.00 0.00 0.00 0.00 0.00 0.01 0.01 0.01 0.00 0.00 0.00 0.01 0.02 0.00 0.00 0.00 0.00 0.00 0.00 0.00 0.00 0.00 0.00
0.65 0.58 0.62 0.56 0.45 0.35 0.23 0.14 0.07 0.05 0.02 0.00 0.00 0.00 0.00 0.00 0.00 0.01 0.01 0.00 0.00 0.00 0.00 0.00 0.00 0.00 0.00 0.00 0.00 0.00 0.00 0.06 0.06 0.07 0.00 0.06 0.03 0.02 0.09 0.00 0.00 0.00 0.00

GFSMA_prec_precacc24_039.txt.gz
Total_Precipitation_Accumulation
0.00 0.00 0.00 0.00 0.00 0.00 0.00 0.00 0.00 0.00 0.00 0.00 0.00 0.00 0.00 0.00 0.00 0.00 0.00 0.00 0.00 0.00 0.00 0.00 0.00 0.00 0.00 0.00 0.00 0.00 0.00 0.00 0.00 0.00 0.00 0.00 0.00 0.00 0.00 0.00 0.00 0.00 0.00
0.00 0.00 0.00 0.00 0.00 0.00 0.00 0.00 0.00 0.00 0.00 0.00 0.00 0.00 0.00 0.00 0.00 0.00 0.00 0.00 0.00 0.00 0.00 0.00 0.00 0.00 0.00 0.00 0.00 0.00 0.00 0.00 0.00 0.00 0.00 0.00 0.00 0.00 0.00 0.00 0.00 0.00 0.00
0.00 0.00 0.00 0.00 0.00 0.00 0.00 0.00 0.00 0.00 0.00 0.00 0.00 0.00 0.00 0.00 0.00 0.00 0.00 0.00 0.00 0.00 0.00 0.00 0.00 0.00 0.00 0.00 0.00 0.00 0.00 0.00 0.00 0.00 0.00 0.00 0.00 0.00 0.00 0.00 0.00 0.00 0.00
0.00 0.00 0.00 0.00 0.00 0.00 0.00 0.00 0.00 0.00 0.00 0.00 0.00 0.00 0.00 0.00 0.00 0.00 0.00 0.00 0.00 0.00 0.00 0.00 0.00 0.00 0.00 0.00 0.00 0.00 0.00 0.00 0.00 0.00 0.00 0.00 0.00 0.00 0.00 0.00 0.00 0.00 0.00
0.00 0.00 0.00 0.00 0.00 0.00 0.00 0.00 0.00 0.00 0.00 0.00 0.00 0.00 0.00 0.00 0.00 0.00 0.00 0.00 0.00 0.00 0.00 0.00 0.00 0.00 0.00 0.00 0.00 0.00 0.00 0.00 0.00 0.00 0.00 0.00 0.00 0.00 0.00 0.00 0.00 0.00 0.00
0.02 0.01 0.00 0.00 0.00 0.00 0.00 0.00 0.00 0.00 0.00 0.00 0.00 0.00 0.00 0.00 0.00 0.00 0.00 0.00 0.00 0.00 0.00 0.00 0.00 0.00 0.00 0.00 0.00 0.00 0.00 0.00 0.00 0.00 0.00 0.00 0.00 0.00 0.00 0.00 0.00 0.00 0.00
0.07 0.06 0.03 0.00 0.00 0.00 0.00 0.00 0.00 0.00 0.00 0.00 0.00 0.00 0.00 0.00 0.00 0.00 0.00 0.00 0.00 0.00 0.00 0.00 0.00 0.00 0.00 0.00 0.00 0.00 0.00 0.00 0.00 0.00 0.00 0.00 0.00 0.00 0.00 0.00 0.00 0.00 0.00
0.08 0.03 0.03 0.05 0.01 0.00 0.00 0.00 0.00 0.00 0.00 0.00 0.00 0.00 0.00 0.00 0.00 0.00 0.00 0.00 0.00 0.00 0.00 0.00 0.00 0.00 0.00 0.00 0.00 0.00 0.00 0.00 0.00 0.00 0.00 0.00 0.00 0.00 0.00 0.00 0.00 0.00 0.00
0.10 0.03 0.09 0.10 0.08 0.03 0.01 0.01 0.00 0.00 0.00 0.00 0.00 0.00 0.00 0.00 0.00 0.00 0.00 0.00 0.00 0.00 0.00 0.00 0.00 0.00 0.00 0.00 0.00 0.00 0.00 0.00 0.00 0.00 0.00 0.00 0.00 0.00 0.00 0.00 0.00 0.00 0.00
0.17 0.15 0.12 0.17 0.19 0.07 0.02 0.02 0.02 0.02 0.01 0.01 0.00 0.00 0.00 0.00 0.00 0.00 0.00 0.00 0.00 0.00 0.00 0.00 0.00 0.00 0.00 0.00 0.00 0.00 0.00 0.00 0.00 0.00 0.00 0.00 0.00 0.00 0.00 0.00 0.00 0.00 0.00
0.17 0.22 0.19 0.24 0.19 0.16 0.15 0.11 0.04 0.05 0.03 0.01 0.01 0.00 0.00 0.00 0.00 0.00 0.00 0.00 0.00 0.00 0.00 0.00 0.00 0.00 0.00 0.00 0.00 0.00 0.00 0.00 0.00 0.00 0.00 0.00 0.00 0.00 0.00 0.00 0.00 0.00 0.00
0.11 0.11 0.15 0.14 0.17 0.19 0.19 0.17 0.17 0.12 0.09 0.05 0.04 0.01 0.01 0.00 0.00 0.00 0.00 0.00 0.00 0.00 0.00 0.00 0.00 0.00 0.00 0.00 0.00 0.00 0.00 0.00 0.00 0.00 0.00 0.00 0.00 0.00 0.00 0.00 0.00 0.00 0.00
0.07 0.07 0.11 0.12 0.11 0.14 0.21 0.23 0.20 0.15 0.14 0.10 0.06 0.04 0.03 0.02 0.01 0.01 0.00 0.00 0.00 0.00 0.00 0.00 0.00 0.00 0.00 0.00 0.00 0.00 0.00 0.00 0.00 0.00 0.00 0.00 0.00 0.00 0.00 0.00 0.00 0.00 0.00
0.07 0.09 0.12 0.13 0.15 0.16 0.16 0.16 0.15 0.16 0.15 0.13 0.11 0.10 0.07 0.04 0.03 0.04 0.04 0.00 0.00 0.00 0.00 0.00 0.00 0.00 0.00 0.00 0.00 0.00 0.00 0.00 0.00 0.00 0.00 0.00 0.00 0.00 0.00 0.00 0.00 0.00 0.00
0.07 0.08 0.10 0.11 0.14 0.16 0.16 0.18 0.17 0.17 0.16 0.14 0.13 0.11 0.07 0.04 0.03 0.01 0.01 0.01 0.01 0.02 0.02 0.00 0.00 0.00 0.00 0.00 0.00 0.00 0.00 0.00 0.00 0.00 0.00 0.00 0.00 0.00 0.00 0.00 0.00 0.01 0.01
0.05 0.06 0.08 0.09 0.11 0.14 0.16 0.18 0.16 0.16 0.14 0.13 0.13 0.12 0.08 0.06 0.04 0.02 0.03 0.03 0.03 0.04 0.05 0.03 0.02 0.02 0.01 0.01 0.01 0.01 0.00 0.00 0.00 0.00 0.00 0.00 0.00 0.00 0.00 0.00 0.00 0.00 0.01
0.04 0.05 0.08 0.09 0.08 0.07 0.08 0.13 0.15 0.15 0.16 0.14 0.13 0.15 0.17 0.23 0.32 0.40 0.41 0.36 0.29 0.18 0.12 0.11 0.07 0.05 0.04 0.05 0.05 0.03 0.01 0.00 0.00 0.00 0.00 0.00 0.00 0.00 0.01 0.00 0.00 0.00 0.00
0.05 0.06 0.07 0.06 0.05 0.04 0.04 0.05 0.09 0.12 0.14 0.14 0.15 0.14 0.12 0.11 0.15 0.19 0.20 0.20 0.18 0.16 0.16 0.18 0.17 0.19 0.18 0.15 0.08 0.03 0.01 0.00 0.00 0.00 0.00 0.00 0.00 0.00 0.00 0.00 0.01 0.01 0.01
0.08 0.07 0.05 0.05 0.05 0.05 0.04 0.04 0.06 0.10 0.12 0.14 0.15 0.15 0.14 0.14 0.17 0.19 0.20 0.23 0.24 0.24 0.26 0.23 0.18 0.11 0.07 0.04 0.03 0.01 0.01 0.00 0.00 0.00 0.00 0.00 0.00 0.00 0.00 0.01 0.00 0.01 0.00
0.07 0.06 0.08 0.08 0.07 0.06 0.07 0.11 0.14 0.16 0.16 0.17 0.18 0.19 0.18 0.18 0.19 0.22 0.28 0.31 0.30 0.24 0.18 0.12 0.08 0.05 0.03 0.02 0.02 0.01 0.00 0.00 0.00 0.00 0.00 0.00 0.00 0.00 0.00 0.00 0.00 0.00 0.00
0.06 0.04 0.08 0.15 0.17 0.17 0.16 0.13 0.11 0.12 0.15 0.19 0.20 0.23 0.24 0.28 0.33 0.32 0.26 0.22 0.19 0.17 0.15 0.11 0.07 0.05 0.03 0.01 0.00 0.00 0.00 0.00 0.00 0.00 0.00 0.00 0.00 0.00 0.00 0.00 0.00 0.00 0.00
0.08 0.12 0.11 0.11 0.14 0.18 0.33 0.26 0.17 0.15 0.16 0.20 0.23 0.29 0.35 0.44 0.35 0.24 0.17 0.11 0.09 0.07 0.07 0.06 0.05 0.02 0.00 0.00 0.00 0.00 0.00 0.01 0.03 0.00 0.00 0.00 0.00 0.00 0.00 0.00 0.00 0.00 0.00
0.24 0.23 0.22 0.26 0.25 0.23 0.30 0.26 0.32 0.35 0.42 0.44 0.40 0.35 0.31 0.26 0.22 0.18 0.14 0.09 0.06 0.04 0.03 0.02 0.00 0.00 0.00 0.00 0.00 0.02 0.04 0.06 0.03 0.00 0.00 0.00 0.00 0.00 0.00 0.00 0.00 0.00 0.00
0.46 0.54 0.56 0.58 0.64 0.74 0.77 0.66 0.52 0.41 0.40 0.39 0.34 0.28 0.22 0.15 0.07 0.03 0.01 0.00 0.00 0.00 0.00 0.00 0.00 0.00 0.00 0.00 0.04 0.14 0.05 0.01 0.00 0.00 0.00 0.00 0.00 0.00 0.00 0.00 0.00 0.00 0.00
0.78 0.78 0.68 0.55 0.59 0.70 0.65 0.49 0.44 0.38 0.26 0.15 0.08 0.03 0.01 0.00 0.00 0.00 0.00 0.00 0.00 0.00 0.00 0.00 0.00 0.00 0.01 0.01 0.00 0.00 0.00 0.00 0.01 0.00 0.00 0.00 0.00 0.00 0.00 0.00 0.00 0.00 0.00
0.65 0.58 0.63 0.60 0.50 0.43 0.31 0.19 0.10 0.07 0.04 0.01 0.00 0.00 0.00 0.00 0.00 0.00 0.01 0.00 0.00 0.00 0.00 0.00 0.00 0.00 0.00 0.00 0.00 0.00 0.00 0.03 0.05 0.06 0.00 0.05 0.02 0.02 0.08 0.00 0.00 0.00 0.00

GFSMA_prec_precacc24_042.txt.gz
Total_Precipitation_Accumulation
0.00 0.00 0.00 0.00 0.00 0.00 0.00 0.00 0.00 0.00 0.00 0.00 0.00 0.00 0.00 0.00 0.00 0.00 0.00 0.00 0.00 0.00 0.00 0.00 0.00 0.00 0.00 0.00 0.00 0.00 0.00 0.00 0.00 0.00 0.00 0.00 0.00 0.00 0.00 0.00 0.00 0.00 0.00
0.00 0.00 0.00 0.00 0.00 0.00 0.00 0.00 0.00 0.00 0.00 0.00 0.00 0.00 0.00 0.00 0.00 0.00 0.00 0.00 0.00 0.00 0.00 0.00 0.00 0.00 0.00 0.00 0.00 0.00 0.00 0.00 0.00 0.00 0.00 0.00 0.00 0.00 0.00 0.00 0.00 0.00 0.00
0.00 0.00 0.00 0.00 0.00 0.00 0.00 0.00 0.00 0.00 0.00 0.00 0.00 0.00 0.00 0.00 0.00 0.00 0.00 0.00 0.00 0.00 0.00 0.00 0.00 0.00 0.00 0.00 0.00 0.00 0.00 0.00 0.00 0.00 0.00 0.00 0.00 0.00 0.00 0.00 0.00 0.00 0.00
0.00 0.00 0.00 0.00 0.00 0.00 0.00 0.00 0.00 0.00 0.00 0.00 0.00 0.00 0.00 0.00 0.00 0.00 0.00 0.00 0.00 0.00 0.00 0.00 0.00 0.00 0.00 0.00 0.00 0.00 0.00 0.00 0.00 0.00 0.00 0.00 0.00 0.00 0.00 0.00 0.00 0.00 0.00
0.00 0.00 0.00 0.00 0.00 0.00 0.00 0.00 0.00 0.00 0.00 0.00 0.00 0.00 0.00 0.00 0.00 0.00 0.00 0.00 0.00 0.00 0.00 0.00 0.00 0.00 0.00 0.00 0.00 0.00 0.00 0.00 0.00 0.00 0.00 0.00 0.00 0.00 0.00 0.00 0.00 0.00 0.00
0.02 0.01 0.00 0.00 0.00 0.00 0.00 0.00 0.00 0.00 0.00 0.00 0.00 0.00 0.00 0.00 0.00 0.00 0.00 0.00 0.00 0.00 0.00 0.00 0.00 0.00 0.00 0.00 0.00 0.00 0.00 0.00 0.00 0.00 0.00 0.00 0.00 0.00 0.00 0.00 0.00 0.00 0.00
0.08 0.08 0.04 0.01 0.00 0.00 0.00 0.00 0.00 0.00 0.00 0.00 0.00 0.00 0.00 0.00 0.00 0.00 0.00 0.00 0.00 0.00 0.00 0.00 0.00 0.00 0.00 0.00 0.00 0.00 0.00 0.00 0.00 0.00 0.00 0.00 0.00 0.00 0.00 0.00 0.00 0.00 0.00
0.10 0.05 0.07 0.09 0.02 0.00 0.00 0.00 0.00 0.00 0.00 0.00 0.00 0.00 0.00 0.00 0.00 0.00 0.00 0.00 0.00 0.00 0.00 0.00 0.00 0.00 0.00 0.00 0.00 0.00 0.00 0.00 0.00 0.00 0.00 0.00 0.00 0.00 0.00 0.00 0.00 0.00 0.00
0.15 0.05 0.11 0.15 0.15 0.06 0.02 0.03 0.02 0.01 0.01 0.00 0.00 0.00 0.00 0.00 0.00 0.00 0.00 0.00 0.00 0.00 0.00 0.00 0.00 0.00 0.00 0.00 0.00 0.00 0.00 0.00 0.00 0.00 0.00 0.00 0.00 0.00 0.00 0.00 0.00 0.00 0.00
0.18 0.16 0.15 0.20 0.24 0.16 0.08 0.05 0.07 0.05 0.01 0.01 0.01 0.00 0.00 0.00 0.00 0.00 0.00 0.00 0.00 0.00 0.00 0.00 0.00 0.00 0.00 0.00 0.00 0.00 0.00 0.00 0.00 0.00 0.00 0.00 0.00 0.00 0.00 0.00 0.00 0.00 0.00
0.17 0.22 0.20 0.26 0.21 0.19 0.23 0.20 0.11 0.08 0.05 0.02 0.04 0.03 0.01 0.00 0.00 0.00 0.00 0.00 0.00 0.00 0.00 0.00 0.00 0.00 0.00 0.00 0.00 0.00 0.00 0.00 0.00 0.00 0.00 0.00 0.00 0.00 0.00 0.00 0.00 0.00 0.00
0.12 0.11 0.15 0.14 0.17 0.20 0.22 0.21 0.24 0.16 0.12 0.09 0.06 0.04 0.04 0.04 0.02 0.01 0.00 0.00 0.00 0.00 0.00 0.00 0.00 0.00 0.00 0.00 0.00 0.00 0.00 0.00 0.00 0.00 0.00 0.00 0.00 0.00 0.00 0.00 0.00 0.00 0.00
0.08 0.09 0.12 0.12 0.12 0.15 0.22 0.26 0.23 0.17 0.16 0.13 0.09 0.09 0.08 0.07 0.05 0.04 0.03 0.02 0.02 0.02 0.01 0.01 0.00 0.00 0.00 0.00 0.00 0.00 0.00 0.00 0.00 0.00 0.00 0.00 0.00 0.00 0.00 0.00 0.00 0.00 0.00
0.07 0.10 0.15 0.15 0.16 0.17 0.17 0.17 0.17 0.18 0.17 0.16 0.15 0.13 0.12 0.11 0.09 0.10 0.13 0.13 0.10 0.06 0.03 0.02 0.01 0.00 0.00 0.00 0.00 0.00 0.00 0.00 0.00 0.00 0.00 0.00 0.00 0.00 0.00 0.00 0.00 0.00 0.00
0.07 0.08 0.11 0.14 0.14 0.16 0.17 0.20 0.19 0.20 0.20 0.18 0.18 0.16 0.12 0.10 0.09 0.09 0.09 0.08 0.08 0.09 0.08 0.07 0.08 0.07 0.03 0.03 0.02 0.01 0.00 0.00 0.00 0.00 0.00 0.00 0.00 0.00 0.00 0.00 0.00 0.00 0.01
0.05 0.06 0.08 0.09 0.11 0.15 0.18 0.21 0.18 0.20 0.21 0.21 0.20 0.20 0.15 0.11 0.12 0.11 0.09 0.07 0.11 0.18 0.26 0.26 0.24 0.20 0.14 0.07 0.02 0.01 0.01 0.01 0.01 0.01 0.00 0.00 0.00 0.00 0.00 0.00 0.00 0.00 0.00
0.04 0.05 0.08 0.09 0.08 0.08 0.10 0.16 0.18 0.18 0.22 0.21 0.20 0.23 0.23 0.28 0.36 0.45 0.49 0.55 0.63 0.71 0.74 0.64 0.37 0.20 0.11 0.07 0.06 0.07 0.05 0.04 0.02 0.01 0.00 0.00 0.00 0.00 0.00 0.00 0.00 0.00 0.00
0.05 0.06 0.07 0.06 0.05 0.04 0.04 0.06 0.10 0.14 0.16 0.18 0.18 0.19 0.16 0.14 0.18 0.21 0.22 0.26 0.33 0.39 0.46 0.48 0.40 0.34 0.29 0.20 0.13 0.06 0.02 0.00 0.00 0.00 0.00 0.00 0.00 0.00 0.00 0.00 0.00 0.01 0.01
0.08 0.07 0.05 0.05 0.06 0.05 0.05 0.04 0.06 0.11 0.13 0.15 0.16 0.17 0.17 0.16 0.19 0.22 0.24 0.28 0.32 0.35 0.38 0.38 0.33 0.23 0.17 0.10 0.06 0.02 0.01 0.00 0.00 0.00 0.00 0.00 0.00 0.00 0.00 0.00 0.00 0.01 0.00
0.07 0.06 0.08 0.08 0.07 0.06 0.08 0.11 0.14 0.16 0.16 0.17 0.18 0.20 0.19 0.20 0.21 0.25 0.30 0.34 0.33 0.28 0.22 0.16 0.12 0.09 0.06 0.03 0.02 0.01 0.00 0.00 0.00 0.00 0.00 0.00 0.00 0.00 0.00 0.00 0.00 0.00 0.00
0.06 0.04 0.08 0.15 0.17 0.17 0.16 0.13 0.11 0.12 0.15 0.19 0.21 0.23 0.26 0.32 0.36 0.35 0.30 0.26 0.24 0.22 0.18 0.13 0.08 0.05 0.03 0.01 0.00 0.00 0.00 0.00 0.00 0.00 0.00 0.00 0.00 0.00 0.00 0.00 0.00 0.00 0.00
0.08 0.12 0.11 0.11 0.14 0.18 0.33 0.26 0.17 0.15 0.17 0.21 0.26 0.31 0.38 0.48 0.42 0.35 0.24 0.17 0.12 0.09 0.07 0.05 0.03 0.01 0.00 0.00 0.00 0.00 0.00 0.01 0.02 0.00 0.00 0.00 0.00 0.00 0.00 0.00 0.00 0.00 0.00
0.24 0.23 0.22 0.26 0.25 0.23 0.31 0.27 0.33 0.36 0.42 0.46 0.47 0.41 0.34 0.29 0.26 0.22 0.18 0.14 0.09 0.05 0.02 0.01 0.00 0.00 0.00 0.00 0.00 0.02 0.03 0.04 0.02 0.00 0.00 0.00 0.00 0.00 0.00 0.00 0.00 0.00 0.00
0.46 0.54 0.56 0.58 0.64 0.75 0.78 0.67 0.53 0.44 0.45 0.47 0.42 0.37 0.30 0.21 0.13 0.06 0.02 0.00 0.00 0.00 0.00 0.00 0.00 0.00 0.00 0.00 0.03 0.10 0.04 0.01 0.00 0.00 0.00 0.00 0.00 0.00 0.00 0.00 0.00 0.00 0.00
0.78 0.78 0.68 0.55 0.59 0.70 0.65 0.49 0.44 0.39 0.29 0.19 0.14 0.07 0.03 0.02 0.01 0.00 0.00 0.00 0.00 0.00 0.00 0.00 0.00 0.00 0.01 0.01 0.00 0.00 0.00 0.00 0.01 0.00 0.00 0.00 0.00 0.00 0.00 0.00 0.00 0.00 0.00
0.65 0.58 0.63 0.60 0.50 0.43 0.31 0.19 0.10 0.08 0.05 0.02 0.00 0.00 0.00 0.00 0.00 0.00 0.00 0.00 0.00 0.00 0.00 0.00 0.00 0.00 0.00 0.00 0.00 0.00 0.00 0.02 0.04 0.05 0.00 0.03 0.01 0.01 0.06 0.00 0.00 0.00 0.00

GFSMA_prec_precacc24_045.txt.gz
Total_Precipitation_Accumulation
0.00 0.00 0.00 0.00 0.00 0.00 0.00 0.00 0.00 0.00 0.00 0.00 0.00 0.00 0.00 0.00 0.00 0.00 0.00 0.00 0.00 0.00 0.00 0.00 0.00 0.00 0.00 0.00 0.00 0.00 0.00 0.00 0.00 0.00 0.00 0.00 0.00 0.00 0.00 0.00 0.00 0.00 0.00
0.00 0.00 0.00 0.00 0.00 0.00 0.00 0.00 0.00 0.00 0.00 0.00 0.00 0.00 0.00 0.00 0.00 0.00 0.00 0.00 0.00 0.00 0.00 0.00 0.00 0.00 0.00 0.00 0.00 0.00 0.00 0.00 0.00 0.00 0.00 0.00 0.00 0.00 0.00 0.00 0.00 0.00 0.00
0.00 0.00 0.00 0.00 0.00 0.00 0.00 0.00 0.00 0.00 0.00 0.00 0.00 0.00 0.00 0.00 0.00 0.00 0.00 0.00 0.00 0.00 0.00 0.00 0.00 0.00 0.00 0.00 0.00 0.00 0.00 0.00 0.00 0.00 0.00 0.00 0.00 0.00 0.00 0.00 0.00 0.00 0.00
0.00 0.00 0.00 0.00 0.00 0.00 0.00 0.00 0.00 0.00 0.00 0.00 0.00 0.00 0.00 0.00 0.00 0.00 0.00 0.00 0.00 0.00 0.00 0.00 0.00 0.00 0.00 0.00 0.00 0.00 0.00 0.00 0.00 0.00 0.00 0.00 0.00 0.00 0.00 0.00 0.00 0.00 0.00
0.00 0.00 0.00 0.00 0.00 0.00 0.00 0.00 0.00 0.00 0.00 0.00 0.00 0.00 0.00 0.00 0.00 0.00 0.00 0.00 0.00 0.00 0.00 0.00 0.00 0.00 0.00 0.00 0.00 0.00 0.00 0.00 0.00 0.00 0.00 0.00 0.00 0.00 0.00 0.00 0.00 0.00 0.00
0.02 0.01 0.00 0.00 0.00 0.00 0.00 0.00 0.00 0.00 0.00 0.00 0.00 0.00 0.00 0.00 0.00 0.00 0.00 0.00 0.00 0.00 0.00 0.00 0.00 0.00 0.00 0.00 0.00 0.00 0.00 0.00 0.00 0.00 0.00 0.00 0.00 0.00 0.00 0.00 0.00 0.00 0.00
0.09 0.09 0.05 0.02 0.00 0.00 0.00 0.00 0.00 0.00 0.00 0.00 0.00 0.00 0.00 0.00 0.00 0.00 0.00 0.00 0.00 0.00 0.00 0.00 0.00 0.00 0.00 0.00 0.00 0.00 0.00 0.00 0.00 0.00 0.00 0.00 0.00 0.00 0.00 0.00 0.00 0.00 0.00
0.15 0.08 0.08 0.10 0.04 0.01 0.00 0.00 0.01 0.01 0.00 0.01 0.01 0.00 0.00 0.00 0.00 0.00 0.00 0.00 0.00 0.00 0.00 0.00 0.00 0.00 0.00 0.00 0.00 0.00 0.00 0.00 0.00 0.00 0.00 0.00 0.00 0.00 0.00 0.00 0.00 0.00 0.00
0.17 0.11 0.16 0.18 0.19 0.11 0.04 0.05 0.09 0.08 0.05 0.04 0.02 0.01 0.00 0.00 0.00 0.00 0.00 0.00 0.00 0.00 0.00 0.00 0.00 0.00 0.00 0.00 0.00 0.00 0.00 0.00 0.00 0.00 0.00 0.00 0.00 0.00 0.00 0.00 0.00 0.00 0.00
0.18 0.17 0.17 0.25 0.29 0.21 0.14 0.09 0.14 0.12 0.07 0.05 0.04 0.01 0.01 0.00 0.00 0.00 0.00 0.00 0.00 0.00 0.00 0.00 0.00 0.00 0.00 0.00 0.00 0.00 0.00 0.00 0.00 0.00 0.00 0.00 0.00 0.00 0.00 0.00 0.00 0.00 0.00
0.18 0.22 0.20 0.27 0.26 0.24 0.26 0.28 0.20 0.16 0.10 0.08 0.09 0.07 0.04 0.02 0.00 0.00 0.01 0.02 0.01 0.01 0.00 0.00 0.00 0.00 0.00 0.00 0.00 0.00 0.00 0.00 0.00 0.00 0.00 0.00 0.00 0.00 0.00 0.00 0.00 0.00 0.00
0.12 0.12 0.15 0.15 0.20 0.24 0.27 0.25 0.29 0.21 0.16 0.13 0.10 0.10 0.10 0.10 0.06 0.03 0.03 0.04 0.03 0.02 0.00 0.00 0.00 0.00 0.00 0.00 0.00 0.00 0.00 0.00 0.00 0.00 0.00 0.00 0.00 0.00 0.00 0.00 0.00 0.00 0.00
0.07 0.11 0.15 0.16 0.16 0.18 0.26 0.32 0.29 0.24 0.24 0.19 0.14 0.13 0.13 0.14 0.11 0.09 0.08 0.07 0.07 0.05 0.03 0.01 0.01 0.00 0.00 0.00 0.00 0.00 0.00 0.00 0.00 0.00 0.00 0.00 0.00 0.00 0.00 0.00 0.00 0.00 0.00
0.07 0.10 0.16 0.16 0.18 0.19 0.18 0.20 0.21 0.24 0.25 0.24 0.22 0.21 0.18 0.17 0.16 0.16 0.19 0.19 0.15 0.09 0.05 0.03 0.03 0.03 0.03 0.02 0.02 0.00 0.00 0.01 0.01 0.03 0.02 0.02 0.01 0.00 0.00 0.00 0.00 0.00 0.00
0.06 0.08 0.11 0.14 0.15 0.18 0.20 0.22 0.20 0.22 0.26 0.25 0.25 0.25 0.19 0.15 0.16 0.14 0.15 0.15 0.15 0.14 0.12 0.11 0.13 0.15 0.17 0.19 0.22 0.20 0.21 0.20 0.17 0.12 0.06 0.03 0.01 0.00 0.00 0.00 0.00 0.00 0.00
0.05 0.06 0.08 0.09 0.11 0.15 0.18 0.21 0.19 0.22 0.24 0.28 0.28 0.28 0.23 0.17 0.17 0.16 0.14 0.12 0.17 0.26 0.39 0.38 0.43 0.48 0.47 0.42 0.39 0.32 0.26 0.19 0.12 0.06 0.03 0.02 0.01 0.00 0.00 0.00 0.00 0.00 0.00
0.03 0.05 0.08 0.08 0.08 0.08 0.10 0.16 0.19 0.19 0.24 0.24 0.23 0.28 0.30 0.34 0.42 0.51 0.57 0.64 0.71 0.76 0.79 0.72 0.57 0.47 0.40 0.33 0.30 0.21 0.14 0.08 0.04 0.04 0.02 0.01 0.00 0.00 0.00 0.00 0.00 0.00 0.00
0.04 0.05 0.06 0.05 0.05 0.04 0.04 0.06 0.10 0.14 0.16 0.18 0.19 0.19 0.17 0.15 0.19 0.24 0.26 0.31 0.41 0.48 0.55 0.58 0.49 0.44 0.39 0.31 0.23 0.15 0.06 0.03 0.02 0.02 0.01 0.00 0.00 0.00 0.00 0.00 0.00 0.01 0.01
0.07 0.07 0.05 0.05 0.06 0.05 0.05 0.04 0.06 0.11 0.13 0.16 0.17 0.17 0.18 0.17 0.21 0.24 0.27 0.32 0.39 0.45 0.48 0.51 0.47 0.37 0.30 0.19 0.12 0.05 0.02 0.01 0.00 0.00 0.00 0.00 0.00 0.00 0.00 0.00 0.00 0.01 0.00
0.06 0.06 0.08 0.08 0.07 0.06 0.08 0.11 0.14 0.16 0.16 0.17 0.18 0.20 0.20 0.20 0.21 0.26 0.31 0.36 0.37 0.35 0.32 0.30 0.25 0.12 0.08 0.04 0.03 0.02 0.00 0.00 0.00 0.00 0.00 0.00 0.00 0.00 0.00 0.00 0.00 0.00 0.00
0.05 0.04 0.08 0.15 0.17 0.17 0.16 0.13 0.11 0.12 0.15 0.19 0.21 0.23 0.26 0.32 0.37 0.36 0.31 0.28 0.25 0.23 0.20 0.15 0.10 0.06 0.03 0.01 0.01 0.00 0.00 0.00 0.00 0.00 0.00 0.00 0.00 0.00 0.00 0.00 0.00 0.00 0.00
0.08 0.12 0.11 0.11 0.14 0.18 0.33 0.26 0.17 0.15 0.17 0.21 0.26 0.33 0.41 0.49 0.44 0.39 0.29 0.19 0.14 0.10 0.08 0.05 0.02 0.01 0.00 0.00 0.00 0.00 0.00 0.01 0.02 0.00 0.00 0.00 0.00 0.00 0.00 0.00 0.00 0.00 0.00
0.24 0.23 0.22 0.26 0.25 0.23 0.31 0.26 0.33 0.36 0.42 0.47 0.48 0.44 0.36 0.33 0.30 0.25 0.21 0.15 0.10 0.06 0.03 0.01 0.00 0.00 0.00 0.00 0.00 0.01 0.01 0.03 0.01 0.00 0.00 0.00 0.00 0.00 0.00 0.00 0.00 0.00 0.00
0.43 0.52 0.56 0.58 0.64 0.76 0.78 0.67 0.53 0.44 0.45 0.47 0.44 0.39 0.32 0.26 0.18 0.12 0.07 0.03 0.01 0.00 0.00 0.00 0.00 0.00 0.00 0.00 0.02 0.07 0.02 0.00 0.00 0.00 0.00 0.00 0.00 0.00 0.00 0.00 0.00 0.00 0.00
0.76 0.77 0.68 0.55 0.59 0.70 0.65 0.49 0.44 0.39 0.29 0.19 0.14 0.07 0.03 0.02 0.02 0.00 0.00 0.00 0.00 0.00 0.00 0.00 0.00 0.00 0.00 0.01 0.00 0.00 0.00 0.00 0.01 0.00 0.00 0.00 0.00 0.00 0.00 0.00 0.00 0.00 0.00
0.65 0.58 0.63 0.60 0.50 0.43 0.31 0.19 0.10 0.08 0.05 0.02 0.00 0.00 0.00 0.00 0.00 0.00 0.00 0.00 0.00 0.00 0.00 0.00 0.00 0.00 0.00 0.00 0.00 0.00 0.00 0.01 0.03 0.04 0.00 0.02 0.01 0.00 0.04 0.00 0.00 0.00 0.00

GFSMA_prec_precacc24_048.txt.gz
Total_Precipitation_Accumulation
0.00 0.00 0.00 0.00 0.00 0.00 0.00 0.00 0.00 0.00 0.00 0.00 0.00 0.00 0.00 0.00 0.00 0.00 0.00 0.00 0.00 0.00 0.00 0.00 0.00 0.00 0.00 0.00 0.00 0.00 0.00 0.00 0.00 0.00 0.00 0.00 0.00 0.00 0.00 0.00 0.00 0.00 0.00
0.00 0.00 0.00 0.00 0.00 0.00 0.00 0.00 0.00 0.00 0.00 0.00 0.00 0.00 0.00 0.00 0.00 0.00 0.00 0.00 0.00 0.00 0.00 0.00 0.00 0.00 0.00 0.00 0.00 0.00 0.00 0.00 0.00 0.00 0.00 0.00 0.00 0.00 0.00 0.00 0.00 0.00 0.00
0.00 0.00 0.00 0.00 0.00 0.00 0.00 0.00 0.00 0.00 0.00 0.00 0.00 0.00 0.00 0.00 0.00 0.00 0.00 0.00 0.00 0.00 0.00 0.00 0.00 0.00 0.00 0.00 0.00 0.00 0.00 0.00 0.00 0.00 0.00 0.00 0.00 0.00 0.00 0.00 0.00 0.00 0.00
0.00 0.00 0.00 0.00 0.00 0.00 0.00 0.00 0.00 0.00 0.00 0.00 0.00 0.00 0.00 0.00 0.00 0.00 0.00 0.00 0.00 0.00 0.00 0.00 0.00 0.00 0.00 0.00 0.00 0.00 0.00 0.00 0.00 0.00 0.00 0.00 0.00 0.00 0.00 0.00 0.00 0.00 0.00
0.00 0.00 0.00 0.00 0.00 0.00 0.00 0.00 0.00 0.00 0.00 0.00 0.00 0.00 0.00 0.00 0.00 0.00 0.00 0.00 0.00 0.00 0.00 0.00 0.00 0.00 0.00 0.00 0.00 0.00 0.00 0.00 0.00 0.00 0.00 0.00 0.00 0.00 0.00 0.00 0.00 0.00 0.00
0.02 0.02 0.01 0.00 0.00 0.00 0.00 0.00 0.00 0.00 0.00 0.00 0.00 0.00 0.00 0.00 0.00 0.00 0.00 0.00 0.00 0.00 0.00 0.00 0.00 0.00 0.00 0.00 0.00 0.00 0.00 0.00 0.00 0.00 0.00 0.00 0.00 0.00 0.00 0.00 0.00 0.00 0.00
0.11 0.10 0.05 0.03 0.01 0.00 0.00 0.00 0.00 0.00 0.00 0.01 0.00 0.00 0.00 0.00 0.00 0.00 0.00 0.00 0.00 0.00 0.00 0.00 0.00 0.00 0.00 0.00 0.00 0.00 0.00 0.00 0.00 0.00 0.00 0.00 0.00 0.00 0.00 0.00 0.00 0.00 0.00
0.17 0.10 0.09 0.10 0.05 0.02 0.01 0.02 0.03 0.05 0.04 0.06 0.05 0.01 0.00 0.00 0.00 0.00 0.00 0.00 0.00 0.00 0.00 0.00 0.00 0.00 0.00 0.00 0.00 0.00 0.00 0.00 0.00 0.00 0.00 0.00 0.00 0.00 0.00 0.00 0.00 0.00 0.00
0.17 0.13 0.17 0.19 0.20 0.12 0.06 0.08 0.13 0.13 0.11 0.11 0.08 0.05 0.00 0.00 0.00 0.00 0.00 0.00 0.00 0.00 0.00 0.01 0.00 0.00 0.00 0.00 0.00 0.00 0.00 0.00 0.00 0.00 0.00 0.00 0.00 0.00 0.00 0.00 0.00 0.00 0.00
0.18 0.17 0.17 0.26 0.30 0.21 0.15 0.10 0.16 0.16 0.15 0.10 0.09 0.06 0.04 0.01 0.00 0.00 0.00 0.01 0.00 0.00 0.00 0.01 0.01 0.00 0.00 0.00 0.00 0.00 0.00 0.00 0.00 0.00 0.00 0.00 0.00 0.00 0.00 0.00 0.00 0.00 0.00
0.17 0.22 0.20 0.27 0.28 0.26 0.27 0.29 0.22 0.19 0.15 0.15 0.15 0.16 0.11 0.06 0.03 0.01 0.01 0.04 0.03 0.02 0.01 0.00 0.00 0.00 0.00 0.00 0.00 0.00 0.00 0.00 0.00 0.00 0.00 0.00 0.00 0.00 0.00 0.00 0.00 0.00 0.00
0.10 0.11 0.15 0.15 0.21 0.28 0.30 0.29 0.33 0.25 0.22 0.19 0.15 0.14 0.14 0.15 0.10 0.05 0.05 0.06 0.05 0.03 0.01 0.00 0.00 0.00 0.00 0.00 0.00 0.00 0.00 0.00 0.00 0.00 0.00 0.00 0.00 0.00 0.00 0.00 0.00 0.00 0.00
0.05 0.08 0.13 0.16 0.16 0.19 0.28 0.34 0.32 0.28 0.28 0.23 0.18 0.17 0.19 0.20 0.20 0.20 0.23 0.19 0.15 0.07 0.03 0.02 0.02 0.02 0.02 0.03 0.05 0.03 0.01 0.00 0.00 0.00 0.00 0.00 0.00 0.01 0.01 0.02 0.01 0.00 0.00
0.04 0.08 0.14 0.15 0.17 0.18 0.18 0.21 0.23 0.25 0.27 0.25 0.23 0.23 0.23 0.23 0.24 0.25 0.28 0.29 0.27 0.20 0.13 0.05 0.03 0.03 0.03 0.04 0.06 0.08 0.09 0.10 0.10 0.11 0.12 0.12 0.11 0.10 0.10 0.06 0.02 0.01 0.00
0.05 0.07 0.10 0.12 0.14 0.17 0.20 0.22 0.20 0.22 0.26 0.26 0.26 0.27 0.20 0.18 0.20 0.19 0.20 0.21 0.24 0.23 0.16 0.12 0.14 0.16 0.18 0.24 0.35 0.41 0.48 0.54 0.52 0.48 0.41 0.32 0.26 0.19 0.12 0.06 0.02 0.01 0.00
0.04 0.05 0.06 0.07 0.10 0.14 0.18 0.21 0.19 0.22 0.24 0.28 0.28 0.28 0.24 0.19 0.20 0.20 0.19 0.17 0.23 0.33 0.45 0.39 0.45 0.52 0.54 0.54 0.55 0.48 0.44 0.43 0.36 0.29 0.22 0.20 0.18 0.13 0.07 0.03 0.02 0.00 0.00
0.02 0.03 0.05 0.06 0.07 0.07 0.09 0.15 0.18 0.19 0.24 0.24 0.23 0.28 0.30 0.34 0.43 0.53 0.58 0.67 0.78 0.89 0.94 0.82 0.63 0.54 0.46 0.41 0.42 0.37 0.31 0.25 0.17 0.16 0.12 0.10 0.08 0.04 0.02 0.01 0.00 0.00 0.00
0.03 0.04 0.05 0.04 0.04 0.03 0.04 0.05 0.10 0.14 0.17 0.18 0.19 0.20 0.17 0.16 0.20 0.24 0.26 0.32 0.42 0.52 0.65 0.71 0.65 0.60 0.50 0.39 0.31 0.23 0.18 0.13 0.11 0.09 0.07 0.02 0.01 0.01 0.00 0.00 0.00 0.00 0.01
0.05 0.05 0.03 0.03 0.05 0.04 0.04 0.04 0.06 0.11 0.13 0.16 0.17 0.18 0.18 0.18 0.21 0.25 0.28 0.33 0.40 0.46 0.53 0.59 0.59 0.52 0.46 0.36 0.28 0.15 0.09 0.04 0.01 0.02 0.02 0.00 0.00 0.00 0.00 0.00 0.00 0.00 0.00
0.04 0.03 0.03 0.03 0.05 0.05 0.07 0.11 0.14 0.16 0.16 0.17 0.18 0.20 0.20 0.20 0.22 0.26 0.31 0.38 0.39 0.37 0.34 0.31 0.28 0.24 0.17 0.12 0.09 0.05 0.03 0.01 0.00 0.00 0.00 0.00 0.00 0.00 0.00 0.00 0.00 0.00 0.00
0.03 0.03 0.04 0.11 0.15 0.15 0.15 0.13 0.11 0.12 0.15 0.19 0.21 0.23 0.26 0.32 0.38 0.36 0.32 0.30 0.30 0.31 0.26 0.17 0.13 0.08 0.04 0.03 0.03 0.01 0.01 0.00 0.00 0.00 0.00 0.00 0.00 0.00 0.00 0.00 0.00 0.00 0.00
0.03 0.06 0.09 0.10 0.13 0.18 0.33 0.26 0.17 0.15 0.17 0.21 0.26 0.33 0.41 0.49 0.44 0.40 0.31 0.24 0.17 0.12 0.09 0.06 0.04 0.02 0.01 0.01 0.00 0.00 0.00 0.01 0.01 0.00 0.00 0.00 0.00 0.00 0.00 0.00 0.00 0.00 0.00
0.10 0.11 0.15 0.23 0.25 0.23 0.31 0.27 0.33 0.36 0.42 0.47 0.48 0.44 0.36 0.33 0.31 0.26 0.22 0.17 0.11 0.07 0.03 0.01 0.00 0.00 0.00 0.00 0.00 0.01 0.01 0.02 0.01 0.00 0.00 0.00 0.00 0.00 0.00 0.00 0.00 0.00 0.00
0.23 0.34 0.43 0.53 0.61 0.74 0.78 0.67 0.53 0.44 0.45 0.47 0.44 0.39 0.32 0.26 0.18 0.12 0.07 0.03 0.01 0.00 0.00 0.00 0.00 0.00 0.00 0.00 0.01 0.04 0.02 0.00 0.00 0.00 0.00 0.00 0.00 0.00 0.00 0.00 0.00 0.00 0.00
0.46 0.63 0.62 0.52 0.58 0.70 0.65 0.49 0.44 0.39 0.29 0.19 0.14 0.07 0.03 0.02 0.02 0.00 0.00 0.00 0.00 0.00 0.00 0.00 0.00 0.00 0.00 0.00 0.00 0.00 0.00 0.00 0.00 0.00 0.00 0.00 0.00 0.00 0.00 0.00 0.00 0.00 0.00
0.61 0.57 0.63 0.60 0.50 0.43 0.31 0.19 0.10 0.08 0.05 0.02 0.00 0.00 0.00 0.00 0.00 0.00 0.00 0.00 0.00 0.00 0.00 0.00 0.00 0.00 0.00 0.00 0.00 0.00 0.00 0.00 0.02 0.03 0.00 0.01 0.00 0.00 0.03 0.00 0.00 0.00 0.00

GFSMA_prec_precacc24_051.txt.gz
Total_Precipitation_Accumulation
0.00 0.00 0.00 0.00 0.00 0.00 0.00 0.00 0.00 0.00 0.00 0.00 0.00 0.00 0.00 0.00 0.00 0.00 0.00 0.00 0.00 0.00 0.00 0.00 0.00 0.00 0.00 0.00 0.00 0.00 0.00 0.00 0.00 0.00 0.00 0.00 0.00 0.00 0.00 0.00 0.00 0.00 0.00
0.00 0.00 0.00 0.00 0.00 0.00 0.00 0.00 0.00 0.00 0.00 0.00 0.00 0.00 0.00 0.00 0.00 0.00 0.00 0.00 0.00 0.00 0.00 0.00 0.00 0.00 0.00 0.00 0.00 0.00 0.00 0.00 0.00 0.00 0.00 0.00 0.00 0.00 0.00 0.00 0.00 0.00 0.00
0.00 0.00 0.00 0.00 0.00 0.00 0.00 0.00 0.00 0.00 0.00 0.00 0.00 0.00 0.00 0.00 0.00 0.00 0.00 0.00 0.00 0.00 0.00 0.00 0.00 0.00 0.00 0.00 0.00 0.00 0.00 0.00 0.00 0.00 0.00 0.00 0.00 0.00 0.00 0.00 0.00 0.00 0.00
0.00 0.00 0.00 0.00 0.00 0.00 0.00 0.00 0.00 0.00 0.00 0.00 0.00 0.00 0.00 0.00 0.00 0.00 0.00 0.00 0.00 0.00 0.00 0.00 0.00 0.00 0.00 0.00 0.00 0.00 0.00 0.00 0.00 0.00 0.00 0.00 0.00 0.00 0.00 0.00 0.00 0.00 0.00
0.00 0.00 0.00 0.00 0.00 0.00 0.00 0.00 0.00 0.00 0.00 0.00 0.00 0.00 0.00 0.00 0.00 0.00 0.00 0.00 0.00 0.00 0.00 0.00 0.00 0.00 0.00 0.00 0.00 0.00 0.00 0.00 0.00 0.00 0.00 0.00 0.00 0.00 0.00 0.00 0.00 0.00 0.00
0.02 0.02 0.01 0.00 0.00 0.00 0.00 0.00 0.00 0.00 0.00 0.00 0.00 0.00 0.00 0.00 0.00 0.00 0.00 0.00 0.00 0.00 0.00 0.00 0.00 0.00 0.00 0.00 0.00 0.00 0.00 0.00 0.00 0.00 0.00 0.00 0.00 0.00 0.00 0.00 0.00 0.00 0.00
0.14 0.11 0.06 0.03 0.01 0.00 0.00 0.00 0.00 0.00 0.00 0.03 0.02 0.00 0.00 0.00 0.00 0.00 0.00 0.00 0.00 0.00 0.00 0.00 0.00 0.00 0.00 0.00 0.00 0.00 0.00 0.00 0.00 0.00 0.00 0.00 0.00 0.00 0.00 0.00 0.00 0.00 0.00
0.19 0.12 0.10 0.11 0.05 0.02 0.01 0.02 0.04 0.07 0.07 0.12 0.14 0.04 0.00 0.00 0.00 0.00 0.00 0.00 0.00 0.00 0.00 0.00 0.00 0.00 0.00 0.00 0.00 0.00 0.00 0.00 0.00 0.00 0.00 0.00 0.00 0.00 0.00 0.00 0.00 0.00 0.00
0.17 0.14 0.19 0.20 0.20 0.12 0.06 0.08 0.13 0.14 0.13 0.16 0.14 0.12 0.02 0.00 0.00 0.00 0.00 0.00 0.00 0.00 0.00 0.01 0.01 0.01 0.01 0.00 0.00 0.00 0.00 0.00 0.00 0.00 0.00 0.00 0.00 0.00 0.00 0.00 0.00 0.00 0.00
0.13 0.16 0.17 0.26 0.30 0.21 0.15 0.10 0.17 0.16 0.17 0.11 0.12 0.09 0.07 0.03 0.02 0.01 0.01 0.01 0.01 0.00 0.00 0.01 0.01 0.01 0.01 0.00 0.00 0.00 0.00 0.00 0.00 0.00 0.00 0.00 0.00 0.00 0.00 0.00 0.00 0.00 0.00
0.13 0.19 0.18 0.26 0.28 0.26 0.27 0.29 0.22 0.20 0.15 0.16 0.16 0.17 0.13 0.11 0.06 0.04 0.02 0.04 0.04 0.04 0.02 0.00 0.00 0.00 0.00 0.00 0.00 0.01 0.03 0.03 0.02 0.00 0.00 0.00 0.00 0.00 0.00 0.00 0.00 0.00 0.00
0.08 0.08 0.11 0.11 0.20 0.27 0.29 0.29 0.33 0.26 0.22 0.20 0.16 0.16 0.16 0.18 0.12 0.08 0.07 0.07 0.07 0.04 0.02 0.01 0.00 0.00 0.00 0.01 0.03 0.05 0.08 0.10 0.10 0.06 0.03 0.01 0.00 0.00 0.00 0.01 0.01 0.01 0.02
0.03 0.06 0.10 0.13 0.14 0.17 0.27 0.33 0.32 0.29 0.30 0.25 0.20 0.18 0.20 0.22 0.23 0.25 0.27 0.22 0.17 0.11 0.07 0.06 0.06 0.05 0.05 0.06 0.09 0.14 0.15 0.17 0.16 0.12 0.08 0.05 0.02 0.02 0.02 0.04 0.06 0.07 0.07
0.02 0.06 0.11 0.12 0.15 0.16 0.17 0.20 0.22 0.26 0.27 0.26 0.24 0.23 0.23 0.24 0.25 0.27 0.32 0.32 0.30 0.21 0.13 0.07 0.05 0.08 0.10 0.11 0.14 0.19 0.18 0.23 0.26 0.29 0.30 0.29 0.29 0.28 0.26 0.24 0.22 0.18 0.17
0.02 0.05 0.09 0.10 0.12 0.16 0.18 0.20 0.20 0.22 0.26 0.26 0.26 0.27 0.21 0.18 0.20 0.20 0.22 0.23 0.28 0.27 0.18 0.12 0.14 0.16 0.20 0.29 0.42 0.50 0.56 0.62 0.60 0.57 0.54 0.49 0.41 0.33 0.25 0.19 0.15 0.13 0.11
0.02 0.03 0.05 0.06 0.09 0.12 0.17 0.20 0.19 0.21 0.24 0.28 0.28 0.28 0.25 0.19 0.21 0.21 0.19 0.18 0.25 0.37 0.48 0.40 0.45 0.52 0.55 0.55 0.58 0.52 0.49 0.51 0.43 0.37 0.32 0.31 0.28 0.23 0.17 0.13 0.12 0.11 0.10
0.00 0.01 0.04 0.05 0.06 0.07 0.09 0.14 0.17 0.18 0.23 0.23 0.23 0.28 0.31 0.35 0.43 0.53 0.59 0.67 0.78 0.89 0.95 0.82 0.63 0.54 0.48 0.44 0.47 0.42 0.38 0.33 0.26 0.29 0.26 0.23 0.20 0.14 0.12 0.08 0.05 0.03 0.02
0.01 0.02 0.04 0.03 0.03 0.03 0.03 0.04 0.08 0.12 0.15 0.17 0.18 0.19 0.17 0.16 0.20 0.24 0.26 0.32 0.43 0.53 0.65 0.72 0.67 0.63 0.58 0.52 0.46 0.38 0.29 0.24 0.22 0.24 0.20 0.13 0.08 0.04 0.03 0.01 0.01 0.00 0.01
0.02 0.03 0.03 0.03 0.04 0.04 0.03 0.02 0.04 0.09 0.13 0.15 0.16 0.18 0.18 0.18 0.21 0.25 0.28 0.33 0.40 0.46 0.54 0.60 0.61 0.55 0.48 0.42 0.35 0.25 0.22 0.18 0.13 0.12 0.09 0.04 0.02 0.02 0.01 0.00 0.00 0.00 0.00
0.02 0.02 0.03 0.02 0.02 0.02 0.02 0.03 0.07 0.12 0.15 0.17 0.18 0.20 0.20 0.20 0.22 0.26 0.31 0.38 0.39 0.37 0.34 0.31 0.29 0.26 0.21 0.17 0.16 0.12 0.09 0.05 0.03 0.02 0.01 0.00 0.00 0.00 0.00 0.00 0.00 0.00 0.00
0.02 0.03 0.03 0.04 0.03 0.03 0.05 0.07 0.08 0.10 0.15 0.19 0.21 0.23 0.26 0.32 0.38 0.36 0.32 0.30 0.30 0.31 0.27 0.19 0.14 0.10 0.06 0.04 0.04 0.03 0.03 0.02 0.00 0.00 0.00 0.00 0.00 0.00 0.00 0.00 0.00 0.00 0.00
0.02 0.04 0.05 0.06 0.06 0.09 0.24 0.19 0.16 0.15 0.16 0.20 0.25 0.33 0.41 0.49 0.45 0.41 0.32 0.25 0.17 0.12 0.09 0.06 0.04 0.02 0.02 0.01 0.01 0.01 0.00 0.01 0.01 0.00 0.00 0.00 0.00 0.00 0.00 0.00 0.00 0.00 0.00
0.05 0.04 0.07 0.10 0.11 0.16 0.28 0.24 0.31 0.34 0.41 0.46 0.47 0.44 0.36 0.33 0.31 0.26 0.22 0.17 0.12 0.07 0.03 0.01 0.00 0.00 0.00 0.00 0.00 0.00 0.00 0.01 0.01 0.00 0.00 0.00 0.00 0.00 0.00 0.00 0.00 0.00 0.00
0.14 0.22 0.16 0.21 0.31 0.50 0.62 0.57 0.49 0.42 0.44 0.47 0.44 0.39 0.32 0.26 0.18 0.12 0.07 0.03 0.01 0.00 0.00 0.00 0.00 0.00 0.00 0.00 0.00 0.02 0.01 0.00 0.00 0.00 0.00 0.00 0.00 0.00 0.00 0.00 0.00 0.00 0.00
0.22 0.35 0.39 0.35 0.46 0.61 0.61 0.47 0.43 0.39 0.29 0.19 0.14 0.07 0.03 0.02 0.02 0.00 0.00 0.00 0.00 0.00 0.00 0.00 0.00 0.00 0.00 0.00 0.00 0.00 0.00 0.00 0.00 0.00 0.00 0.00 0.00 0.00 0.00 0.00 0.00 0.00 0.00
0.40 0.46 0.53 0.53 0.47 0.41 0.31 0.19 0.10 0.08 0.05 0.02 0.00 0.00 0.00 0.00 0.00 0.00 0.00 0.00 0.00 0.00 0.00 0.00 0.00 0.00 0.00 0.00 0.00 0.00 0.00 0.00 0.02 0.02 0.00 0.01 0.00 0.00 0.02 0.00 0.00 0.00 0.00

GFSMA_prec_precacc24_054.txt.gz
Total_Precipitation_Accumulation
0.00 0.00 0.00 0.00 0.00 0.00 0.00 0.00 0.00 0.00 0.00 0.00 0.00 0.00 0.00 0.00 0.00 0.00 0.00 0.00 0.00 0.00 0.00 0.00 0.00 0.00 0.00 0.00 0.00 0.00 0.00 0.00 0.00 0.00 0.00 0.00 0.00 0.00 0.00 0.00 0.00 0.00 0.00
0.00 0.00 0.00 0.00 0.00 0.00 0.00 0.00 0.00 0.00 0.00 0.00 0.00 0.00 0.00 0.00 0.00 0.00 0.00 0.00 0.00 0.00 0.00 0.00 0.00 0.00 0.00 0.00 0.00 0.00 0.00 0.00 0.00 0.00 0.00 0.00 0.00 0.00 0.00 0.00 0.00 0.00 0.00
0.00 0.00 0.00 0.00 0.00 0.00 0.00 0.00 0.00 0.00 0.00 0.00 0.00 0.00 0.00 0.00 0.00 0.00 0.00 0.00 0.00 0.00 0.00 0.00 0.00 0.00 0.00 0.00 0.00 0.00 0.00 0.00 0.00 0.00 0.00 0.00 0.00 0.00 0.00 0.00 0.00 0.00 0.00
0.00 0.00 0.00 0.00 0.00 0.00 0.00 0.00 0.00 0.00 0.00 0.00 0.00 0.00 0.00 0.00 0.00 0.00 0.00 0.00 0.00 0.00 0.00 0.00 0.00 0.00 0.00 0.00 0.00 0.00 0.00 0.00 0.00 0.00 0.00 0.00 0.00 0.00 0.00 0.00 0.00 0.00 0.00
0.00 0.00 0.00 0.00 0.00 0.00 0.00 0.00 0.00 0.00 0.00 0.00 0.00 0.00 0.00 0.00 0.00 0.00 0.00 0.00 0.00 0.00 0.00 0.00 0.00 0.00 0.00 0.00 0.00 0.00 0.00 0.00 0.00 0.00 0.00 0.00 0.00 0.00 0.00 0.00 0.00 0.00 0.00
0.02 0.02 0.00 0.00 0.00 0.00 0.00 0.00 0.00 0.00 0.00 0.00 0.00 0.00 0.00 0.00 0.00 0.00 0.00 0.00 0.00 0.00 0.00 0.00 0.00 0.00 0.00 0.00 0.00 0.00 0.00 0.00 0.00 0.00 0.00 0.00 0.00 0.00 0.00 0.00 0.00 0.00 0.00
0.12 0.08 0.04 0.03 0.01 0.00 0.00 0.00 0.00 0.00 0.00 0.03 0.02 0.00 0.00 0.00 0.00 0.00 0.00 0.00 0.00 0.00 0.00 0.00 0.00 0.00 0.00 0.00 0.00 0.00 0.00 0.00 0.00 0.00 0.00 0.00 0.00 0.00 0.00 0.00 0.00 0.00 0.00
0.15 0.10 0.10 0.11 0.05 0.02 0.01 0.02 0.04 0.07 0.07 0.13 0.16 0.04 0.00 0.00 0.00 0.00 0.00 0.00 0.00 0.00 0.00 0.00 0.00 0.00 0.00 0.00 0.00 0.00 0.00 0.00 0.00 0.00 0.00 0.00 0.00 0.00 0.00 0.00 0.00 0.00 0.00
0.13 0.14 0.18 0.20 0.21 0.12 0.06 0.08 0.13 0.14 0.14 0.16 0.15 0.14 0.02 0.00 0.00 0.00 0.00 0.00 0.00 0.00 0.00 0.01 0.01 0.01 0.01 0.00 0.00 0.00 0.00 0.00 0.00 0.00 0.00 0.00 0.00 0.00 0.00 0.00 0.00 0.00 0.00
0.06 0.12 0.13 0.22 0.29 0.21 0.15 0.10 0.17 0.17 0.17 0.11 0.12 0.09 0.08 0.03 0.03 0.02 0.01 0.01 0.01 0.00 0.00 0.01 0.01 0.01 0.01 0.00 0.00 0.00 0.00 0.01 0.02 0.03 0.05 0.06 0.04 0.01 0.00 0.00 0.00 0.00 0.00
0.07 0.10 0.09 0.18 0.23 0.23 0.26 0.29 0.22 0.20 0.15 0.17 0.16 0.17 0.13 0.11 0.07 0.05 0.02 0.04 0.05 0.04 0.02 0.01 0.00 0.00 0.00 0.00 0.00 0.01 0.05 0.07 0.09 0.08 0.06 0.07 0.06 0.05 0.03 0.01 0.00 0.00 0.00
0.04 0.06 0.08 0.09 0.16 0.23 0.25 0.27 0.33 0.26 0.22 0.20 0.17 0.16 0.17 0.19 0.13 0.09 0.07 0.07 0.07 0.04 0.02 0.01 0.00 0.00 0.00 0.01 0.03 0.07 0.14 0.19 0.24 0.28 0.28 0.21 0.14 0.14 0.15 0.09 0.05 0.03 0.02
0.01 0.05 0.07 0.09 0.10 0.13 0.23 0.31 0.31 0.28 0.30 0.27 0.23 0.20 0.21 0.22 0.24 0.25 0.27 0.22 0.17 0.11 0.07 0.06 0.06 0.05 0.05 0.06 0.09 0.16 0.21 0.26 0.29 0.31 0.29 0.26 0.22 0.18 0.15 0.16 0.14 0.14 0.12
0.00 0.03 0.08 0.09 0.12 0.13 0.14 0.18 0.20 0.24 0.28 0.26 0.25 0.23 0.23 0.24 0.25 0.27 0.32 0.32 0.31 0.21 0.13 0.07 0.05 0.08 0.10 0.11 0.14 0.20 0.24 0.35 0.40 0.46 0.51 0.54 0.54 0.43 0.35 0.32 0.28 0.26 0.25
0.00 0.00 0.03 0.06 0.09 0.13 0.16 0.19 0.19 0.21 0.26 0.25 0.26 0.27 0.21 0.18 0.21 0.21 0.22 0.23 0.29 0.27 0.19 0.12 0.14 0.16 0.20 0.29 0.42 0.50 0.57 0.67 0.71 0.73 0.73 0.71 0.63 0.46 0.32 0.25 0.20 0.18 0.16
0.00 0.01 0.01 0.01 0.04 0.10 0.16 0.19 0.18 0.21 0.24 0.27 0.28 0.29 0.25 0.19 0.21 0.21 0.20 0.18 0.26 0.38 0.48 0.40 0.45 0.52 0.55 0.55 0.58 0.52 0.50 0.54 0.52 0.54 0.55 0.53 0.47 0.39 0.27 0.21 0.18 0.17 0.16
0.00 0.00 0.01 0.02 0.02 0.04 0.08 0.14 0.16 0.18 0.23 0.23 0.22 0.28 0.30 0.34 0.44 0.53 0.59 0.68 0.79 0.90 0.95 0.82 0.63 0.54 0.48 0.44 0.47 0.42 0.39 0.36 0.37 0.48 0.42 0.36 0.31 0.24 0.20 0.18 0.14 0.12 0.10
0.00 0.00 0.01 0.01 0.02 0.02 0.03 0.04 0.08 0.11 0.13 0.14 0.15 0.15 0.15 0.16 0.20 0.24 0.26 0.32 0.43 0.53 0.65 0.72 0.67 0.63 0.58 0.52 0.47 0.39 0.33 0.30 0.29 0.34 0.29 0.20 0.14 0.11 0.09 0.07 0.08 0.07 0.05
0.00 0.01 0.01 0.02 0.03 0.03 0.03 0.02 0.03 0.06 0.09 0.11 0.12 0.14 0.17 0.18 0.21 0.25 0.28 0.33 0.40 0.46 0.54 0.60 0.61 0.55 0.48 0.42 0.35 0.26 0.24 0.21 0.18 0.19 0.16 0.12 0.09 0.08 0.06 0.06 0.04 0.03 0.01
0.01 0.01 0.01 0.01 0.01 0.02 0.01 0.01 0.02 0.03 0.06 0.09 0.10 0.13 0.15 0.19 0.21 0.25 0.31 0.38 0.39 0.37 0.34 0.31 0.29 0.26 0.21 0.17 0.16 0.12 0.09 0.06 0.03 0.03 0.02 0.01 0.01 0.01 0.01 0.01 0.01 0.00 0.00
0.01 0.01 0.02 0.02 0.02 0.02 0.03 0.03 0.03 0.05 0.09 0.12 0.14 0.18 0.24 0.32 0.38 0.36 0.32 0.30 0.30 0.31 0.27 0.19 0.14 0.10 0.06 0.04 0.04 0.03 0.03 0.02 0.00 0.00 0.00 0.00 0.00 0.00 0.00 0.00 0.00 0.00 0.00
0.01 0.02 0.03 0.03 0.04 0.06 0.15 0.11 0.08 0.07 0.09 0.13 0.19 0.28 0.37 0.48 0.45 0.41 0.33 0.25 0.18 0.12 0.09 0.06 0.04 0.02 0.02 0.01 0.01 0.01 0.00 0.00 0.00 0.00 0.00 0.00 0.00 0.00 0.00 0.00 0.00 0.00 0.00
0.03 0.03 0.04 0.07 0.09 0.11 0.19 0.15 0.21 0.22 0.28 0.34 0.40 0.39 0.34 0.32 0.30 0.26 0.22 0.17 0.12 0.08 0.03 0.01 0.00 0.00 0.00 0.00 0.00 0.00 0.00 0.00 0.00 0.00 0.00 0.00 0.00 0.00 0.00 0.00 0.00 0.00 0.00
0.07 0.15 0.11 0.12 0.16 0.26 0.31 0.29 0.26 0.25 0.32 0.38 0.38 0.36 0.31 0.25 0.18 0.12 0.07 0.03 0.01 0.00 0.00 0.00 0.00 0.00 0.00 0.00 0.00 0.01 0.00 0.00 0.00 0.00 0.00 0.00 0.00 0.00 0.00 0.00 0.00 0.00 0.00
0.06 0.21 0.25 0.17 0.21 0.36 0.42 0.36 0.36 0.33 0.25 0.17 0.13 0.07 0.03 0.02 0.02 0.00 0.00 0.00 0.00 0.00 0.00 0.00 0.00 0.00 0.00 0.00 0.00 0.00 0.00 0.00 0.00 0.00 0.00 0.00 0.00 0.00 0.00 0.00 0.00 0.00 0.00
0.17 0.20 0.37 0.41 0.37 0.33 0.23 0.15 0.09 0.07 0.05 0.02 0.00 0.00 0.00 0.00 0.00 0.00 0.00 0.00 0.00 0.00 0.00 0.00 0.00 0.00 0.00 0.00 0.00 0.00 0.00 0.00 0.01 0.01 0.00 0.00 0.00 0.00 0.01 0.00 0.00 0.00 0.00

GFSMA_prec_precacc24_057.txt.gz
Total_Precipitation_Accumulation
0.00 0.00 0.00 0.00 0.00 0.00 0.00 0.00 0.00 0.00 0.00 0.00 0.00 0.00 0.00 0.00 0.00 0.00 0.00 0.00 0.00 0.00 0.00 0.00 0.00 0.00 0.00 0.00 0.00 0.00 0.00 0.00 0.00 0.00 0.00 0.00 0.00 0.00 0.00 0.00 0.00 0.00 0.00
0.00 0.00 0.00 0.00 0.00 0.00 0.00 0.00 0.00 0.00 0.00 0.00 0.00 0.00 0.00 0.00 0.00 0.00 0.00 0.00 0.00 0.00 0.00 0.00 0.00 0.00 0.00 0.00 0.00 0.00 0.00 0.00 0.00 0.00 0.00 0.00 0.00 0.00 0.00 0.00 0.00 0.00 0.00
0.00 0.00 0.00 0.00 0.00 0.00 0.00 0.00 0.00 0.00 0.00 0.00 0.00 0.00 0.00 0.00 0.00 0.00 0.00 0.00 0.00 0.00 0.00 0.00 0.00 0.00 0.00 0.00 0.00 0.00 0.00 0.00 0.00 0.00 0.00 0.00 0.00 0.00 0.00 0.00 0.00 0.00 0.00
0.00 0.00 0.00 0.00 0.00 0.00 0.00 0.00 0.00 0.00 0.00 0.00 0.00 0.00 0.00 0.00 0.00 0.00 0.00 0.00 0.00 0.00 0.00 0.00 0.00 0.00 0.00 0.00 0.00 0.00 0.00 0.00 0.00 0.00 0.00 0.00 0.00 0.00 0.00 0.00 0.00 0.00 0.00
0.00 0.00 0.00 0.00 0.00 0.00 0.00 0.00 0.00 0.00 0.00 0.00 0.00 0.00 0.00 0.00 0.00 0.00 0.00 0.00 0.00 0.00 0.00 0.00 0.00 0.00 0.00 0.00 0.00 0.00 0.00 0.00 0.00 0.00 0.00 0.00 0.00 0.00 0.00 0.00 0.00 0.00 0.00
0.02 0.02 0.00 0.00 0.00 0.00 0.00 0.00 0.00 0.00 0.00 0.00 0.00 0.00 0.00 0.00 0.00 0.00 0.00 0.01 0.01 0.00 0.00 0.00 0.00 0.00 0.00 0.00 0.00 0.00 0.00 0.00 0.00 0.00 0.00 0.00 0.00 0.00 0.00 0.00 0.00 0.00 0.00
0.09 0.07 0.02 0.03 0.01 0.00 0.00 0.00 0.00 0.00 0.00 0.03 0.02 0.00 0.00 0.00 0.00 0.00 0.00 0.02 0.01 0.01 0.00 0.00 0.00 0.00 0.00 0.00 0.00 0.00 0.00 0.00 0.00 0.00 0.00 0.00 0.00 0.00 0.00 0.00 0.00 0.00 0.00
0.11 0.09 0.08 0.09 0.05 0.02 0.01 0.02 0.04 0.07 0.07 0.13 0.16 0.04 0.00 0.00 0.00 0.00 0.00 0.00 0.00 0.00 0.00 0.00 0.00 0.00 0.00 0.00 0.00 0.00 0.00 0.00 0.01 0.02 0.01 0.01 0.00 0.00 0.00 0.00 0.00 0.00 0.00
0.10 0.12 0.15 0.16 0.16 0.12 0.06 0.08 0.13 0.14 0.14 0.16 0.15 0.14 0.02 0.00 0.00 0.00 0.00 0.00 0.00 0.00 0.00 0.01 0.01 0.01 0.01 0.00 0.00 0.00 0.00 0.00 0.00 0.01 0.04 0.04 0.01 0.00 0.00 0.00 0.00 0.00 0.01
0.01 0.07 0.10 0.14 0.16 0.18 0.15 0.10 0.17 0.17 0.17 0.11 0.12 0.09 0.08 0.04 0.04 0.02 0.01 0.01 0.01 0.00 0.00 0.01 0.01 0.01 0.01 0.00 0.00 0.00 0.00 0.01 0.02 0.05 0.07 0.17 0.26 0.18 0.09 0.05 0.04 0.03 0.02
0.02 0.04 0.06 0.11 0.14 0.16 0.20 0.24 0.21 0.19 0.15 0.17 0.16 0.17 0.13 0.12 0.07 0.06 0.03 0.04 0.05 0.04 0.02 0.01 0.00 0.00 0.00 0.00 0.00 0.01 0.05 0.07 0.09 0.12 0.15 0.19 0.27 0.33 0.29 0.22 0.17 0.11 0.07
0.01 0.02 0.05 0.04 0.09 0.16 0.20 0.21 0.28 0.23 0.21 0.20 0.17 0.17 0.18 0.19 0.13 0.09 0.08 0.07 0.07 0.04 0.02 0.01 0.00 0.00 0.00 0.01 0.03 0.07 0.14 0.19 0.24 0.30 0.36 0.38 0.33 0.28 0.28 0.34 0.34 0.26 0.20
0.01 0.04 0.05 0.07 0.07 0.09 0.16 0.25 0.26 0.25 0.28 0.26 0.23 0.21 0.23 0.24 0.24 0.25 0.27 0.22 0.17 0.11 0.07 0.06 0.06 0.05 0.05 0.06 0.09 0.16 0.21 0.26 0.29 0.31 0.34 0.37 0.35 0.30 0.28 0.34 0.46 0.42 0.38
0.00 0.02 0.04 0.04 0.06 0.07 0.09 0.14 0.17 0.22 0.27 0.27 0.25 0.24 0.23 0.24 0.25 0.27 0.32 0.32 0.31 0.21 0.13 0.07 0.05 0.08 0.10 0.11 0.14 0.20 0.24 0.35 0.40 0.47 0.55 0.64 0.69 0.62 0.50 0.47 0.53 0.53 0.42
0.00 0.00 0.02 0.03 0.03 0.05 0.09 0.13 0.15 0.18 0.24 0.25 0.26 0.26 0.21 0.18 0.20 0.20 0.22 0.24 0.29 0.28 0.19 0.13 0.14 0.16 0.20 0.29 0.42 0.50 0.57 0.67 0.71 0.73 0.75 0.76 0.75 0.67 0.52 0.43 0.38 0.33 0.28
0.00 0.00 0.00 0.00 0.01 0.03 0.05 0.08 0.11 0.17 0.22 0.27 0.27 0.28 0.25 0.19 0.21 0.22 0.20 0.19 0.26 0.38 0.49 0.40 0.45 0.52 0.55 0.55 0.58 0.52 0.50 0.54 0.52 0.54 0.56 0.60 0.58 0.47 0.43 0.38 0.33 0.30 0.25
0.00 0.00 0.01 0.01 0.01 0.02 0.04 0.07 0.09 0.15 0.22 0.22 0.22 0.27 0.30 0.34 0.43 0.53 0.59 0.67 0.79 0.90 0.95 0.82 0.63 0.54 0.48 0.44 0.47 0.42 0.39 0.36 0.37 0.50 0.48 0.47 0.40 0.30 0.25 0.22 0.20 0.18 0.16
0.00 0.00 0.00 0.00 0.02 0.01 0.02 0.03 0.05 0.09 0.12 0.12 0.11 0.11 0.09 0.09 0.13 0.18 0.24 0.31 0.41 0.52 0.64 0.71 0.67 0.63 0.58 0.52 0.47 0.39 0.33 0.30 0.29 0.35 0.32 0.23 0.16 0.12 0.11 0.10 0.11 0.11 0.09
0.00 0.01 0.01 0.02 0.03 0.02 0.02 0.02 0.03 0.05 0.07 0.09 0.09 0.10 0.11 0.12 0.14 0.19 0.23 0.29 0.36 0.44 0.52 0.59 0.61 0.55 0.48 0.42 0.35 0.26 0.24 0.21 0.18 0.19 0.16 0.12 0.10 0.09 0.08 0.09 0.08 0.06 0.05
0.00 0.01 0.01 0.01 0.01 0.01 0.01 0.01 0.01 0.03 0.04 0.04 0.05 0.07 0.07 0.09 0.13 0.17 0.22 0.30 0.35 0.35 0.33 0.31 0.29 0.26 0.21 0.17 0.16 0.12 0.09 0.06 0.03 0.03 0.02 0.02 0.01 0.01 0.02 0.02 0.01 0.01 0.00
0.00 0.01 0.01 0.02 0.01 0.01 0.02 0.01 0.01 0.01 0.03 0.06 0.08 0.10 0.12 0.21 0.29 0.29 0.26 0.26 0.28 0.30 0.26 0.19 0.14 0.10 0.06 0.04 0.04 0.03 0.03 0.02 0.00 0.00 0.00 0.00 0.00 0.00 0.00 0.00 0.00 0.00 0.00
0.01 0.01 0.02 0.01 0.01 0.01 0.06 0.04 0.02 0.04 0.05 0.08 0.10 0.16 0.25 0.37 0.36 0.34 0.29 0.23 0.16 0.12 0.09 0.06 0.04 0.02 0.02 0.01 0.01 0.01 0.00 0.00 0.00 0.00 0.00 0.00 0.00 0.00 0.00 0.00 0.00 0.00 0.00
0.01 0.01 0.01 0.02 0.04 0.05 0.11 0.06 0.08 0.14 0.18 0.20 0.24 0.26 0.24 0.24 0.22 0.18 0.18 0.16 0.11 0.08 0.03 0.01 0.00 0.00 0.00 0.00 0.00 0.00 0.00 0.00 0.00 0.00 0.00 0.00 0.00 0.00 0.00 0.00 0.00 0.00 0.00
0.01 0.02 0.02 0.04 0.07 0.16 0.18 0.17 0.15 0.12 0.17 0.22 0.25 0.26 0.23 0.20 0.16 0.11 0.07 0.03 0.01 0.00 0.00 0.00 0.00 0.00 0.00 0.00 0.00 0.00 0.00 0.00 0.00 0.00 0.00 0.00 0.00 0.00 0.00 0.00 0.00 0.00 0.00
0.01 0.03 0.08 0.05 0.12 0.26 0.30 0.24 0.27 0.25 0.18 0.11 0.10 0.06 0.03 0.02 0.02 0.00 0.00 0.00 0.00 0.00 0.00 0.00 0.00 0.00 0.00 0.00 0.00 0.00 0.00 0.00 0.00 0.00 0.00 0.00 0.00 0.00 0.00 0.00 0.00 0.00 0.00
0.02 0.03 0.10 0.19 0.21 0.22 0.17 0.09 0.04 0.03 0.03 0.01 0.00 0.00 0.00 0.00 0.00 0.00 0.00 0.00 0.00 0.00 0.00 0.00 0.00 0.00 0.00 0.00 0.00 0.00 0.00 0.00 0.00 0.00 0.00 0.00 0.00 0.00 0.01 0.00 0.00 0.00 0.00

GFSMA_prec_precacc24_060.txt.gz
Total_Precipitation_Accumulation
0.00 0.00 0.00 0.00 0.00 0.00 0.00 0.00 0.00 0.00 0.00 0.00 0.00 0.00 0.00 0.00 0.00 0.00 0.00 0.00 0.00 0.00 0.00 0.00 0.00 0.00 0.00 0.00 0.00 0.00 0.00 0.00 0.00 0.00 0.00 0.00 0.00 0.00 0.00 0.00 0.00 0.00 0.00
0.00 0.00 0.00 0.00 0.00 0.00 0.00 0.00 0.00 0.00 0.00 0.00 0.00 0.00 0.00 0.00 0.00 0.00 0.00 0.00 0.00 0.00 0.00 0.00 0.00 0.00 0.00 0.00 0.00 0.00 0.00 0.00 0.00 0.00 0.00 0.00 0.00 0.00 0.00 0.00 0.00 0.00 0.00
0.00 0.00 0.00 0.00 0.00 0.00 0.00 0.00 0.00 0.00 0.00 0.00 0.00 0.00 0.00 0.00 0.00 0.00 0.00 0.00 0.00 0.00 0.00 0.00 0.00 0.00 0.00 0.00 0.00 0.00 0.00 0.00 0.00 0.00 0.00 0.00 0.00 0.00 0.00 0.00 0.00 0.00 0.00
0.00 0.00 0.00 0.00 0.00 0.00 0.00 0.00 0.00 0.00 0.00 0.00 0.00 0.00 0.00 0.00 0.00 0.00 0.00 0.00 0.00 0.00 0.00 0.00 0.00 0.00 0.00 0.00 0.00 0.00 0.00 0.00 0.00 0.00 0.00 0.00 0.00 0.00 0.00 0.00 0.00 0.00 0.00
0.00 0.00 0.00 0.00 0.00 0.00 0.00 0.00 0.00 0.00 0.00 0.00 0.00 0.00 0.00 0.00 0.00 0.00 0.00 0.00 0.00 0.00 0.00 0.00 0.00 0.00 0.00 0.00 0.01 0.01 0.00 0.00 0.00 0.00 0.00 0.00 0.00 0.00 0.00 0.00 0.00 0.00 0.00
0.01 0.02 0.00 0.00 0.00 0.00 0.00 0.00 0.00 0.00 0.00 0.00 0.00 0.00 0.00 0.00 0.00 0.00 0.00 0.01 0.01 0.01 0.00 0.00 0.00 0.00 0.00 0.00 0.00 0.00 0.01 0.01 0.00 0.00 0.00 0.00 0.00 0.00 0.00 0.00 0.00 0.00 0.00
0.08 0.05 0.02 0.03 0.01 0.00 0.01 0.00 0.00 0.00 0.00 0.03 0.02 0.00 0.00 0.00 0.00 0.00 0.00 0.02 0.01 0.01 0.00 0.00 0.00 0.00 0.00 0.00 0.00 0.00 0.00 0.01 0.03 0.02 0.00 0.00 0.00 0.00 0.00 0.00 0.00 0.00 0.00
0.11 0.09 0.08 0.06 0.05 0.02 0.02 0.02 0.05 0.07 0.07 0.13 0.16 0.04 0.00 0.00 0.00 0.00 0.00 0.00 0.00 0.00 0.00 0.00 0.00 0.00 0.00 0.00 0.00 0.00 0.00 0.01 0.03 0.07 0.09 0.03 0.00 0.00 0.00 0.01 0.00 0.00 0.01
0.09 0.12 0.12 0.12 0.15 0.10 0.05 0.07 0.13 0.15 0.15 0.16 0.15 0.14 0.02 0.00 0.00 0.00 0.00 0.00 0.00 0.00 0.00 0.01 0.01 0.01 0.01 0.00 0.00 0.00 0.00 0.01 0.02 0.03 0.09 0.15 0.09 0.03 0.00 0.00 0.00 0.01 0.01
0.00 0.04 0.07 0.11 0.13 0.16 0.14 0.09 0.16 0.17 0.18 0.12 0.12 0.09 0.08 0.04 0.04 0.03 0.01 0.01 0.01 0.00 0.00 0.01 0.01 0.01 0.01 0.00 0.00 0.00 0.00 0.01 0.03 0.06 0.13 0.23 0.41 0.38 0.21 0.08 0.05 0.05 0.07
0.01 0.00 0.01 0.06 0.11 0.12 0.17 0.22 0.19 0.19 0.15 0.18 0.16 0.18 0.14 0.12 0.07 0.06 0.03 0.05 0.05 0.04 0.02 0.01 0.00 0.00 0.00 0.00 0.00 0.01 0.05 0.07 0.09 0.13 0.19 0.27 0.39 0.44 0.39 0.29 0.23 0.16 0.13
0.01 0.01 0.01 0.01 0.06 0.14 0.16 0.17 0.23 0.18 0.18 0.19 0.16 0.17 0.18 0.20 0.14 0.09 0.08 0.07 0.07 0.04 0.02 0.01 0.00 0.00 0.00 0.01 0.03 0.07 0.14 0.19 0.24 0.30 0.37 0.44 0.44 0.42 0.40 0.44 0.45 0.38 0.31
0.01 0.04 0.05 0.05 0.06 0.06 0.09 0.16 0.18 0.18 0.23 0.23 0.21 0.20 0.23 0.25 0.25 0.26 0.28 0.23 0.18 0.11 0.07 0.06 0.06 0.05 0.05 0.06 0.09 0.16 0.21 0.26 0.29 0.31 0.34 0.39 0.44 0.44 0.39 0.42 0.52 0.52 0.53
0.00 0.01 0.04 0.03 0.03 0.03 0.03 0.07 0.09 0.14 0.20 0.22 0.22 0.22 0.22 0.24 0.26 0.28 0.32 0.33 0.32 0.21 0.13 0.07 0.05 0.08 0.10 0.11 0.14 0.20 0.24 0.35 0.40 0.47 0.55 0.64 0.71 0.72 0.68 0.62 0.64 0.77 0.71
0.00 0.00 0.02 0.02 0.01 0.03 0.05 0.05 0.05 0.08 0.15 0.19 0.23 0.26 0.22 0.19 0.20 0.20 0.22 0.24 0.29 0.28 0.19 0.13 0.14 0.16 0.20 0.29 0.42 0.50 0.57 0.67 0.71 0.73 0.75 0.76 0.75 0.68 0.55 0.50 0.49 0.41 0.39
0.00 0.00 0.00 0.00 0.01 0.02 0.03 0.05 0.06 0.09 0.13 0.19 0.24 0.27 0.24 0.19 0.21 0.22 0.20 0.18 0.25 0.37 0.49 0.39 0.45 0.52 0.55 0.55 0.58 0.52 0.50 0.54 0.53 0.55 0.57 0.60 0.60 0.50 0.44 0.41 0.42 0.39 0.34
0.00 0.00 0.00 0.01 0.01 0.02 0.03 0.05 0.07 0.10 0.16 0.16 0.16 0.20 0.23 0.28 0.41 0.52 0.57 0.65 0.76 0.85 0.90 0.78 0.62 0.53 0.46 0.43 0.47 0.42 0.39 0.36 0.37 0.50 0.49 0.49 0.45 0.34 0.28 0.25 0.22 0.21 0.19
0.00 0.00 0.00 0.00 0.01 0.01 0.01 0.02 0.04 0.06 0.10 0.10 0.09 0.10 0.08 0.07 0.10 0.12 0.14 0.20 0.31 0.44 0.59 0.65 0.60 0.56 0.53 0.49 0.45 0.39 0.33 0.30 0.29 0.35 0.32 0.24 0.18 0.13 0.12 0.11 0.11 0.10 0.09
0.00 0.00 0.00 0.01 0.02 0.02 0.02 0.01 0.01 0.03 0.05 0.05 0.05 0.06 0.07 0.06 0.08 0.13 0.16 0.19 0.25 0.31 0.40 0.50 0.55 0.52 0.46 0.40 0.33 0.26 0.24 0.21 0.18 0.19 0.16 0.12 0.10 0.09 0.08 0.09 0.08 0.06 0.06
0.00 0.00 0.00 0.00 0.00 0.00 0.00 0.01 0.01 0.01 0.02 0.02 0.03 0.04 0.04 0.06 0.07 0.08 0.10 0.15 0.18 0.21 0.25 0.27 0.27 0.24 0.19 0.16 0.15 0.11 0.09 0.06 0.03 0.03 0.02 0.02 0.01 0.01 0.02 0.02 0.01 0.01 0.00
0.00 0.00 0.00 0.00 0.00 0.00 0.01 0.01 0.00 0.00 0.01 0.04 0.05 0.05 0.06 0.11 0.12 0.10 0.12 0.15 0.18 0.22 0.21 0.15 0.11 0.08 0.05 0.04 0.04 0.03 0.03 0.02 0.00 0.00 0.00 0.00 0.00 0.00 0.00 0.00 0.00 0.00 0.00
0.00 0.00 0.00 0.00 0.00 0.00 0.03 0.02 0.01 0.02 0.02 0.04 0.05 0.08 0.13 0.20 0.21 0.24 0.22 0.18 0.12 0.07 0.04 0.03 0.03 0.02 0.02 0.01 0.01 0.01 0.00 0.00 0.00 0.00 0.00 0.00 0.00 0.00 0.00 0.00 0.00 0.00 0.00
0.00 0.00 0.00 0.00 0.01 0.02 0.05 0.02 0.02 0.02 0.03 0.06 0.12 0.13 0.12 0.15 0.16 0.14 0.13 0.11 0.08 0.05 0.03 0.01 0.00 0.00 0.00 0.00 0.00 0.00 0.00 0.00 0.00 0.00 0.00 0.00 0.00 0.00 0.00 0.00 0.00 0.00 0.00
0.00 0.01 0.01 0.01 0.01 0.06 0.06 0.05 0.06 0.07 0.11 0.16 0.19 0.20 0.17 0.15 0.13 0.10 0.06 0.03 0.01 0.00 0.00 0.00 0.00 0.00 0.00 0.00 0.00 0.00 0.00 0.00 0.00 0.00 0.00 0.00 0.00 0.00 0.00 0.00 0.00 0.00 0.00
0.00 0.00 0.01 0.01 0.02 0.07 0.10 0.10 0.15 0.19 0.16 0.09 0.07 0.04 0.02 0.02 0.02 0.00 0.00 0.00 0.00 0.00 0.00 0.00 0.00 0.00 0.00 0.00 0.00 0.00 0.00 0.00 0.00 0.00 0.00 0.00 0.00 0.00 0.00 0.00 0.00 0.00 0.00
0.00 0.00 0.01 0.04 0.06 0.08 0.07 0.05 0.03 0.02 0.02 0.01 0.00 0.00 0.00 0.00 0.00 0.00 0.00 0.00 0.00 0.00 0.00 0.00 0.00 0.00 0.00 0.00 0.00 0.00 0.00 0.00 0.00 0.00 0.00 0.00 0.00 0.00 0.00 0.00 0.00 0.00 0.00

GFSMA_prec_precacc24_063.txt.gz
Total_Precipitation_Accumulation
0.00 0.00 0.00 0.00 0.00 0.00 0.00 0.00 0.00 0.00 0.00 0.00 0.00 0.00 0.00 0.00 0.00 0.00 0.00 0.00 0.00 0.00 0.00 0.01 0.00 0.00 0.00 0.00 0.00 0.00 0.00 0.00 0.00 0.00 0.00 0.00 0.00 0.00 0.00 0.00 0.00 0.00 0.00
0.00 0.00 0.00 0.00 0.00 0.00 0.00 0.00 0.00 0.00 0.00 0.00 0.00 0.00 0.00 0.00 0.00 0.00 0.00 0.00 0.00 0.00 0.00 0.00 0.00 0.00 0.00 0.00 0.00 0.00 0.00 0.00 0.00 0.00 0.00 0.00 0.00 0.00 0.00 0.00 0.00 0.00 0.00
0.00 0.00 0.00 0.00 0.00 0.00 0.00 0.00 0.00 0.00 0.00 0.00 0.00 0.00 0.00 0.00 0.00 0.00 0.00 0.00 0.00 0.00 0.00 0.00 0.00 0.00 0.00 0.00 0.00 0.00 0.00 0.00 0.00 0.00 0.00 0.00 0.00 0.00 0.00 0.00 0.00 0.00 0.00
0.00 0.00 0.00 0.00 0.00 0.00 0.00 0.00 0.00 0.00 0.00 0.00 0.00 0.00 0.00 0.00 0.00 0.00 0.00 0.00 0.00 0.00 0.00 0.00 0.00 0.00 0.00 0.01 0.01 0.01 0.00 0.00 0.00 0.00 0.00 0.00 0.00 0.00 0.00 0.00 0.00 0.00 0.00
0.00 0.00 0.00 0.00 0.00 0.00 0.00 0.00 0.00 0.00 0.00 0.00 0.00 0.00 0.00 0.00 0.00 0.00 0.00 0.00 0.00 0.00 0.00 0.00 0.00 0.00 0.01 0.00 0.01 0.02 0.03 0.01 0.00 0.00 0.00 0.00 0.00 0.00 0.00 0.00 0.00 0.00 0.00
0.01 0.01 0.00 0.00 0.00 0.00 0.00 0.00 0.00 0.00 0.00 0.00 0.00 0.00 0.00 0.00 0.00 0.00 0.00 0.01 0.01 0.01 0.00 0.00 0.00 0.00 0.00 0.00 0.00 0.00 0.02 0.05 0.04 0.00 0.00 0.00 0.00 0.00 0.00 0.00 0.00 0.00 0.00
0.07 0.05 0.02 0.03 0.01 0.00 0.01 0.01 0.01 0.01 0.01 0.05 0.03 0.00 0.00 0.00 0.00 0.00 0.00 0.02 0.01 0.01 0.00 0.00 0.00 0.00 0.00 0.00 0.00 0.00 0.00 0.03 0.07 0.06 0.02 0.01 0.00 0.00 0.00 0.00 0.00 0.00 0.00
0.11 0.09 0.07 0.06 0.05 0.02 0.02 0.02 0.05 0.07 0.07 0.13 0.16 0.05 0.00 0.00 0.00 0.00 0.00 0.00 0.00 0.00 0.00 0.00 0.00 0.00 0.00 0.00 0.00 0.00 0.00 0.03 0.07 0.14 0.19 0.12 0.04 0.01 0.00 0.01 0.00 0.01 0.02
0.09 0.12 0.11 0.11 0.14 0.10 0.05 0.07 0.14 0.16 0.16 0.17 0.16 0.16 0.04 0.00 0.00 0.00 0.00 0.00 0.00 0.00 0.00 0.01 0.01 0.01 0.01 0.00 0.00 0.00 0.00 0.01 0.04 0.08 0.16 0.24 0.24 0.13 0.05 0.01 0.00 0.01 0.01
0.00 0.03 0.06 0.08 0.10 0.15 0.13 0.09 0.16 0.16 0.19 0.12 0.11 0.09 0.09 0.04 0.04 0.03 0.01 0.01 0.01 0.00 0.00 0.01 0.01 0.01 0.01 0.00 0.00 0.00 0.00 0.01 0.03 0.06 0.14 0.27 0.50 0.53 0.35 0.14 0.08 0.06 0.07
0.00 0.00 0.01 0.03 0.08 0.10 0.12 0.18 0.19 0.16 0.12 0.17 0.16 0.18 0.14 0.12 0.08 0.07 0.04 0.05 0.05 0.04 0.02 0.01 0.00 0.00 0.00 0.00 0.00 0.01 0.05 0.07 0.09 0.13 0.19 0.28 0.43 0.56 0.57 0.47 0.32 0.18 0.15
0.01 0.01 0.01 0.01 0.04 0.09 0.11 0.13 0.17 0.14 0.14 0.16 0.15 0.18 0.18 0.20 0.14 0.09 0.08 0.08 0.07 0.05 0.02 0.01 0.00 0.00 0.00 0.01 0.03 0.07 0.14 0.19 0.24 0.30 0.37 0.44 0.46 0.51 0.54 0.62 0.62 0.49 0.38
0.01 0.04 0.04 0.05 0.05 0.05 0.07 0.11 0.13 0.14 0.17 0.18 0.19 0.18 0.22 0.24 0.25 0.27 0.30 0.24 0.18 0.12 0.07 0.06 0.06 0.05 0.05 0.06 0.09 0.16 0.21 0.26 0.29 0.31 0.34 0.39 0.45 0.45 0.41 0.49 0.72 0.85 0.90
0.00 0.01 0.04 0.03 0.03 0.02 0.02 0.05 0.08 0.11 0.15 0.17 0.17 0.18 0.19 0.22 0.23 0.24 0.29 0.33 0.32 0.22 0.13 0.07 0.05 0.08 0.10 0.11 0.14 0.20 0.24 0.35 0.40 0.47 0.55 0.64 0.71 0.72 0.68 0.64 0.74 1.02 0.92
0.00 0.00 0.01 0.02 0.01 0.02 0.04 0.03 0.04 0.06 0.11 0.13 0.16 0.18 0.16 0.16 0.20 0.21 0.23 0.23 0.29 0.26 0.17 0.12 0.14 0.16 0.20 0.29 0.42 0.50 0.57 0.67 0.71 0.73 0.75 0.76 0.75 0.68 0.56 0.50 0.52 0.50 0.43
0.00 0.00 0.00 0.00 0.00 0.01 0.02 0.02 0.03 0.05 0.10 0.15 0.16 0.18 0.18 0.15 0.19 0.21 0.20 0.17 0.23 0.34 0.44 0.37 0.43 0.50 0.53 0.54 0.57 0.51 0.49 0.54 0.53 0.55 0.57 0.61 0.61 0.52 0.46 0.42 0.43 0.40 0.36
0.00 0.00 0.00 0.00 0.00 0.01 0.01 0.02 0.04 0.05 0.08 0.10 0.10 0.14 0.14 0.12 0.12 0.13 0.18 0.31 0.51 0.71 0.83 0.72 0.56 0.49 0.44 0.39 0.43 0.39 0.38 0.36 0.37 0.51 0.49 0.49 0.45 0.35 0.31 0.27 0.23 0.22 0.20
0.00 0.00 0.00 0.00 0.00 0.00 0.00 0.01 0.01 0.02 0.03 0.04 0.05 0.06 0.06 0.04 0.04 0.05 0.06 0.12 0.24 0.37 0.49 0.53 0.49 0.44 0.40 0.37 0.38 0.36 0.32 0.30 0.29 0.35 0.32 0.24 0.18 0.13 0.12 0.11 0.11 0.11 0.09
0.00 0.00 0.00 0.00 0.00 0.00 0.01 0.00 0.00 0.01 0.02 0.02 0.02 0.02 0.04 0.04 0.05 0.06 0.07 0.10 0.16 0.22 0.28 0.36 0.42 0.44 0.42 0.38 0.32 0.25 0.23 0.21 0.18 0.19 0.16 0.12 0.10 0.09 0.08 0.09 0.08 0.06 0.06
0.00 0.00 0.00 0.00 0.00 0.00 0.00 0.00 0.00 0.00 0.00 0.00 0.01 0.01 0.02 0.02 0.03 0.03 0.04 0.07 0.10 0.13 0.16 0.20 0.21 0.21 0.18 0.16 0.13 0.10 0.09 0.06 0.03 0.03 0.02 0.02 0.01 0.01 0.02 0.02 0.01 0.01 0.00
0.00 0.00 0.00 0.00 0.00 0.00 0.00 0.00 0.00 0.00 0.00 0.00 0.00 0.01 0.02 0.05 0.06 0.05 0.05 0.08 0.11 0.13 0.12 0.08 0.07 0.06 0.05 0.04 0.03 0.03 0.03 0.02 0.00 0.00 0.00 0.00 0.00 0.00 0.00 0.00 0.00 0.00 0.00
0.00 0.00 0.00 0.00 0.00 0.00 0.03 0.02 0.00 0.00 0.00 0.01 0.02 0.04 0.05 0.06 0.10 0.18 0.16 0.14 0.09 0.05 0.03 0.02 0.02 0.02 0.02 0.01 0.01 0.01 0.00 0.00 0.00 0.00 0.00 0.00 0.00 0.00 0.00 0.00 0.00 0.00 0.00
0.00 0.00 0.00 0.00 0.00 0.01 0.04 0.01 0.00 0.00 0.00 0.03 0.07 0.08 0.05 0.07 0.09 0.08 0.09 0.08 0.06 0.04 0.02 0.01 0.00 0.00 0.00 0.00 0.00 0.00 0.00 0.00 0.00 0.00 0.00 0.00 0.00 0.00 0.00 0.00 0.00 0.00 0.00
0.00 0.00 0.00 0.00 0.00 0.01 0.02 0.00 0.01 0.03 0.05 0.08 0.10 0.11 0.10 0.11 0.11 0.09 0.06 0.03 0.01 0.00 0.00 0.00 0.00 0.00 0.00 0.00 0.00 0.00 0.00 0.00 0.00 0.00 0.00 0.00 0.00 0.00 0.00 0.00 0.00 0.00 0.00
0.00 0.00 0.00 0.00 0.00 0.00 0.00 0.00 0.00 0.02 0.03 0.03 0.05 0.04 0.02 0.02 0.02 0.00 0.00 0.00 0.00 0.00 0.00 0.00 0.00 0.00 0.00 0.00 0.00 0.00 0.00 0.00 0.00 0.00 0.00 0.00 0.00 0.00 0.00 0.00 0.00 0.00 0.00
0.00 0.00 0.00 0.00 0.00 0.00 0.00 0.00 0.00 0.00 0.00 0.01 0.00 0.00 0.00 0.00 0.00 0.00 0.00 0.00 0.00 0.00 0.00 0.00 0.00 0.00 0.00 0.00 0.00 0.00 0.00 0.00 0.00 0.00 0.00 0.00 0.00 0.00 0.00 0.00 0.00 0.00 0.00

GFSMA_prec_precacc24_066.txt.gz
Total_Precipitation_Accumulation
0.00 0.00 0.00 0.00 0.00 0.00 0.00 0.00 0.00 0.00 0.00 0.00 0.00 0.00 0.00 0.00 0.00 0.00 0.00 0.00 0.00 0.00 0.00 0.01 0.01 0.00 0.00 0.00 0.00 0.00 0.00 0.00 0.00 0.00 0.00 0.00 0.00 0.00 0.00 0.00 0.00 0.00 0.00
0.00 0.00 0.00 0.00 0.00 0.00 0.00 0.00 0.00 0.00 0.00 0.00 0.00 0.00 0.00 0.00 0.00 0.00 0.00 0.00 0.00 0.00 0.00 0.00 0.00 0.01 0.00 0.00 0.00 0.00 0.00 0.00 0.00 0.00 0.00 0.00 0.00 0.00 0.00 0.00 0.00 0.00 0.00
0.00 0.00 0.00 0.00 0.00 0.00 0.00 0.00 0.00 0.00 0.00 0.00 0.00 0.00 0.00 0.00 0.00 0.00 0.00 0.00 0.00 0.00 0.00 0.00 0.00 0.00 0.00 0.00 0.01 0.00 0.00 0.00 0.00 0.00 0.00 0.00 0.00 0.00 0.00 0.00 0.00 0.00 0.00
0.00 0.00 0.00 0.00 0.00 0.00 0.00 0.00 0.00 0.00 0.00 0.00 0.00 0.00 0.00 0.00 0.00 0.00 0.00 0.00 0.00 0.00 0.00 0.00 0.00 0.00 0.00 0.01 0.01 0.01 0.01 0.00 0.00 0.00 0.00 0.00 0.00 0.00 0.00 0.00 0.00 0.00 0.00
0.00 0.00 0.00 0.00 0.00 0.00 0.00 0.00 0.00 0.00 0.00 0.00 0.00 0.00 0.00 0.00 0.00 0.00 0.00 0.00 0.00 0.00 0.00 0.00 0.00 0.00 0.01 0.00 0.01 0.03 0.07 0.06 0.02 0.00 0.00 0.00 0.00 0.00 0.00 0.00 0.00 0.00 0.00
0.00 0.01 0.00 0.00 0.00 0.00 0.00 0.00 0.00 0.00 0.00 0.01 0.01 0.00 0.00 0.00 0.00 0.00 0.00 0.01 0.01 0.01 0.00 0.00 0.00 0.00 0.00 0.00 0.00 0.00 0.02 0.09 0.13 0.06 0.01 0.00 0.00 0.00 0.00 0.00 0.00 0.00 0.00
0.06 0.03 0.02 0.02 0.01 0.00 0.01 0.01 0.01 0.01 0.01 0.05 0.04 0.00 0.00 0.00 0.00 0.00 0.00 0.02 0.01 0.01 0.00 0.00 0.00 0.00 0.00 0.00 0.00 0.00 0.00 0.03 0.12 0.15 0.11 0.05 0.01 0.00 0.00 0.00 0.00 0.00 0.00
0.09 0.06 0.03 0.02 0.03 0.02 0.02 0.02 0.06 0.08 0.07 0.14 0.18 0.07 0.01 0.00 0.00 0.00 0.00 0.00 0.00 0.00 0.00 0.00 0.00 0.00 0.00 0.00 0.00 0.00 0.00 0.03 0.09 0.21 0.30 0.27 0.18 0.07 0.02 0.01 0.00 0.01 0.02
0.04 0.09 0.09 0.06 0.07 0.08 0.04 0.06 0.13 0.16 0.16 0.17 0.16 0.17 0.05 0.01 0.00 0.00 0.00 0.00 0.00 0.00 0.00 0.01 0.01 0.01 0.01 0.00 0.00 0.00 0.00 0.01 0.04 0.08 0.17 0.30 0.35 0.30 0.23 0.13 0.03 0.01 0.01
0.00 0.01 0.03 0.06 0.05 0.06 0.08 0.06 0.11 0.14 0.19 0.12 0.11 0.10 0.10 0.06 0.05 0.03 0.01 0.01 0.01 0.00 0.00 0.01 0.01 0.01 0.01 0.00 0.00 0.00 0.00 0.01 0.03 0.06 0.14 0.27 0.51 0.59 0.48 0.30 0.18 0.09 0.07
0.00 0.00 0.00 0.01 0.07 0.07 0.05 0.09 0.11 0.13 0.10 0.16 0.14 0.16 0.13 0.12 0.08 0.08 0.04 0.05 0.05 0.04 0.02 0.01 0.00 0.00 0.00 0.00 0.00 0.01 0.05 0.07 0.09 0.13 0.19 0.28 0.43 0.58 0.64 0.59 0.49 0.39 0.26
0.00 0.01 0.01 0.01 0.04 0.07 0.09 0.09 0.10 0.10 0.10 0.12 0.12 0.15 0.15 0.17 0.12 0.09 0.08 0.08 0.08 0.05 0.02 0.01 0.00 0.00 0.00 0.01 0.03 0.07 0.14 0.19 0.24 0.30 0.37 0.44 0.46 0.53 0.55 0.65 0.70 0.66 0.60
0.00 0.02 0.03 0.04 0.05 0.04 0.06 0.09 0.10 0.12 0.15 0.16 0.16 0.14 0.16 0.19 0.23 0.25 0.28 0.22 0.17 0.11 0.06 0.05 0.05 0.05 0.05 0.06 0.09 0.16 0.21 0.26 0.29 0.31 0.34 0.39 0.45 0.45 0.41 0.49 0.72 0.90 1.12
0.00 0.00 0.00 0.01 0.02 0.02 0.02 0.04 0.06 0.09 0.13 0.15 0.15 0.16 0.15 0.16 0.19 0.19 0.21 0.22 0.23 0.17 0.11 0.05 0.04 0.07 0.10 0.11 0.14 0.20 0.24 0.35 0.40 0.47 0.55 0.64 0.71 0.72 0.68 0.64 0.74 1.02 0.93
0.00 0.00 0.00 0.00 0.01 0.02 0.03 0.02 0.02 0.03 0.07 0.09 0.11 0.13 0.12 0.11 0.14 0.15 0.17 0.19 0.24 0.21 0.12 0.06 0.06 0.10 0.17 0.26 0.40 0.49 0.56 0.67 0.72 0.74 0.75 0.76 0.75 0.68 0.56 0.51 0.53 0.50 0.43
0.00 0.00 0.00 0.00 0.00 0.00 0.00 0.00 0.01 0.01 0.04 0.07 0.08 0.10 0.11 0.11 0.11 0.14 0.14 0.16 0.20 0.23 0.24 0.14 0.20 0.31 0.41 0.48 0.55 0.51 0.49 0.54 0.52 0.55 0.58 0.61 0.61 0.53 0.47 0.43 0.45 0.42 0.37
0.00 0.00 0.00 0.00 0.00 0.00 0.00 0.00 0.01 0.01 0.02 0.02 0.03 0.06 0.07 0.07 0.07 0.09 0.10 0.13 0.16 0.19 0.21 0.18 0.26 0.34 0.37 0.37 0.41 0.35 0.34 0.32 0.36 0.50 0.49 0.49 0.46 0.36 0.31 0.28 0.25 0.23 0.21
0.00 0.00 0.00 0.00 0.00 0.00 0.00 0.00 0.00 0.00 0.00 0.00 0.01 0.01 0.01 0.01 0.02 0.03 0.04 0.06 0.09 0.14 0.19 0.24 0.27 0.29 0.29 0.32 0.33 0.32 0.31 0.30 0.29 0.35 0.32 0.24 0.18 0.14 0.13 0.12 0.12 0.11 0.09
0.00 0.00 0.00 0.00 0.00 0.00 0.00 0.00 0.00 0.00 0.00 0.00 0.00 0.01 0.01 0.02 0.02 0.03 0.04 0.05 0.07 0.11 0.16 0.21 0.27 0.32 0.31 0.32 0.29 0.24 0.23 0.21 0.18 0.19 0.16 0.12 0.10 0.09 0.08 0.09 0.08 0.06 0.06
0.00 0.00 0.00 0.00 0.00 0.00 0.00 0.00 0.00 0.00 0.00 0.00 0.00 0.00 0.00 0.00 0.01 0.01 0.01 0.04 0.07 0.09 0.12 0.15 0.17 0.17 0.15 0.14 0.13 0.10 0.09 0.06 0.03 0.03 0.02 0.02 0.01 0.01 0.02 0.02 0.01 0.01 0.00
0.00 0.00 0.00 0.00 0.00 0.00 0.00 0.00 0.00 0.00 0.00 0.00 0.00 0.00 0.00 0.01 0.03 0.02 0.02 0.03 0.06 0.09 0.08 0.06 0.06 0.05 0.04 0.03 0.03 0.03 0.03 0.02 0.00 0.00 0.00 0.00 0.00 0.00 0.00 0.00 0.00 0.00 0.00
0.00 0.00 0.00 0.00 0.00 0.00 0.03 0.02 0.00 0.00 0.00 0.00 0.00 0.02 0.03 0.02 0.04 0.07 0.09 0.09 0.06 0.03 0.02 0.02 0.02 0.02 0.02 0.01 0.01 0.01 0.00 0.00 0.00 0.00 0.00 0.00 0.00 0.00 0.00 0.00 0.00 0.00 0.00
0.00 0.00 0.00 0.00 0.00 0.00 0.03 0.01 0.00 0.00 0.00 0.00 0.01 0.03 0.02 0.04 0.05 0.04 0.04 0.03 0.02 0.03 0.01 0.01 0.00 0.00 0.00 0.00 0.00 0.00 0.00 0.00 0.00 0.00 0.00 0.00 0.00 0.00 0.00 0.00 0.00 0.00 0.00
0.00 0.00 0.00 0.00 0.00 0.01 0.01 0.00 0.00 0.00 0.00 0.00 0.01 0.03 0.03 0.05 0.05 0.06 0.05 0.03 0.01 0.00 0.00 0.00 0.00 0.00 0.00 0.00 0.00 0.00 0.00 0.00 0.00 0.00 0.00 0.00 0.00 0.00 0.00 0.00 0.00 0.00 0.00
0.00 0.00 0.00 0.00 0.00 0.00 0.00 0.00 0.00 0.00 0.00 0.00 0.00 0.00 0.00 0.00 0.00 0.00 0.00 0.00 0.00 0.00 0.00 0.00 0.00 0.00 0.00 0.00 0.00 0.00 0.00 0.00 0.00 0.00 0.00 0.00 0.00 0.00 0.00 0.00 0.00 0.00 0.00
0.00 0.00 0.00 0.00 0.00 0.00 0.00 0.00 0.00 0.00 0.00 0.00 0.00 0.00 0.00 0.00 0.00 0.00 0.00 0.00 0.00 0.00 0.00 0.00 0.00 0.00 0.00 0.00 0.00 0.00 0.00 0.00 0.00 0.00 0.00 0.00 0.00 0.00 0.00 0.00 0.00 0.00 0.00

GFSMA_prec_precacc24_069.txt.gz
Total_Precipitation_Accumulation
0.00 0.00 0.00 0.00 0.00 0.00 0.00 0.00 0.00 0.00 0.00 0.00 0.00 0.00 0.00 0.00 0.00 0.00 0.00 0.00 0.00 0.00 0.00 0.01 0.01 0.00 0.00 0.00 0.00 0.00 0.00 0.00 0.00 0.00 0.00 0.00 0.00 0.00 0.00 0.00 0.00 0.00 0.00
0.00 0.00 0.00 0.00 0.00 0.00 0.00 0.00 0.00 0.00 0.00 0.00 0.00 0.00 0.00 0.00 0.00 0.00 0.00 0.00 0.00 0.00 0.00 0.00 0.00 0.01 0.01 0.00 0.00 0.00 0.00 0.00 0.00 0.00 0.00 0.00 0.00 0.00 0.00 0.00 0.00 0.00 0.00
0.00 0.00 0.00 0.00 0.00 0.00 0.00 0.00 0.00 0.00 0.00 0.00 0.00 0.00 0.00 0.00 0.00 0.00 0.00 0.00 0.00 0.00 0.00 0.00 0.00 0.00 0.00 0.01 0.02 0.01 0.00 0.00 0.00 0.00 0.00 0.00 0.00 0.00 0.00 0.00 0.00 0.00 0.00
0.00 0.00 0.00 0.00 0.00 0.00 0.00 0.00 0.00 0.00 0.00 0.00 0.00 0.00 0.00 0.00 0.00 0.00 0.00 0.00 0.00 0.00 0.00 0.00 0.00 0.00 0.00 0.01 0.02 0.05 0.07 0.04 0.00 0.00 0.00 0.00 0.00 0.00 0.00 0.00 0.00 0.00 0.00
0.00 0.00 0.00 0.00 0.00 0.00 0.00 0.00 0.00 0.00 0.00 0.00 0.00 0.00 0.00 0.00 0.00 0.00 0.00 0.00 0.00 0.00 0.00 0.00 0.00 0.00 0.01 0.00 0.01 0.04 0.11 0.15 0.09 0.01 0.00 0.00 0.00 0.00 0.00 0.00 0.00 0.00 0.00
0.00 0.01 0.00 0.00 0.00 0.00 0.00 0.00 0.00 0.00 0.00 0.01 0.01 0.00 0.00 0.00 0.00 0.00 0.00 0.01 0.02 0.01 0.00 0.00 0.00 0.00 0.00 0.00 0.00 0.01 0.03 0.12 0.21 0.16 0.06 0.01 0.00 0.00 0.00 0.00 0.00 0.00 0.00
0.05 0.02 0.01 0.02 0.01 0.00 0.01 0.01 0.01 0.01 0.01 0.05 0.05 0.00 0.00 0.00 0.00 0.00 0.00 0.02 0.01 0.01 0.00 0.00 0.00 0.00 0.00 0.00 0.00 0.00 0.01 0.04 0.15 0.24 0.23 0.17 0.05 0.01 0.00 0.00 0.00 0.00 0.00
0.04 0.04 0.02 0.01 0.02 0.02 0.02 0.02 0.04 0.06 0.07 0.13 0.18 0.08 0.02 0.00 0.00 0.00 0.00 0.00 0.00 0.00 0.00 0.00 0.00 0.00 0.00 0.00 0.00 0.00 0.00 0.04 0.10 0.23 0.35 0.41 0.36 0.21 0.08 0.02 0.01 0.01 0.02
0.01 0.04 0.04 0.03 0.02 0.03 0.03 0.04 0.07 0.10 0.13 0.14 0.16 0.18 0.06 0.02 0.00 0.00 0.00 0.00 0.00 0.00 0.00 0.01 0.01 0.01 0.01 0.00 0.00 0.00 0.00 0.01 0.04 0.08 0.17 0.30 0.39 0.41 0.39 0.33 0.20 0.07 0.02
0.01 0.00 0.00 0.00 0.01 0.00 0.01 0.01 0.04 0.06 0.14 0.08 0.08 0.10 0.10 0.07 0.07 0.04 0.00 0.00 0.00 0.00 0.00 0.01 0.01 0.01 0.01 0.00 0.00 0.00 0.00 0.01 0.03 0.06 0.14 0.27 0.51 0.59 0.50 0.38 0.32 0.23 0.14
0.01 0.01 0.01 0.01 0.02 0.03 0.01 0.01 0.03 0.04 0.05 0.10 0.09 0.11 0.10 0.11 0.09 0.08 0.04 0.03 0.04 0.03 0.02 0.01 0.00 0.00 0.00 0.00 0.00 0.01 0.05 0.07 0.09 0.13 0.19 0.28 0.43 0.59 0.65 0.60 0.53 0.52 0.49
0.00 0.00 0.00 0.00 0.01 0.03 0.03 0.05 0.05 0.05 0.06 0.08 0.09 0.09 0.10 0.11 0.09 0.07 0.06 0.04 0.04 0.03 0.02 0.01 0.00 0.00 0.00 0.01 0.03 0.07 0.14 0.19 0.24 0.30 0.37 0.44 0.47 0.53 0.55 0.65 0.70 0.67 0.66
0.00 0.00 0.00 0.00 0.00 0.02 0.02 0.03 0.04 0.05 0.07 0.09 0.11 0.10 0.12 0.13 0.17 0.20 0.24 0.19 0.13 0.08 0.06 0.05 0.05 0.05 0.05 0.06 0.09 0.16 0.21 0.26 0.29 0.31 0.34 0.39 0.45 0.45 0.41 0.49 0.72 0.90 1.12
0.00 0.00 0.00 0.00 0.00 0.00 0.00 0.01 0.02 0.03 0.05 0.07 0.07 0.08 0.09 0.10 0.12 0.14 0.16 0.17 0.19 0.14 0.09 0.05 0.02 0.05 0.07 0.08 0.12 0.20 0.23 0.35 0.39 0.44 0.53 0.63 0.70 0.72 0.68 0.64 0.74 1.02 0.93
0.00 0.00 0.00 0.00 0.00 0.00 0.00 0.00 0.00 0.00 0.02 0.02 0.03 0.04 0.05 0.06 0.08 0.09 0.11 0.13 0.19 0.17 0.09 0.03 0.01 0.01 0.03 0.10 0.20 0.31 0.36 0.47 0.55 0.62 0.69 0.74 0.74 0.68 0.57 0.52 0.54 0.51 0.43
0.00 0.00 0.00 0.00 0.00 0.00 0.00 0.00 0.00 0.00 0.00 0.00 0.01 0.02 0.03 0.04 0.06 0.08 0.09 0.11 0.15 0.17 0.14 0.03 0.02 0.04 0.08 0.13 0.18 0.20 0.23 0.36 0.42 0.50 0.55 0.60 0.61 0.53 0.48 0.45 0.46 0.44 0.39
0.00 0.00 0.00 0.00 0.00 0.00 0.00 0.00 0.00 0.00 0.00 0.00 0.00 0.00 0.00 0.00 0.01 0.03 0.03 0.03 0.08 0.14 0.16 0.11 0.06 0.07 0.08 0.11 0.17 0.20 0.25 0.29 0.33 0.48 0.48 0.49 0.46 0.36 0.32 0.29 0.26 0.24 0.22
0.00 0.00 0.00 0.00 0.00 0.00 0.00 0.00 0.00 0.00 0.00 0.00 0.00 0.00 0.00 0.00 0.00 0.00 0.00 0.01 0.01 0.06 0.10 0.14 0.17 0.19 0.19 0.21 0.23 0.24 0.27 0.26 0.27 0.33 0.31 0.24 0.18 0.14 0.13 0.12 0.12 0.12 0.10
0.00 0.00 0.00 0.00 0.00 0.00 0.00 0.00 0.00 0.00 0.00 0.00 0.00 0.00 0.00 0.00 0.01 0.01 0.01 0.01 0.00 0.01 0.05 0.09 0.13 0.17 0.18 0.23 0.23 0.21 0.22 0.20 0.18 0.19 0.16 0.12 0.10 0.09 0.08 0.09 0.08 0.06 0.06
0.00 0.00 0.00 0.00 0.00 0.00 0.00 0.00 0.00 0.00 0.00 0.00 0.00 0.00 0.00 0.00 0.00 0.00 0.00 0.01 0.02 0.02 0.02 0.02 0.04 0.14 0.13 0.13 0.12 0.10 0.08 0.06 0.03 0.03 0.02 0.02 0.01 0.01 0.02 0.02 0.01 0.01 0.00
0.00 0.00 0.00 0.00 0.00 0.00 0.00 0.00 0.00 0.00 0.00 0.00 0.00 0.00 0.00 0.01 0.02 0.01 0.00 0.02 0.05 0.08 0.07 0.04 0.04 0.05 0.03 0.03 0.03 0.03 0.03 0.02 0.00 0.00 0.00 0.00 0.00 0.00 0.00 0.00 0.00 0.00 0.00
0.00 0.00 0.00 0.00 0.00 0.00 0.03 0.02 0.00 0.00 0.00 0.00 0.00 0.00 0.00 0.00 0.01 0.02 0.04 0.07 0.04 0.02 0.01 0.01 0.02 0.02 0.02 0.01 0.01 0.01 0.00 0.00 0.00 0.00 0.00 0.00 0.00 0.00 0.00 0.00 0.00 0.00 0.00
0.00 0.00 0.00 0.00 0.00 0.00 0.03 0.02 0.01 0.00 0.00 0.00 0.00 0.00 0.00 0.00 0.00 0.00 0.01 0.02 0.01 0.01 0.01 0.01 0.00 0.00 0.00 0.00 0.00 0.00 0.00 0.00 0.00 0.00 0.00 0.00 0.00 0.00 0.00 0.00 0.00 0.00 0.00
0.00 0.00 0.00 0.00 0.00 0.00 0.02 0.00 0.00 0.00 0.00 0.00 0.00 0.00 0.00 0.00 0.00 0.00 0.00 0.00 0.00 0.00 0.00 0.00 0.00 0.00 0.00 0.00 0.00 0.00 0.00 0.00 0.00 0.00 0.00 0.00 0.00 0.00 0.00 0.00 0.00 0.00 0.00
0.00 0.00 0.00 0.00 0.00 0.00 0.00 0.00 0.00 0.00 0.00 0.00 0.00 0.00 0.00 0.00 0.00 0.00 0.00 0.00 0.00 0.00 0.00 0.00 0.00 0.00 0.00 0.00 0.00 0.00 0.00 0.00 0.00 0.00 0.00 0.00 0.00 0.00 0.00 0.00 0.00 0.00 0.00
0.00 0.00 0.00 0.00 0.00 0.00 0.00 0.00 0.00 0.00 0.00 0.00 0.00 0.00 0.00 0.00 0.00 0.00 0.00 0.00 0.00 0.00 0.00 0.00 0.00 0.00 0.00 0.00 0.00 0.00 0.00 0.00 0.00 0.00 0.00 0.00 0.00 0.00 0.00 0.00 0.00 0.00 0.00

GFSMA_prec_precacc24_072.txt.gz
Total_Precipitation_Accumulation
0.00 0.00 0.00 0.00 0.00 0.00 0.00 0.00 0.00 0.00 0.00 0.00 0.00 0.00 0.00 0.00 0.00 0.00 0.00 0.00 0.00 0.00 0.00 0.01 0.01 0.01 0.00 0.00 0.00 0.00 0.00 0.00 0.00 0.00 0.00 0.00 0.00 0.00 0.00 0.00 0.00 0.00 0.00
0.00 0.00 0.00 0.00 0.00 0.00 0.00 0.00 0.00 0.00 0.00 0.00 0.00 0.00 0.00 0.00 0.00 0.00 0.00 0.00 0.00 0.00 0.00 0.00 0.00 0.02 0.06 0.02 0.00 0.00 0.00 0.00 0.00 0.00 0.00 0.00 0.00 0.00 0.00 0.00 0.00 0.00 0.00
0.00 0.00 0.00 0.00 0.00 0.00 0.00 0.00 0.00 0.00 0.00 0.00 0.00 0.00 0.00 0.00 0.00 0.00 0.00 0.00 0.00 0.00 0.00 0.00 0.00 0.00 0.00 0.02 0.06 0.06 0.03 0.00 0.00 0.00 0.00 0.00 0.00 0.00 0.00 0.00 0.00 0.00 0.00
0.00 0.00 0.00 0.00 0.00 0.00 0.00 0.00 0.00 0.00 0.00 0.00 0.00 0.00 0.00 0.00 0.00 0.00 0.00 0.00 0.00 0.00 0.00 0.00 0.00 0.00 0.00 0.01 0.03 0.08 0.15 0.14 0.03 0.00 0.00 0.00 0.00 0.00 0.00 0.00 0.00 0.00 0.00
0.00 0.00 0.00 0.00 0.00 0.00 0.00 0.00 0.00 0.00 0.00 0.00 0.00 0.00 0.00 0.00 0.00 0.00 0.00 0.00 0.00 0.00 0.00 0.00 0.00 0.00 0.01 0.00 0.01 0.04 0.14 0.23 0.19 0.09 0.02 0.00 0.00 0.00 0.00 0.00 0.00 0.00 0.00
0.00 0.00 0.00 0.00 0.00 0.00 0.00 0.00 0.00 0.00 0.00 0.01 0.01 0.01 0.00 0.00 0.00 0.00 0.00 0.01 0.02 0.01 0.00 0.00 0.00 0.00 0.00 0.00 0.00 0.01 0.03 0.13 0.26 0.25 0.19 0.08 0.01 0.00 0.00 0.00 0.00 0.00 0.00
0.03 0.01 0.00 0.00 0.00 0.00 0.00 0.01 0.01 0.01 0.01 0.04 0.05 0.00 0.00 0.00 0.00 0.00 0.00 0.02 0.01 0.01 0.00 0.00 0.00 0.00 0.00 0.00 0.00 0.00 0.01 0.05 0.18 0.31 0.31 0.30 0.19 0.07 0.01 0.00 0.00 0.00 0.00
0.02 0.02 0.01 0.01 0.01 0.01 0.00 0.01 0.02 0.03 0.03 0.08 0.14 0.07 0.02 0.00 0.00 0.00 0.00 0.00 0.00 0.00 0.00 0.00 0.00 0.00 0.00 0.00 0.00 0.00 0.00 0.04 0.10 0.23 0.36 0.45 0.47 0.38 0.24 0.13 0.05 0.01 0.02
0.01 0.03 0.03 0.03 0.02 0.02 0.01 0.01 0.03 0.05 0.08 0.07 0.10 0.15 0.06 0.02 0.00 0.00 0.00 0.00 0.00 0.00 0.00 0.00 0.00 0.01 0.01 0.00 0.00 0.00 0.00 0.01 0.04 0.08 0.17 0.30 0.39 0.44 0.48 0.49 0.37 0.31 0.20
0.05 0.00 0.00 0.00 0.00 0.00 0.00 0.01 0.01 0.03 0.06 0.04 0.03 0.06 0.07 0.06 0.07 0.04 0.00 0.00 0.00 0.00 0.00 0.00 0.00 0.00 0.00 0.00 0.00 0.00 0.00 0.01 0.03 0.06 0.14 0.27 0.51 0.59 0.51 0.39 0.36 0.30 0.37
0.11 0.07 0.04 0.01 0.01 0.01 0.00 0.00 0.01 0.01 0.01 0.03 0.02 0.03 0.03 0.06 0.07 0.07 0.03 0.01 0.02 0.02 0.01 0.00 0.00 0.00 0.00 0.00 0.00 0.01 0.05 0.07 0.09 0.13 0.19 0.28 0.44 0.60 0.65 0.61 0.54 0.54 0.58
0.09 0.10 0.05 0.03 0.01 0.00 0.01 0.01 0.01 0.01 0.01 0.01 0.03 0.05 0.05 0.06 0.04 0.05 0.05 0.02 0.02 0.02 0.01 0.00 0.00 0.00 0.00 0.00 0.02 0.07 0.14 0.19 0.24 0.29 0.37 0.44 0.46 0.53 0.55 0.65 0.70 0.67 0.66
0.05 0.04 0.02 0.00 0.00 0.00 0.00 0.00 0.01 0.01 0.03 0.05 0.07 0.06 0.06 0.07 0.08 0.09 0.09 0.06 0.05 0.06 0.05 0.05 0.04 0.04 0.03 0.03 0.04 0.13 0.20 0.26 0.28 0.31 0.34 0.39 0.44 0.45 0.40 0.47 0.71 0.90 1.12
0.01 0.01 0.00 0.00 0.00 0.00 0.00 0.00 0.00 0.02 0.04 0.05 0.06 0.06 0.05 0.04 0.05 0.06 0.08 0.08 0.07 0.03 0.02 0.03 0.03 0.05 0.07 0.07 0.08 0.12 0.15 0.25 0.31 0.36 0.43 0.52 0.61 0.62 0.59 0.58 0.71 1.01 0.93
0.00 0.00 0.00 0.00 0.00 0.00 0.00 0.00 0.00 0.00 0.01 0.02 0.02 0.02 0.03 0.03 0.04 0.04 0.06 0.08 0.11 0.09 0.05 0.02 0.00 0.01 0.02 0.05 0.08 0.09 0.09 0.14 0.20 0.27 0.35 0.45 0.50 0.50 0.47 0.48 0.53 0.51 0.44
0.00 0.00 0.00 0.00 0.00 0.00 0.00 0.00 0.00 0.00 0.00 0.00 0.01 0.01 0.02 0.03 0.03 0.04 0.05 0.06 0.08 0.11 0.10 0.02 0.02 0.01 0.01 0.01 0.03 0.04 0.06 0.12 0.18 0.28 0.36 0.43 0.44 0.41 0.42 0.42 0.46 0.44 0.39
0.00 0.00 0.00 0.00 0.00 0.00 0.00 0.00 0.00 0.00 0.00 0.00 0.00 0.00 0.00 0.00 0.00 0.01 0.01 0.01 0.01 0.01 0.03 0.03 0.02 0.02 0.03 0.03 0.06 0.05 0.08 0.12 0.20 0.35 0.38 0.41 0.38 0.32 0.30 0.28 0.26 0.24 0.22
0.00 0.00 0.00 0.00 0.00 0.00 0.00 0.00 0.00 0.00 0.00 0.00 0.00 0.00 0.00 0.00 0.00 0.00 0.00 0.00 0.01 0.01 0.01 0.01 0.01 0.03 0.08 0.13 0.16 0.16 0.15 0.16 0.18 0.26 0.26 0.22 0.17 0.13 0.13 0.12 0.12 0.12 0.10
0.00 0.00 0.00 0.00 0.00 0.00 0.00 0.00 0.00 0.00 0.00 0.00 0.00 0.00 0.00 0.00 0.00 0.00 0.00 0.00 0.00 0.00 0.00 0.00 0.02 0.02 0.03 0.06 0.07 0.11 0.15 0.16 0.16 0.18 0.14 0.11 0.10 0.09 0.08 0.09 0.08 0.07 0.06
0.00 0.00 0.00 0.00 0.00 0.00 0.00 0.00 0.00 0.00 0.00 0.00 0.00 0.00 0.00 0.00 0.00 0.00 0.00 0.00 0.00 0.00 0.00 0.00 0.00 0.02 0.04 0.05 0.07 0.06 0.06 0.04 0.03 0.03 0.02 0.02 0.01 0.01 0.02 0.02 0.01 0.01 0.00
0.00 0.00 0.00 0.00 0.00 0.00 0.00 0.00 0.00 0.00 0.00 0.00 0.00 0.00 0.00 0.00 0.01 0.01 0.00 0.00 0.00 0.00 0.00 0.02 0.01 0.03 0.02 0.01 0.01 0.01 0.02 0.01 0.00 0.00 0.00 0.00 0.00 0.00 0.00 0.00 0.00 0.00 0.00
0.00 0.00 0.00 0.00 0.00 0.00 0.02 0.02 0.00 0.00 0.00 0.00 0.00 0.00 0.00 0.00 0.01 0.01 0.02 0.01 0.01 0.00 0.00 0.00 0.00 0.00 0.00 0.00 0.00 0.00 0.00 0.00 0.00 0.00 0.00 0.00 0.00 0.00 0.00 0.00 0.00 0.00 0.00
0.00 0.00 0.00 0.00 0.00 0.00 0.03 0.02 0.01 0.00 0.00 0.00 0.00 0.00 0.00 0.00 0.00 0.00 0.00 0.00 0.00 0.00 0.00 0.00 0.00 0.00 0.00 0.00 0.00 0.00 0.00 0.00 0.00 0.00 0.00 0.00 0.00 0.00 0.00 0.00 0.00 0.00 0.00
0.00 0.00 0.00 0.00 0.00 0.01 0.02 0.01 0.01 0.00 0.00 0.00 0.00 0.00 0.00 0.00 0.00 0.00 0.00 0.00 0.00 0.00 0.00 0.00 0.00 0.00 0.00 0.00 0.00 0.00 0.00 0.00 0.00 0.00 0.00 0.00 0.00 0.00 0.00 0.00 0.00 0.00 0.00
0.00 0.00 0.00 0.00 0.00 0.00 0.01 0.00 0.00 0.00 0.00 0.00 0.00 0.00 0.00 0.00 0.00 0.00 0.00 0.00 0.00 0.00 0.00 0.00 0.00 0.00 0.00 0.00 0.00 0.00 0.00 0.00 0.00 0.00 0.00 0.00 0.00 0.00 0.00 0.00 0.00 0.00 0.00
0.00 0.00 0.00 0.00 0.00 0.00 0.00 0.00 0.00 0.00 0.00 0.00 0.00 0.00 0.00 0.00 0.00 0.00 0.00 0.00 0.00 0.00 0.00 0.00 0.00 0.00 0.00 0.00 0.00 0.00 0.00 0.00 0.00 0.00 0.00 0.00 0.00 0.00 0.00 0.00 0.00 0.00 0.00

GFSMA_prec_precacc24_075.txt.gz
Total_Precipitation_Accumulation
0.00 0.00 0.00 0.00 0.00 0.00 0.00 0.00 0.00 0.00 0.00 0.00 0.00 0.00 0.00 0.00 0.00 0.00 0.00 0.00 0.00 0.00 0.00 0.01 0.01 0.01 0.01 0.00 0.00 0.00 0.00 0.00 0.00 0.00 0.00 0.00 0.00 0.00 0.00 0.00 0.00 0.00 0.00
0.00 0.00 0.00 0.00 0.00 0.00 0.00 0.00 0.00 0.00 0.00 0.00 0.00 0.00 0.00 0.00 0.00 0.00 0.00 0.00 0.00 0.00 0.00 0.00 0.00 0.02 0.08 0.04 0.01 0.00 0.00 0.00 0.00 0.00 0.00 0.00 0.00 0.00 0.00 0.00 0.00 0.00 0.00
0.00 0.00 0.00 0.00 0.00 0.00 0.00 0.00 0.00 0.00 0.00 0.00 0.00 0.00 0.00 0.00 0.00 0.00 0.00 0.00 0.00 0.00 0.00 0.00 0.00 0.00 0.01 0.03 0.07 0.10 0.06 0.03 0.00 0.00 0.00 0.00 0.00 0.00 0.00 0.00 0.00 0.00 0.00
0.00 0.00 0.00 0.00 0.00 0.00 0.00 0.00 0.00 0.00 0.00 0.00 0.00 0.00 0.00 0.00 0.00 0.00 0.00 0.00 0.00 0.00 0.00 0.00 0.00 0.00 0.00 0.01 0.03 0.10 0.21 0.24 0.08 0.02 0.00 0.00 0.00 0.00 0.00 0.00 0.00 0.00 0.00
0.00 0.00 0.00 0.00 0.00 0.00 0.00 0.00 0.00 0.00 0.00 0.00 0.00 0.00 0.00 0.00 0.00 0.00 0.00 0.00 0.00 0.00 0.00 0.00 0.00 0.00 0.01 0.00 0.01 0.04 0.14 0.25 0.23 0.15 0.09 0.03 0.00 0.00 0.00 0.00 0.00 0.00 0.00
0.00 0.00 0.00 0.00 0.00 0.00 0.00 0.00 0.00 0.00 0.00 0.01 0.01 0.01 0.00 0.00 0.00 0.00 0.00 0.01 0.02 0.01 0.00 0.00 0.00 0.00 0.00 0.00 0.00 0.01 0.03 0.13 0.27 0.26 0.22 0.19 0.10 0.02 0.00 0.00 0.00 0.00 0.00
0.00 0.00 0.00 0.00 0.00 0.00 0.00 0.01 0.01 0.01 0.01 0.02 0.03 0.00 0.00 0.00 0.00 0.00 0.00 0.02 0.01 0.01 0.00 0.00 0.00 0.00 0.00 0.00 0.00 0.00 0.01 0.05 0.19 0.31 0.32 0.34 0.30 0.23 0.11 0.03 0.00 0.00 0.00
0.00 0.00 0.00 0.00 0.01 0.01 0.00 0.01 0.01 0.01 0.01 0.01 0.05 0.05 0.01 0.00 0.00 0.00 0.00 0.00 0.00 0.00 0.00 0.00 0.00 0.00 0.00 0.00 0.00 0.00 0.00 0.04 0.10 0.23 0.36 0.45 0.47 0.43 0.39 0.33 0.18 0.04 0.02
0.01 0.02 0.02 0.02 0.02 0.03 0.01 0.01 0.03 0.04 0.05 0.02 0.03 0.09 0.05 0.02 0.00 0.00 0.00 0.00 0.00 0.00 0.00 0.00 0.00 0.00 0.00 0.00 0.00 0.00 0.00 0.01 0.04 0.08 0.17 0.30 0.39 0.44 0.49 0.55 0.50 0.51 0.50
0.09 0.03 0.04 0.05 0.03 0.02 0.01 0.01 0.01 0.02 0.03 0.03 0.01 0.02 0.04 0.05 0.06 0.03 0.00 0.00 0.00 0.00 0.00 0.00 0.00 0.00 0.00 0.00 0.00 0.00 0.00 0.01 0.02 0.06 0.14 0.27 0.52 0.61 0.52 0.41 0.37 0.31 0.46
0.33 0.28 0.27 0.22 0.18 0.12 0.09 0.05 0.02 0.01 0.01 0.02 0.01 0.01 0.01 0.02 0.03 0.05 0.03 0.01 0.01 0.00 0.00 0.00 0.00 0.00 0.00 0.00 0.00 0.00 0.02 0.04 0.07 0.13 0.19 0.28 0.44 0.60 0.65 0.61 0.54 0.54 0.58
0.27 0.23 0.15 0.09 0.08 0.07 0.07 0.04 0.02 0.00 0.00 0.00 0.02 0.03 0.03 0.03 0.02 0.02 0.03 0.01 0.01 0.01 0.00 0.00 0.00 0.00 0.00 0.00 0.00 0.02 0.06 0.09 0.14 0.24 0.34 0.43 0.46 0.53 0.55 0.64 0.69 0.65 0.64
0.12 0.11 0.06 0.03 0.01 0.00 0.00 0.00 0.01 0.01 0.01 0.03 0.05 0.05 0.05 0.04 0.04 0.04 0.05 0.03 0.03 0.02 0.01 0.01 0.00 0.00 0.00 0.00 0.00 0.02 0.06 0.09 0.13 0.19 0.26 0.34 0.43 0.44 0.39 0.46 0.67 0.84 1.05
0.05 0.03 0.01 0.00 0.00 0.00 0.00 0.00 0.00 0.01 0.03 0.04 0.05 0.06 0.05 0.04 0.04 0.04 0.05 0.05 0.05 0.03 0.02 0.02 0.01 0.01 0.00 0.00 0.00 0.01 0.06 0.12 0.14 0.18 0.25 0.36 0.43 0.45 0.43 0.41 0.53 0.85 0.76
0.03 0.01 0.00 0.00 0.00 0.00 0.00 0.00 0.00 0.00 0.01 0.02 0.02 0.02 0.03 0.03 0.03 0.03 0.04 0.06 0.09 0.07 0.04 0.02 0.01 0.00 0.00 0.00 0.02 0.01 0.01 0.06 0.13 0.18 0.21 0.29 0.35 0.36 0.36 0.38 0.42 0.41 0.34
0.00 0.00 0.00 0.00 0.00 0.00 0.00 0.00 0.00 0.00 0.00 0.00 0.01 0.01 0.02 0.02 0.02 0.03 0.04 0.05 0.07 0.09 0.08 0.02 0.02 0.02 0.01 0.01 0.03 0.01 0.00 0.04 0.11 0.20 0.27 0.32 0.34 0.31 0.32 0.33 0.36 0.34 0.30
0.00 0.00 0.00 0.00 0.00 0.00 0.00 0.00 0.00 0.00 0.00 0.00 0.00 0.00 0.00 0.00 0.00 0.00 0.01 0.01 0.01 0.02 0.03 0.02 0.02 0.02 0.02 0.02 0.01 0.01 0.01 0.03 0.12 0.23 0.25 0.27 0.26 0.22 0.21 0.21 0.21 0.21 0.20
0.00 0.00 0.00 0.00 0.00 0.00 0.00 0.00 0.00 0.00 0.00 0.00 0.00 0.00 0.00 0.00 0.00 0.00 0.00 0.00 0.00 0.00 0.01 0.02 0.02 0.01 0.00 0.00 0.00 0.01 0.04 0.06 0.07 0.11 0.13 0.12 0.10 0.10 0.11 0.11 0.12 0.12 0.10
0.00 0.00 0.00 0.00 0.00 0.00 0.00 0.00 0.00 0.00 0.00 0.00 0.00 0.00 0.00 0.00 0.00 0.00 0.00 0.00 0.00 0.00 0.00 0.00 0.00 0.00 0.00 0.00 0.00 0.01 0.01 0.03 0.05 0.08 0.07 0.07 0.07 0.07 0.07 0.09 0.08 0.07 0.06
0.00 0.00 0.00 0.00 0.00 0.00 0.00 0.00 0.00 0.00 0.00 0.00 0.00 0.00 0.00 0.00 0.00 0.00 0.00 0.00 0.00 0.00 0.00 0.00 0.00 0.00 0.00 0.00 0.00 0.00 0.00 0.00 0.01 0.01 0.01 0.01 0.01 0.01 0.01 0.02 0.01 0.01 0.00
0.00 0.00 0.00 0.00 0.00 0.00 0.00 0.00 0.00 0.00 0.00 0.00 0.00 0.00 0.00 0.00 0.01 0.01 0.00 0.00 0.00 0.00 0.00 0.00 0.00 0.00 0.00 0.00 0.00 0.00 0.00 0.00 0.00 0.00 0.00 0.00 0.00 0.00 0.00 0.00 0.00 0.00 0.00
0.00 0.00 0.00 0.00 0.00 0.00 0.02 0.02 0.00 0.00 0.00 0.00 0.00 0.00 0.00 0.01 0.01 0.01 0.01 0.01 0.00 0.00 0.00 0.00 0.00 0.00 0.00 0.00 0.00 0.00 0.00 0.00 0.00 0.00 0.00 0.00 0.00 0.00 0.00 0.00 0.00 0.00 0.00
0.00 0.00 0.00 0.00 0.00 0.00 0.03 0.02 0.01 0.00 0.00 0.00 0.00 0.00 0.00 0.00 0.00 0.00 0.00 0.00 0.00 0.00 0.00 0.00 0.00 0.00 0.00 0.00 0.00 0.00 0.00 0.00 0.00 0.00 0.00 0.00 0.00 0.00 0.00 0.00 0.00 0.00 0.00
0.00 0.00 0.00 0.00 0.00 0.01 0.02 0.01 0.01 0.00 0.00 0.01 0.00 0.00 0.00 0.00 0.00 0.00 0.00 0.00 0.00 0.00 0.00 0.00 0.00 0.00 0.00 0.00 0.00 0.00 0.00 0.00 0.00 0.00 0.00 0.00 0.00 0.00 0.00 0.00 0.00 0.00 0.00
0.00 0.00 0.00 0.00 0.00 0.00 0.01 0.00 0.00 0.00 0.00 0.00 0.00 0.00 0.00 0.00 0.00 0.00 0.00 0.00 0.00 0.00 0.00 0.00 0.00 0.00 0.00 0.00 0.00 0.00 0.00 0.00 0.00 0.00 0.00 0.00 0.00 0.00 0.00 0.00 0.00 0.00 0.00
0.00 0.00 0.00 0.00 0.00 0.00 0.00 0.00 0.00 0.00 0.00 0.00 0.00 0.00 0.00 0.00 0.00 0.00 0.00 0.00 0.00 0.00 0.00 0.00 0.00 0.00 0.00 0.00 0.00 0.00 0.00 0.00 0.00 0.00 0.00 0.00 0.00 0.00 0.00 0.00 0.00 0.00 0.00

GFSMA_prec_precacc24_078.txt.gz
Total_Precipitation_Accumulation
0.00 0.00 0.00 0.00 0.00 0.00 0.00 0.00 0.00 0.00 0.00 0.00 0.00 0.00 0.00 0.00 0.00 0.00 0.00 0.00 0.00 0.00 0.00 0.01 0.01 0.01 0.02 0.00 0.00 0.00 0.00 0.00 0.00 0.00 0.00 0.00 0.00 0.00 0.00 0.00 0.00 0.00 0.00
0.00 0.00 0.00 0.00 0.00 0.00 0.00 0.00 0.00 0.00 0.00 0.00 0.00 0.00 0.00 0.00 0.00 0.00 0.00 0.00 0.00 0.00 0.00 0.00 0.00 0.02 0.11 0.07 0.02 0.02 0.00 0.00 0.00 0.00 0.00 0.00 0.00 0.00 0.00 0.00 0.00 0.00 0.00
0.00 0.00 0.00 0.00 0.00 0.00 0.00 0.00 0.00 0.00 0.00 0.00 0.00 0.00 0.00 0.00 0.00 0.00 0.00 0.00 0.00 0.00 0.00 0.00 0.00 0.00 0.01 0.04 0.10 0.14 0.09 0.07 0.03 0.01 0.00 0.00 0.00 0.00 0.00 0.00 0.00 0.00 0.00
0.00 0.00 0.00 0.00 0.00 0.00 0.00 0.00 0.00 0.00 0.00 0.00 0.00 0.00 0.00 0.00 0.00 0.00 0.00 0.00 0.00 0.00 0.00 0.00 0.00 0.00 0.00 0.01 0.06 0.11 0.23 0.27 0.10 0.06 0.03 0.00 0.00 0.00 0.00 0.00 0.00 0.00 0.00
0.00 0.00 0.00 0.00 0.00 0.00 0.00 0.00 0.00 0.00 0.00 0.00 0.00 0.00 0.00 0.00 0.00 0.00 0.00 0.00 0.00 0.00 0.00 0.00 0.00 0.00 0.01 0.00 0.01 0.04 0.14 0.26 0.24 0.16 0.15 0.12 0.03 0.00 0.00 0.00 0.00 0.00 0.00
0.00 0.00 0.00 0.00 0.00 0.00 0.00 0.00 0.00 0.00 0.00 0.01 0.01 0.01 0.00 0.00 0.00 0.00 0.00 0.01 0.02 0.01 0.00 0.00 0.00 0.00 0.00 0.00 0.00 0.01 0.03 0.15 0.28 0.27 0.23 0.22 0.17 0.09 0.03 0.00 0.00 0.00 0.00
0.01 0.00 0.00 0.00 0.00 0.00 0.00 0.01 0.01 0.01 0.01 0.02 0.03 0.00 0.00 0.00 0.00 0.00 0.00 0.02 0.01 0.00 0.00 0.00 0.00 0.00 0.00 0.00 0.00 0.00 0.01 0.06 0.19 0.31 0.32 0.34 0.30 0.28 0.26 0.15 0.04 0.01 0.00
0.02 0.02 0.01 0.01 0.01 0.01 0.00 0.01 0.01 0.01 0.01 0.01 0.04 0.04 0.01 0.00 0.00 0.00 0.00 0.00 0.00 0.00 0.00 0.00 0.00 0.00 0.00 0.00 0.00 0.00 0.00 0.04 0.10 0.23 0.36 0.45 0.47 0.43 0.40 0.40 0.34 0.18 0.07
0.05 0.13 0.15 0.15 0.10 0.07 0.06 0.06 0.04 0.04 0.04 0.02 0.03 0.07 0.05 0.02 0.00 0.00 0.00 0.00 0.00 0.00 0.00 0.00 0.00 0.00 0.00 0.00 0.00 0.00 0.00 0.01 0.04 0.08 0.17 0.30 0.39 0.44 0.50 0.55 0.53 0.59 0.76
0.40 0.33 0.28 0.24 0.20 0.14 0.13 0.12 0.07 0.04 0.04 0.03 0.01 0.02 0.04 0.05 0.05 0.02 0.00 0.00 0.00 0.00 0.00 0.00 0.00 0.00 0.00 0.00 0.00 0.00 0.00 0.00 0.01 0.03 0.09 0.21 0.47 0.60 0.53 0.42 0.38 0.31 0.47
0.56 0.55 0.59 0.59 0.51 0.36 0.21 0.11 0.06 0.04 0.02 0.04 0.03 0.01 0.01 0.01 0.02 0.04 0.02 0.01 0.01 0.00 0.00 0.00 0.00 0.00 0.00 0.00 0.00 0.00 0.00 0.00 0.00 0.04 0.13 0.21 0.37 0.54 0.62 0.61 0.54 0.54 0.58
0.41 0.41 0.47 0.55 0.37 0.15 0.09 0.06 0.03 0.01 0.01 0.01 0.01 0.02 0.02 0.02 0.01 0.01 0.02 0.01 0.01 0.01 0.00 0.00 0.00 0.00 0.00 0.00 0.00 0.00 0.00 0.00 0.00 0.02 0.09 0.23 0.33 0.40 0.41 0.56 0.65 0.64 0.64
0.16 0.17 0.15 0.13 0.09 0.04 0.01 0.00 0.00 0.00 0.01 0.01 0.02 0.03 0.03 0.04 0.04 0.04 0.05 0.03 0.02 0.02 0.01 0.01 0.00 0.00 0.00 0.00 0.00 0.00 0.00 0.00 0.00 0.01 0.05 0.14 0.23 0.28 0.26 0.33 0.58 0.77 1.00
0.11 0.07 0.04 0.01 0.00 0.00 0.00 0.00 0.00 0.01 0.02 0.03 0.04 0.05 0.05 0.04 0.04 0.04 0.05 0.05 0.05 0.03 0.02 0.02 0.01 0.01 0.01 0.00 0.00 0.00 0.00 0.00 0.00 0.01 0.04 0.11 0.18 0.30 0.35 0.35 0.47 0.78 0.69
0.07 0.03 0.01 0.00 0.00 0.00 0.00 0.00 0.00 0.00 0.01 0.01 0.02 0.02 0.03 0.03 0.03 0.03 0.04 0.06 0.08 0.06 0.04 0.02 0.01 0.00 0.00 0.01 0.03 0.01 0.00 0.02 0.01 0.01 0.02 0.06 0.13 0.24 0.30 0.35 0.39 0.37 0.31
0.02 0.01 0.00 0.00 0.00 0.00 0.00 0.00 0.00 0.00 0.00 0.00 0.00 0.00 0.01 0.02 0.02 0.03 0.03 0.04 0.06 0.09 0.08 0.02 0.02 0.02 0.01 0.01 0.04 0.01 0.01 0.02 0.02 0.03 0.04 0.09 0.15 0.16 0.23 0.26 0.30 0.28 0.25
0.01 0.00 0.00 0.00 0.00 0.00 0.00 0.00 0.00 0.00 0.00 0.00 0.00 0.00 0.00 0.00 0.00 0.00 0.00 0.00 0.01 0.01 0.03 0.03 0.03 0.03 0.02 0.02 0.02 0.01 0.01 0.00 0.01 0.03 0.09 0.15 0.15 0.13 0.13 0.12 0.13 0.12 0.13
0.00 0.00 0.00 0.00 0.00 0.00 0.00 0.00 0.00 0.00 0.00 0.00 0.00 0.00 0.00 0.00 0.00 0.00 0.00 0.00 0.00 0.00 0.02 0.03 0.03 0.03 0.01 0.01 0.01 0.01 0.00 0.00 0.00 0.01 0.03 0.05 0.04 0.03 0.05 0.05 0.05 0.05 0.06
0.00 0.00 0.00 0.00 0.00 0.00 0.00 0.00 0.00 0.00 0.00 0.00 0.00 0.00 0.00 0.00 0.00 0.00 0.00 0.00 0.00 0.00 0.00 0.00 0.00 0.00 0.01 0.01 0.00 0.00 0.00 0.00 0.00 0.00 0.00 0.00 0.00 0.01 0.02 0.03 0.04 0.04 0.04
0.00 0.00 0.00 0.00 0.00 0.00 0.00 0.00 0.00 0.00 0.00 0.00 0.00 0.00 0.00 0.00 0.00 0.00 0.00 0.00 0.00 0.00 0.00 0.01 0.01 0.01 0.00 0.00 0.00 0.00 0.00 0.00 0.00 0.00 0.00 0.00 0.00 0.00 0.00 0.01 0.01 0.00 0.00
0.00 0.00 0.00 0.00 0.00 0.00 0.00 0.00 0.00 0.00 0.00 0.00 0.00 0.00 0.00 0.00 0.01 0.01 0.00 0.00 0.00 0.00 0.00 0.01 0.01 0.00 0.00 0.00 0.00 0.00 0.00 0.00 0.00 0.00 0.00 0.00 0.00 0.00 0.00 0.00 0.00 0.00 0.00
0.00 0.00 0.00 0.00 0.00 0.00 0.01 0.01 0.00 0.00 0.00 0.00 0.00 0.00 0.00 0.01 0.01 0.01 0.01 0.00 0.00 0.00 0.00 0.00 0.00 0.00 0.00 0.00 0.00 0.00 0.00 0.00 0.00 0.00 0.00 0.00 0.00 0.00 0.00 0.00 0.00 0.00 0.00
0.00 0.00 0.00 0.00 0.00 0.00 0.02 0.01 0.01 0.00 0.00 0.00 0.00 0.00 0.00 0.00 0.01 0.00 0.00 0.00 0.00 0.00 0.00 0.00 0.00 0.00 0.00 0.00 0.00 0.00 0.00 0.00 0.00 0.00 0.00 0.00 0.00 0.00 0.00 0.00 0.00 0.00 0.00
0.00 0.00 0.00 0.00 0.00 0.01 0.02 0.01 0.01 0.00 0.00 0.01 0.01 0.01 0.00 0.00 0.00 0.00 0.00 0.00 0.00 0.00 0.00 0.00 0.00 0.00 0.00 0.00 0.00 0.00 0.00 0.00 0.00 0.00 0.00 0.00 0.00 0.00 0.00 0.00 0.00 0.00 0.00
0.00 0.00 0.00 0.00 0.00 0.00 0.01 0.00 0.00 0.00 0.00 0.00 0.00 0.00 0.00 0.00 0.00 0.00 0.00 0.00 0.00 0.00 0.00 0.00 0.00 0.00 0.00 0.00 0.00 0.00 0.00 0.00 0.00 0.00 0.00 0.00 0.00 0.00 0.00 0.00 0.00 0.00 0.00
0.00 0.00 0.00 0.00 0.00 0.00 0.00 0.00 0.00 0.00 0.00 0.00 0.00 0.00 0.01 0.00 0.00 0.00 0.00 0.00 0.00 0.00 0.00 0.00 0.00 0.00 0.00 0.00 0.00 0.00 0.00 0.00 0.00 0.00 0.00 0.00 0.00 0.00 0.00 0.00 0.00 0.00 0.00

GFSMA_prec_precacc24_081.txt.gz
Total_Precipitation_Accumulation
0.00 0.00 0.00 0.00 0.00 0.00 0.00 0.00 0.00 0.00 0.00 0.00 0.00 0.00 0.00 0.00 0.00 0.00 0.00 0.00 0.00 0.00 0.00 0.01 0.01 0.02 0.03 0.02 0.00 0.00 0.00 0.00 0.00 0.00 0.00 0.00 0.00 0.00 0.00 0.00 0.00 0.00 0.00
0.00 0.00 0.00 0.00 0.00 0.00 0.00 0.00 0.00 0.00 0.00 0.00 0.00 0.00 0.00 0.00 0.00 0.00 0.00 0.00 0.00 0.00 0.00 0.00 0.00 0.03 0.13 0.10 0.05 0.03 0.02 0.00 0.00 0.00 0.00 0.00 0.00 0.00 0.00 0.00 0.00 0.00 0.00
0.00 0.00 0.00 0.00 0.00 0.00 0.00 0.00 0.00 0.00 0.00 0.00 0.00 0.00 0.00 0.00 0.00 0.00 0.00 0.00 0.00 0.00 0.00 0.00 0.00 0.00 0.01 0.04 0.13 0.17 0.12 0.10 0.05 0.03 0.00 0.00 0.00 0.00 0.00 0.00 0.00 0.00 0.00
0.00 0.00 0.00 0.00 0.00 0.00 0.00 0.00 0.00 0.00 0.00 0.00 0.00 0.00 0.00 0.00 0.00 0.00 0.00 0.00 0.00 0.00 0.00 0.00 0.00 0.00 0.00 0.01 0.07 0.14 0.25 0.28 0.10 0.07 0.06 0.02 0.00 0.00 0.00 0.00 0.00 0.00 0.00
0.00 0.00 0.00 0.00 0.00 0.00 0.00 0.00 0.00 0.00 0.00 0.00 0.00 0.00 0.00 0.00 0.00 0.00 0.00 0.00 0.00 0.00 0.00 0.00 0.00 0.00 0.01 0.00 0.01 0.06 0.15 0.27 0.25 0.16 0.15 0.14 0.07 0.02 0.00 0.00 0.00 0.00 0.00
0.00 0.00 0.00 0.00 0.00 0.00 0.00 0.00 0.00 0.00 0.00 0.01 0.01 0.01 0.00 0.00 0.00 0.00 0.00 0.00 0.01 0.01 0.00 0.00 0.00 0.00 0.00 0.00 0.00 0.01 0.03 0.15 0.28 0.27 0.23 0.22 0.17 0.13 0.09 0.07 0.02 0.00 0.00
0.02 0.01 0.00 0.00 0.00 0.00 0.00 0.00 0.01 0.01 0.01 0.02 0.03 0.00 0.00 0.00 0.00 0.00 0.00 0.00 0.00 0.00 0.00 0.00 0.00 0.00 0.00 0.00 0.00 0.00 0.01 0.06 0.18 0.31 0.32 0.34 0.30 0.29 0.28 0.23 0.17 0.09 0.01
0.24 0.23 0.16 0.06 0.03 0.01 0.00 0.01 0.01 0.01 0.01 0.01 0.04 0.04 0.01 0.00 0.00 0.00 0.00 0.00 0.00 0.00 0.00 0.00 0.00 0.00 0.00 0.00 0.00 0.00 0.00 0.04 0.10 0.21 0.35 0.44 0.47 0.43 0.40 0.40 0.35 0.28 0.18
0.33 0.32 0.35 0.41 0.33 0.27 0.16 0.11 0.06 0.06 0.07 0.02 0.03 0.07 0.05 0.02 0.00 0.00 0.00 0.00 0.00 0.00 0.00 0.00 0.00 0.00 0.00 0.00 0.00 0.00 0.00 0.01 0.04 0.07 0.14 0.26 0.38 0.44 0.50 0.55 0.54 0.60 0.81
0.68 0.63 0.53 0.46 0.44 0.36 0.34 0.34 0.29 0.21 0.13 0.04 0.01 0.02 0.04 0.05 0.04 0.02 0.00 0.00 0.00 0.00 0.00 0.00 0.00 0.00 0.00 0.00 0.00 0.00 0.00 0.00 0.00 0.02 0.06 0.10 0.26 0.43 0.44 0.37 0.34 0.29 0.46
0.75 0.68 0.74 0.78 0.83 0.80 0.51 0.25 0.12 0.08 0.05 0.04 0.03 0.01 0.01 0.01 0.02 0.03 0.02 0.00 0.01 0.00 0.00 0.00 0.00 0.00 0.00 0.00 0.00 0.00 0.00 0.00 0.00 0.00 0.04 0.08 0.17 0.27 0.37 0.39 0.37 0.44 0.51
0.56 0.51 0.53 0.64 0.60 0.48 0.44 0.24 0.07 0.04 0.03 0.02 0.01 0.02 0.02 0.01 0.01 0.01 0.02 0.01 0.01 0.01 0.00 0.00 0.00 0.00 0.00 0.00 0.00 0.00 0.01 0.01 0.00 0.00 0.02 0.06 0.14 0.26 0.27 0.31 0.36 0.40 0.46
0.23 0.25 0.17 0.16 0.14 0.12 0.12 0.08 0.03 0.01 0.00 0.00 0.01 0.01 0.02 0.03 0.03 0.04 0.05 0.03 0.02 0.02 0.01 0.01 0.00 0.00 0.00 0.00 0.00 0.00 0.00 0.00 0.00 0.01 0.01 0.03 0.10 0.16 0.14 0.15 0.27 0.48 0.75
0.16 0.13 0.09 0.06 0.04 0.02 0.01 0.00 0.00 0.00 0.01 0.02 0.02 0.03 0.04 0.03 0.03 0.04 0.04 0.05 0.05 0.02 0.02 0.02 0.01 0.01 0.01 0.00 0.01 0.01 0.00 0.00 0.00 0.00 0.00 0.01 0.04 0.11 0.20 0.22 0.24 0.53 0.54
0.10 0.10 0.09 0.06 0.02 0.00 0.00 0.00 0.00 0.00 0.00 0.00 0.01 0.02 0.02 0.02 0.03 0.03 0.04 0.06 0.08 0.06 0.04 0.02 0.01 0.00 0.00 0.01 0.03 0.01 0.00 0.03 0.02 0.02 0.01 0.02 0.01 0.02 0.10 0.18 0.22 0.22 0.20
0.03 0.03 0.02 0.00 0.00 0.00 0.00 0.00 0.00 0.00 0.00 0.00 0.00 0.00 0.01 0.02 0.02 0.02 0.03 0.04 0.06 0.08 0.08 0.02 0.02 0.02 0.01 0.01 0.04 0.01 0.01 0.03 0.02 0.03 0.03 0.03 0.04 0.08 0.07 0.09 0.15 0.15 0.15
0.01 0.01 0.01 0.00 0.00 0.00 0.00 0.00 0.00 0.00 0.00 0.00 0.00 0.00 0.00 0.00 0.00 0.00 0.00 0.00 0.01 0.01 0.04 0.03 0.03 0.03 0.03 0.02 0.02 0.02 0.02 0.01 0.02 0.03 0.03 0.04 0.06 0.07 0.09 0.08 0.07 0.06 0.06
0.00 0.00 0.00 0.00 0.00 0.00 0.00 0.00 0.00 0.00 0.00 0.00 0.00 0.00 0.00 0.00 0.00 0.00 0.00 0.00 0.00 0.00 0.02 0.03 0.03 0.03 0.02 0.01 0.01 0.01 0.01 0.00 0.00 0.01 0.01 0.01 0.02 0.02 0.03 0.02 0.02 0.02 0.01
0.00 0.00 0.00 0.00 0.00 0.00 0.00 0.00 0.00 0.00 0.00 0.00 0.00 0.00 0.00 0.00 0.00 0.00 0.00 0.00 0.00 0.00 0.00 0.00 0.00 0.00 0.01 0.01 0.01 0.00 0.00 0.00 0.00 0.00 0.00 0.00 0.00 0.00 0.00 0.00 0.00 0.01 0.00
0.00 0.00 0.00 0.00 0.00 0.00 0.00 0.00 0.00 0.00 0.00 0.00 0.00 0.00 0.00 0.00 0.00 0.00 0.00 0.00 0.00 0.00 0.00 0.01 0.01 0.01 0.00 0.00 0.00 0.00 0.00 0.00 0.00 0.00 0.00 0.00 0.00 0.00 0.00 0.00 0.00 0.00 0.00
0.00 0.00 0.00 0.00 0.00 0.00 0.00 0.00 0.00 0.00 0.00 0.00 0.00 0.00 0.00 0.00 0.00 0.01 0.00 0.00 0.00 0.00 0.01 0.01 0.01 0.01 0.00 0.00 0.00 0.00 0.00 0.00 0.00 0.00 0.00 0.00 0.00 0.00 0.00 0.00 0.00 0.00 0.00
0.00 0.00 0.00 0.00 0.00 0.00 0.00 0.00 0.00 0.00 0.00 0.00 0.00 0.00 0.00 0.01 0.01 0.01 0.01 0.00 0.00 0.00 0.00 0.00 0.01 0.00 0.00 0.00 0.00 0.00 0.00 0.00 0.00 0.00 0.00 0.00 0.00 0.00 0.00 0.00 0.00 0.00 0.00
0.00 0.00 0.00 0.00 0.00 0.00 0.02 0.01 0.01 0.00 0.00 0.00 0.00 0.00 0.00 0.00 0.01 0.00 0.00 0.00 0.00 0.00 0.00 0.00 0.00 0.00 0.00 0.00 0.00 0.00 0.00 0.00 0.00 0.00 0.00 0.00 0.00 0.00 0.00 0.00 0.00 0.00 0.00
0.00 0.00 0.00 0.00 0.00 0.01 0.02 0.01 0.01 0.00 0.00 0.01 0.01 0.01 0.00 0.00 0.00 0.00 0.00 0.00 0.00 0.00 0.00 0.00 0.00 0.00 0.00 0.00 0.00 0.00 0.00 0.00 0.00 0.00 0.00 0.00 0.00 0.00 0.00 0.00 0.00 0.00 0.00
0.00 0.00 0.00 0.00 0.00 0.00 0.01 0.00 0.00 0.00 0.00 0.00 0.00 0.00 0.00 0.00 0.01 0.00 0.00 0.00 0.00 0.00 0.00 0.00 0.00 0.00 0.00 0.00 0.00 0.00 0.00 0.00 0.00 0.00 0.00 0.00 0.00 0.00 0.00 0.00 0.00 0.00 0.00
0.00 0.00 0.00 0.00 0.00 0.00 0.00 0.00 0.00 0.00 0.00 0.00 0.00 0.00 0.01 0.00 0.00 0.00 0.00 0.00 0.00 0.00 0.00 0.00 0.00 0.00 0.00 0.00 0.00 0.00 0.00 0.00 0.00 0.00 0.00 0.00 0.00 0.00 0.00 0.00 0.00 0.00 0.00

GFSMA_prec_precacc24_084.txt.gz
Total_Precipitation_Accumulation
0.00 0.00 0.00 0.00 0.00 0.00 0.00 0.00 0.00 0.00 0.00 0.00 0.00 0.00 0.00 0.00 0.00 0.00 0.00 0.00 0.00 0.00 0.00 0.00 0.01 0.03 0.06 0.04 0.01 0.00 0.00 0.00 0.00 0.00 0.00 0.00 0.00 0.00 0.00 0.00 0.00 0.00 0.00
0.00 0.00 0.00 0.00 0.00 0.00 0.00 0.00 0.00 0.00 0.00 0.00 0.00 0.00 0.00 0.00 0.00 0.00 0.00 0.00 0.00 0.00 0.00 0.00 0.00 0.02 0.14 0.11 0.06 0.04 0.04 0.00 0.00 0.00 0.00 0.00 0.00 0.00 0.00 0.00 0.00 0.00 0.00
0.00 0.00 0.00 0.00 0.00 0.00 0.00 0.00 0.00 0.00 0.00 0.00 0.00 0.00 0.00 0.00 0.00 0.00 0.00 0.00 0.00 0.00 0.00 0.00 0.00 0.00 0.01 0.04 0.16 0.21 0.14 0.11 0.06 0.03 0.00 0.00 0.00 0.00 0.00 0.00 0.00 0.00 0.00
0.00 0.00 0.00 0.00 0.00 0.00 0.00 0.00 0.00 0.00 0.00 0.00 0.00 0.00 0.00 0.00 0.00 0.00 0.00 0.00 0.00 0.00 0.00 0.00 0.00 0.00 0.00 0.01 0.08 0.20 0.28 0.29 0.12 0.08 0.07 0.03 0.01 0.00 0.00 0.00 0.00 0.00 0.00
0.00 0.00 0.00 0.00 0.00 0.00 0.00 0.00 0.00 0.00 0.00 0.00 0.00 0.00 0.00 0.00 0.00 0.00 0.00 0.00 0.00 0.00 0.00 0.00 0.00 0.00 0.00 0.00 0.01 0.08 0.17 0.27 0.26 0.16 0.15 0.15 0.08 0.02 0.01 0.01 0.00 0.00 0.00
0.00 0.00 0.00 0.00 0.00 0.00 0.00 0.00 0.00 0.00 0.00 0.01 0.01 0.01 0.00 0.00 0.00 0.00 0.00 0.00 0.00 0.01 0.00 0.00 0.00 0.00 0.00 0.00 0.00 0.01 0.03 0.14 0.28 0.27 0.23 0.22 0.17 0.13 0.10 0.11 0.08 0.02 0.00
0.05 0.01 0.00 0.00 0.00 0.00 0.00 0.00 0.01 0.01 0.01 0.02 0.03 0.01 0.00 0.00 0.00 0.00 0.00 0.00 0.00 0.00 0.00 0.00 0.00 0.00 0.00 0.00 0.00 0.00 0.01 0.05 0.16 0.29 0.32 0.34 0.30 0.28 0.28 0.23 0.20 0.16 0.06
0.30 0.32 0.26 0.13 0.04 0.03 0.02 0.01 0.01 0.01 0.01 0.01 0.05 0.04 0.01 0.00 0.00 0.00 0.00 0.00 0.00 0.00 0.00 0.00 0.00 0.00 0.00 0.00 0.00 0.00 0.00 0.03 0.08 0.16 0.27 0.42 0.47 0.42 0.39 0.39 0.35 0.28 0.22
0.44 0.49 0.57 0.65 0.52 0.39 0.30 0.20 0.08 0.08 0.13 0.04 0.04 0.07 0.05 0.02 0.00 0.00 0.00 0.00 0.00 0.00 0.00 0.00 0.00 0.00 0.00 0.00 0.00 0.00 0.00 0.00 0.02 0.05 0.08 0.15 0.30 0.41 0.49 0.55 0.53 0.60 0.81
0.73 0.83 0.87 0.91 0.85 0.63 0.55 0.53 0.47 0.42 0.33 0.17 0.09 0.04 0.04 0.05 0.04 0.01 0.00 0.00 0.00 0.00 0.00 0.00 0.00 0.00 0.00 0.00 0.00 0.00 0.00 0.00 0.00 0.00 0.01 0.04 0.11 0.23 0.32 0.34 0.33 0.27 0.41
0.82 0.82 0.99 1.07 1.13 1.06 0.80 0.52 0.35 0.25 0.20 0.15 0.11 0.08 0.03 0.01 0.02 0.03 0.01 0.00 0.01 0.00 0.00 0.00 0.00 0.00 0.00 0.00 0.00 0.00 0.00 0.00 0.00 0.00 0.00 0.00 0.05 0.16 0.27 0.32 0.31 0.39 0.45
0.73 0.72 0.77 0.88 0.81 0.62 0.58 0.51 0.40 0.24 0.14 0.10 0.08 0.06 0.03 0.01 0.01 0.01 0.02 0.01 0.01 0.01 0.00 0.00 0.00 0.00 0.00 0.00 0.00 0.00 0.01 0.01 0.00 0.00 0.00 0.00 0.03 0.11 0.15 0.21 0.25 0.28 0.35
0.33 0.35 0.34 0.34 0.29 0.20 0.16 0.14 0.11 0.10 0.07 0.04 0.02 0.01 0.01 0.01 0.02 0.03 0.04 0.03 0.02 0.01 0.01 0.01 0.00 0.00 0.00 0.00 0.00 0.00 0.00 0.00 0.00 0.01 0.01 0.00 0.01 0.02 0.03 0.08 0.20 0.38 0.59
0.22 0.22 0.18 0.17 0.12 0.07 0.02 0.01 0.01 0.01 0.01 0.01 0.01 0.02 0.03 0.03 0.03 0.03 0.04 0.04 0.04 0.02 0.02 0.02 0.01 0.01 0.01 0.00 0.01 0.01 0.00 0.01 0.00 0.00 0.00 0.00 0.01 0.01 0.02 0.07 0.15 0.30 0.27
0.17 0.17 0.18 0.16 0.09 0.03 0.00 0.00 0.00 0.00 0.00 0.00 0.00 0.00 0.01 0.01 0.02 0.03 0.04 0.06 0.08 0.06 0.04 0.02 0.01 0.00 0.00 0.01 0.04 0.01 0.00 0.05 0.03 0.02 0.02 0.02 0.01 0.02 0.08 0.10 0.11 0.15 0.09
0.04 0.03 0.04 0.03 0.03 0.03 0.01 0.00 0.00 0.00 0.00 0.00 0.00 0.00 0.01 0.01 0.02 0.02 0.03 0.04 0.06 0.08 0.08 0.02 0.02 0.02 0.01 0.01 0.04 0.01 0.01 0.04 0.02 0.03 0.03 0.02 0.02 0.05 0.06 0.06 0.07 0.06 0.06
0.01 0.01 0.01 0.00 0.00 0.00 0.00 0.00 0.00 0.00 0.00 0.00 0.00 0.00 0.00 0.00 0.00 0.00 0.00 0.00 0.01 0.02 0.04 0.03 0.03 0.03 0.03 0.02 0.02 0.02 0.02 0.01 0.03 0.05 0.02 0.02 0.01 0.03 0.05 0.05 0.05 0.04 0.04
0.00 0.00 0.00 0.00 0.00 0.00 0.00 0.00 0.00 0.00 0.00 0.00 0.00 0.00 0.00 0.00 0.00 0.00 0.00 0.00 0.00 0.00 0.02 0.03 0.03 0.03 0.02 0.01 0.01 0.01 0.01 0.00 0.00 0.03 0.01 0.00 0.00 0.01 0.02 0.02 0.02 0.02 0.01
0.00 0.00 0.00 0.00 0.00 0.00 0.00 0.00 0.00 0.00 0.00 0.00 0.00 0.00 0.00 0.00 0.00 0.00 0.00 0.00 0.00 0.00 0.00 0.00 0.00 0.00 0.01 0.01 0.01 0.00 0.00 0.00 0.00 0.02 0.00 0.00 0.00 0.00 0.00 0.00 0.00 0.00 0.00
0.00 0.00 0.00 0.00 0.00 0.00 0.00 0.00 0.00 0.00 0.00 0.00 0.00 0.00 0.00 0.00 0.00 0.00 0.00 0.00 0.00 0.00 0.00 0.01 0.01 0.01 0.00 0.00 0.00 0.00 0.00 0.00 0.00 0.00 0.00 0.00 0.00 0.00 0.00 0.00 0.00 0.00 0.00
0.00 0.00 0.00 0.00 0.00 0.00 0.00 0.00 0.00 0.00 0.00 0.00 0.00 0.00 0.00 0.00 0.00 0.00 0.00 0.00 0.00 0.00 0.01 0.01 0.01 0.01 0.00 0.00 0.00 0.00 0.00 0.00 0.00 0.00 0.00 0.00 0.00 0.00 0.00 0.00 0.00 0.00 0.00
0.00 0.00 0.00 0.00 0.00 0.00 0.00 0.00 0.00 0.00 0.00 0.00 0.00 0.00 0.00 0.01 0.01 0.01 0.01 0.00 0.00 0.00 0.00 0.00 0.01 0.00 0.00 0.00 0.00 0.00 0.00 0.00 0.00 0.00 0.00 0.00 0.00 0.00 0.00 0.00 0.00 0.00 0.00
0.00 0.00 0.00 0.00 0.00 0.00 0.01 0.01 0.01 0.00 0.00 0.00 0.00 0.00 0.00 0.00 0.01 0.00 0.01 0.00 0.00 0.00 0.00 0.00 0.00 0.00 0.00 0.00 0.00 0.00 0.00 0.00 0.00 0.00 0.00 0.00 0.00 0.00 0.00 0.00 0.00 0.00 0.00
0.00 0.00 0.00 0.00 0.00 0.01 0.01 0.01 0.01 0.00 0.00 0.01 0.01 0.01 0.00 0.00 0.00 0.00 0.00 0.00 0.00 0.00 0.00 0.00 0.00 0.00 0.00 0.00 0.00 0.00 0.00 0.00 0.00 0.00 0.00 0.00 0.00 0.00 0.00 0.00 0.00 0.00 0.00
0.00 0.00 0.00 0.00 0.00 0.00 0.01 0.00 0.00 0.00 0.00 0.00 0.00 0.00 0.00 0.00 0.01 0.00 0.00 0.00 0.00 0.00 0.00 0.00 0.00 0.00 0.00 0.00 0.00 0.00 0.00 0.00 0.01 0.00 0.00 0.00 0.00 0.00 0.00 0.00 0.00 0.00 0.00
0.00 0.00 0.00 0.00 0.00 0.00 0.00 0.00 0.00 0.00 0.00 0.00 0.00 0.00 0.01 0.00 0.00 0.00 0.00 0.00 0.00 0.00 0.00 0.00 0.00 0.00 0.00 0.00 0.00 0.00 0.00 0.00 0.00 0.00 0.00 0.00 0.00 0.00 0.00 0.00 0.00 0.00 0.00

GFSMA_prec_precacc24_087.txt.gz
Total_Precipitation_Accumulation
0.00 0.00 0.00 0.00 0.00 0.00 0.00 0.00 0.00 0.00 0.00 0.00 0.00 0.00 0.00 0.00 0.00 0.00 0.00 0.00 0.00 0.00 0.00 0.00 0.00 0.03 0.08 0.07 0.01 0.00 0.00 0.00 0.00 0.00 0.00 0.00 0.00 0.00 0.00 0.00 0.00 0.00 0.00
0.00 0.00 0.00 0.00 0.00 0.00 0.00 0.00 0.00 0.00 0.00 0.00 0.00 0.00 0.00 0.00 0.00 0.00 0.00 0.00 0.00 0.00 0.00 0.00 0.00 0.02 0.14 0.13 0.07 0.09 0.09 0.01 0.00 0.00 0.00 0.00 0.00 0.00 0.00 0.00 0.00 0.00 0.00
0.00 0.00 0.00 0.00 0.00 0.00 0.00 0.00 0.00 0.00 0.00 0.00 0.00 0.00 0.00 0.00 0.00 0.00 0.00 0.00 0.00 0.00 0.00 0.00 0.00 0.00 0.01 0.04 0.17 0.26 0.17 0.13 0.08 0.04 0.00 0.00 0.00 0.00 0.00 0.00 0.00 0.00 0.00
0.00 0.00 0.00 0.00 0.00 0.00 0.00 0.00 0.00 0.00 0.00 0.00 0.00 0.00 0.00 0.00 0.00 0.00 0.00 0.00 0.00 0.00 0.00 0.00 0.00 0.00 0.00 0.01 0.09 0.25 0.28 0.30 0.13 0.09 0.08 0.03 0.01 0.00 0.00 0.00 0.00 0.00 0.00
0.00 0.00 0.00 0.00 0.00 0.00 0.00 0.00 0.00 0.00 0.00 0.00 0.00 0.00 0.00 0.00 0.00 0.00 0.00 0.00 0.00 0.00 0.00 0.00 0.00 0.00 0.00 0.00 0.01 0.09 0.17 0.26 0.27 0.17 0.16 0.15 0.08 0.03 0.02 0.04 0.03 0.00 0.00
0.00 0.00 0.00 0.00 0.00 0.00 0.00 0.00 0.00 0.00 0.00 0.00 0.00 0.00 0.00 0.00 0.00 0.00 0.00 0.00 0.00 0.01 0.00 0.00 0.00 0.00 0.00 0.00 0.00 0.03 0.03 0.11 0.26 0.27 0.23 0.22 0.17 0.13 0.10 0.12 0.10 0.07 0.04
0.07 0.02 0.00 0.00 0.00 0.00 0.00 0.00 0.00 0.00 0.00 0.00 0.02 0.01 0.00 0.00 0.00 0.00 0.00 0.00 0.00 0.00 0.00 0.00 0.00 0.00 0.00 0.00 0.00 0.00 0.01 0.06 0.13 0.25 0.30 0.33 0.30 0.28 0.28 0.23 0.20 0.17 0.10
0.31 0.32 0.26 0.13 0.04 0.03 0.02 0.01 0.00 0.01 0.01 0.01 0.05 0.04 0.02 0.00 0.00 0.00 0.00 0.00 0.00 0.00 0.00 0.00 0.00 0.00 0.00 0.00 0.00 0.00 0.01 0.02 0.04 0.09 0.17 0.33 0.43 0.42 0.39 0.39 0.35 0.28 0.21
0.53 0.58 0.59 0.69 0.63 0.47 0.33 0.28 0.12 0.09 0.16 0.10 0.08 0.08 0.04 0.02 0.00 0.00 0.00 0.00 0.00 0.00 0.00 0.00 0.00 0.00 0.00 0.00 0.00 0.00 0.00 0.00 0.00 0.00 0.02 0.06 0.15 0.31 0.45 0.54 0.53 0.60 0.81
0.79 0.91 0.94 0.96 0.92 0.81 0.90 0.94 0.77 0.59 0.43 0.25 0.19 0.14 0.09 0.08 0.05 0.01 0.00 0.00 0.00 0.00 0.00 0.00 0.00 0.00 0.00 0.00 0.00 0.00 0.00 0.00 0.00 0.00 0.00 0.00 0.02 0.08 0.18 0.28 0.30 0.27 0.41
0.87 0.86 1.03 1.16 1.26 1.24 1.04 0.92 1.01 0.99 0.69 0.34 0.20 0.16 0.12 0.07 0.05 0.03 0.01 0.00 0.00 0.00 0.00 0.00 0.00 0.00 0.00 0.00 0.00 0.00 0.00 0.00 0.00 0.00 0.00 0.00 0.01 0.04 0.08 0.14 0.22 0.36 0.44
0.79 0.78 0.84 1.00 1.02 0.87 0.79 0.74 0.60 0.51 0.50 0.38 0.22 0.16 0.14 0.13 0.07 0.04 0.02 0.00 0.00 0.00 0.00 0.00 0.00 0.00 0.00 0.00 0.00 0.00 0.01 0.01 0.00 0.00 0.00 0.00 0.01 0.02 0.01 0.03 0.08 0.18 0.28
0.39 0.41 0.43 0.45 0.43 0.43 0.45 0.37 0.25 0.17 0.14 0.16 0.17 0.11 0.05 0.02 0.01 0.01 0.02 0.01 0.02 0.01 0.01 0.01 0.00 0.00 0.00 0.00 0.00 0.00 0.00 0.00 0.00 0.01 0.01 0.00 0.00 0.00 0.01 0.01 0.00 0.06 0.23
0.23 0.22 0.21 0.22 0.22 0.23 0.22 0.17 0.10 0.04 0.02 0.02 0.02 0.02 0.02 0.02 0.02 0.03 0.03 0.04 0.03 0.02 0.02 0.02 0.01 0.01 0.01 0.00 0.01 0.01 0.00 0.01 0.00 0.00 0.00 0.00 0.01 0.01 0.02 0.05 0.06 0.07 0.07
0.19 0.22 0.21 0.18 0.17 0.19 0.17 0.10 0.04 0.01 0.00 0.00 0.00 0.00 0.00 0.00 0.01 0.01 0.02 0.05 0.08 0.06 0.03 0.02 0.01 0.00 0.00 0.01 0.04 0.01 0.00 0.05 0.04 0.03 0.03 0.02 0.01 0.02 0.08 0.10 0.08 0.06 0.05
0.10 0.16 0.10 0.04 0.04 0.06 0.08 0.05 0.03 0.02 0.01 0.00 0.00 0.00 0.00 0.01 0.00 0.00 0.01 0.03 0.06 0.08 0.08 0.02 0.02 0.02 0.01 0.01 0.04 0.01 0.01 0.03 0.02 0.03 0.03 0.02 0.01 0.03 0.05 0.06 0.07 0.05 0.05
0.02 0.02 0.02 0.02 0.02 0.03 0.04 0.04 0.02 0.00 0.00 0.00 0.00 0.00 0.00 0.00 0.00 0.00 0.00 0.00 0.01 0.02 0.04 0.03 0.03 0.03 0.03 0.02 0.02 0.02 0.02 0.01 0.03 0.05 0.02 0.02 0.01 0.02 0.03 0.04 0.04 0.03 0.03
0.00 0.00 0.00 0.00 0.00 0.01 0.00 0.01 0.01 0.00 0.00 0.00 0.00 0.00 0.00 0.00 0.00 0.00 0.00 0.00 0.00 0.00 0.02 0.03 0.03 0.03 0.02 0.01 0.01 0.01 0.01 0.00 0.00 0.05 0.01 0.01 0.00 0.01 0.02 0.01 0.02 0.02 0.01
0.00 0.00 0.00 0.00 0.00 0.00 0.00 0.00 0.00 0.00 0.00 0.00 0.00 0.00 0.00 0.00 0.00 0.00 0.00 0.00 0.00 0.00 0.00 0.00 0.00 0.00 0.01 0.01 0.01 0.00 0.00 0.00 0.00 0.03 0.00 0.00 0.00 0.00 0.00 0.00 0.00 0.00 0.00
0.00 0.00 0.00 0.00 0.00 0.00 0.00 0.00 0.00 0.00 0.00 0.00 0.00 0.00 0.00 0.00 0.00 0.00 0.00 0.00 0.00 0.00 0.01 0.01 0.01 0.01 0.00 0.00 0.00 0.00 0.00 0.00 0.00 0.00 0.00 0.00 0.00 0.00 0.00 0.00 0.00 0.00 0.00
0.00 0.00 0.00 0.00 0.00 0.00 0.00 0.00 0.00 0.00 0.00 0.00 0.00 0.00 0.00 0.00 0.00 0.00 0.00 0.00 0.00 0.00 0.01 0.01 0.01 0.01 0.00 0.00 0.00 0.00 0.00 0.00 0.00 0.00 0.00 0.00 0.00 0.00 0.00 0.00 0.00 0.00 0.00
0.00 0.00 0.00 0.00 0.00 0.00 0.00 0.00 0.00 0.00 0.00 0.00 0.00 0.00 0.00 0.01 0.01 0.01 0.01 0.00 0.00 0.00 0.00 0.00 0.01 0.00 0.00 0.00 0.00 0.00 0.00 0.00 0.00 0.00 0.00 0.00 0.00 0.00 0.00 0.00 0.00 0.00 0.00
0.00 0.00 0.00 0.00 0.00 0.00 0.01 0.01 0.01 0.00 0.00 0.00 0.00 0.00 0.00 0.00 0.01 0.00 0.01 0.00 0.00 0.00 0.00 0.00 0.00 0.00 0.00 0.00 0.00 0.00 0.00 0.00 0.00 0.00 0.00 0.00 0.00 0.00 0.00 0.00 0.00 0.00 0.00
0.00 0.00 0.00 0.00 0.00 0.01 0.01 0.01 0.01 0.00 0.00 0.01 0.01 0.01 0.00 0.00 0.00 0.00 0.00 0.00 0.00 0.00 0.00 0.00 0.00 0.00 0.00 0.00 0.00 0.00 0.00 0.00 0.00 0.00 0.00 0.00 0.00 0.00 0.00 0.00 0.00 0.00 0.00
0.00 0.00 0.00 0.00 0.00 0.00 0.01 0.00 0.00 0.00 0.00 0.00 0.00 0.00 0.00 0.00 0.01 0.00 0.00 0.00 0.00 0.00 0.00 0.00 0.00 0.00 0.00 0.00 0.00 0.00 0.00 0.00 0.01 0.00 0.00 0.00 0.00 0.00 0.00 0.00 0.00 0.00 0.00
0.00 0.00 0.00 0.00 0.00 0.00 0.00 0.00 0.00 0.00 0.00 0.00 0.00 0.00 0.01 0.00 0.00 0.00 0.00 0.00 0.00 0.00 0.00 0.00 0.00 0.00 0.00 0.00 0.00 0.00 0.00 0.00 0.00 0.00 0.00 0.00 0.00 0.00 0.00 0.00 0.00 0.00 0.00

GFSMA_prec_precacc24_090.txt.gz
Total_Precipitation_Accumulation
0.00 0.00 0.00 0.00 0.00 0.00 0.00 0.00 0.00 0.00 0.00 0.00 0.00 0.00 0.00 0.00 0.00 0.00 0.00 0.00 0.00 0.00 0.00 0.00 0.00 0.02 0.08 0.08 0.01 0.00 0.00 0.00 0.00 0.00 0.00 0.00 0.00 0.00 0.00 0.00 0.00 0.00 0.00
0.00 0.00 0.00 0.00 0.00 0.00 0.00 0.00 0.00 0.00 0.00 0.00 0.00 0.00 0.00 0.00 0.00 0.00 0.00 0.00 0.00 0.00 0.00 0.00 0.00 0.02 0.14 0.14 0.08 0.14 0.14 0.03 0.01 0.00 0.00 0.00 0.00 0.00 0.00 0.00 0.00 0.00 0.00
0.00 0.00 0.00 0.00 0.00 0.00 0.00 0.00 0.00 0.00 0.00 0.00 0.00 0.00 0.00 0.00 0.00 0.00 0.00 0.00 0.00 0.00 0.00 0.00 0.00 0.00 0.01 0.04 0.17 0.30 0.22 0.17 0.11 0.06 0.02 0.01 0.00 0.00 0.00 0.00 0.00 0.00 0.00
0.00 0.00 0.00 0.00 0.00 0.00 0.00 0.00 0.00 0.00 0.00 0.00 0.00 0.00 0.00 0.00 0.00 0.00 0.00 0.00 0.00 0.00 0.00 0.00 0.00 0.00 0.00 0.01 0.10 0.28 0.29 0.31 0.14 0.10 0.09 0.06 0.02 0.01 0.00 0.01 0.00 0.00 0.00
0.00 0.00 0.00 0.00 0.00 0.00 0.00 0.00 0.00 0.00 0.00 0.00 0.00 0.00 0.00 0.00 0.00 0.00 0.00 0.00 0.00 0.00 0.00 0.00 0.00 0.00 0.00 0.00 0.01 0.10 0.16 0.23 0.26 0.17 0.16 0.15 0.08 0.03 0.03 0.06 0.05 0.02 0.01
0.01 0.00 0.00 0.00 0.00 0.00 0.00 0.00 0.00 0.00 0.00 0.00 0.00 0.00 0.00 0.00 0.00 0.00 0.00 0.00 0.00 0.01 0.00 0.00 0.00 0.00 0.00 0.00 0.00 0.03 0.03 0.07 0.18 0.22 0.22 0.22 0.17 0.13 0.10 0.12 0.10 0.08 0.07
0.13 0.07 0.01 0.00 0.00 0.00 0.00 0.00 0.00 0.00 0.00 0.00 0.02 0.01 0.00 0.00 0.00 0.00 0.00 0.00 0.00 0.00 0.00 0.00 0.00 0.00 0.00 0.00 0.00 0.00 0.01 0.06 0.09 0.16 0.21 0.29 0.29 0.28 0.28 0.23 0.20 0.17 0.10
0.33 0.34 0.27 0.13 0.05 0.03 0.02 0.02 0.00 0.00 0.01 0.01 0.04 0.04 0.02 0.00 0.00 0.00 0.00 0.00 0.00 0.00 0.00 0.00 0.00 0.00 0.00 0.00 0.00 0.00 0.01 0.03 0.01 0.02 0.06 0.18 0.29 0.36 0.38 0.39 0.35 0.28 0.21
0.57 0.59 0.60 0.71 0.65 0.47 0.35 0.31 0.17 0.11 0.15 0.10 0.09 0.10 0.04 0.01 0.00 0.00 0.00 0.00 0.00 0.00 0.00 0.00 0.00 0.00 0.00 0.00 0.00 0.00 0.00 0.00 0.00 0.00 0.00 0.01 0.04 0.14 0.27 0.42 0.51 0.60 0.81
0.86 0.95 0.99 1.07 1.05 0.87 0.98 1.11 0.98 0.77 0.68 0.53 0.43 0.27 0.16 0.09 0.04 0.01 0.00 0.00 0.00 0.00 0.00 0.00 0.00 0.00 0.00 0.00 0.00 0.00 0.00 0.00 0.00 0.00 0.01 0.00 0.00 0.02 0.05 0.12 0.20 0.24 0.41
0.90 0.87 1.04 1.17 1.29 1.29 1.07 0.95 1.10 1.16 1.10 0.99 0.78 0.50 0.25 0.12 0.07 0.03 0.00 0.00 0.00 0.00 0.00 0.00 0.00 0.00 0.00 0.00 0.00 0.00 0.00 0.00 0.00 0.00 0.01 0.00 0.01 0.02 0.01 0.03 0.05 0.15 0.32
0.80 0.78 0.84 1.01 1.03 0.91 0.82 0.75 0.62 0.55 0.61 0.64 0.66 0.61 0.46 0.34 0.24 0.16 0.09 0.03 0.01 0.00 0.00 0.00 0.00 0.00 0.00 0.00 0.00 0.00 0.01 0.01 0.00 0.00 0.00 0.00 0.01 0.00 0.00 0.00 0.00 0.00 0.06
0.42 0.41 0.43 0.47 0.46 0.46 0.48 0.42 0.32 0.27 0.27 0.30 0.33 0.37 0.45 0.30 0.14 0.06 0.02 0.01 0.01 0.00 0.01 0.01 0.00 0.00 0.00 0.00 0.00 0.00 0.00 0.00 0.00 0.01 0.02 0.01 0.00 0.00 0.01 0.01 0.01 0.01 0.01
0.24 0.23 0.21 0.22 0.24 0.27 0.28 0.25 0.19 0.12 0.08 0.06 0.04 0.07 0.09 0.13 0.06 0.02 0.03 0.02 0.02 0.01 0.01 0.02 0.01 0.01 0.01 0.00 0.01 0.01 0.00 0.01 0.00 0.00 0.01 0.00 0.01 0.01 0.02 0.05 0.06 0.07 0.05
0.19 0.28 0.23 0.19 0.17 0.19 0.24 0.24 0.17 0.13 0.09 0.03 0.00 0.00 0.00 0.00 0.00 0.00 0.01 0.03 0.05 0.04 0.03 0.02 0.01 0.00 0.00 0.01 0.04 0.01 0.00 0.05 0.03 0.03 0.03 0.02 0.01 0.02 0.08 0.10 0.07 0.06 0.05
0.14 0.44 0.42 0.17 0.09 0.07 0.14 0.19 0.15 0.08 0.05 0.02 0.00 0.00 0.00 0.00 0.00 0.00 0.00 0.00 0.02 0.06 0.07 0.02 0.02 0.02 0.01 0.01 0.04 0.01 0.01 0.03 0.02 0.02 0.02 0.02 0.01 0.02 0.03 0.04 0.05 0.03 0.04
0.07 0.11 0.12 0.13 0.05 0.04 0.06 0.07 0.07 0.07 0.04 0.02 0.00 0.00 0.00 0.00 0.00 0.00 0.00 0.00 0.01 0.02 0.04 0.03 0.03 0.03 0.03 0.02 0.02 0.02 0.02 0.01 0.03 0.05 0.02 0.02 0.01 0.02 0.02 0.02 0.02 0.03 0.02
0.00 0.00 0.01 0.01 0.02 0.02 0.01 0.01 0.02 0.03 0.03 0.02 0.01 0.00 0.00 0.00 0.00 0.00 0.00 0.00 0.00 0.00 0.02 0.03 0.03 0.03 0.02 0.01 0.01 0.01 0.01 0.00 0.00 0.05 0.01 0.01 0.00 0.01 0.01 0.01 0.01 0.02 0.01
0.00 0.00 0.00 0.00 0.00 0.01 0.01 0.02 0.01 0.01 0.01 0.00 0.00 0.00 0.00 0.00 0.00 0.00 0.00 0.00 0.00 0.00 0.00 0.00 0.00 0.00 0.01 0.01 0.01 0.00 0.00 0.00 0.00 0.03 0.00 0.00 0.00 0.00 0.00 0.00 0.00 0.00 0.00
0.00 0.00 0.00 0.00 0.00 0.00 0.00 0.01 0.01 0.01 0.01 0.01 0.01 0.00 0.00 0.00 0.00 0.00 0.00 0.00 0.00 0.00 0.01 0.01 0.01 0.01 0.00 0.00 0.00 0.00 0.00 0.00 0.00 0.00 0.00 0.00 0.00 0.00 0.00 0.00 0.00 0.00 0.00
0.00 0.00 0.00 0.00 0.00 0.00 0.00 0.00 0.01 0.01 0.01 0.01 0.02 0.01 0.01 0.01 0.01 0.00 0.00 0.00 0.00 0.00 0.01 0.01 0.01 0.01 0.00 0.00 0.00 0.00 0.00 0.00 0.00 0.00 0.00 0.00 0.00 0.00 0.00 0.00 0.00 0.00 0.00
0.00 0.00 0.00 0.00 0.00 0.00 0.00 0.00 0.00 0.00 0.00 0.01 0.01 0.00 0.00 0.01 0.01 0.01 0.01 0.00 0.00 0.00 0.00 0.00 0.01 0.00 0.00 0.00 0.00 0.00 0.00 0.00 0.00 0.00 0.00 0.00 0.00 0.00 0.00 0.00 0.00 0.00 0.00
0.00 0.00 0.00 0.00 0.00 0.00 0.01 0.01 0.01 0.00 0.00 0.00 0.00 0.00 0.00 0.00 0.01 0.00 0.01 0.00 0.00 0.00 0.00 0.00 0.00 0.00 0.00 0.00 0.00 0.00 0.00 0.00 0.00 0.00 0.00 0.00 0.00 0.00 0.00 0.00 0.00 0.00 0.00
0.00 0.00 0.00 0.00 0.00 0.00 0.01 0.01 0.01 0.00 0.00 0.01 0.01 0.01 0.00 0.00 0.00 0.00 0.00 0.00 0.00 0.00 0.00 0.00 0.00 0.00 0.00 0.00 0.00 0.00 0.00 0.00 0.00 0.00 0.00 0.00 0.00 0.00 0.00 0.00 0.00 0.00 0.00
0.00 0.00 0.00 0.00 0.00 0.00 0.01 0.00 0.00 0.00 0.00 0.00 0.00 0.00 0.00 0.00 0.01 0.00 0.00 0.00 0.00 0.00 0.00 0.00 0.00 0.00 0.00 0.00 0.00 0.00 0.00 0.00 0.01 0.00 0.00 0.00 0.00 0.00 0.00 0.00 0.00 0.00 0.00
0.00 0.00 0.00 0.00 0.00 0.00 0.00 0.00 0.00 0.00 0.00 0.00 0.00 0.00 0.01 0.00 0.00 0.00 0.00 0.00 0.00 0.00 0.00 0.00 0.00 0.00 0.00 0.00 0.00 0.00 0.00 0.00 0.00 0.00 0.00 0.00 0.00 0.00 0.00 0.00 0.00 0.00 0.00

GFSMA_prec_precacc24_093.txt.gz
Total_Precipitation_Accumulation
0.00 0.00 0.00 0.00 0.00 0.00 0.00 0.00 0.00 0.00 0.00 0.00 0.00 0.00 0.00 0.00 0.00 0.00 0.00 0.00 0.00 0.00 0.00 0.00 0.00 0.02 0.08 0.08 0.02 0.01 0.00 0.00 0.00 0.00 0.00 0.00 0.00 0.00 0.00 0.00 0.00 0.00 0.00
0.00 0.00 0.00 0.00 0.00 0.00 0.00 0.00 0.00 0.00 0.00 0.00 0.00 0.00 0.00 0.00 0.00 0.00 0.00 0.00 0.00 0.00 0.00 0.00 0.00 0.01 0.13 0.13 0.08 0.16 0.16 0.04 0.01 0.00 0.00 0.00 0.00 0.00 0.00 0.00 0.00 0.00 0.00
0.00 0.00 0.00 0.00 0.00 0.00 0.00 0.00 0.00 0.00 0.00 0.00 0.00 0.00 0.00 0.00 0.00 0.00 0.00 0.00 0.00 0.00 0.00 0.00 0.00 0.00 0.00 0.03 0.16 0.29 0.24 0.18 0.12 0.06 0.02 0.01 0.00 0.00 0.00 0.00 0.00 0.00 0.00
0.00 0.00 0.00 0.00 0.00 0.00 0.00 0.00 0.00 0.00 0.00 0.00 0.00 0.00 0.00 0.00 0.00 0.00 0.00 0.00 0.00 0.00 0.00 0.00 0.00 0.00 0.00 0.01 0.08 0.24 0.24 0.28 0.14 0.10 0.09 0.06 0.02 0.01 0.01 0.01 0.01 0.00 0.00
0.00 0.00 0.00 0.00 0.00 0.00 0.00 0.00 0.00 0.00 0.00 0.00 0.00 0.00 0.00 0.00 0.00 0.00 0.00 0.00 0.00 0.00 0.00 0.00 0.00 0.00 0.00 0.00 0.01 0.08 0.11 0.15 0.19 0.16 0.16 0.15 0.08 0.03 0.03 0.06 0.05 0.03 0.03
0.01 0.00 0.00 0.00 0.00 0.00 0.00 0.00 0.00 0.00 0.00 0.00 0.00 0.00 0.00 0.00 0.00 0.00 0.00 0.00 0.00 0.00 0.00 0.00 0.00 0.00 0.00 0.00 0.00 0.03 0.02 0.05 0.10 0.12 0.17 0.21 0.17 0.13 0.10 0.12 0.10 0.08 0.07
0.16 0.07 0.01 0.00 0.00 0.00 0.00 0.00 0.00 0.00 0.00 0.00 0.01 0.00 0.00 0.00 0.00 0.00 0.00 0.00 0.00 0.00 0.00 0.00 0.00 0.00 0.00 0.00 0.00 0.00 0.01 0.05 0.06 0.07 0.09 0.17 0.24 0.28 0.28 0.23 0.20 0.17 0.10
0.44 0.41 0.28 0.14 0.05 0.03 0.02 0.02 0.00 0.00 0.00 0.00 0.03 0.02 0.01 0.00 0.00 0.00 0.00 0.00 0.00 0.00 0.00 0.00 0.00 0.00 0.00 0.00 0.00 0.00 0.00 0.02 0.01 0.00 0.00 0.04 0.11 0.22 0.32 0.37 0.35 0.28 0.21
0.72 0.76 0.71 0.72 0.66 0.47 0.35 0.31 0.17 0.12 0.15 0.10 0.08 0.08 0.04 0.01 0.00 0.00 0.00 0.00 0.00 0.00 0.00 0.00 0.00 0.00 0.00 0.00 0.00 0.00 0.00 0.00 0.00 0.00 0.00 0.00 0.00 0.03 0.11 0.22 0.34 0.54 0.81
0.96 1.07 1.20 1.25 1.13 0.89 0.98 1.14 1.07 0.89 0.78 0.61 0.47 0.33 0.22 0.11 0.04 0.01 0.00 0.00 0.00 0.00 0.00 0.00 0.00 0.00 0.00 0.00 0.00 0.00 0.00 0.00 0.00 0.01 0.02 0.02 0.00 0.02 0.03 0.04 0.06 0.10 0.34
1.03 0.95 1.11 1.27 1.40 1.38 1.11 1.03 1.22 1.27 1.21 1.15 0.95 0.69 0.50 0.36 0.25 0.14 0.02 0.00 0.00 0.00 0.00 0.00 0.00 0.00 0.00 0.00 0.00 0.00 0.00 0.00 0.00 0.00 0.02 0.02 0.01 0.01 0.01 0.01 0.01 0.02 0.09
0.86 0.82 0.91 1.06 1.07 0.95 0.89 0.80 0.63 0.58 0.63 0.66 0.68 0.63 0.55 0.52 0.45 0.42 0.27 0.08 0.04 0.02 0.00 0.00 0.00 0.00 0.00 0.00 0.00 0.00 0.01 0.01 0.00 0.00 0.01 0.01 0.00 0.00 0.00 0.00 0.00 0.00 0.00
0.55 0.46 0.44 0.48 0.48 0.48 0.54 0.47 0.33 0.27 0.27 0.31 0.35 0.40 0.50 0.46 0.35 0.30 0.29 0.14 0.03 0.00 0.00 0.00 0.00 0.00 0.00 0.00 0.00 0.00 0.00 0.00 0.00 0.01 0.03 0.02 0.00 0.00 0.01 0.01 0.01 0.01 0.01
0.30 0.30 0.26 0.24 0.24 0.28 0.31 0.27 0.20 0.13 0.10 0.07 0.07 0.11 0.18 0.24 0.21 0.15 0.17 0.14 0.05 0.01 0.00 0.00 0.01 0.01 0.01 0.00 0.01 0.01 0.00 0.01 0.00 0.01 0.01 0.00 0.01 0.01 0.02 0.05 0.06 0.07 0.06
0.23 0.31 0.26 0.20 0.17 0.21 0.28 0.26 0.19 0.16 0.16 0.11 0.06 0.03 0.05 0.06 0.06 0.03 0.02 0.03 0.04 0.03 0.02 0.00 0.00 0.00 0.00 0.01 0.04 0.01 0.00 0.05 0.03 0.02 0.02 0.02 0.01 0.01 0.07 0.09 0.06 0.05 0.05
0.27 0.63 0.62 0.27 0.13 0.11 0.18 0.22 0.19 0.14 0.12 0.15 0.13 0.06 0.04 0.04 0.01 0.00 0.00 0.00 0.01 0.03 0.04 0.01 0.02 0.01 0.01 0.01 0.04 0.01 0.01 0.03 0.01 0.02 0.02 0.01 0.00 0.01 0.02 0.03 0.03 0.02 0.02
0.19 0.28 0.38 0.40 0.26 0.15 0.17 0.16 0.14 0.14 0.13 0.10 0.09 0.07 0.07 0.03 0.01 0.01 0.01 0.01 0.01 0.02 0.04 0.03 0.03 0.03 0.03 0.02 0.02 0.02 0.02 0.01 0.03 0.05 0.01 0.01 0.00 0.01 0.02 0.02 0.01 0.02 0.02
0.00 0.01 0.02 0.03 0.03 0.04 0.06 0.04 0.03 0.05 0.07 0.07 0.07 0.05 0.05 0.03 0.01 0.01 0.00 0.00 0.00 0.00 0.02 0.03 0.03 0.03 0.02 0.01 0.01 0.01 0.01 0.00 0.00 0.05 0.02 0.00 0.00 0.01 0.01 0.00 0.01 0.01 0.00
0.00 0.00 0.00 0.00 0.00 0.01 0.02 0.03 0.03 0.03 0.04 0.03 0.03 0.03 0.02 0.02 0.01 0.00 0.00 0.00 0.00 0.00 0.00 0.00 0.00 0.00 0.01 0.01 0.01 0.00 0.00 0.00 0.00 0.03 0.00 0.00 0.00 0.00 0.00 0.00 0.00 0.00 0.00
0.00 0.00 0.00 0.00 0.00 0.00 0.00 0.01 0.03 0.03 0.05 0.05 0.05 0.06 0.04 0.02 0.01 0.00 0.00 0.00 0.00 0.00 0.01 0.01 0.01 0.01 0.00 0.00 0.00 0.00 0.00 0.00 0.00 0.00 0.00 0.00 0.00 0.00 0.00 0.00 0.00 0.00 0.00
0.00 0.00 0.00 0.00 0.00 0.00 0.00 0.00 0.01 0.02 0.03 0.03 0.05 0.04 0.03 0.03 0.02 0.01 0.00 0.00 0.00 0.00 0.01 0.01 0.01 0.01 0.00 0.00 0.00 0.00 0.00 0.00 0.00 0.00 0.00 0.00 0.00 0.00 0.00 0.00 0.00 0.00 0.00
0.00 0.00 0.00 0.00 0.00 0.00 0.00 0.00 0.00 0.00 0.01 0.02 0.02 0.02 0.02 0.03 0.02 0.02 0.02 0.01 0.01 0.00 0.00 0.00 0.01 0.00 0.00 0.00 0.00 0.00 0.00 0.00 0.00 0.00 0.00 0.00 0.00 0.00 0.00 0.00 0.00 0.00 0.00
0.00 0.00 0.00 0.00 0.00 0.00 0.00 0.00 0.00 0.00 0.00 0.00 0.00 0.01 0.01 0.01 0.02 0.00 0.01 0.00 0.00 0.00 0.00 0.00 0.00 0.00 0.00 0.00 0.00 0.00 0.00 0.00 0.00 0.00 0.00 0.00 0.00 0.00 0.00 0.00 0.00 0.00 0.00
0.00 0.00 0.00 0.00 0.00 0.00 0.00 0.00 0.01 0.00 0.00 0.01 0.01 0.01 0.00 0.00 0.00 0.00 0.00 0.00 0.00 0.00 0.00 0.00 0.00 0.00 0.00 0.00 0.00 0.00 0.00 0.00 0.00 0.00 0.00 0.00 0.00 0.00 0.00 0.00 0.00 0.00 0.00
0.00 0.00 0.00 0.00 0.00 0.00 0.01 0.00 0.00 0.00 0.00 0.00 0.00 0.00 0.00 0.00 0.01 0.00 0.00 0.00 0.00 0.00 0.00 0.00 0.00 0.00 0.00 0.00 0.00 0.00 0.00 0.00 0.01 0.00 0.00 0.00 0.00 0.00 0.00 0.00 0.00 0.00 0.00
0.00 0.00 0.00 0.00 0.00 0.00 0.01 0.00 0.00 0.00 0.00 0.00 0.00 0.00 0.01 0.00 0.00 0.00 0.00 0.00 0.00 0.00 0.00 0.00 0.00 0.00 0.00 0.00 0.00 0.00 0.00 0.00 0.00 0.00 0.00 0.00 0.00 0.00 0.00 0.00 0.00 0.00 0.00

GFSMA_prec_precacc24_096.txt.gz
Total_Precipitation_Accumulation
0.12 0.05 0.01 0.00 0.00 0.00 0.00 0.00 0.00 0.00 0.00 0.00 0.00 0.00 0.00 0.00 0.00 0.00 0.00 0.00 0.00 0.00 0.00 0.00 0.00 0.02 0.08 0.08 0.02 0.01 0.00 0.00 0.00 0.00 0.00 0.00 0.00 0.00 0.00 0.00 0.00 0.00 0.00
0.17 0.05 0.03 0.00 0.00 0.00 0.00 0.00 0.00 0.00 0.00 0.00 0.00 0.00 0.00 0.00 0.00 0.00 0.00 0.00 0.00 0.00 0.00 0.00 0.00 0.01 0.08 0.11 0.08 0.16 0.17 0.05 0.01 0.00 0.00 0.00 0.00 0.00 0.00 0.00 0.00 0.00 0.00
0.05 0.04 0.01 0.00 0.00 0.00 0.00 0.00 0.00 0.00 0.00 0.00 0.00 0.00 0.00 0.00 0.00 0.00 0.00 0.00 0.00 0.00 0.00 0.00 0.00 0.00 0.00 0.02 0.12 0.25 0.22 0.20 0.13 0.07 0.02 0.01 0.00 0.00 0.00 0.00 0.00 0.00 0.00
0.02 0.03 0.02 0.00 0.00 0.00 0.00 0.00 0.00 0.00 0.00 0.00 0.00 0.00 0.00 0.00 0.00 0.00 0.00 0.00 0.00 0.00 0.00 0.00 0.00 0.00 0.00 0.01 0.07 0.21 0.16 0.17 0.11 0.10 0.09 0.06 0.02 0.01 0.01 0.02 0.01 0.00 0.00
0.01 0.01 0.01 0.01 0.00 0.00 0.00 0.00 0.00 0.00 0.00 0.00 0.00 0.00 0.00 0.00 0.00 0.00 0.00 0.00 0.00 0.00 0.00 0.00 0.00 0.00 0.00 0.00 0.01 0.08 0.08 0.06 0.09 0.09 0.14 0.15 0.08 0.03 0.03 0.06 0.05 0.03 0.04
0.01 0.01 0.00 0.00 0.00 0.00 0.00 0.00 0.00 0.00 0.00 0.00 0.00 0.00 0.00 0.00 0.00 0.00 0.00 0.00 0.00 0.00 0.00 0.00 0.00 0.00 0.00 0.00 0.00 0.03 0.02 0.04 0.06 0.03 0.05 0.15 0.16 0.13 0.10 0.12 0.10 0.08 0.08
0.16 0.08 0.01 0.00 0.00 0.00 0.00 0.00 0.00 0.00 0.00 0.00 0.01 0.00 0.00 0.00 0.00 0.00 0.00 0.00 0.00 0.00 0.00 0.00 0.00 0.00 0.00 0.00 0.00 0.00 0.01 0.04 0.03 0.01 0.01 0.04 0.11 0.22 0.26 0.23 0.20 0.17 0.10
0.45 0.41 0.28 0.14 0.05 0.03 0.02 0.02 0.00 0.00 0.00 0.00 0.02 0.02 0.01 0.00 0.00 0.00 0.00 0.00 0.00 0.00 0.00 0.00 0.00 0.00 0.00 0.00 0.00 0.00 0.00 0.02 0.01 0.01 0.00 0.00 0.00 0.05 0.16 0.27 0.31 0.28 0.21
0.78 0.80 0.72 0.73 0.66 0.47 0.35 0.32 0.18 0.12 0.15 0.11 0.08 0.08 0.03 0.00 0.00 0.00 0.00 0.00 0.00 0.00 0.00 0.00 0.00 0.00 0.00 0.00 0.00 0.00 0.00 0.00 0.01 0.01 0.01 0.00 0.00 0.00 0.01 0.06 0.17 0.30 0.62
1.09 1.29 1.38 1.41 1.27 0.93 0.99 1.15 1.11 0.95 0.84 0.73 0.55 0.38 0.23 0.10 0.03 0.01 0.01 0.01 0.00 0.00 0.00 0.00 0.00 0.00 0.00 0.00 0.00 0.00 0.00 0.00 0.00 0.02 0.03 0.05 0.01 0.02 0.02 0.03 0.02 0.03 0.11
1.08 1.04 1.26 1.49 1.66 1.64 1.27 1.16 1.37 1.40 1.31 1.29 1.07 0.82 0.61 0.43 0.28 0.19 0.09 0.05 0.02 0.01 0.00 0.00 0.00 0.00 0.00 0.00 0.00 0.00 0.00 0.00 0.00 0.01 0.04 0.05 0.02 0.00 0.00 0.00 0.00 0.00 0.01
0.98 0.88 1.02 1.25 1.25 1.16 1.08 0.96 0.82 0.72 0.72 0.73 0.74 0.68 0.59 0.56 0.48 0.45 0.31 0.16 0.13 0.09 0.04 0.00 0.00 0.00 0.00 0.00 0.00 0.00 0.01 0.01 0.00 0.01 0.02 0.03 0.01 0.00 0.00 0.00 0.00 0.00 0.01
0.78 0.68 0.56 0.62 0.62 0.59 0.66 0.58 0.45 0.40 0.36 0.38 0.42 0.44 0.52 0.46 0.35 0.30 0.32 0.21 0.09 0.04 0.02 0.01 0.00 0.00 0.00 0.00 0.00 0.00 0.00 0.00 0.00 0.01 0.04 0.04 0.00 0.00 0.01 0.01 0.01 0.01 0.02
0.60 0.58 0.60 0.42 0.37 0.39 0.42 0.38 0.27 0.19 0.17 0.16 0.15 0.16 0.19 0.24 0.21 0.15 0.21 0.30 0.19 0.08 0.04 0.01 0.00 0.00 0.00 0.00 0.01 0.01 0.00 0.01 0.00 0.01 0.02 0.00 0.01 0.01 0.02 0.05 0.06 0.07 0.06
0.49 0.44 0.39 0.37 0.33 0.32 0.34 0.30 0.23 0.20 0.21 0.16 0.10 0.07 0.08 0.08 0.06 0.04 0.03 0.08 0.11 0.09 0.04 0.01 0.00 0.00 0.00 0.01 0.03 0.01 0.00 0.05 0.03 0.02 0.02 0.02 0.01 0.01 0.04 0.07 0.05 0.04 0.04
0.41 0.78 0.75 0.38 0.23 0.19 0.25 0.29 0.23 0.16 0.14 0.16 0.18 0.21 0.26 0.28 0.21 0.09 0.03 0.03 0.02 0.04 0.06 0.02 0.01 0.00 0.00 0.01 0.03 0.01 0.01 0.03 0.01 0.01 0.01 0.01 0.00 0.01 0.02 0.02 0.02 0.01 0.01
0.27 0.43 0.57 0.71 0.58 0.36 0.29 0.26 0.25 0.25 0.22 0.20 0.17 0.09 0.12 0.21 0.23 0.10 0.05 0.02 0.02 0.02 0.03 0.01 0.01 0.01 0.02 0.02 0.02 0.02 0.02 0.01 0.03 0.04 0.01 0.01 0.00 0.01 0.02 0.01 0.01 0.01 0.02
0.00 0.02 0.04 0.07 0.10 0.25 0.29 0.22 0.17 0.13 0.13 0.16 0.17 0.14 0.08 0.07 0.06 0.05 0.05 0.07 0.04 0.02 0.03 0.03 0.03 0.03 0.02 0.01 0.01 0.01 0.01 0.00 0.00 0.05 0.01 0.00 0.00 0.01 0.01 0.00 0.01 0.01 0.00
0.00 0.00 0.00 0.00 0.00 0.01 0.02 0.04 0.05 0.04 0.05 0.04 0.06 0.06 0.07 0.07 0.03 0.03 0.04 0.06 0.07 0.02 0.00 0.00 0.00 0.00 0.01 0.01 0.01 0.00 0.00 0.00 0.00 0.03 0.00 0.00 0.00 0.00 0.00 0.00 0.00 0.00 0.00
0.00 0.00 0.00 0.00 0.00 0.00 0.00 0.01 0.03 0.04 0.06 0.06 0.07 0.08 0.08 0.09 0.15 0.18 0.12 0.04 0.04 0.01 0.01 0.01 0.01 0.01 0.00 0.00 0.00 0.00 0.00 0.00 0.00 0.00 0.00 0.00 0.00 0.00 0.00 0.00 0.00 0.00 0.00
0.00 0.00 0.00 0.00 0.00 0.00 0.00 0.00 0.01 0.02 0.03 0.03 0.06 0.06 0.05 0.06 0.08 0.11 0.17 0.06 0.01 0.00 0.01 0.01 0.01 0.01 0.00 0.00 0.00 0.00 0.00 0.00 0.00 0.00 0.00 0.00 0.00 0.00 0.00 0.00 0.00 0.00 0.00
0.00 0.00 0.00 0.00 0.00 0.00 0.00 0.00 0.00 0.00 0.01 0.02 0.03 0.03 0.03 0.06 0.04 0.04 0.04 0.03 0.02 0.01 0.00 0.00 0.01 0.00 0.00 0.00 0.00 0.00 0.00 0.00 0.00 0.00 0.00 0.00 0.00 0.00 0.00 0.00 0.00 0.00 0.00
0.00 0.00 0.00 0.00 0.00 0.00 0.00 0.00 0.00 0.00 0.00 0.00 0.01 0.01 0.01 0.02 0.04 0.02 0.04 0.04 0.03 0.04 0.05 0.02 0.03 0.02 0.00 0.00 0.00 0.00 0.00 0.00 0.00 0.00 0.00 0.00 0.00 0.00 0.00 0.00 0.00 0.00 0.00
0.00 0.00 0.00 0.00 0.00 0.00 0.00 0.00 0.00 0.00 0.00 0.00 0.01 0.01 0.01 0.00 0.01 0.00 0.00 0.01 0.00 0.00 0.01 0.00 0.00 0.00 0.00 0.00 0.00 0.00 0.00 0.00 0.00 0.00 0.00 0.00 0.00 0.00 0.00 0.00 0.00 0.00 0.00
0.00 0.00 0.00 0.00 0.00 0.00 0.00 0.00 0.00 0.00 0.00 0.00 0.00 0.00 0.00 0.00 0.02 0.01 0.00 0.00 0.00 0.00 0.00 0.00 0.00 0.00 0.00 0.00 0.00 0.00 0.00 0.00 0.01 0.00 0.00 0.00 0.00 0.00 0.00 0.00 0.00 0.00 0.00
0.00 0.00 0.00 0.00 0.00 0.00 0.00 0.01 0.01 0.00 0.00 0.00 0.00 0.00 0.01 0.00 0.00 0.00 0.00 0.00 0.00 0.00 0.00 0.00 0.00 0.00 0.00 0.00 0.00 0.00 0.00 0.00 0.00 0.00 0.00 0.00 0.00 0.00 0.00 0.00 0.00 0.00 0.00

GFSMA_prec_precacc24_099.txt.gz
Total_Precipitation_Accumulation
0.16 0.08 0.03 0.01 0.00 0.00 0.00 0.00 0.00 0.00 0.00 0.00 0.00 0.00 0.00 0.00 0.00 0.00 0.00 0.00 0.00 0.00 0.00 0.00 0.00 0.02 0.08 0.08 0.02 0.01 0.00 0.00 0.00 0.00 0.00 0.00 0.00 0.00 0.00 0.00 0.00 0.00 0.00
0.20 0.29 0.17 0.07 0.01 0.00 0.00 0.00 0.00 0.00 0.00 0.00 0.00 0.00 0.00 0.00 0.00 0.00 0.00 0.00 0.00 0.00 0.00 0.00 0.00 0.01 0.06 0.10 0.08 0.16 0.17 0.06 0.02 0.00 0.00 0.00 0.00 0.00 0.00 0.00 0.00 0.00 0.00
0.06 0.13 0.35 0.27 0.12 0.02 0.00 0.00 0.00 0.00 0.00 0.00 0.00 0.00 0.00 0.00 0.00 0.00 0.00 0.00 0.00 0.00 0.00 0.00 0.00 0.00 0.00 0.01 0.11 0.21 0.19 0.20 0.14 0.08 0.03 0.01 0.00 0.00 0.00 0.00 0.00 0.00 0.00
0.02 0.04 0.04 0.10 0.10 0.06 0.00 0.00 0.00 0.00 0.00 0.00 0.00 0.00 0.00 0.00 0.00 0.00 0.00 0.00 0.00 0.00 0.00 0.00 0.00 0.00 0.00 0.01 0.07 0.19 0.11 0.08 0.07 0.09 0.09 0.07 0.03 0.01 0.01 0.02 0.01 0.00 0.01
0.01 0.02 0.02 0.02 0.00 0.01 0.01 0.00 0.00 0.00 0.00 0.00 0.00 0.00 0.00 0.00 0.00 0.00 0.00 0.00 0.00 0.00 0.00 0.00 0.00 0.00 0.00 0.00 0.01 0.08 0.08 0.05 0.06 0.04 0.07 0.12 0.08 0.03 0.03 0.06 0.05 0.03 0.04
0.02 0.02 0.00 0.01 0.02 0.00 0.00 0.00 0.00 0.00 0.00 0.00 0.00 0.00 0.00 0.00 0.00 0.00 0.00 0.00 0.00 0.00 0.00 0.00 0.00 0.00 0.00 0.00 0.00 0.03 0.02 0.03 0.05 0.03 0.01 0.03 0.08 0.11 0.10 0.12 0.10 0.08 0.08
0.16 0.08 0.03 0.02 0.01 0.01 0.00 0.00 0.00 0.00 0.00 0.00 0.01 0.00 0.00 0.00 0.00 0.00 0.00 0.00 0.00 0.00 0.00 0.00 0.00 0.00 0.00 0.00 0.00 0.00 0.01 0.04 0.02 0.01 0.01 0.00 0.00 0.05 0.17 0.20 0.20 0.17 0.10
0.46 0.44 0.30 0.15 0.07 0.05 0.03 0.02 0.00 0.00 0.00 0.00 0.02 0.02 0.01 0.00 0.00 0.00 0.00 0.00 0.00 0.00 0.00 0.00 0.00 0.00 0.00 0.00 0.00 0.00 0.00 0.02 0.01 0.01 0.00 0.00 0.00 0.00 0.01 0.07 0.18 0.24 0.21
0.83 0.82 0.75 0.75 0.67 0.47 0.35 0.32 0.18 0.12 0.15 0.11 0.08 0.07 0.03 0.00 0.00 0.00 0.00 0.00 0.00 0.00 0.00 0.00 0.00 0.00 0.00 0.00 0.00 0.00 0.00 0.00 0.01 0.02 0.01 0.00 0.00 0.00 0.01 0.01 0.03 0.10 0.32
1.24 1.40 1.40 1.40 1.27 0.93 0.98 1.15 1.12 0.95 0.84 0.73 0.55 0.38 0.23 0.10 0.03 0.01 0.01 0.01 0.00 0.00 0.00 0.00 0.00 0.00 0.00 0.00 0.00 0.00 0.00 0.00 0.00 0.03 0.05 0.06 0.01 0.00 0.01 0.01 0.01 0.02 0.02
1.04 1.09 1.29 1.41 1.57 1.58 1.22 1.15 1.41 1.44 1.36 1.34 1.11 0.85 0.63 0.45 0.31 0.22 0.13 0.09 0.05 0.02 0.02 0.01 0.00 0.00 0.00 0.00 0.00 0.00 0.00 0.00 0.00 0.01 0.05 0.09 0.07 0.01 0.00 0.00 0.00 0.00 0.01
0.99 0.93 1.12 1.40 1.44 1.23 1.09 0.99 0.90 0.86 0.88 0.87 0.86 0.78 0.65 0.62 0.52 0.51 0.37 0.21 0.16 0.11 0.05 0.02 0.00 0.00 0.00 0.00 0.00 0.00 0.01 0.01 0.00 0.01 0.02 0.05 0.03 0.00 0.00 0.00 0.00 0.00 0.01
0.85 0.84 0.73 0.77 0.83 0.89 0.83 0.68 0.55 0.47 0.47 0.50 0.53 0.55 0.62 0.52 0.38 0.32 0.34 0.22 0.09 0.04 0.02 0.02 0.01 0.01 0.00 0.00 0.00 0.00 0.00 0.00 0.00 0.01 0.05 0.06 0.01 0.00 0.01 0.01 0.01 0.01 0.02
0.76 0.77 0.79 0.65 0.58 0.59 0.68 0.60 0.43 0.32 0.26 0.21 0.20 0.22 0.27 0.32 0.26 0.19 0.24 0.31 0.19 0.08 0.04 0.01 0.00 0.00 0.01 0.01 0.02 0.01 0.00 0.01 0.00 0.01 0.03 0.01 0.00 0.00 0.01 0.05 0.06 0.06 0.06
0.79 0.79 0.83 0.84 0.70 0.68 0.64 0.52 0.42 0.36 0.36 0.27 0.18 0.14 0.15 0.13 0.11 0.08 0.06 0.10 0.11 0.08 0.04 0.02 0.02 0.03 0.03 0.03 0.02 0.00 0.00 0.05 0.03 0.02 0.02 0.01 0.01 0.01 0.02 0.04 0.03 0.03 0.03
0.59 1.08 0.98 0.59 0.46 0.43 0.53 0.60 0.47 0.33 0.31 0.31 0.28 0.30 0.33 0.35 0.30 0.19 0.16 0.15 0.16 0.15 0.14 0.07 0.04 0.04 0.04 0.01 0.01 0.00 0.01 0.03 0.01 0.01 0.01 0.00 0.00 0.01 0.01 0.01 0.01 0.01 0.01
0.35 0.60 0.83 0.95 0.78 0.60 0.50 0.47 0.45 0.47 0.42 0.36 0.31 0.18 0.16 0.25 0.41 0.37 0.27 0.18 0.16 0.17 0.16 0.14 0.10 0.06 0.03 0.01 0.01 0.01 0.02 0.01 0.03 0.04 0.01 0.01 0.00 0.01 0.01 0.01 0.01 0.01 0.01
0.01 0.03 0.07 0.14 0.20 0.36 0.46 0.40 0.32 0.27 0.26 0.27 0.28 0.31 0.23 0.16 0.10 0.10 0.11 0.11 0.06 0.05 0.06 0.04 0.05 0.06 0.04 0.03 0.01 0.01 0.01 0.00 0.00 0.05 0.01 0.00 0.00 0.01 0.01 0.00 0.00 0.00 0.00
0.00 0.00 0.00 0.00 0.00 0.01 0.02 0.06 0.10 0.12 0.10 0.10 0.10 0.10 0.12 0.15 0.11 0.08 0.06 0.08 0.08 0.09 0.08 0.04 0.01 0.00 0.01 0.01 0.01 0.00 0.00 0.00 0.00 0.03 0.00 0.00 0.00 0.00 0.00 0.00 0.00 0.00 0.00
0.00 0.00 0.00 0.00 0.00 0.00 0.00 0.01 0.03 0.04 0.07 0.09 0.11 0.11 0.11 0.13 0.20 0.23 0.19 0.13 0.13 0.18 0.21 0.18 0.09 0.02 0.00 0.00 0.00 0.00 0.00 0.00 0.00 0.00 0.00 0.00 0.00 0.00 0.00 0.00 0.00 0.00 0.00
0.00 0.00 0.00 0.00 0.00 0.00 0.00 0.00 0.01 0.02 0.03 0.03 0.06 0.07 0.07 0.11 0.12 0.15 0.28 0.33 0.31 0.29 0.28 0.24 0.11 0.05 0.01 0.00 0.00 0.00 0.00 0.00 0.00 0.00 0.00 0.00 0.00 0.00 0.00 0.00 0.00 0.00 0.00
0.00 0.00 0.00 0.00 0.00 0.00 0.00 0.00 0.00 0.00 0.01 0.02 0.03 0.03 0.04 0.09 0.07 0.07 0.07 0.09 0.14 0.19 0.19 0.14 0.09 0.01 0.00 0.00 0.00 0.00 0.00 0.00 0.00 0.00 0.00 0.00 0.00 0.00 0.00 0.00 0.00 0.00 0.00
0.00 0.00 0.00 0.00 0.00 0.00 0.00 0.00 0.00 0.00 0.00 0.00 0.01 0.01 0.01 0.02 0.04 0.03 0.06 0.06 0.06 0.09 0.13 0.16 0.13 0.04 0.04 0.01 0.00 0.00 0.00 0.00 0.00 0.00 0.00 0.00 0.00 0.00 0.00 0.00 0.00 0.00 0.00
0.00 0.00 0.00 0.00 0.00 0.00 0.00 0.00 0.00 0.00 0.00 0.00 0.00 0.01 0.01 0.00 0.01 0.01 0.01 0.02 0.03 0.05 0.09 0.13 0.14 0.13 0.14 0.13 0.09 0.04 0.01 0.00 0.00 0.00 0.00 0.00 0.00 0.00 0.00 0.00 0.00 0.00 0.00
0.00 0.00 0.00 0.00 0.00 0.00 0.00 0.00 0.00 0.00 0.00 0.00 0.00 0.00 0.00 0.00 0.02 0.02 0.01 0.00 0.01 0.02 0.06 0.08 0.12 0.08 0.05 0.03 0.02 0.00 0.00 0.00 0.01 0.00 0.00 0.00 0.00 0.00 0.00 0.00 0.00 0.00 0.00
0.00 0.00 0.00 0.00 0.00 0.00 0.00 0.00 0.01 0.00 0.00 0.00 0.00 0.00 0.01 0.00 0.01 0.01 0.01 0.00 0.00 0.00 0.00 0.00 0.01 0.01 0.01 0.00 0.00 0.00 0.00 0.00 0.00 0.00 0.00 0.00 0.00 0.00 0.00 0.00 0.00 0.00 0.00

GFSMA_prec_precacc24_102.txt.gz
Total_Precipitation_Accumulation
0.23 0.14 0.09 0.04 0.01 0.00 0.00 0.00 0.00 0.00 0.00 0.00 0.00 0.00 0.00 0.00 0.00 0.00 0.00 0.00 0.00 0.00 0.00 0.00 0.00 0.01 0.06 0.08 0.02 0.02 0.00 0.00 0.00 0.00 0.00 0.00 0.00 0.00 0.00 0.00 0.00 0.00 0.00
0.24 0.33 0.24 0.16 0.05 0.01 0.00 0.00 0.00 0.00 0.00 0.00 0.00 0.00 0.00 0.00 0.00 0.00 0.00 0.00 0.00 0.00 0.00 0.00 0.00 0.00 0.03 0.07 0.06 0.15 0.17 0.07 0.03 0.01 0.00 0.00 0.00 0.00 0.00 0.00 0.00 0.00 0.00
0.06 0.15 0.36 0.32 0.23 0.12 0.03 0.00 0.00 0.00 0.00 0.00 0.00 0.00 0.00 0.00 0.00 0.00 0.00 0.00 0.00 0.00 0.00 0.00 0.00 0.00 0.00 0.00 0.08 0.18 0.18 0.16 0.13 0.08 0.03 0.01 0.00 0.00 0.00 0.00 0.00 0.00 0.00
0.02 0.05 0.05 0.11 0.16 0.20 0.17 0.07 0.01 0.00 0.00 0.00 0.00 0.00 0.00 0.00 0.00 0.00 0.00 0.00 0.00 0.00 0.00 0.00 0.00 0.00 0.00 0.01 0.05 0.19 0.09 0.05 0.05 0.06 0.08 0.07 0.05 0.03 0.01 0.02 0.02 0.01 0.01
0.01 0.03 0.05 0.06 0.07 0.10 0.12 0.15 0.07 0.01 0.00 0.00 0.00 0.00 0.00 0.00 0.00 0.00 0.00 0.00 0.00 0.00 0.00 0.00 0.00 0.00 0.00 0.00 0.01 0.08 0.08 0.03 0.05 0.03 0.03 0.05 0.06 0.03 0.03 0.06 0.05 0.03 0.04
0.02 0.06 0.06 0.05 0.05 0.04 0.03 0.03 0.04 0.02 0.01 0.00 0.00 0.00 0.00 0.00 0.00 0.00 0.00 0.00 0.00 0.00 0.00 0.00 0.00 0.00 0.00 0.00 0.00 0.03 0.02 0.02 0.03 0.02 0.01 0.00 0.00 0.03 0.07 0.11 0.10 0.08 0.08
0.17 0.11 0.11 0.08 0.05 0.02 0.01 0.01 0.02 0.02 0.01 0.01 0.01 0.00 0.00 0.00 0.00 0.00 0.00 0.00 0.00 0.00 0.00 0.00 0.00 0.00 0.00 0.00 0.00 0.00 0.01 0.04 0.02 0.01 0.01 0.00 0.00 0.00 0.02 0.08 0.16 0.17 0.10
0.45 0.42 0.34 0.24 0.15 0.11 0.06 0.05 0.01 0.00 0.00 0.01 0.02 0.02 0.01 0.00 0.00 0.00 0.00 0.00 0.00 0.00 0.00 0.00 0.00 0.00 0.00 0.00 0.00 0.00 0.00 0.02 0.01 0.01 0.00 0.00 0.00 0.00 0.00 0.00 0.02 0.11 0.16
0.79 0.73 0.62 0.65 0.64 0.50 0.35 0.30 0.18 0.12 0.15 0.11 0.08 0.07 0.03 0.00 0.00 0.00 0.00 0.00 0.00 0.00 0.00 0.00 0.00 0.00 0.00 0.00 0.00 0.00 0.00 0.00 0.01 0.02 0.02 0.00 0.00 0.00 0.00 0.00 0.00 0.01 0.07
0.92 1.12 1.20 1.22 1.13 0.86 0.93 1.09 1.10 0.95 0.84 0.73 0.55 0.38 0.23 0.10 0.03 0.01 0.01 0.01 0.00 0.00 0.00 0.00 0.00 0.00 0.00 0.00 0.00 0.00 0.00 0.00 0.00 0.03 0.05 0.07 0.02 0.00 0.00 0.00 0.00 0.01 0.02
0.81 0.82 1.02 1.17 1.32 1.41 1.14 1.14 1.42 1.47 1.38 1.34 1.10 0.85 0.63 0.45 0.31 0.23 0.13 0.09 0.05 0.03 0.03 0.02 0.02 0.02 0.01 0.01 0.00 0.00 0.00 0.00 0.00 0.01 0.06 0.11 0.10 0.04 0.00 0.00 0.00 0.00 0.01
0.84 0.75 0.81 1.07 1.41 1.35 1.17 1.03 0.95 0.90 0.92 0.92 0.91 0.83 0.68 0.63 0.55 0.54 0.39 0.22 0.18 0.12 0.05 0.02 0.01 0.00 0.00 0.00 0.00 0.00 0.00 0.00 0.00 0.01 0.02 0.06 0.04 0.02 0.00 0.00 0.00 0.00 0.01
0.81 0.78 0.67 0.72 0.87 1.07 1.09 0.89 0.66 0.54 0.53 0.56 0.59 0.62 0.70 0.60 0.45 0.39 0.40 0.25 0.11 0.05 0.03 0.02 0.01 0.01 0.01 0.00 0.00 0.00 0.00 0.00 0.00 0.01 0.05 0.07 0.01 0.00 0.00 0.01 0.01 0.01 0.02
0.73 0.77 0.81 0.69 0.62 0.68 0.86 0.88 0.62 0.40 0.31 0.26 0.24 0.26 0.32 0.38 0.33 0.25 0.29 0.36 0.23 0.09 0.04 0.01 0.00 0.00 0.00 0.01 0.02 0.02 0.00 0.01 0.01 0.01 0.03 0.01 0.00 0.00 0.01 0.03 0.04 0.05 0.05
0.80 0.93 1.00 1.06 0.96 0.90 0.88 0.83 0.75 0.56 0.47 0.34 0.24 0.23 0.24 0.19 0.16 0.13 0.12 0.15 0.18 0.15 0.07 0.03 0.03 0.03 0.03 0.03 0.04 0.03 0.01 0.04 0.03 0.02 0.02 0.01 0.01 0.01 0.01 0.01 0.01 0.01 0.01
0.61 1.11 1.05 0.75 0.73 0.72 0.84 1.06 0.96 0.66 0.52 0.46 0.39 0.40 0.45 0.46 0.39 0.28 0.25 0.24 0.24 0.22 0.19 0.10 0.05 0.06 0.09 0.12 0.15 0.10 0.03 0.02 0.01 0.01 0.01 0.00 0.00 0.00 0.00 0.01 0.01 0.00 0.00
0.40 0.66 0.92 1.06 0.92 0.76 0.71 0.68 0.62 0.73 0.82 0.68 0.53 0.40 0.34 0.38 0.55 0.48 0.35 0.27 0.29 0.36 0.38 0.32 0.18 0.16 0.16 0.15 0.13 0.08 0.04 0.02 0.03 0.04 0.01 0.01 0.00 0.01 0.01 0.01 0.00 0.01 0.01
0.01 0.03 0.07 0.17 0.25 0.42 0.54 0.54 0.50 0.49 0.46 0.45 0.46 0.48 0.43 0.38 0.32 0.25 0.21 0.19 0.15 0.17 0.24 0.20 0.18 0.19 0.19 0.20 0.20 0.13 0.08 0.04 0.01 0.05 0.01 0.00 0.00 0.01 0.00 0.00 0.00 0.00 0.00
0.00 0.00 0.00 0.00 0.00 0.01 0.02 0.06 0.14 0.22 0.30 0.36 0.37 0.31 0.23 0.28 0.27 0.28 0.23 0.19 0.15 0.15 0.14 0.10 0.08 0.06 0.05 0.08 0.09 0.08 0.05 0.03 0.02 0.03 0.00 0.00 0.00 0.00 0.00 0.00 0.00 0.00 0.00
0.00 0.00 0.00 0.00 0.00 0.00 0.00 0.01 0.03 0.04 0.07 0.10 0.18 0.27 0.32 0.37 0.37 0.35 0.31 0.25 0.25 0.30 0.27 0.22 0.14 0.08 0.04 0.03 0.02 0.03 0.02 0.01 0.00 0.00 0.00 0.00 0.00 0.00 0.00 0.00 0.00 0.00 0.00
0.00 0.00 0.00 0.00 0.00 0.00 0.00 0.00 0.01 0.02 0.03 0.03 0.06 0.07 0.08 0.13 0.17 0.21 0.34 0.38 0.44 0.52 0.50 0.44 0.38 0.31 0.23 0.15 0.09 0.03 0.04 0.03 0.01 0.00 0.00 0.00 0.00 0.00 0.00 0.00 0.00 0.00 0.00
0.00 0.00 0.00 0.00 0.00 0.00 0.00 0.00 0.00 0.00 0.01 0.02 0.03 0.03 0.04 0.09 0.07 0.09 0.12 0.15 0.19 0.27 0.40 0.43 0.41 0.36 0.29 0.24 0.21 0.14 0.09 0.05 0.00 0.00 0.00 0.00 0.00 0.00 0.00 0.00 0.00 0.00 0.00
0.00 0.00 0.00 0.00 0.00 0.00 0.00 0.00 0.00 0.00 0.00 0.00 0.00 0.00 0.01 0.01 0.04 0.03 0.06 0.08 0.10 0.13 0.19 0.19 0.18 0.13 0.13 0.11 0.12 0.12 0.06 0.01 0.00 0.00 0.00 0.00 0.00 0.00 0.00 0.00 0.00 0.00 0.00
0.00 0.00 0.00 0.00 0.00 0.00 0.00 0.00 0.00 0.00 0.00 0.00 0.00 0.00 0.00 0.00 0.00 0.01 0.01 0.02 0.03 0.06 0.12 0.16 0.17 0.22 0.29 0.31 0.30 0.25 0.18 0.09 0.02 0.00 0.00 0.00 0.00 0.00 0.00 0.00 0.00 0.00 0.00
0.00 0.00 0.00 0.00 0.00 0.00 0.00 0.00 0.00 0.00 0.00 0.00 0.00 0.00 0.00 0.00 0.02 0.02 0.01 0.00 0.01 0.02 0.09 0.14 0.18 0.20 0.20 0.23 0.22 0.18 0.17 0.13 0.09 0.04 0.01 0.00 0.00 0.00 0.00 0.00 0.00 0.00 0.00
0.00 0.00 0.00 0.00 0.00 0.00 0.00 0.00 0.01 0.00 0.00 0.00 0.00 0.00 0.01 0.00 0.01 0.01 0.01 0.00 0.01 0.01 0.01 0.02 0.03 0.04 0.08 0.11 0.15 0.13 0.12 0.11 0.06 0.01 0.00 0.00 0.00 0.00 0.00 0.00 0.00 0.00 0.00

GFSMA_prec_precacc24_105.txt.gz
Total_Precipitation_Accumulation
0.30 0.21 0.18 0.13 0.05 0.02 0.01 0.00 0.00 0.00 0.00 0.00 0.00 0.00 0.00 0.00 0.00 0.00 0.00 0.00 0.00 0.00 0.00 0.00 0.00 0.00 0.05 0.06 0.02 0.02 0.00 0.00 0.00 0.00 0.00 0.00 0.00 0.00 0.00 0.00 0.00 0.00 0.00
0.26 0.36 0.28 0.26 0.17 0.10 0.04 0.01 0.00 0.00 0.00 0.00 0.00 0.00 0.00 0.00 0.00 0.00 0.00 0.00 0.00 0.00 0.00 0.00 0.00 0.00 0.01 0.04 0.04 0.14 0.16 0.08 0.05 0.02 0.00 0.00 0.00 0.00 0.00 0.00 0.00 0.00 0.00
0.07 0.15 0.37 0.33 0.25 0.16 0.08 0.05 0.05 0.01 0.00 0.00 0.00 0.00 0.00 0.00 0.00 0.00 0.00 0.00 0.00 0.00 0.00 0.00 0.00 0.00 0.00 0.01 0.06 0.16 0.16 0.16 0.12 0.09 0.04 0.01 0.00 0.00 0.00 0.00 0.00 0.00 0.00
0.02 0.05 0.05 0.11 0.16 0.20 0.18 0.13 0.14 0.12 0.02 0.00 0.00 0.00 0.00 0.00 0.00 0.00 0.00 0.00 0.00 0.00 0.00 0.00 0.00 0.00 0.00 0.01 0.05 0.17 0.08 0.05 0.05 0.06 0.06 0.08 0.07 0.04 0.02 0.02 0.02 0.01 0.01
0.01 0.03 0.05 0.06 0.09 0.12 0.14 0.18 0.19 0.17 0.12 0.04 0.01 0.00 0.00 0.00 0.00 0.00 0.00 0.00 0.00 0.00 0.00 0.00 0.00 0.00 0.00 0.00 0.01 0.06 0.07 0.03 0.04 0.03 0.02 0.04 0.04 0.02 0.03 0.06 0.05 0.03 0.04
0.02 0.06 0.06 0.05 0.08 0.08 0.09 0.09 0.13 0.13 0.09 0.05 0.02 0.00 0.00 0.00 0.00 0.00 0.00 0.00 0.00 0.00 0.00 0.00 0.00 0.00 0.00 0.00 0.00 0.03 0.02 0.02 0.03 0.02 0.01 0.00 0.00 0.00 0.01 0.05 0.08 0.08 0.08
0.15 0.11 0.11 0.08 0.07 0.03 0.02 0.02 0.06 0.06 0.04 0.03 0.04 0.01 0.00 0.00 0.00 0.00 0.00 0.00 0.00 0.00 0.00 0.00 0.00 0.00 0.00 0.00 0.00 0.00 0.01 0.04 0.02 0.01 0.01 0.00 0.00 0.00 0.00 0.00 0.02 0.09 0.09
0.22 0.22 0.19 0.19 0.15 0.13 0.08 0.05 0.01 0.01 0.01 0.03 0.04 0.03 0.01 0.00 0.00 0.00 0.00 0.00 0.00 0.00 0.00 0.00 0.00 0.00 0.00 0.00 0.00 0.00 0.00 0.02 0.01 0.01 0.00 0.00 0.00 0.00 0.00 0.00 0.00 0.01 0.04
0.51 0.53 0.42 0.38 0.43 0.32 0.26 0.26 0.16 0.10 0.13 0.11 0.09 0.08 0.03 0.00 0.00 0.00 0.00 0.00 0.00 0.00 0.00 0.00 0.00 0.00 0.00 0.00 0.00 0.00 0.00 0.00 0.01 0.02 0.02 0.01 0.00 0.00 0.00 0.00 0.00 0.00 0.01
0.64 0.82 0.94 1.01 0.89 0.66 0.77 0.90 0.90 0.80 0.78 0.73 0.55 0.38 0.23 0.10 0.03 0.01 0.01 0.01 0.00 0.00 0.00 0.00 0.00 0.00 0.00 0.00 0.00 0.00 0.00 0.00 0.00 0.03 0.06 0.07 0.02 0.01 0.00 0.00 0.00 0.00 0.01
0.62 0.69 0.87 0.97 1.01 0.97 0.86 1.03 1.42 1.48 1.40 1.37 1.12 0.86 0.63 0.45 0.32 0.23 0.13 0.09 0.05 0.03 0.03 0.03 0.05 0.04 0.06 0.05 0.03 0.02 0.00 0.00 0.00 0.01 0.06 0.13 0.12 0.05 0.02 0.00 0.00 0.00 0.01
0.70 0.65 0.76 0.98 1.17 1.03 0.82 0.86 0.94 0.92 0.95 0.94 0.93 0.85 0.70 0.64 0.55 0.54 0.39 0.23 0.19 0.14 0.07 0.04 0.04 0.04 0.04 0.03 0.01 0.00 0.00 0.00 0.00 0.00 0.02 0.08 0.11 0.08 0.05 0.00 0.00 0.00 0.01
0.75 0.70 0.64 0.70 0.83 0.99 0.98 0.84 0.70 0.63 0.60 0.61 0.62 0.65 0.76 0.64 0.47 0.40 0.41 0.26 0.12 0.08 0.05 0.03 0.02 0.02 0.03 0.01 0.00 0.00 0.00 0.00 0.00 0.00 0.04 0.08 0.05 0.06 0.02 0.01 0.01 0.01 0.01
0.68 0.72 0.76 0.66 0.61 0.68 0.87 0.92 0.72 0.52 0.46 0.42 0.38 0.34 0.38 0.47 0.42 0.32 0.35 0.44 0.27 0.10 0.04 0.02 0.01 0.01 0.01 0.01 0.02 0.02 0.00 0.01 0.01 0.01 0.03 0.03 0.02 0.01 0.00 0.00 0.02 0.03 0.04
0.80 0.87 0.96 1.03 0.97 0.96 1.02 1.02 0.94 0.74 0.62 0.48 0.39 0.34 0.31 0.24 0.21 0.22 0.21 0.26 0.30 0.25 0.12 0.03 0.03 0.04 0.03 0.04 0.04 0.04 0.02 0.05 0.04 0.02 0.03 0.02 0.01 0.01 0.00 0.00 0.00 0.01 0.01
0.62 1.11 1.07 0.78 0.77 0.79 0.93 1.19 1.17 0.95 0.86 0.74 0.54 0.49 0.51 0.51 0.44 0.33 0.31 0.32 0.36 0.37 0.31 0.11 0.05 0.06 0.09 0.13 0.16 0.13 0.09 0.12 0.06 0.04 0.03 0.00 0.00 0.00 0.00 0.01 0.01 0.00 0.00
0.40 0.65 0.91 1.08 0.96 0.81 0.77 0.76 0.73 0.82 0.97 0.98 0.98 0.81 0.55 0.46 0.60 0.54 0.42 0.35 0.38 0.46 0.50 0.36 0.20 0.18 0.17 0.17 0.17 0.17 0.13 0.09 0.08 0.07 0.02 0.01 0.00 0.00 0.00 0.00 0.00 0.00 0.01
0.01 0.03 0.07 0.16 0.25 0.43 0.55 0.56 0.54 0.53 0.57 0.63 0.67 0.75 0.69 0.61 0.51 0.40 0.35 0.33 0.30 0.31 0.38 0.31 0.22 0.22 0.23 0.24 0.27 0.27 0.24 0.16 0.09 0.09 0.04 0.01 0.00 0.00 0.00 0.00 0.00 0.00 0.00
0.00 0.00 0.00 0.00 0.00 0.01 0.02 0.06 0.14 0.23 0.33 0.44 0.51 0.50 0.44 0.51 0.47 0.45 0.47 0.47 0.41 0.43 0.45 0.36 0.20 0.11 0.11 0.15 0.19 0.22 0.21 0.18 0.11 0.10 0.04 0.01 0.00 0.00 0.00 0.00 0.00 0.00 0.00
0.00 0.00 0.00 0.00 0.00 0.00 0.00 0.01 0.03 0.04 0.07 0.10 0.18 0.29 0.38 0.51 0.60 0.67 0.64 0.54 0.52 0.58 0.54 0.46 0.27 0.15 0.10 0.09 0.10 0.09 0.09 0.06 0.05 0.04 0.02 0.00 0.00 0.00 0.00 0.00 0.00 0.00 0.00
0.00 0.00 0.00 0.00 0.00 0.00 0.00 0.00 0.01 0.02 0.03 0.03 0.06 0.07 0.08 0.13 0.18 0.24 0.45 0.55 0.66 0.75 0.79 0.74 0.60 0.45 0.31 0.21 0.14 0.08 0.08 0.08 0.08 0.03 0.01 0.00 0.00 0.00 0.00 0.00 0.00 0.00 0.00
0.00 0.00 0.00 0.00 0.00 0.00 0.00 0.00 0.00 0.00 0.01 0.02 0.03 0.03 0.04 0.08 0.07 0.09 0.12 0.16 0.21 0.31 0.45 0.54 0.60 0.59 0.50 0.43 0.46 0.43 0.39 0.35 0.24 0.07 0.02 0.00 0.00 0.00 0.00 0.00 0.00 0.00 0.00
0.00 0.00 0.00 0.00 0.00 0.00 0.00 0.00 0.00 0.00 0.00 0.00 0.00 0.00 0.01 0.01 0.04 0.03 0.06 0.08 0.10 0.16 0.23 0.23 0.21 0.16 0.17 0.19 0.23 0.29 0.28 0.24 0.19 0.13 0.14 0.08 0.01 0.00 0.00 0.00 0.00 0.00 0.00
0.00 0.00 0.00 0.00 0.00 0.00 0.00 0.00 0.00 0.00 0.00 0.00 0.00 0.00 0.00 0.00 0.00 0.01 0.01 0.02 0.03 0.06 0.13 0.19 0.19 0.23 0.31 0.35 0.40 0.40 0.34 0.25 0.16 0.12 0.12 0.06 0.01 0.00 0.00 0.00 0.00 0.00 0.00
0.00 0.00 0.00 0.00 0.00 0.00 0.00 0.00 0.00 0.00 0.00 0.00 0.00 0.00 0.00 0.00 0.01 0.02 0.01 0.00 0.01 0.02 0.09 0.15 0.21 0.27 0.28 0.27 0.26 0.27 0.34 0.33 0.32 0.22 0.15 0.10 0.05 0.01 0.00 0.00 0.00 0.00 0.00
0.00 0.00 0.00 0.00 0.00 0.00 0.00 0.00 0.01 0.00 0.00 0.00 0.00 0.00 0.00 0.00 0.01 0.02 0.01 0.00 0.01 0.01 0.01 0.02 0.04 0.07 0.10 0.14 0.18 0.17 0.17 0.22 0.21 0.20 0.17 0.15 0.10 0.05 0.00 0.00 0.00 0.00 0.00

GFSMA_prec_precacc24_108.txt.gz
Total_Precipitation_Accumulation
0.31 0.22 0.24 0.20 0.14 0.09 0.06 0.04 0.02 0.01 0.00 0.00 0.00 0.00 0.00 0.00 0.00 0.00 0.00 0.00 0.00 0.00 0.00 0.00 0.00 0.00 0.02 0.04 0.02 0.02 0.00 0.00 0.00 0.00 0.00 0.00 0.00 0.00 0.00 0.00 0.00 0.00 0.00
0.27 0.36 0.29 0.29 0.21 0.15 0.08 0.03 0.05 0.02 0.00 0.00 0.00 0.00 0.00 0.00 0.00 0.00 0.00 0.00 0.00 0.00 0.00 0.00 0.00 0.01 0.01 0.04 0.03 0.13 0.15 0.08 0.06 0.04 0.00 0.00 0.00 0.00 0.00 0.00 0.00 0.00 0.00
0.10 0.16 0.37 0.33 0.26 0.20 0.17 0.09 0.12 0.10 0.03 0.00 0.00 0.00 0.00 0.00 0.00 0.00 0.00 0.00 0.00 0.00 0.00 0.00 0.00 0.00 0.00 0.02 0.03 0.12 0.15 0.17 0.14 0.12 0.06 0.02 0.00 0.00 0.00 0.00 0.01 0.00 0.00
0.05 0.08 0.06 0.11 0.16 0.20 0.19 0.14 0.16 0.23 0.19 0.09 0.01 0.00 0.00 0.00 0.00 0.00 0.00 0.00 0.00 0.00 0.00 0.00 0.00 0.00 0.00 0.01 0.03 0.13 0.09 0.06 0.03 0.05 0.05 0.08 0.07 0.04 0.02 0.02 0.02 0.01 0.01
0.02 0.03 0.05 0.06 0.09 0.13 0.17 0.21 0.23 0.22 0.24 0.18 0.08 0.02 0.00 0.00 0.00 0.00 0.00 0.00 0.00 0.00 0.00 0.00 0.00 0.00 0.00 0.00 0.01 0.04 0.06 0.03 0.03 0.03 0.02 0.03 0.03 0.01 0.02 0.04 0.05 0.03 0.04
0.02 0.06 0.06 0.05 0.08 0.08 0.11 0.14 0.18 0.16 0.13 0.10 0.08 0.02 0.00 0.00 0.00 0.00 0.00 0.00 0.00 0.00 0.00 0.00 0.00 0.00 0.00 0.00 0.00 0.02 0.02 0.02 0.03 0.02 0.01 0.00 0.00 0.00 0.00 0.01 0.03 0.06 0.07
0.15 0.11 0.11 0.09 0.08 0.04 0.03 0.05 0.10 0.11 0.07 0.07 0.09 0.04 0.00 0.00 0.00 0.00 0.00 0.00 0.00 0.00 0.00 0.00 0.00 0.00 0.00 0.00 0.00 0.00 0.00 0.03 0.02 0.01 0.01 0.00 0.00 0.00 0.00 0.00 0.00 0.01 0.04
0.17 0.12 0.09 0.13 0.14 0.13 0.07 0.06 0.04 0.03 0.02 0.04 0.04 0.03 0.02 0.00 0.00 0.00 0.00 0.00 0.00 0.00 0.00 0.00 0.00 0.00 0.00 0.00 0.00 0.00 0.00 0.02 0.01 0.01 0.00 0.00 0.00 0.00 0.00 0.00 0.00 0.00 0.00
0.41 0.36 0.20 0.15 0.25 0.22 0.15 0.18 0.16 0.09 0.07 0.09 0.08 0.08 0.04 0.01 0.00 0.00 0.00 0.00 0.00 0.00 0.00 0.00 0.00 0.00 0.00 0.00 0.00 0.00 0.00 0.00 0.01 0.02 0.02 0.01 0.01 0.00 0.00 0.00 0.00 0.00 0.00
0.60 0.62 0.61 0.56 0.49 0.42 0.59 0.77 0.76 0.61 0.57 0.59 0.47 0.36 0.23 0.10 0.03 0.01 0.01 0.01 0.00 0.00 0.00 0.00 0.00 0.00 0.00 0.00 0.02 0.03 0.02 0.02 0.00 0.03 0.06 0.07 0.03 0.01 0.01 0.01 0.00 0.00 0.00
0.55 0.55 0.62 0.70 0.71 0.73 0.58 0.79 1.21 1.34 1.26 1.27 1.04 0.79 0.60 0.45 0.32 0.24 0.13 0.09 0.05 0.03 0.03 0.03 0.05 0.05 0.07 0.10 0.10 0.09 0.10 0.06 0.01 0.01 0.06 0.13 0.12 0.07 0.03 0.02 0.00 0.00 0.01
0.54 0.46 0.52 0.75 0.97 0.90 0.70 0.59 0.61 0.74 0.86 0.87 0.87 0.80 0.68 0.64 0.55 0.54 0.39 0.23 0.19 0.14 0.07 0.04 0.04 0.04 0.06 0.07 0.08 0.07 0.06 0.03 0.01 0.00 0.02 0.09 0.14 0.15 0.14 0.07 0.01 0.01 0.01
0.66 0.60 0.48 0.52 0.68 0.92 0.97 0.82 0.65 0.55 0.55 0.59 0.61 0.66 0.77 0.65 0.48 0.41 0.43 0.27 0.13 0.08 0.05 0.03 0.03 0.03 0.05 0.04 0.05 0.06 0.04 0.02 0.01 0.00 0.04 0.08 0.09 0.14 0.14 0.10 0.04 0.01 0.01
0.63 0.63 0.67 0.56 0.55 0.65 0.87 0.92 0.72 0.53 0.46 0.44 0.40 0.37 0.41 0.48 0.45 0.35 0.39 0.49 0.33 0.12 0.04 0.02 0.01 0.01 0.02 0.03 0.04 0.06 0.02 0.02 0.01 0.01 0.03 0.03 0.02 0.02 0.03 0.03 0.03 0.02 0.02
0.75 0.81 0.87 0.94 0.90 0.94 1.02 1.04 0.98 0.83 0.73 0.56 0.43 0.42 0.46 0.38 0.32 0.32 0.34 0.38 0.41 0.34 0.14 0.03 0.03 0.04 0.05 0.06 0.08 0.09 0.05 0.06 0.05 0.02 0.02 0.02 0.01 0.01 0.00 0.01 0.00 0.00 0.00
0.61 1.11 1.05 0.77 0.75 0.76 0.93 1.20 1.19 0.99 0.92 0.86 0.76 0.69 0.66 0.60 0.55 0.47 0.47 0.49 0.52 0.50 0.37 0.12 0.05 0.07 0.14 0.20 0.22 0.19 0.12 0.14 0.07 0.04 0.03 0.01 0.01 0.01 0.00 0.01 0.00 0.00 0.00
0.41 0.66 0.91 1.07 0.96 0.80 0.77 0.78 0.75 0.84 0.98 1.00 1.02 0.96 0.81 0.81 0.98 0.80 0.61 0.52 0.55 0.59 0.60 0.39 0.21 0.18 0.18 0.18 0.20 0.22 0.20 0.14 0.10 0.10 0.05 0.03 0.02 0.01 0.01 0.00 0.00 0.00 0.01
0.01 0.03 0.07 0.16 0.25 0.43 0.55 0.56 0.54 0.54 0.57 0.63 0.70 0.81 0.79 0.78 0.75 0.65 0.60 0.54 0.46 0.42 0.49 0.39 0.24 0.22 0.23 0.24 0.27 0.28 0.29 0.24 0.17 0.20 0.12 0.06 0.04 0.02 0.01 0.00 0.00 0.00 0.00
0.00 0.00 0.00 0.00 0.00 0.01 0.02 0.06 0.14 0.23 0.33 0.44 0.52 0.52 0.47 0.58 0.59 0.63 0.70 0.74 0.66 0.61 0.63 0.55 0.33 0.18 0.14 0.17 0.23 0.28 0.29 0.30 0.26 0.29 0.17 0.09 0.05 0.02 0.01 0.01 0.00 0.00 0.00
0.00 0.00 0.00 0.00 0.00 0.00 0.00 0.01 0.03 0.04 0.07 0.10 0.18 0.29 0.38 0.52 0.62 0.71 0.72 0.63 0.65 0.76 0.73 0.67 0.46 0.27 0.18 0.16 0.16 0.15 0.17 0.17 0.19 0.21 0.17 0.10 0.07 0.04 0.02 0.01 0.00 0.00 0.00
0.00 0.00 0.00 0.00 0.00 0.00 0.00 0.00 0.01 0.02 0.03 0.03 0.06 0.07 0.08 0.13 0.18 0.24 0.45 0.56 0.69 0.84 0.93 0.91 0.75 0.55 0.38 0.26 0.17 0.10 0.12 0.15 0.20 0.16 0.11 0.07 0.04 0.02 0.00 0.01 0.00 0.00 0.00
0.00 0.00 0.00 0.00 0.00 0.00 0.00 0.00 0.00 0.00 0.01 0.02 0.03 0.03 0.04 0.08 0.07 0.09 0.12 0.16 0.21 0.31 0.48 0.59 0.64 0.62 0.53 0.48 0.54 0.55 0.51 0.47 0.37 0.14 0.09 0.06 0.02 0.00 0.00 0.00 0.00 0.00 0.00
0.00 0.00 0.00 0.00 0.00 0.00 0.00 0.00 0.00 0.00 0.00 0.00 0.00 0.00 0.01 0.01 0.04 0.03 0.06 0.08 0.10 0.16 0.24 0.25 0.25 0.19 0.19 0.22 0.30 0.40 0.43 0.37 0.32 0.21 0.27 0.24 0.13 0.05 0.01 0.00 0.00 0.00 0.00
0.00 0.00 0.00 0.00 0.00 0.00 0.00 0.00 0.00 0.00 0.00 0.00 0.00 0.00 0.00 0.00 0.00 0.01 0.01 0.02 0.03 0.06 0.13 0.19 0.20 0.26 0.33 0.37 0.45 0.48 0.46 0.39 0.34 0.27 0.24 0.19 0.10 0.08 0.04 0.01 0.01 0.00 0.00
0.00 0.00 0.00 0.00 0.00 0.00 0.00 0.00 0.00 0.00 0.00 0.00 0.00 0.00 0.00 0.00 0.01 0.02 0.01 0.00 0.01 0.02 0.09 0.15 0.21 0.28 0.31 0.32 0.31 0.32 0.48 0.55 0.51 0.35 0.26 0.18 0.12 0.11 0.08 0.04 0.01 0.00 0.00
0.00 0.00 0.00 0.00 0.00 0.00 0.00 0.00 0.01 0.00 0.00 0.00 0.00 0.00 0.00 0.00 0.01 0.02 0.02 0.00 0.01 0.01 0.01 0.03 0.04 0.07 0.10 0.16 0.22 0.21 0.21 0.26 0.25 0.25 0.23 0.23 0.20 0.20 0.18 0.08 0.02 0.01 0.00

GFSMA_prec_precacc24_111.txt.gz
Total_Precipitation_Accumulation
0.32 0.24 0.25 0.24 0.17 0.13 0.10 0.10 0.08 0.05 0.01 0.00 0.00 0.00 0.00 0.00 0.00 0.00 0.00 0.00 0.00 0.00 0.00 0.00 0.00 0.00 0.00 0.01 0.02 0.02 0.00 0.00 0.00 0.00 0.00 0.00 0.00 0.00 0.00 0.00 0.00 0.00 0.00
0.33 0.43 0.37 0.36 0.28 0.20 0.15 0.08 0.10 0.08 0.03 0.01 0.00 0.00 0.00 0.00 0.00 0.00 0.00 0.00 0.00 0.00 0.00 0.00 0.00 0.02 0.02 0.02 0.03 0.08 0.10 0.08 0.06 0.04 0.00 0.00 0.00 0.00 0.00 0.00 0.00 0.00 0.00
0.14 0.20 0.40 0.39 0.30 0.27 0.28 0.23 0.29 0.23 0.20 0.10 0.03 0.00 0.00 0.00 0.00 0.00 0.00 0.00 0.00 0.00 0.00 0.00 0.00 0.00 0.01 0.04 0.06 0.10 0.14 0.17 0.15 0.15 0.07 0.02 0.00 0.00 0.00 0.00 0.01 0.00 0.00
0.10 0.15 0.12 0.16 0.20 0.25 0.24 0.17 0.18 0.27 0.30 0.26 0.09 0.01 0.00 0.00 0.00 0.00 0.00 0.00 0.00 0.00 0.00 0.00 0.00 0.00 0.00 0.01 0.02 0.07 0.11 0.08 0.05 0.06 0.05 0.08 0.07 0.04 0.02 0.02 0.02 0.01 0.01
0.07 0.13 0.15 0.17 0.16 0.17 0.20 0.24 0.29 0.27 0.26 0.21 0.10 0.03 0.00 0.00 0.00 0.00 0.00 0.00 0.00 0.00 0.00 0.00 0.00 0.00 0.00 0.00 0.00 0.02 0.05 0.06 0.03 0.02 0.02 0.03 0.03 0.01 0.01 0.01 0.02 0.02 0.04
0.03 0.10 0.16 0.19 0.19 0.13 0.12 0.15 0.21 0.21 0.17 0.14 0.11 0.06 0.02 0.00 0.00 0.00 0.00 0.00 0.00 0.00 0.00 0.00 0.00 0.00 0.00 0.00 0.00 0.00 0.01 0.05 0.03 0.02 0.00 0.00 0.00 0.00 0.00 0.01 0.00 0.01 0.03
0.15 0.11 0.12 0.10 0.10 0.04 0.03 0.06 0.13 0.16 0.11 0.11 0.15 0.07 0.02 0.01 0.00 0.00 0.00 0.00 0.00 0.00 0.00 0.00 0.00 0.00 0.00 0.00 0.00 0.00 0.00 0.01 0.03 0.03 0.01 0.00 0.00 0.00 0.00 0.00 0.00 0.00 0.00
0.16 0.15 0.10 0.15 0.14 0.13 0.07 0.05 0.05 0.04 0.04 0.06 0.07 0.05 0.02 0.01 0.00 0.00 0.00 0.00 0.00 0.00 0.00 0.00 0.00 0.00 0.00 0.00 0.00 0.00 0.00 0.01 0.02 0.06 0.02 0.01 0.00 0.00 0.00 0.00 0.00 0.00 0.00
0.31 0.29 0.17 0.12 0.17 0.16 0.11 0.11 0.11 0.10 0.08 0.06 0.06 0.07 0.04 0.01 0.00 0.00 0.00 0.00 0.00 0.00 0.00 0.00 0.00 0.00 0.00 0.00 0.00 0.00 0.01 0.01 0.02 0.07 0.06 0.03 0.01 0.01 0.00 0.00 0.00 0.00 0.00
0.56 0.57 0.55 0.52 0.44 0.27 0.25 0.37 0.47 0.48 0.53 0.55 0.40 0.28 0.17 0.07 0.02 0.01 0.01 0.01 0.00 0.00 0.00 0.00 0.00 0.00 0.00 0.00 0.02 0.03 0.03 0.07 0.01 0.04 0.11 0.11 0.03 0.02 0.02 0.01 0.01 0.01 0.00
0.53 0.56 0.63 0.66 0.64 0.61 0.39 0.45 0.59 0.65 0.84 1.12 0.96 0.71 0.52 0.40 0.29 0.23 0.13 0.09 0.05 0.03 0.03 0.03 0.05 0.05 0.07 0.10 0.10 0.10 0.12 0.12 0.02 0.01 0.07 0.14 0.12 0.07 0.08 0.06 0.04 0.02 0.01
0.52 0.43 0.46 0.64 0.80 0.69 0.54 0.43 0.48 0.54 0.57 0.65 0.77 0.72 0.58 0.53 0.50 0.52 0.40 0.23 0.19 0.14 0.07 0.04 0.04 0.04 0.06 0.07 0.08 0.08 0.07 0.06 0.02 0.01 0.02 0.09 0.15 0.19 0.25 0.19 0.10 0.03 0.01
0.61 0.56 0.41 0.43 0.55 0.71 0.69 0.61 0.54 0.52 0.52 0.50 0.49 0.58 0.73 0.65 0.49 0.43 0.45 0.28 0.13 0.08 0.05 0.03 0.03 0.03 0.05 0.04 0.05 0.06 0.06 0.06 0.05 0.01 0.04 0.08 0.12 0.22 0.28 0.26 0.19 0.08 0.02
0.63 0.63 0.65 0.51 0.45 0.49 0.68 0.77 0.64 0.50 0.47 0.45 0.42 0.39 0.43 0.51 0.47 0.38 0.44 0.53 0.37 0.14 0.05 0.02 0.01 0.01 0.02 0.03 0.05 0.07 0.05 0.05 0.04 0.03 0.04 0.04 0.04 0.07 0.14 0.18 0.19 0.19 0.11
0.72 0.77 0.84 0.92 0.83 0.78 0.85 0.95 0.96 0.83 0.74 0.58 0.48 0.50 0.56 0.48 0.41 0.39 0.40 0.45 0.51 0.45 0.21 0.05 0.05 0.05 0.05 0.06 0.09 0.10 0.06 0.07 0.06 0.03 0.02 0.02 0.02 0.01 0.01 0.03 0.06 0.07 0.05
0.55 0.99 0.99 0.75 0.73 0.73 0.86 1.15 1.17 0.98 0.93 0.88 0.78 0.75 0.75 0.76 0.71 0.60 0.56 0.60 0.67 0.68 0.54 0.16 0.07 0.10 0.15 0.22 0.23 0.19 0.13 0.15 0.08 0.06 0.03 0.02 0.02 0.01 0.01 0.02 0.03 0.02 0.01
0.40 0.65 0.90 1.06 0.94 0.78 0.73 0.74 0.73 0.83 0.98 1.01 1.03 0.97 0.82 0.83 1.04 0.99 0.89 0.82 0.81 0.81 0.82 0.45 0.22 0.20 0.21 0.21 0.21 0.23 0.21 0.15 0.10 0.10 0.04 0.03 0.02 0.02 0.02 0.02 0.03 0.03 0.02
0.01 0.03 0.07 0.16 0.25 0.42 0.55 0.55 0.54 0.54 0.57 0.64 0.70 0.82 0.80 0.81 0.79 0.72 0.76 0.79 0.77 0.72 0.78 0.57 0.32 0.30 0.30 0.29 0.31 0.33 0.31 0.25 0.18 0.19 0.12 0.07 0.06 0.05 0.06 0.07 0.06 0.04 0.02
0.00 0.00 0.00 0.00 0.00 0.00 0.02 0.06 0.14 0.22 0.33 0.44 0.52 0.52 0.47 0.58 0.60 0.66 0.77 0.85 0.83 0.87 0.93 0.82 0.50 0.32 0.22 0.20 0.27 0.33 0.31 0.31 0.26 0.30 0.21 0.14 0.12 0.11 0.10 0.10 0.08 0.05 0.03
0.00 0.00 0.00 0.00 0.00 0.00 0.00 0.01 0.03 0.04 0.07 0.10 0.18 0.29 0.38 0.52 0.62 0.71 0.73 0.66 0.69 0.82 0.83 0.82 0.60 0.37 0.23 0.19 0.22 0.21 0.20 0.18 0.21 0.25 0.25 0.19 0.19 0.18 0.16 0.12 0.09 0.07 0.03
0.00 0.00 0.00 0.00 0.00 0.00 0.00 0.00 0.01 0.02 0.03 0.03 0.06 0.07 0.08 0.13 0.18 0.24 0.45 0.56 0.69 0.84 0.93 0.91 0.76 0.57 0.40 0.28 0.20 0.14 0.18 0.18 0.22 0.19 0.15 0.14 0.12 0.10 0.08 0.07 0.05 0.04 0.02
0.00 0.00 0.00 0.00 0.00 0.00 0.00 0.00 0.00 0.00 0.01 0.02 0.03 0.03 0.04 0.08 0.07 0.09 0.12 0.16 0.21 0.31 0.48 0.59 0.64 0.63 0.54 0.49 0.55 0.57 0.53 0.49 0.39 0.16 0.10 0.07 0.04 0.02 0.01 0.01 0.02 0.01 0.01
0.00 0.00 0.00 0.00 0.00 0.00 0.00 0.00 0.00 0.00 0.00 0.00 0.00 0.00 0.01 0.01 0.04 0.03 0.06 0.08 0.10 0.16 0.24 0.25 0.26 0.19 0.20 0.23 0.31 0.43 0.47 0.39 0.33 0.22 0.29 0.26 0.15 0.06 0.01 0.01 0.01 0.01 0.00
0.00 0.00 0.00 0.00 0.00 0.00 0.00 0.00 0.00 0.00 0.00 0.00 0.00 0.00 0.00 0.00 0.00 0.01 0.01 0.02 0.03 0.06 0.13 0.19 0.20 0.26 0.34 0.38 0.47 0.51 0.48 0.44 0.43 0.35 0.31 0.25 0.11 0.10 0.06 0.03 0.04 0.01 0.01
0.00 0.00 0.00 0.00 0.00 0.00 0.00 0.00 0.00 0.00 0.00 0.00 0.00 0.00 0.00 0.00 0.01 0.02 0.01 0.00 0.01 0.02 0.09 0.15 0.21 0.28 0.31 0.32 0.31 0.34 0.50 0.59 0.58 0.40 0.31 0.28 0.16 0.13 0.11 0.09 0.07 0.06 0.02
0.00 0.00 0.00 0.00 0.00 0.00 0.00 0.00 0.01 0.00 0.00 0.00 0.00 0.00 0.00 0.00 0.01 0.02 0.02 0.00 0.01 0.01 0.01 0.03 0.04 0.07 0.10 0.16 0.23 0.22 0.22 0.29 0.28 0.30 0.29 0.32 0.28 0.27 0.30 0.19 0.11 0.10 0.06

GFSMA_prec_precacc24_114.txt.gz
Total_Precipitation_Accumulation
0.32 0.24 0.25 0.25 0.21 0.16 0.12 0.12 0.11 0.12 0.06 0.00 0.00 0.00 0.00 0.00 0.00 0.00 0.00 0.00 0.00 0.00 0.00 0.00 0.01 0.00 0.00 0.00 0.01 0.01 0.00 0.00 0.00 0.00 0.00 0.00 0.00 0.00 0.00 0.00 0.00 0.00 0.00
0.33 0.44 0.38 0.38 0.30 0.23 0.19 0.13 0.14 0.16 0.13 0.04 0.01 0.00 0.00 0.00 0.00 0.00 0.00 0.00 0.00 0.00 0.00 0.00 0.00 0.02 0.02 0.02 0.02 0.03 0.05 0.06 0.05 0.04 0.00 0.00 0.00 0.00 0.00 0.00 0.00 0.00 0.00
0.14 0.21 0.42 0.43 0.36 0.35 0.40 0.37 0.41 0.33 0.30 0.14 0.05 0.01 0.00 0.00 0.00 0.00 0.00 0.00 0.00 0.00 0.00 0.00 0.00 0.00 0.02 0.04 0.07 0.07 0.10 0.14 0.13 0.15 0.07 0.03 0.00 0.00 0.00 0.00 0.01 0.00 0.01
0.10 0.15 0.13 0.19 0.30 0.39 0.40 0.32 0.33 0.42 0.44 0.35 0.15 0.03 0.00 0.00 0.00 0.00 0.00 0.00 0.00 0.00 0.00 0.00 0.00 0.00 0.00 0.01 0.02 0.05 0.11 0.09 0.06 0.07 0.06 0.07 0.06 0.03 0.01 0.02 0.01 0.01 0.01
0.09 0.14 0.18 0.23 0.25 0.27 0.27 0.32 0.41 0.38 0.39 0.31 0.17 0.06 0.01 0.00 0.00 0.00 0.00 0.00 0.00 0.00 0.00 0.00 0.00 0.00 0.00 0.00 0.00 0.00 0.04 0.06 0.04 0.03 0.02 0.03 0.03 0.01 0.00 0.00 0.00 0.01 0.02
0.03 0.11 0.17 0.20 0.22 0.20 0.20 0.25 0.32 0.34 0.28 0.20 0.19 0.12 0.06 0.01 0.00 0.00 0.00 0.00 0.00 0.00 0.00 0.00 0.00 0.00 0.00 0.00 0.00 0.00 0.00 0.06 0.04 0.02 0.01 0.01 0.00 0.00 0.00 0.01 0.01 0.00 0.01
0.09 0.07 0.10 0.10 0.11 0.07 0.05 0.08 0.16 0.18 0.13 0.14 0.22 0.10 0.05 0.03 0.02 0.00 0.00 0.00 0.00 0.00 0.00 0.00 0.00 0.00 0.00 0.00 0.00 0.00 0.00 0.01 0.04 0.03 0.02 0.01 0.00 0.00 0.00 0.00 0.01 0.00 0.00
0.16 0.15 0.09 0.15 0.14 0.13 0.08 0.05 0.05 0.05 0.05 0.09 0.10 0.09 0.05 0.02 0.01 0.00 0.00 0.00 0.00 0.00 0.00 0.00 0.00 0.00 0.00 0.00 0.00 0.00 0.00 0.00 0.02 0.09 0.05 0.03 0.04 0.01 0.00 0.00 0.01 0.01 0.00
0.41 0.32 0.20 0.11 0.15 0.17 0.11 0.10 0.07 0.10 0.08 0.07 0.06 0.06 0.04 0.01 0.00 0.00 0.00 0.00 0.00 0.00 0.00 0.00 0.00 0.00 0.00 0.00 0.00 0.00 0.01 0.01 0.02 0.08 0.14 0.08 0.10 0.03 0.01 0.01 0.01 0.01 0.01
0.59 0.68 0.64 0.44 0.34 0.26 0.23 0.26 0.31 0.33 0.32 0.28 0.22 0.18 0.12 0.07 0.03 0.01 0.01 0.01 0.00 0.00 0.00 0.00 0.00 0.00 0.00 0.00 0.02 0.03 0.03 0.07 0.01 0.03 0.12 0.15 0.09 0.06 0.04 0.02 0.02 0.02 0.01
0.85 0.67 0.70 0.72 0.66 0.62 0.47 0.49 0.59 0.58 0.58 0.60 0.51 0.48 0.46 0.39 0.30 0.23 0.13 0.09 0.05 0.03 0.03 0.03 0.05 0.05 0.07 0.10 0.10 0.10 0.12 0.12 0.02 0.01 0.06 0.18 0.18 0.08 0.08 0.08 0.07 0.05 0.03
0.98 0.67 0.59 0.73 0.85 0.68 0.53 0.44 0.48 0.53 0.51 0.47 0.43 0.38 0.33 0.33 0.32 0.40 0.32 0.20 0.18 0.14 0.07 0.04 0.04 0.04 0.06 0.07 0.08 0.08 0.07 0.06 0.02 0.01 0.04 0.16 0.21 0.24 0.27 0.24 0.22 0.19 0.11
1.06 0.75 0.45 0.42 0.52 0.68 0.66 0.56 0.48 0.43 0.42 0.39 0.36 0.35 0.39 0.40 0.39 0.39 0.46 0.29 0.13 0.08 0.05 0.03 0.03 0.03 0.05 0.04 0.05 0.06 0.06 0.06 0.05 0.01 0.10 0.16 0.18 0.25 0.31 0.34 0.35 0.31 0.23
0.80 0.68 0.65 0.51 0.43 0.46 0.62 0.69 0.57 0.44 0.41 0.42 0.40 0.35 0.38 0.43 0.48 0.42 0.47 0.57 0.41 0.16 0.05 0.02 0.01 0.01 0.02 0.03 0.05 0.08 0.05 0.05 0.04 0.03 0.04 0.11 0.06 0.08 0.15 0.21 0.27 0.34 0.36
0.72 0.71 0.82 0.91 0.82 0.78 0.79 0.81 0.83 0.72 0.65 0.57 0.50 0.51 0.58 0.52 0.51 0.55 0.61 0.74 0.77 0.59 0.26 0.06 0.05 0.06 0.06 0.07 0.10 0.12 0.08 0.08 0.06 0.03 0.02 0.02 0.05 0.02 0.01 0.04 0.09 0.13 0.17
0.50 0.71 0.66 0.62 0.68 0.72 0.81 1.01 1.05 0.92 0.90 0.87 0.79 0.76 0.77 0.77 0.72 0.63 0.64 0.70 0.80 0.82 0.63 0.19 0.08 0.12 0.18 0.25 0.26 0.23 0.15 0.17 0.10 0.06 0.04 0.02 0.03 0.02 0.01 0.02 0.03 0.05 0.05
0.35 0.56 0.80 0.95 0.91 0.77 0.71 0.70 0.68 0.77 0.94 0.98 1.03 0.97 0.82 0.84 1.04 1.00 0.91 0.85 0.87 0.96 1.03 0.57 0.34 0.33 0.33 0.30 0.30 0.32 0.27 0.19 0.13 0.12 0.06 0.05 0.04 0.02 0.02 0.02 0.03 0.05 0.05
0.01 0.03 0.07 0.16 0.23 0.40 0.54 0.55 0.53 0.51 0.55 0.62 0.69 0.82 0.80 0.81 0.79 0.73 0.76 0.80 0.80 0.80 0.93 0.69 0.38 0.38 0.40 0.37 0.40 0.45 0.45 0.38 0.25 0.22 0.14 0.08 0.06 0.05 0.06 0.07 0.07 0.06 0.06
0.00 0.00 0.00 0.00 0.00 0.00 0.01 0.05 0.13 0.22 0.33 0.44 0.52 0.52 0.47 0.59 0.60 0.67 0.78 0.86 0.86 0.92 1.02 0.97 0.64 0.52 0.48 0.48 0.54 0.54 0.47 0.45 0.36 0.36 0.27 0.17 0.15 0.13 0.10 0.11 0.12 0.10 0.08
0.00 0.00 0.00 0.00 0.00 0.00 0.00 0.00 0.01 0.03 0.06 0.09 0.17 0.28 0.38 0.52 0.62 0.71 0.73 0.66 0.70 0.83 0.85 0.87 0.66 0.45 0.34 0.31 0.38 0.32 0.29 0.28 0.28 0.30 0.32 0.23 0.21 0.20 0.19 0.16 0.15 0.15 0.12
0.00 0.00 0.00 0.00 0.00 0.00 0.00 0.00 0.00 0.01 0.01 0.02 0.04 0.06 0.07 0.12 0.17 0.24 0.45 0.56 0.69 0.84 0.93 0.91 0.76 0.57 0.40 0.30 0.23 0.17 0.20 0.19 0.23 0.20 0.16 0.14 0.12 0.11 0.11 0.12 0.11 0.12 0.15
0.00 0.00 0.00 0.00 0.00 0.00 0.00 0.00 0.00 0.00 0.01 0.01 0.02 0.02 0.04 0.08 0.07 0.09 0.12 0.16 0.21 0.31 0.48 0.59 0.65 0.63 0.54 0.49 0.55 0.58 0.54 0.50 0.39 0.16 0.10 0.07 0.04 0.03 0.03 0.04 0.07 0.08 0.09
0.00 0.00 0.00 0.00 0.00 0.00 0.00 0.00 0.00 0.00 0.00 0.00 0.00 0.00 0.01 0.01 0.04 0.03 0.06 0.08 0.10 0.16 0.24 0.25 0.26 0.19 0.20 0.23 0.32 0.44 0.47 0.40 0.34 0.22 0.30 0.27 0.15 0.07 0.02 0.05 0.10 0.06 0.06
0.00 0.00 0.00 0.00 0.00 0.00 0.00 0.00 0.00 0.00 0.00 0.00 0.00 0.00 0.00 0.00 0.00 0.01 0.01 0.02 0.03 0.06 0.13 0.19 0.20 0.26 0.34 0.38 0.47 0.52 0.49 0.45 0.44 0.35 0.31 0.27 0.13 0.11 0.06 0.04 0.07 0.03 0.03
0.00 0.00 0.00 0.00 0.00 0.00 0.00 0.00 0.00 0.00 0.00 0.00 0.00 0.00 0.00 0.00 0.01 0.02 0.01 0.00 0.01 0.02 0.09 0.15 0.21 0.28 0.31 0.32 0.31 0.34 0.51 0.60 0.59 0.41 0.31 0.30 0.18 0.16 0.14 0.11 0.08 0.07 0.03
0.00 0.00 0.00 0.00 0.00 0.00 0.00 0.00 0.01 0.00 0.00 0.00 0.00 0.00 0.00 0.00 0.01 0.02 0.02 0.01 0.02 0.01 0.01 0.03 0.04 0.07 0.10 0.16 0.23 0.22 0.23 0.29 0.29 0.31 0.29 0.33 0.30 0.31 0.39 0.25 0.16 0.14 0.09

GFSMA_prec_precacc24_117.txt.gz
Total_Precipitation_Accumulation
0.32 0.24 0.25 0.25 0.21 0.16 0.12 0.12 0.11 0.12 0.06 0.01 0.00 0.00 0.00 0.00 0.00 0.00 0.00 0.00 0.00 0.00 0.00 0.00 0.01 0.00 0.00 0.00 0.00 0.01 0.00 0.00 0.00 0.00 0.00 0.00 0.00 0.00 0.00 0.00 0.00 0.00 0.00
0.36 0.46 0.39 0.38 0.30 0.24 0.20 0.16 0.18 0.17 0.17 0.08 0.01 0.00 0.00 0.00 0.00 0.00 0.00 0.00 0.00 0.00 0.00 0.00 0.00 0.02 0.02 0.02 0.01 0.02 0.02 0.05 0.05 0.04 0.00 0.00 0.00 0.00 0.00 0.00 0.00 0.00 0.00
0.22 0.26 0.46 0.47 0.38 0.39 0.50 0.49 0.55 0.40 0.35 0.19 0.07 0.01 0.01 0.00 0.00 0.00 0.00 0.00 0.00 0.00 0.00 0.00 0.00 0.00 0.02 0.04 0.07 0.06 0.08 0.13 0.12 0.15 0.07 0.03 0.01 0.00 0.00 0.00 0.01 0.00 0.01
0.14 0.19 0.15 0.19 0.31 0.41 0.46 0.40 0.45 0.58 0.60 0.48 0.23 0.06 0.01 0.00 0.00 0.00 0.00 0.00 0.00 0.00 0.00 0.00 0.00 0.00 0.00 0.01 0.02 0.06 0.11 0.10 0.07 0.08 0.06 0.08 0.07 0.04 0.01 0.01 0.01 0.01 0.01
0.15 0.17 0.19 0.24 0.27 0.29 0.32 0.35 0.44 0.47 0.51 0.43 0.36 0.36 0.37 0.24 0.05 0.01 0.00 0.00 0.00 0.00 0.00 0.00 0.00 0.00 0.00 0.00 0.00 0.00 0.04 0.07 0.04 0.03 0.02 0.03 0.03 0.01 0.00 0.01 0.01 0.00 0.01
0.13 0.21 0.21 0.24 0.28 0.26 0.23 0.28 0.33 0.38 0.35 0.30 0.31 0.26 0.19 0.15 0.05 0.01 0.00 0.00 0.00 0.00 0.00 0.00 0.00 0.00 0.00 0.00 0.00 0.00 0.00 0.05 0.04 0.02 0.01 0.01 0.00 0.00 0.00 0.01 0.02 0.01 0.01
0.10 0.11 0.17 0.16 0.14 0.11 0.10 0.10 0.16 0.19 0.16 0.21 0.30 0.15 0.10 0.08 0.05 0.01 0.00 0.00 0.00 0.00 0.00 0.00 0.00 0.00 0.00 0.00 0.00 0.00 0.00 0.01 0.04 0.03 0.02 0.01 0.01 0.00 0.00 0.00 0.01 0.02 0.01
0.15 0.13 0.10 0.16 0.17 0.17 0.12 0.07 0.05 0.06 0.07 0.16 0.21 0.22 0.13 0.04 0.01 0.00 0.00 0.00 0.00 0.00 0.00 0.00 0.00 0.00 0.00 0.00 0.00 0.00 0.00 0.00 0.02 0.09 0.05 0.04 0.05 0.02 0.00 0.00 0.01 0.02 0.01
0.38 0.42 0.28 0.19 0.19 0.20 0.14 0.13 0.10 0.11 0.09 0.09 0.11 0.14 0.07 0.03 0.00 0.00 0.00 0.00 0.00 0.00 0.00 0.00 0.00 0.00 0.00 0.00 0.00 0.00 0.01 0.01 0.01 0.07 0.14 0.09 0.11 0.04 0.01 0.02 0.02 0.01 0.01
0.67 0.94 0.94 0.60 0.48 0.43 0.32 0.32 0.30 0.28 0.32 0.23 0.26 0.22 0.15 0.07 0.03 0.01 0.01 0.01 0.00 0.00 0.00 0.00 0.00 0.00 0.00 0.00 0.02 0.03 0.03 0.07 0.01 0.03 0.11 0.16 0.12 0.10 0.09 0.06 0.03 0.02 0.01
0.85 0.81 0.96 1.15 0.91 0.80 0.70 0.59 0.56 0.51 0.50 0.47 0.41 0.43 0.37 0.35 0.27 0.20 0.14 0.10 0.05 0.03 0.03 0.03 0.05 0.05 0.07 0.10 0.10 0.10 0.12 0.12 0.02 0.01 0.05 0.17 0.23 0.17 0.16 0.16 0.14 0.09 0.05
1.15 0.98 1.32 1.43 1.43 0.93 0.62 0.53 0.57 0.55 0.50 0.47 0.44 0.41 0.33 0.25 0.21 0.25 0.20 0.16 0.15 0.12 0.06 0.04 0.04 0.04 0.06 0.07 0.08 0.08 0.07 0.06 0.02 0.01 0.04 0.15 0.24 0.29 0.36 0.30 0.25 0.23 0.20
1.36 1.41 0.98 1.28 1.30 1.08 0.72 0.54 0.49 0.45 0.43 0.39 0.35 0.34 0.36 0.29 0.23 0.20 0.20 0.16 0.11 0.08 0.05 0.03 0.03 0.03 0.05 0.04 0.05 0.06 0.06 0.06 0.05 0.01 0.09 0.16 0.21 0.31 0.34 0.35 0.37 0.35 0.30
0.99 0.97 0.98 0.80 0.72 0.64 0.64 0.67 0.55 0.43 0.40 0.41 0.37 0.32 0.30 0.32 0.35 0.34 0.40 0.52 0.43 0.18 0.06 0.02 0.01 0.01 0.02 0.03 0.05 0.08 0.06 0.06 0.05 0.04 0.06 0.14 0.11 0.12 0.18 0.24 0.31 0.43 0.44
0.75 0.74 0.83 0.93 0.84 0.77 0.75 0.79 0.81 0.68 0.59 0.49 0.45 0.49 0.54 0.46 0.46 0.54 0.63 0.78 0.91 0.74 0.33 0.08 0.06 0.06 0.06 0.07 0.10 0.13 0.09 0.10 0.08 0.05 0.05 0.06 0.11 0.09 0.07 0.10 0.15 0.18 0.26
0.38 0.51 0.46 0.52 0.64 0.69 0.76 0.98 1.01 0.86 0.82 0.74 0.66 0.70 0.73 0.73 0.71 0.64 0.65 0.72 0.82 0.85 0.66 0.20 0.09 0.12 0.18 0.25 0.26 0.24 0.15 0.19 0.14 0.11 0.07 0.04 0.04 0.08 0.09 0.09 0.09 0.10 0.09
0.22 0.39 0.54 0.67 0.70 0.65 0.60 0.61 0.61 0.70 0.86 0.90 0.94 0.90 0.76 0.80 1.04 1.00 0.90 0.85 0.90 1.01 1.09 0.59 0.35 0.34 0.36 0.33 0.33 0.37 0.31 0.23 0.15 0.15 0.08 0.07 0.06 0.08 0.11 0.13 0.12 0.09 0.08
0.01 0.02 0.05 0.14 0.22 0.38 0.49 0.52 0.51 0.49 0.51 0.56 0.63 0.77 0.75 0.78 0.78 0.72 0.76 0.81 0.80 0.82 0.95 0.70 0.38 0.38 0.42 0.42 0.47 0.53 0.54 0.51 0.40 0.30 0.22 0.14 0.11 0.10 0.11 0.11 0.10 0.08 0.07
0.00 0.00 0.00 0.00 0.00 0.00 0.00 0.03 0.11 0.19 0.30 0.41 0.49 0.50 0.45 0.57 0.59 0.68 0.79 0.88 0.87 0.93 1.03 0.98 0.64 0.52 0.51 0.53 0.64 0.72 0.69 0.68 0.64 0.72 0.57 0.43 0.36 0.25 0.16 0.15 0.14 0.12 0.08
0.00 0.00 0.00 0.00 0.00 0.00 0.00 0.00 0.00 0.01 0.02 0.06 0.13 0.23 0.34 0.50 0.61 0.71 0.73 0.66 0.71 0.84 0.86 0.88 0.66 0.45 0.36 0.36 0.50 0.49 0.47 0.44 0.44 0.50 0.55 0.45 0.40 0.33 0.29 0.22 0.17 0.17 0.14
0.00 0.00 0.00 0.00 0.00 0.00 0.00 0.00 0.00 0.00 0.00 0.00 0.01 0.03 0.05 0.10 0.16 0.24 0.45 0.56 0.69 0.84 0.93 0.91 0.76 0.57 0.40 0.30 0.25 0.23 0.29 0.27 0.30 0.26 0.20 0.19 0.19 0.15 0.12 0.13 0.11 0.12 0.16
0.00 0.00 0.00 0.00 0.00 0.00 0.00 0.00 0.00 0.00 0.00 0.00 0.00 0.00 0.02 0.06 0.05 0.08 0.11 0.15 0.21 0.31 0.48 0.59 0.65 0.63 0.54 0.49 0.55 0.58 0.54 0.51 0.40 0.18 0.12 0.08 0.05 0.04 0.03 0.04 0.08 0.09 0.11
0.00 0.00 0.00 0.00 0.00 0.00 0.00 0.00 0.00 0.00 0.00 0.00 0.00 0.00 0.00 0.00 0.03 0.02 0.05 0.08 0.10 0.16 0.24 0.25 0.26 0.19 0.20 0.23 0.32 0.44 0.47 0.40 0.34 0.22 0.30 0.27 0.15 0.07 0.02 0.06 0.11 0.08 0.10
0.00 0.00 0.00 0.00 0.00 0.00 0.00 0.00 0.00 0.00 0.00 0.00 0.00 0.00 0.00 0.00 0.00 0.01 0.01 0.02 0.03 0.06 0.13 0.19 0.20 0.26 0.34 0.38 0.47 0.52 0.49 0.45 0.44 0.35 0.31 0.28 0.13 0.11 0.06 0.05 0.11 0.06 0.09
0.00 0.00 0.00 0.00 0.00 0.00 0.00 0.00 0.00 0.00 0.00 0.00 0.00 0.00 0.00 0.00 0.01 0.02 0.01 0.00 0.01 0.02 0.09 0.15 0.21 0.28 0.31 0.32 0.31 0.34 0.51 0.60 0.59 0.41 0.31 0.30 0.18 0.16 0.15 0.11 0.10 0.11 0.06
0.00 0.00 0.00 0.00 0.00 0.00 0.00 0.00 0.01 0.00 0.00 0.00 0.00 0.00 0.00 0.00 0.01 0.02 0.02 0.01 0.02 0.01 0.01 0.03 0.04 0.07 0.10 0.16 0.23 0.22 0.23 0.30 0.29 0.31 0.29 0.33 0.30 0.31 0.40 0.26 0.16 0.16 0.13

GFSMA_prec_precacc24_120.txt.gz
Total_Precipitation_Accumulation
0.21 0.19 0.24 0.25 0.21 0.16 0.12 0.12 0.11 0.12 0.06 0.01 0.00 0.00 0.00 0.00 0.00 0.00 0.00 0.00 0.00 0.00 0.00 0.00 0.01 0.00 0.00 0.00 0.00 0.00 0.00 0.00 0.00 0.00 0.00 0.00 0.00 0.00 0.00 0.00 0.00 0.00 0.00
0.23 0.44 0.37 0.38 0.30 0.24 0.21 0.20 0.25 0.21 0.17 0.09 0.03 0.01 0.00 0.01 0.00 0.00 0.00 0.00 0.00 0.00 0.00 0.00 0.00 0.02 0.02 0.02 0.01 0.01 0.02 0.04 0.04 0.04 0.00 0.00 0.00 0.00 0.00 0.00 0.00 0.00 0.00
0.22 0.29 0.51 0.53 0.41 0.41 0.56 0.59 0.69 0.56 0.40 0.21 0.09 0.02 0.01 0.01 0.01 0.00 0.00 0.00 0.00 0.00 0.00 0.00 0.00 0.00 0.02 0.05 0.07 0.06 0.07 0.11 0.11 0.14 0.07 0.03 0.01 0.00 0.00 0.00 0.01 0.00 0.01
0.15 0.22 0.18 0.24 0.37 0.47 0.52 0.48 0.53 0.64 0.65 0.57 0.30 0.12 0.06 0.03 0.01 0.00 0.00 0.00 0.00 0.00 0.00 0.00 0.00 0.00 0.00 0.01 0.02 0.06 0.12 0.10 0.07 0.07 0.06 0.08 0.07 0.04 0.01 0.00 0.01 0.00 0.01
0.14 0.19 0.22 0.28 0.34 0.37 0.39 0.43 0.52 0.55 0.59 0.53 0.45 0.50 0.70 0.68 0.42 0.19 0.06 0.01 0.00 0.00 0.00 0.00 0.00 0.00 0.00 0.00 0.00 0.00 0.05 0.09 0.05 0.03 0.02 0.04 0.03 0.01 0.01 0.01 0.01 0.00 0.00
0.13 0.22 0.24 0.27 0.35 0.34 0.33 0.35 0.40 0.44 0.39 0.35 0.33 0.28 0.25 0.39 0.61 0.61 0.37 0.17 0.05 0.00 0.00 0.00 0.00 0.00 0.00 0.00 0.00 0.00 0.00 0.06 0.05 0.03 0.01 0.01 0.00 0.00 0.01 0.02 0.02 0.01 0.01
0.09 0.10 0.19 0.18 0.18 0.16 0.17 0.21 0.27 0.26 0.19 0.23 0.30 0.16 0.12 0.11 0.09 0.07 0.11 0.11 0.05 0.02 0.00 0.00 0.00 0.00 0.00 0.00 0.00 0.00 0.00 0.01 0.04 0.04 0.03 0.02 0.01 0.01 0.01 0.00 0.01 0.02 0.02
0.14 0.14 0.12 0.18 0.21 0.25 0.24 0.17 0.14 0.13 0.11 0.17 0.21 0.22 0.14 0.06 0.04 0.05 0.06 0.05 0.04 0.05 0.03 0.01 0.00 0.00 0.00 0.00 0.00 0.00 0.00 0.00 0.01 0.08 0.07 0.06 0.07 0.04 0.02 0.02 0.01 0.02 0.01
0.32 0.38 0.31 0.25 0.23 0.26 0.22 0.20 0.16 0.15 0.12 0.12 0.13 0.14 0.07 0.04 0.01 0.02 0.02 0.02 0.02 0.02 0.01 0.02 0.01 0.01 0.00 0.00 0.00 0.00 0.01 0.01 0.00 0.07 0.14 0.09 0.13 0.08 0.05 0.06 0.04 0.02 0.01
0.50 0.72 0.76 0.48 0.43 0.48 0.37 0.37 0.33 0.27 0.29 0.13 0.22 0.23 0.19 0.11 0.04 0.01 0.01 0.01 0.03 0.02 0.03 0.03 0.02 0.01 0.00 0.00 0.02 0.03 0.03 0.07 0.01 0.02 0.10 0.15 0.13 0.12 0.13 0.12 0.08 0.06 0.06
0.70 0.67 0.77 0.93 0.79 0.95 1.01 0.75 0.57 0.52 0.52 0.44 0.37 0.32 0.29 0.32 0.29 0.22 0.14 0.08 0.07 0.04 0.04 0.05 0.06 0.05 0.07 0.10 0.10 0.10 0.12 0.12 0.02 0.01 0.04 0.15 0.23 0.18 0.18 0.20 0.21 0.21 0.17
0.98 0.87 1.17 1.23 1.44 1.16 1.00 1.25 1.16 0.88 0.68 0.52 0.44 0.41 0.31 0.23 0.21 0.27 0.24 0.15 0.12 0.08 0.08 0.06 0.05 0.04 0.06 0.07 0.08 0.08 0.07 0.06 0.02 0.00 0.03 0.16 0.26 0.32 0.40 0.33 0.29 0.26 0.25
1.09 1.15 0.84 1.16 1.33 1.50 1.54 1.26 1.19 0.95 0.72 0.59 0.38 0.32 0.36 0.30 0.24 0.21 0.21 0.12 0.07 0.04 0.03 0.02 0.03 0.03 0.05 0.04 0.05 0.06 0.06 0.06 0.05 0.01 0.08 0.19 0.27 0.37 0.40 0.40 0.41 0.39 0.37
0.68 0.68 0.65 0.65 0.68 0.78 0.96 1.11 1.02 0.81 0.59 0.45 0.33 0.27 0.29 0.32 0.35 0.35 0.37 0.36 0.28 0.11 0.03 0.01 0.01 0.01 0.02 0.03 0.05 0.08 0.06 0.06 0.05 0.03 0.06 0.20 0.17 0.19 0.29 0.34 0.37 0.50 0.53
0.48 0.60 0.72 0.80 0.73 0.72 0.76 0.82 0.85 0.73 0.57 0.46 0.41 0.45 0.52 0.45 0.46 0.53 0.63 0.74 0.85 0.70 0.31 0.08 0.06 0.06 0.06 0.07 0.10 0.13 0.09 0.10 0.08 0.05 0.05 0.08 0.14 0.14 0.16 0.22 0.26 0.31 0.42
0.24 0.37 0.33 0.42 0.55 0.61 0.70 0.92 0.97 0.83 0.81 0.73 0.61 0.55 0.51 0.49 0.51 0.56 0.63 0.69 0.81 0.85 0.64 0.19 0.09 0.12 0.18 0.25 0.26 0.24 0.15 0.19 0.14 0.12 0.09 0.06 0.06 0.10 0.12 0.13 0.17 0.19 0.21
0.15 0.24 0.35 0.37 0.38 0.45 0.48 0.51 0.50 0.59 0.76 0.80 0.86 0.88 0.70 0.63 0.81 0.91 0.86 0.85 0.90 1.01 1.09 0.59 0.35 0.35 0.37 0.33 0.33 0.37 0.31 0.23 0.16 0.16 0.10 0.09 0.10 0.12 0.16 0.18 0.18 0.20 0.19
0.01 0.01 0.03 0.10 0.15 0.18 0.26 0.34 0.37 0.41 0.44 0.48 0.53 0.68 0.72 0.74 0.74 0.68 0.72 0.75 0.77 0.80 0.94 0.70 0.38 0.38 0.42 0.43 0.47 0.53 0.54 0.52 0.46 0.52 0.46 0.33 0.23 0.16 0.15 0.14 0.13 0.14 0.14
0.00 0.00 0.00 0.00 0.00 0.00 0.00 0.02 0.09 0.18 0.29 0.40 0.47 0.46 0.41 0.52 0.57 0.65 0.76 0.81 0.80 0.92 1.04 0.98 0.64 0.52 0.51 0.53 0.65 0.73 0.69 0.69 0.65 0.76 0.68 0.57 0.56 0.49 0.36 0.29 0.24 0.18 0.13
0.00 0.00 0.00 0.00 0.00 0.00 0.00 0.00 0.00 0.00 0.01 0.04 0.11 0.21 0.30 0.43 0.47 0.53 0.62 0.63 0.66 0.84 0.88 0.90 0.67 0.45 0.36 0.36 0.50 0.50 0.47 0.45 0.46 0.53 0.59 0.51 0.52 0.49 0.46 0.40 0.36 0.28 0.22
0.00 0.00 0.00 0.00 0.00 0.00 0.00 0.00 0.00 0.00 0.00 0.00 0.00 0.01 0.03 0.07 0.10 0.14 0.28 0.50 0.69 0.84 0.93 0.91 0.76 0.57 0.40 0.30 0.25 0.23 0.29 0.28 0.32 0.32 0.31 0.32 0.31 0.25 0.22 0.23 0.20 0.23 0.26
0.00 0.00 0.00 0.00 0.00 0.00 0.00 0.00 0.00 0.00 0.00 0.00 0.00 0.00 0.01 0.04 0.04 0.06 0.08 0.13 0.19 0.31 0.48 0.59 0.65 0.63 0.54 0.49 0.55 0.58 0.55 0.51 0.40 0.19 0.15 0.11 0.12 0.10 0.12 0.14 0.19 0.19 0.17
0.00 0.00 0.00 0.00 0.00 0.00 0.00 0.00 0.00 0.00 0.00 0.00 0.00 0.00 0.00 0.00 0.01 0.01 0.03 0.04 0.07 0.12 0.19 0.23 0.22 0.17 0.20 0.23 0.32 0.44 0.47 0.40 0.34 0.22 0.30 0.27 0.16 0.07 0.03 0.08 0.15 0.10 0.11
0.00 0.00 0.00 0.00 0.00 0.00 0.00 0.00 0.00 0.00 0.00 0.00 0.00 0.00 0.00 0.00 0.00 0.00 0.00 0.02 0.03 0.05 0.12 0.19 0.20 0.26 0.34 0.38 0.47 0.52 0.49 0.45 0.44 0.35 0.32 0.28 0.13 0.12 0.06 0.05 0.11 0.07 0.09
0.00 0.00 0.00 0.00 0.00 0.00 0.00 0.00 0.00 0.00 0.00 0.00 0.00 0.00 0.00 0.00 0.00 0.01 0.01 0.00 0.01 0.02 0.09 0.15 0.21 0.28 0.31 0.32 0.31 0.34 0.51 0.60 0.59 0.41 0.31 0.30 0.18 0.16 0.15 0.11 0.10 0.11 0.06
0.00 0.00 0.00 0.00 0.00 0.00 0.00 0.00 0.00 0.00 0.00 0.00 0.00 0.00 0.00 0.00 0.01 0.02 0.02 0.01 0.02 0.01 0.01 0.03 0.04 0.07 0.10 0.16 0.23 0.22 0.23 0.30 0.30 0.31 0.29 0.33 0.30 0.31 0.40 0.26 0.16 0.16 0.13

GFSMA_prec_precacc24_123.txt.gz
Total_Precipitation_Accumulation
0.18 0.17 0.24 0.26 0.21 0.16 0.12 0.13 0.15 0.14 0.07 0.01 0.00 0.00 0.00 0.01 0.01 0.00 0.00 0.00 0.00 0.00 0.00 0.01 0.01 0.00 0.00 0.00 0.00 0.00 0.00 0.00 0.00 0.00 0.00 0.00 0.00 0.00 0.00 0.00 0.00 0.00 0.00
0.19 0.20 0.25 0.34 0.31 0.25 0.23 0.22 0.31 0.31 0.24 0.13 0.04 0.01 0.01 0.03 0.08 0.03 0.00 0.00 0.00 0.00 0.00 0.01 0.01 0.02 0.02 0.02 0.01 0.01 0.01 0.03 0.03 0.04 0.00 0.00 0.00 0.00 0.00 0.00 0.00 0.00 0.00
0.21 0.20 0.18 0.27 0.31 0.42 0.61 0.67 0.78 0.65 0.52 0.32 0.15 0.05 0.02 0.03 0.05 0.11 0.07 0.01 0.00 0.00 0.00 0.01 0.04 0.02 0.02 0.05 0.07 0.06 0.07 0.09 0.10 0.13 0.06 0.03 0.01 0.00 0.00 0.00 0.00 0.00 0.01
0.14 0.21 0.17 0.15 0.29 0.44 0.57 0.55 0.61 0.72 0.75 0.65 0.40 0.22 0.17 0.12 0.11 0.09 0.06 0.02 0.00 0.00 0.00 0.00 0.03 0.05 0.03 0.02 0.02 0.06 0.12 0.10 0.06 0.07 0.05 0.07 0.06 0.04 0.01 0.00 0.01 0.00 0.01
0.14 0.18 0.21 0.27 0.34 0.37 0.42 0.48 0.59 0.62 0.70 0.61 0.51 0.56 0.74 0.76 0.49 0.31 0.16 0.07 0.02 0.01 0.00 0.00 0.01 0.04 0.04 0.05 0.02 0.01 0.07 0.11 0.06 0.04 0.04 0.04 0.04 0.02 0.01 0.01 0.03 0.02 0.01
0.12 0.21 0.24 0.26 0.33 0.34 0.34 0.38 0.46 0.52 0.47 0.45 0.45 0.36 0.30 0.44 0.68 0.76 0.67 0.53 0.35 0.21 0.10 0.04 0.03 0.02 0.02 0.04 0.03 0.02 0.02 0.07 0.05 0.03 0.03 0.03 0.02 0.01 0.01 0.03 0.04 0.03 0.03
0.09 0.10 0.18 0.17 0.17 0.16 0.16 0.22 0.31 0.33 0.26 0.33 0.40 0.20 0.15 0.11 0.10 0.09 0.17 0.28 0.30 0.25 0.22 0.15 0.09 0.05 0.02 0.01 0.02 0.02 0.01 0.02 0.06 0.05 0.04 0.03 0.03 0.02 0.01 0.01 0.02 0.02 0.03
0.13 0.11 0.09 0.17 0.19 0.24 0.23 0.19 0.18 0.18 0.18 0.28 0.30 0.27 0.15 0.06 0.04 0.05 0.08 0.08 0.09 0.14 0.16 0.13 0.14 0.09 0.05 0.01 0.00 0.00 0.02 0.02 0.03 0.10 0.09 0.07 0.08 0.05 0.03 0.04 0.03 0.03 0.03
0.27 0.35 0.27 0.22 0.22 0.25 0.22 0.20 0.18 0.19 0.17 0.19 0.22 0.20 0.10 0.04 0.01 0.03 0.04 0.03 0.03 0.04 0.04 0.07 0.09 0.10 0.10 0.07 0.03 0.01 0.01 0.01 0.01 0.08 0.16 0.12 0.15 0.08 0.06 0.10 0.07 0.05 0.03
0.32 0.58 0.70 0.46 0.40 0.47 0.38 0.37 0.33 0.30 0.35 0.20 0.30 0.30 0.24 0.13 0.05 0.01 0.01 0.02 0.05 0.04 0.05 0.09 0.07 0.04 0.02 0.02 0.04 0.05 0.05 0.09 0.01 0.01 0.11 0.19 0.15 0.14 0.13 0.13 0.11 0.08 0.08
0.52 0.42 0.52 0.83 0.74 0.91 0.98 0.71 0.55 0.52 0.54 0.47 0.42 0.39 0.37 0.37 0.30 0.20 0.11 0.04 0.04 0.03 0.04 0.07 0.09 0.07 0.09 0.12 0.11 0.11 0.13 0.13 0.02 0.01 0.04 0.18 0.27 0.24 0.21 0.23 0.24 0.22 0.19
0.79 0.69 0.99 1.03 1.20 1.06 0.93 1.19 1.16 1.05 0.89 0.61 0.51 0.54 0.44 0.29 0.23 0.23 0.20 0.12 0.10 0.07 0.08 0.07 0.07 0.07 0.09 0.11 0.10 0.09 0.07 0.06 0.02 0.00 0.03 0.18 0.31 0.38 0.43 0.36 0.32 0.28 0.28
0.95 0.94 0.63 0.98 1.11 1.21 1.38 1.16 1.12 1.11 1.13 1.26 1.10 0.94 0.79 0.50 0.34 0.26 0.21 0.12 0.07 0.05 0.03 0.02 0.03 0.07 0.11 0.09 0.07 0.07 0.06 0.06 0.05 0.01 0.08 0.19 0.31 0.42 0.45 0.45 0.44 0.41 0.40
0.49 0.47 0.45 0.43 0.50 0.60 0.71 0.89 0.90 0.83 0.80 0.83 0.84 0.85 0.78 0.65 0.46 0.38 0.37 0.34 0.28 0.11 0.03 0.01 0.02 0.02 0.01 0.02 0.04 0.08 0.07 0.07 0.05 0.03 0.06 0.20 0.18 0.20 0.31 0.38 0.43 0.57 0.64
0.16 0.24 0.28 0.34 0.40 0.42 0.49 0.61 0.67 0.61 0.52 0.47 0.48 0.57 0.64 0.54 0.47 0.51 0.60 0.71 0.83 0.69 0.30 0.06 0.05 0.04 0.04 0.05 0.10 0.13 0.09 0.10 0.08 0.05 0.05 0.08 0.14 0.14 0.16 0.22 0.28 0.34 0.48
0.06 0.07 0.11 0.20 0.32 0.37 0.42 0.61 0.73 0.68 0.64 0.59 0.52 0.48 0.45 0.43 0.43 0.45 0.50 0.58 0.67 0.72 0.54 0.14 0.05 0.08 0.14 0.24 0.27 0.24 0.15 0.19 0.14 0.12 0.09 0.06 0.06 0.10 0.12 0.13 0.17 0.19 0.22
0.07 0.07 0.09 0.13 0.18 0.21 0.27 0.31 0.30 0.37 0.56 0.65 0.72 0.79 0.67 0.59 0.64 0.64 0.65 0.68 0.75 0.85 0.94 0.46 0.26 0.29 0.34 0.32 0.33 0.37 0.31 0.23 0.16 0.16 0.10 0.09 0.10 0.13 0.16 0.20 0.21 0.21 0.19
0.00 0.00 0.01 0.03 0.05 0.07 0.10 0.16 0.23 0.28 0.31 0.37 0.42 0.51 0.57 0.65 0.70 0.63 0.66 0.70 0.75 0.78 0.90 0.67 0.34 0.34 0.39 0.41 0.47 0.53 0.54 0.52 0.46 0.52 0.46 0.33 0.23 0.16 0.16 0.17 0.17 0.18 0.17
0.00 0.00 0.00 0.00 0.00 0.00 0.00 0.01 0.04 0.11 0.23 0.35 0.43 0.43 0.36 0.44 0.50 0.61 0.73 0.79 0.79 0.85 0.96 0.94 0.63 0.52 0.51 0.53 0.65 0.73 0.69 0.69 0.65 0.76 0.68 0.57 0.56 0.51 0.40 0.34 0.30 0.23 0.16
0.00 0.00 0.00 0.00 0.00 0.00 0.00 0.00 0.00 0.00 0.00 0.02 0.07 0.17 0.27 0.40 0.43 0.48 0.55 0.53 0.58 0.67 0.68 0.72 0.59 0.44 0.36 0.36 0.50 0.50 0.47 0.45 0.46 0.53 0.59 0.51 0.52 0.51 0.48 0.45 0.43 0.43 0.40
0.00 0.00 0.00 0.00 0.00 0.00 0.00 0.00 0.00 0.00 0.00 0.00 0.00 0.00 0.00 0.02 0.06 0.10 0.17 0.23 0.39 0.55 0.66 0.68 0.66 0.53 0.40 0.30 0.25 0.23 0.29 0.28 0.32 0.32 0.31 0.32 0.31 0.26 0.23 0.26 0.25 0.32 0.38
0.00 0.00 0.00 0.00 0.00 0.00 0.00 0.00 0.00 0.00 0.00 0.00 0.00 0.00 0.00 0.00 0.01 0.02 0.06 0.07 0.07 0.13 0.30 0.46 0.57 0.62 0.54 0.49 0.55 0.58 0.55 0.51 0.41 0.19 0.15 0.11 0.12 0.11 0.13 0.19 0.30 0.31 0.28
0.00 0.00 0.00 0.00 0.00 0.00 0.00 0.00 0.00 0.00 0.00 0.00 0.00 0.00 0.00 0.00 0.00 0.00 0.01 0.02 0.04 0.07 0.11 0.10 0.13 0.15 0.16 0.22 0.31 0.44 0.47 0.40 0.34 0.22 0.30 0.27 0.16 0.07 0.04 0.12 0.23 0.21 0.24
0.00 0.00 0.00 0.00 0.00 0.00 0.00 0.00 0.00 0.00 0.00 0.00 0.00 0.00 0.00 0.00 0.00 0.00 0.00 0.00 0.00 0.01 0.03 0.06 0.06 0.13 0.20 0.25 0.37 0.47 0.47 0.45 0.44 0.35 0.32 0.28 0.13 0.12 0.06 0.05 0.12 0.09 0.16
0.00 0.00 0.00 0.00 0.00 0.00 0.00 0.00 0.00 0.00 0.00 0.00 0.00 0.00 0.00 0.00 0.00 0.00 0.00 0.00 0.00 0.01 0.03 0.07 0.09 0.20 0.26 0.29 0.29 0.34 0.51 0.60 0.59 0.41 0.31 0.30 0.18 0.16 0.15 0.11 0.10 0.12 0.07
0.00 0.00 0.00 0.00 0.00 0.00 0.00 0.00 0.00 0.00 0.00 0.00 0.00 0.00 0.00 0.00 0.01 0.01 0.02 0.01 0.02 0.01 0.00 0.02 0.04 0.07 0.10 0.15 0.23 0.22 0.23 0.30 0.30 0.31 0.29 0.33 0.30 0.31 0.41 0.26 0.16 0.16 0.13

GFSMA_prec_precacc24_126.txt.gz
Total_Precipitation_Accumulation
0.11 0.12 0.18 0.22 0.21 0.16 0.12 0.13 0.16 0.18 0.14 0.09 0.06 0.03 0.01 0.01 0.02 0.01 0.00 0.00 0.00 0.00 0.00 0.01 0.01 0.01 0.00 0.00 0.00 0.00 0.00 0.00 0.00 0.00 0.00 0.00 0.00 0.00 0.00 0.00 0.00 0.00 0.00
0.16 0.16 0.18 0.24 0.27 0.24 0.23 0.23 0.33 0.35 0.29 0.21 0.12 0.07 0.04 0.04 0.08 0.05 0.04 0.04 0.00 0.00 0.00 0.01 0.03 0.06 0.04 0.02 0.01 0.01 0.01 0.02 0.02 0.03 0.00 0.00 0.00 0.00 0.00 0.00 0.00 0.00 0.00
0.21 0.19 0.16 0.21 0.20 0.31 0.57 0.67 0.80 0.70 0.58 0.38 0.21 0.12 0.10 0.08 0.08 0.13 0.14 0.11 0.04 0.01 0.00 0.02 0.05 0.04 0.05 0.07 0.08 0.05 0.06 0.09 0.09 0.12 0.06 0.03 0.01 0.00 0.00 0.00 0.00 0.00 0.00
0.14 0.21 0.16 0.13 0.23 0.30 0.40 0.48 0.61 0.77 0.79 0.72 0.47 0.29 0.24 0.21 0.18 0.17 0.16 0.11 0.07 0.03 0.01 0.01 0.05 0.08 0.05 0.03 0.05 0.07 0.13 0.10 0.06 0.06 0.04 0.06 0.05 0.03 0.01 0.00 0.00 0.00 0.00
0.14 0.17 0.18 0.23 0.28 0.29 0.31 0.33 0.53 0.64 0.74 0.66 0.55 0.62 0.80 0.79 0.55 0.40 0.25 0.15 0.10 0.07 0.04 0.01 0.02 0.09 0.11 0.11 0.06 0.06 0.12 0.15 0.08 0.07 0.06 0.05 0.03 0.02 0.01 0.02 0.03 0.03 0.02
0.12 0.17 0.18 0.22 0.30 0.31 0.31 0.35 0.42 0.51 0.50 0.49 0.54 0.48 0.43 0.53 0.74 0.80 0.70 0.59 0.40 0.26 0.17 0.12 0.12 0.12 0.12 0.12 0.11 0.08 0.09 0.14 0.12 0.07 0.06 0.08 0.05 0.03 0.02 0.04 0.05 0.04 0.04
0.08 0.07 0.10 0.11 0.14 0.15 0.16 0.21 0.29 0.31 0.25 0.34 0.46 0.25 0.19 0.13 0.11 0.11 0.19 0.29 0.31 0.27 0.24 0.22 0.23 0.23 0.24 0.23 0.19 0.14 0.08 0.07 0.10 0.09 0.08 0.06 0.06 0.04 0.02 0.04 0.05 0.04 0.04
0.12 0.11 0.05 0.07 0.10 0.18 0.20 0.16 0.18 0.18 0.19 0.30 0.36 0.33 0.18 0.08 0.05 0.06 0.09 0.10 0.12 0.15 0.16 0.16 0.19 0.19 0.19 0.23 0.21 0.17 0.13 0.10 0.09 0.16 0.14 0.13 0.12 0.08 0.04 0.06 0.06 0.06 0.04
0.26 0.33 0.26 0.19 0.16 0.18 0.18 0.18 0.18 0.20 0.18 0.21 0.27 0.32 0.20 0.09 0.03 0.04 0.04 0.04 0.04 0.05 0.04 0.07 0.09 0.12 0.15 0.17 0.16 0.18 0.17 0.13 0.08 0.12 0.21 0.17 0.19 0.11 0.08 0.12 0.10 0.07 0.04
0.32 0.56 0.67 0.44 0.38 0.43 0.34 0.35 0.32 0.31 0.38 0.23 0.34 0.34 0.34 0.20 0.08 0.03 0.01 0.02 0.05 0.04 0.05 0.09 0.07 0.06 0.07 0.10 0.19 0.28 0.29 0.31 0.21 0.13 0.18 0.26 0.21 0.16 0.16 0.16 0.14 0.12 0.10
0.52 0.41 0.47 0.72 0.66 0.86 0.94 0.69 0.53 0.50 0.55 0.50 0.47 0.46 0.46 0.51 0.45 0.31 0.19 0.08 0.07 0.05 0.07 0.10 0.12 0.09 0.09 0.14 0.16 0.16 0.19 0.18 0.08 0.04 0.08 0.22 0.31 0.31 0.29 0.28 0.28 0.25 0.20
0.79 0.69 0.98 0.90 0.95 0.86 0.86 1.16 1.12 1.01 0.86 0.58 0.53 0.53 0.49 0.37 0.31 0.36 0.32 0.19 0.14 0.12 0.14 0.15 0.12 0.13 0.16 0.16 0.16 0.14 0.11 0.08 0.03 0.01 0.05 0.19 0.32 0.42 0.51 0.44 0.37 0.33 0.31
0.95 0.94 0.62 0.93 0.99 1.00 1.13 0.99 1.03 1.04 1.07 1.21 1.06 0.89 0.81 0.76 0.72 0.61 0.49 0.31 0.18 0.11 0.07 0.07 0.05 0.09 0.14 0.11 0.08 0.08 0.08 0.08 0.07 0.02 0.08 0.18 0.31 0.42 0.47 0.48 0.48 0.47 0.45
0.46 0.43 0.41 0.38 0.46 0.52 0.57 0.63 0.73 0.76 0.74 0.78 0.80 0.82 0.80 0.71 0.65 0.71 0.82 0.86 0.69 0.27 0.09 0.06 0.04 0.02 0.02 0.02 0.03 0.07 0.06 0.06 0.06 0.04 0.06 0.20 0.18 0.20 0.31 0.39 0.44 0.59 0.67
0.11 0.09 0.10 0.12 0.15 0.20 0.26 0.31 0.35 0.43 0.42 0.40 0.42 0.47 0.56 0.56 0.56 0.60 0.72 0.86 0.94 0.77 0.36 0.12 0.09 0.04 0.04 0.04 0.07 0.10 0.08 0.09 0.08 0.05 0.06 0.09 0.14 0.14 0.16 0.22 0.28 0.34 0.49
0.02 0.03 0.04 0.04 0.04 0.08 0.10 0.14 0.24 0.34 0.43 0.44 0.41 0.38 0.37 0.37 0.38 0.41 0.46 0.54 0.67 0.73 0.52 0.12 0.05 0.06 0.09 0.13 0.13 0.15 0.12 0.19 0.14 0.12 0.09 0.06 0.06 0.10 0.12 0.13 0.17 0.19 0.22
0.01 0.01 0.00 0.02 0.04 0.05 0.06 0.10 0.13 0.11 0.17 0.32 0.50 0.57 0.49 0.46 0.49 0.53 0.57 0.61 0.62 0.66 0.72 0.28 0.16 0.18 0.21 0.18 0.21 0.30 0.29 0.22 0.15 0.16 0.10 0.09 0.10 0.13 0.16 0.20 0.21 0.21 0.20
0.00 0.00 0.00 0.00 0.00 0.01 0.01 0.02 0.04 0.05 0.11 0.18 0.24 0.33 0.37 0.43 0.47 0.48 0.56 0.62 0.66 0.65 0.72 0.51 0.20 0.19 0.23 0.23 0.27 0.40 0.47 0.48 0.46 0.52 0.46 0.33 0.23 0.17 0.16 0.17 0.17 0.18 0.18
0.00 0.00 0.00 0.00 0.00 0.00 0.00 0.00 0.00 0.00 0.03 0.08 0.15 0.22 0.25 0.31 0.34 0.40 0.57 0.68 0.72 0.79 0.90 0.89 0.56 0.47 0.46 0.45 0.56 0.65 0.64 0.66 0.64 0.76 0.68 0.57 0.56 0.51 0.40 0.34 0.30 0.23 0.16
0.00 0.00 0.00 0.00 0.00 0.00 0.00 0.00 0.00 0.00 0.00 0.00 0.00 0.02 0.06 0.15 0.26 0.37 0.43 0.41 0.46 0.56 0.61 0.67 0.54 0.37 0.32 0.33 0.48 0.47 0.45 0.45 0.46 0.53 0.59 0.51 0.52 0.51 0.48 0.45 0.44 0.43 0.40
0.00 0.00 0.00 0.00 0.00 0.00 0.00 0.00 0.00 0.00 0.00 0.00 0.00 0.00 0.00 0.00 0.00 0.03 0.12 0.18 0.25 0.33 0.43 0.48 0.39 0.26 0.18 0.15 0.16 0.20 0.26 0.25 0.31 0.32 0.31 0.32 0.31 0.26 0.23 0.26 0.25 0.32 0.39
0.00 0.00 0.00 0.00 0.00 0.00 0.00 0.00 0.00 0.00 0.00 0.00 0.00 0.00 0.00 0.00 0.00 0.00 0.00 0.01 0.02 0.05 0.09 0.16 0.24 0.27 0.25 0.26 0.35 0.44 0.46 0.46 0.40 0.19 0.15 0.11 0.12 0.11 0.13 0.19 0.30 0.33 0.30
0.00 0.00 0.00 0.00 0.00 0.00 0.00 0.00 0.00 0.00 0.00 0.00 0.00 0.00 0.00 0.00 0.00 0.00 0.00 0.00 0.00 0.02 0.05 0.06 0.07 0.06 0.08 0.12 0.19 0.32 0.41 0.39 0.34 0.22 0.30 0.28 0.16 0.07 0.04 0.12 0.23 0.22 0.28
0.00 0.00 0.00 0.00 0.00 0.00 0.00 0.00 0.00 0.00 0.00 0.00 0.00 0.00 0.00 0.00 0.00 0.00 0.00 0.00 0.00 0.00 0.01 0.03 0.03 0.04 0.05 0.07 0.17 0.27 0.31 0.36 0.42 0.35 0.32 0.28 0.13 0.12 0.06 0.05 0.12 0.10 0.17
0.00 0.00 0.00 0.00 0.00 0.00 0.00 0.00 0.00 0.00 0.00 0.00 0.00 0.00 0.00 0.00 0.00 0.00 0.00 0.00 0.00 0.00 0.00 0.01 0.03 0.08 0.11 0.10 0.10 0.16 0.33 0.48 0.50 0.37 0.31 0.30 0.18 0.16 0.15 0.11 0.10 0.12 0.07
0.00 0.00 0.00 0.00 0.00 0.00 0.00 0.00 0.00 0.00 0.00 0.00 0.00 0.00 0.00 0.00 0.00 0.01 0.02 0.01 0.01 0.00 0.00 0.01 0.02 0.03 0.02 0.04 0.08 0.09 0.11 0.19 0.24 0.31 0.29 0.33 0.30 0.31 0.41 0.26 0.16 0.16 0.13

GFSMA_prec_precacc24_129.txt.gz
Total_Precipitation_Accumulation
0.05 0.05 0.09 0.13 0.17 0.14 0.11 0.13 0.16 0.18 0.14 0.09 0.08 0.07 0.04 0.03 0.02 0.01 0.00 0.01 0.01 0.00 0.00 0.01 0.02 0.03 0.01 0.00 0.00 0.00 0.00 0.00 0.00 0.00 0.00 0.00 0.00 0.00 0.00 0.00 0.00 0.00 0.00
0.13 0.14 0.14 0.15 0.14 0.16 0.19 0.22 0.33 0.35 0.30 0.21 0.13 0.08 0.06 0.06 0.11 0.07 0.05 0.07 0.05 0.02 0.01 0.02 0.03 0.09 0.09 0.04 0.02 0.01 0.01 0.01 0.01 0.02 0.00 0.00 0.00 0.00 0.00 0.00 0.00 0.00 0.00
0.20 0.18 0.15 0.20 0.17 0.27 0.52 0.62 0.76 0.69 0.58 0.39 0.21 0.13 0.13 0.11 0.10 0.16 0.17 0.13 0.09 0.07 0.04 0.03 0.06 0.05 0.08 0.12 0.13 0.08 0.05 0.07 0.08 0.09 0.05 0.03 0.01 0.00 0.00 0.00 0.00 0.00 0.00
0.14 0.21 0.16 0.13 0.22 0.30 0.39 0.42 0.48 0.65 0.77 0.72 0.47 0.31 0.28 0.26 0.23 0.20 0.20 0.13 0.10 0.07 0.08 0.04 0.07 0.09 0.06 0.05 0.09 0.11 0.16 0.12 0.07 0.06 0.03 0.03 0.03 0.02 0.00 0.00 0.00 0.00 0.00
0.14 0.17 0.18 0.23 0.26 0.27 0.30 0.31 0.41 0.48 0.62 0.62 0.55 0.63 0.81 0.81 0.57 0.42 0.30 0.19 0.14 0.12 0.10 0.09 0.06 0.11 0.11 0.12 0.08 0.13 0.19 0.21 0.14 0.11 0.10 0.07 0.04 0.02 0.01 0.02 0.04 0.03 0.02
0.12 0.17 0.18 0.22 0.28 0.27 0.25 0.29 0.34 0.40 0.42 0.45 0.52 0.49 0.47 0.60 0.80 0.83 0.72 0.64 0.45 0.31 0.24 0.22 0.22 0.19 0.16 0.14 0.14 0.13 0.16 0.23 0.21 0.16 0.12 0.16 0.12 0.08 0.04 0.05 0.06 0.05 0.04
0.08 0.06 0.09 0.10 0.11 0.14 0.15 0.20 0.26 0.28 0.23 0.32 0.45 0.25 0.21 0.19 0.16 0.12 0.21 0.32 0.35 0.30 0.27 0.30 0.31 0.31 0.30 0.26 0.23 0.22 0.20 0.20 0.21 0.19 0.17 0.14 0.15 0.12 0.07 0.08 0.10 0.07 0.06
0.12 0.11 0.04 0.07 0.09 0.15 0.19 0.16 0.18 0.19 0.19 0.30 0.37 0.36 0.20 0.12 0.08 0.08 0.11 0.12 0.17 0.29 0.27 0.22 0.23 0.22 0.21 0.23 0.23 0.22 0.22 0.23 0.23 0.30 0.25 0.20 0.17 0.13 0.11 0.13 0.14 0.12 0.08
0.26 0.33 0.26 0.18 0.14 0.15 0.16 0.18 0.18 0.21 0.19 0.22 0.33 0.42 0.29 0.15 0.09 0.07 0.04 0.05 0.08 0.13 0.16 0.13 0.11 0.13 0.15 0.17 0.17 0.19 0.20 0.19 0.17 0.22 0.30 0.23 0.25 0.16 0.12 0.16 0.16 0.15 0.08
0.32 0.56 0.67 0.44 0.38 0.41 0.29 0.31 0.30 0.29 0.38 0.24 0.38 0.47 0.52 0.36 0.18 0.06 0.02 0.03 0.06 0.06 0.08 0.11 0.08 0.07 0.07 0.10 0.20 0.29 0.32 0.37 0.29 0.25 0.33 0.40 0.35 0.28 0.25 0.24 0.19 0.17 0.15
0.52 0.41 0.47 0.72 0.66 0.86 0.93 0.66 0.48 0.45 0.51 0.50 0.54 0.58 0.66 0.71 0.61 0.44 0.24 0.13 0.10 0.08 0.11 0.15 0.15 0.11 0.08 0.12 0.15 0.18 0.22 0.23 0.17 0.17 0.22 0.39 0.53 0.59 0.60 0.54 0.44 0.33 0.26
0.79 0.69 0.98 0.90 0.94 0.86 0.86 1.15 1.11 0.98 0.83 0.59 0.56 0.60 0.58 0.46 0.38 0.39 0.34 0.21 0.14 0.11 0.15 0.21 0.23 0.20 0.21 0.20 0.20 0.24 0.20 0.14 0.07 0.05 0.09 0.23 0.32 0.42 0.56 0.60 0.57 0.53 0.45
0.95 0.94 0.62 0.92 0.99 0.99 1.13 0.96 0.98 0.96 1.00 1.17 1.04 0.89 0.78 0.73 0.72 0.60 0.48 0.30 0.25 0.29 0.47 0.56 0.48 0.43 0.44 0.44 0.34 0.22 0.13 0.13 0.12 0.08 0.13 0.20 0.29 0.38 0.46 0.49 0.50 0.51 0.54
0.45 0.42 0.40 0.36 0.44 0.51 0.55 0.60 0.63 0.65 0.60 0.62 0.67 0.74 0.74 0.62 0.56 0.63 0.76 0.79 0.71 0.45 0.33 0.47 0.57 0.40 0.29 0.29 0.31 0.31 0.15 0.11 0.07 0.05 0.07 0.19 0.17 0.20 0.31 0.39 0.45 0.59 0.67
0.07 0.07 0.06 0.09 0.11 0.14 0.13 0.12 0.16 0.25 0.27 0.25 0.28 0.36 0.49 0.51 0.50 0.52 0.62 0.75 0.85 0.77 0.56 0.47 0.49 0.46 0.39 0.28 0.18 0.12 0.08 0.07 0.06 0.04 0.05 0.08 0.14 0.14 0.16 0.22 0.28 0.35 0.49
0.00 0.00 0.00 0.00 0.00 0.00 0.01 0.02 0.03 0.05 0.09 0.16 0.27 0.29 0.30 0.32 0.34 0.36 0.41 0.46 0.56 0.62 0.49 0.26 0.26 0.25 0.23 0.23 0.18 0.16 0.08 0.09 0.08 0.09 0.07 0.06 0.06 0.10 0.12 0.13 0.17 0.20 0.23
0.00 0.00 0.00 0.00 0.00 0.00 0.00 0.02 0.02 0.01 0.02 0.02 0.05 0.16 0.28 0.38 0.45 0.47 0.50 0.52 0.54 0.57 0.61 0.25 0.19 0.21 0.23 0.20 0.18 0.20 0.19 0.14 0.09 0.13 0.09 0.09 0.10 0.13 0.16 0.20 0.21 0.22 0.20
0.00 0.00 0.00 0.00 0.00 0.00 0.00 0.00 0.00 0.01 0.01 0.01 0.03 0.07 0.11 0.20 0.28 0.33 0.42 0.48 0.51 0.52 0.58 0.39 0.17 0.17 0.19 0.18 0.20 0.26 0.30 0.36 0.38 0.47 0.44 0.32 0.23 0.17 0.16 0.17 0.17 0.18 0.18
0.00 0.00 0.00 0.00 0.00 0.00 0.00 0.00 0.00 0.00 0.00 0.00 0.01 0.02 0.04 0.08 0.14 0.23 0.32 0.41 0.47 0.51 0.59 0.62 0.44 0.41 0.41 0.38 0.46 0.51 0.48 0.51 0.55 0.69 0.65 0.56 0.56 0.51 0.40 0.34 0.30 0.23 0.16
0.00 0.00 0.00 0.00 0.00 0.00 0.00 0.00 0.00 0.00 0.00 0.00 0.00 0.00 0.00 0.01 0.02 0.05 0.09 0.13 0.19 0.28 0.34 0.44 0.40 0.31 0.26 0.27 0.40 0.41 0.37 0.39 0.41 0.48 0.57 0.51 0.52 0.51 0.48 0.45 0.44 0.43 0.40
0.00 0.00 0.00 0.00 0.00 0.00 0.00 0.00 0.00 0.00 0.00 0.00 0.00 0.00 0.00 0.00 0.00 0.00 0.00 0.01 0.03 0.10 0.14 0.17 0.16 0.12 0.10 0.09 0.11 0.16 0.21 0.20 0.24 0.29 0.30 0.31 0.31 0.26 0.23 0.25 0.25 0.32 0.39
0.00 0.00 0.00 0.00 0.00 0.00 0.00 0.00 0.00 0.00 0.00 0.00 0.00 0.00 0.00 0.00 0.00 0.00 0.00 0.00 0.00 0.01 0.03 0.05 0.05 0.05 0.04 0.06 0.10 0.15 0.16 0.16 0.16 0.12 0.13 0.11 0.12 0.11 0.13 0.19 0.30 0.33 0.30
0.00 0.00 0.00 0.00 0.00 0.00 0.00 0.00 0.00 0.00 0.00 0.00 0.00 0.00 0.00 0.00 0.00 0.00 0.00 0.00 0.00 0.00 0.01 0.02 0.05 0.03 0.03 0.04 0.09 0.16 0.20 0.16 0.15 0.09 0.16 0.20 0.15 0.07 0.04 0.12 0.23 0.22 0.28
0.00 0.00 0.00 0.00 0.00 0.00 0.00 0.00 0.00 0.00 0.00 0.00 0.00 0.00 0.00 0.00 0.00 0.00 0.00 0.00 0.00 0.00 0.00 0.00 0.01 0.03 0.03 0.03 0.06 0.12 0.15 0.20 0.27 0.23 0.20 0.22 0.12 0.11 0.06 0.05 0.12 0.10 0.17
0.00 0.00 0.00 0.00 0.00 0.00 0.00 0.00 0.00 0.00 0.00 0.00 0.00 0.00 0.00 0.00 0.00 0.00 0.00 0.00 0.00 0.00 0.00 0.00 0.00 0.01 0.04 0.07 0.06 0.08 0.17 0.26 0.27 0.19 0.17 0.20 0.13 0.16 0.15 0.11 0.10 0.12 0.07
0.00 0.00 0.00 0.00 0.00 0.00 0.00 0.00 0.00 0.00 0.00 0.00 0.00 0.00 0.00 0.00 0.00 0.00 0.01 0.01 0.02 0.00 0.00 0.00 0.00 0.00 0.00 0.01 0.04 0.05 0.05 0.08 0.09 0.12 0.12 0.18 0.20 0.27 0.40 0.26 0.16 0.16 0.13